<?xml version="1.0" encoding="UTF-8" standalone="no" ?>
<gpx xmlns="http://www.topografix.com/GPX/1/1" xmlns:xsi="http://www.w3.org/2001/XMLSchema-instance" xsi:schemaLocation="http://www.topografix.com/GPX/1/1 http://www.topografix.com/GPX/1/1/gpx.xsd" version="1.1" creator="VisuGPX - https://www.visugpx.com">
  <metadata>
    <name>VTT - Peira-Cava / Le Suquet</name>
    <desc><![CDATA[VTT - Peira-Cava / Le Suquet
Relevé terrain:   1 730 m / 43 KM

CR ASCVTT ici: <>]]></desc>
  </metadata>
  <trk>
    <name><![CDATA[2014-10-18T06:54:54Z]]></name>
    <trkseg>
      <trkpt lat="43.94303" lon="7.28294">
        <ele>335.16</ele>
        <time>2014-10-18T06:54:54Z</time>
      </trkpt>
      <trkpt lat="43.94301" lon="7.28298">
        <ele>335.949</ele>
        <time>2014-10-18T06:55:16Z</time>
      </trkpt>
      <trkpt lat="43.94308" lon="7.28288">
        <ele>335.872</ele>
        <time>2014-10-18T06:55:23Z</time>
      </trkpt>
      <trkpt lat="43.94313" lon="7.28282">
        <ele>337.504</ele>
        <time>2014-10-18T06:55:27Z</time>
      </trkpt>
      <trkpt lat="43.94323" lon="7.28278">
        <ele>340.67</ele>
        <time>2014-10-18T06:55:31Z</time>
      </trkpt>
      <trkpt lat="43.94327" lon="7.28279">
        <ele>342.264</ele>
        <time>2014-10-18T06:55:32Z</time>
      </trkpt>
      <trkpt lat="43.94338" lon="7.28287">
        <ele>354.054</ele>
        <time>2014-10-18T06:55:39Z</time>
      </trkpt>
      <trkpt lat="43.94354" lon="7.28294">
        <ele>357.165</ele>
        <time>2014-10-18T06:55:44Z</time>
      </trkpt>
      <trkpt lat="43.94377" lon="7.28304">
        <ele>356.601</ele>
        <time>2014-10-18T06:55:51Z</time>
      </trkpt>
      <trkpt lat="43.94395" lon="7.28312">
        <ele>353.542</ele>
        <time>2014-10-18T06:55:56Z</time>
      </trkpt>
      <trkpt lat="43.94425" lon="7.28326">
        <ele>352.535</ele>
        <time>2014-10-18T06:56:04Z</time>
      </trkpt>
      <trkpt lat="43.94448" lon="7.28338">
        <ele>353.997</ele>
        <time>2014-10-18T06:56:10Z</time>
      </trkpt>
      <trkpt lat="43.94471" lon="7.28349">
        <ele>358.496</ele>
        <time>2014-10-18T06:56:17Z</time>
      </trkpt>
      <trkpt lat="43.94493" lon="7.28358">
        <ele>356.866</ele>
        <time>2014-10-18T06:56:23Z</time>
      </trkpt>
      <trkpt lat="43.94524" lon="7.28371">
        <ele>353.71</ele>
        <time>2014-10-18T06:56:31Z</time>
      </trkpt>
      <trkpt lat="43.94542" lon="7.28378">
        <ele>355.183</ele>
        <time>2014-10-18T06:56:36Z</time>
      </trkpt>
      <trkpt lat="43.94559" lon="7.28387">
        <ele>354.744</ele>
        <time>2014-10-18T06:56:41Z</time>
      </trkpt>
      <trkpt lat="43.94582" lon="7.284">
        <ele>362.027</ele>
        <time>2014-10-18T06:56:48Z</time>
      </trkpt>
      <trkpt lat="43.94601" lon="7.28407">
        <ele>363.269</ele>
        <time>2014-10-18T06:56:53Z</time>
      </trkpt>
      <trkpt lat="43.94633" lon="7.28423">
        <ele>363.993</ele>
        <time>2014-10-18T06:57:01Z</time>
      </trkpt>
      <trkpt lat="43.94659" lon="7.28435">
        <ele>364.562</ele>
        <time>2014-10-18T06:57:08Z</time>
      </trkpt>
      <trkpt lat="43.94683" lon="7.28452">
        <ele>366.003</ele>
        <time>2014-10-18T06:57:15Z</time>
      </trkpt>
      <trkpt lat="43.94697" lon="7.2847">
        <ele>366.722</ele>
        <time>2014-10-18T06:57:20Z</time>
      </trkpt>
      <trkpt lat="43.9471" lon="7.28493">
        <ele>369.083</ele>
        <time>2014-10-18T06:57:26Z</time>
      </trkpt>
      <trkpt lat="43.94718" lon="7.28518">
        <ele>372.425</ele>
        <time>2014-10-18T06:57:32Z</time>
      </trkpt>
      <trkpt lat="43.94725" lon="7.28541">
        <ele>377.287</ele>
        <time>2014-10-18T06:57:38Z</time>
      </trkpt>
      <trkpt lat="43.94733" lon="7.28563">
        <ele>381.406</ele>
        <time>2014-10-18T06:57:44Z</time>
      </trkpt>
      <trkpt lat="43.9474" lon="7.28592">
        <ele>385.015</ele>
        <time>2014-10-18T06:57:50Z</time>
      </trkpt>
      <trkpt lat="43.94747" lon="7.28622">
        <ele>391.927</ele>
        <time>2014-10-18T06:57:57Z</time>
      </trkpt>
      <trkpt lat="43.94754" lon="7.28646">
        <ele>394.066</ele>
        <time>2014-10-18T06:58:02Z</time>
      </trkpt>
      <trkpt lat="43.94762" lon="7.28679">
        <ele>396.494</ele>
        <time>2014-10-18T06:58:09Z</time>
      </trkpt>
      <trkpt lat="43.94777" lon="7.28708">
        <ele>396.102</ele>
        <time>2014-10-18T06:58:17Z</time>
      </trkpt>
      <trkpt lat="43.94795" lon="7.28719">
        <ele>393.181</ele>
        <time>2014-10-18T06:58:23Z</time>
      </trkpt>
      <trkpt lat="43.9482" lon="7.28735">
        <ele>390.029</ele>
        <time>2014-10-18T06:58:31Z</time>
      </trkpt>
      <trkpt lat="43.94847" lon="7.28747">
        <ele>387.488</ele>
        <time>2014-10-18T06:58:39Z</time>
      </trkpt>
      <trkpt lat="43.94865" lon="7.2877">
        <ele>387.048</ele>
        <time>2014-10-18T06:58:46Z</time>
      </trkpt>
      <trkpt lat="43.94884" lon="7.28795">
        <ele>389.211</ele>
        <time>2014-10-18T06:58:54Z</time>
      </trkpt>
      <trkpt lat="43.94901" lon="7.28824">
        <ele>390.652</ele>
        <time>2014-10-18T06:59:02Z</time>
      </trkpt>
      <trkpt lat="43.94911" lon="7.28848">
        <ele>393.513</ele>
        <time>2014-10-18T06:59:08Z</time>
      </trkpt>
      <trkpt lat="43.94913" lon="7.28861">
        <ele>395.214</ele>
        <time>2014-10-18T06:59:11Z</time>
      </trkpt>
      <trkpt lat="43.94913" lon="7.28873">
        <ele>396.754</ele>
        <time>2014-10-18T06:59:13Z</time>
      </trkpt>
      <trkpt lat="43.94921" lon="7.2891">
        <ele>398.572</ele>
        <time>2014-10-18T06:59:20Z</time>
      </trkpt>
      <trkpt lat="43.94927" lon="7.28945">
        <ele>400.722</ele>
        <time>2014-10-18T06:59:28Z</time>
      </trkpt>
      <trkpt lat="43.94929" lon="7.28987">
        <ele>403.743</ele>
        <time>2014-10-18T06:59:37Z</time>
      </trkpt>
      <trkpt lat="43.94933" lon="7.29021">
        <ele>406.073</ele>
        <time>2014-10-18T06:59:45Z</time>
      </trkpt>
      <trkpt lat="43.94935" lon="7.29046">
        <ele>406.022</ele>
        <time>2014-10-18T06:59:51Z</time>
      </trkpt>
      <trkpt lat="43.94935" lon="7.29079">
        <ele>406.021</ele>
        <time>2014-10-18T07:00:00Z</time>
      </trkpt>
      <trkpt lat="43.94928" lon="7.29105">
        <ele>407.261</ele>
        <time>2014-10-18T07:00:07Z</time>
      </trkpt>
      <trkpt lat="43.94927" lon="7.29132">
        <ele>406.612</ele>
        <time>2014-10-18T07:00:13Z</time>
      </trkpt>
      <trkpt lat="43.94935" lon="7.29155">
        <ele>404.761</ele>
        <time>2014-10-18T07:00:19Z</time>
      </trkpt>
      <trkpt lat="43.94954" lon="7.29178">
        <ele>389.271</ele>
        <time>2014-10-18T07:00:26Z</time>
      </trkpt>
      <trkpt lat="43.94961" lon="7.29187">
        <ele>391.095</ele>
        <time>2014-10-18T07:00:30Z</time>
      </trkpt>
      <trkpt lat="43.9498" lon="7.29196">
        <ele>387.223</ele>
        <time>2014-10-18T07:00:36Z</time>
      </trkpt>
      <trkpt lat="43.95004" lon="7.292">
        <ele>388.229</ele>
        <time>2014-10-18T07:00:42Z</time>
      </trkpt>
      <trkpt lat="43.95025" lon="7.29202">
        <ele>390.296</ele>
        <time>2014-10-18T07:00:48Z</time>
      </trkpt>
      <trkpt lat="43.95033" lon="7.292">
        <ele>390.825</ele>
        <time>2014-10-18T07:00:52Z</time>
      </trkpt>
      <trkpt lat="43.95044" lon="7.29203">
        <ele>391.253</ele>
        <time>2014-10-18T07:00:58Z</time>
      </trkpt>
      <trkpt lat="43.95048" lon="7.29203">
        <ele>391.724</ele>
        <time>2014-10-18T07:01:01Z</time>
      </trkpt>
      <trkpt lat="43.95055" lon="7.2921">
        <ele>392.863</ele>
        <time>2014-10-18T07:01:09Z</time>
      </trkpt>
      <trkpt lat="43.95055" lon="7.2921">
        <ele>393.013</ele>
        <time>2014-10-18T07:01:10Z</time>
      </trkpt>
      <trkpt lat="43.95064" lon="7.29222">
        <ele>394.293</ele>
        <time>2014-10-18T07:01:16Z</time>
      </trkpt>
      <trkpt lat="43.9508" lon="7.29239">
        <ele>394.662</ele>
        <time>2014-10-18T07:01:22Z</time>
      </trkpt>
      <trkpt lat="43.95096" lon="7.29255">
        <ele>395.662</ele>
        <time>2014-10-18T07:01:28Z</time>
      </trkpt>
      <trkpt lat="43.95108" lon="7.29275">
        <ele>397.503</ele>
        <time>2014-10-18T07:01:35Z</time>
      </trkpt>
      <trkpt lat="43.95114" lon="7.29299">
        <ele>401.365</ele>
        <time>2014-10-18T07:01:42Z</time>
      </trkpt>
      <trkpt lat="43.95119" lon="7.29324">
        <ele>404.385</ele>
        <time>2014-10-18T07:01:48Z</time>
      </trkpt>
      <trkpt lat="43.95126" lon="7.29352">
        <ele>408.565</ele>
        <time>2014-10-18T07:01:56Z</time>
      </trkpt>
      <trkpt lat="43.95132" lon="7.29371">
        <ele>409.713</ele>
        <time>2014-10-18T07:02:01Z</time>
      </trkpt>
      <trkpt lat="43.95138" lon="7.294">
        <ele>413.324</ele>
        <time>2014-10-18T07:02:08Z</time>
      </trkpt>
      <trkpt lat="43.95146" lon="7.2942">
        <ele>414.373</ele>
        <time>2014-10-18T07:02:14Z</time>
      </trkpt>
      <trkpt lat="43.95162" lon="7.29436">
        <ele>414.782</ele>
        <time>2014-10-18T07:02:21Z</time>
      </trkpt>
      <trkpt lat="43.95181" lon="7.29446">
        <ele>414.821</ele>
        <time>2014-10-18T07:02:28Z</time>
      </trkpt>
      <trkpt lat="43.95204" lon="7.29472">
        <ele>415.622</ele>
        <time>2014-10-18T07:02:38Z</time>
      </trkpt>
      <trkpt lat="43.95212" lon="7.29495">
        <ele>417.911</ele>
        <time>2014-10-18T07:02:44Z</time>
      </trkpt>
      <trkpt lat="43.95222" lon="7.29521">
        <ele>419.722</ele>
        <time>2014-10-18T07:02:51Z</time>
      </trkpt>
      <trkpt lat="43.95236" lon="7.29532">
        <ele>419.132</ele>
        <time>2014-10-18T07:02:57Z</time>
      </trkpt>
      <trkpt lat="43.95254" lon="7.29542">
        <ele>418.441</ele>
        <time>2014-10-18T07:03:04Z</time>
      </trkpt>
      <trkpt lat="43.95275" lon="7.29548">
        <ele>417.591</ele>
        <time>2014-10-18T07:03:11Z</time>
      </trkpt>
      <trkpt lat="43.95302" lon="7.29558">
        <ele>415.691</ele>
        <time>2014-10-18T07:03:20Z</time>
      </trkpt>
      <trkpt lat="43.9532" lon="7.2957">
        <ele>417.873</ele>
        <time>2014-10-18T07:03:27Z</time>
      </trkpt>
      <trkpt lat="43.95333" lon="7.29576">
        <ele>416.312</ele>
        <time>2014-10-18T07:03:32Z</time>
      </trkpt>
      <trkpt lat="43.95356" lon="7.29583">
        <ele>413.911</ele>
        <time>2014-10-18T07:03:40Z</time>
      </trkpt>
      <trkpt lat="43.95373" lon="7.29589">
        <ele>418.125</ele>
        <time>2014-10-18T07:03:47Z</time>
      </trkpt>
      <trkpt lat="43.95388" lon="7.29599">
        <ele>419.264</ele>
        <time>2014-10-18T07:03:53Z</time>
      </trkpt>
      <trkpt lat="43.95398" lon="7.29616">
        <ele>424.335</ele>
        <time>2014-10-18T07:03:59Z</time>
      </trkpt>
      <trkpt lat="43.95411" lon="7.2964">
        <ele>426.853</ele>
        <time>2014-10-18T07:04:07Z</time>
      </trkpt>
      <trkpt lat="43.95425" lon="7.29666">
        <ele>427.883</ele>
        <time>2014-10-18T07:04:15Z</time>
      </trkpt>
      <trkpt lat="43.95436" lon="7.29688">
        <ele>432.385</ele>
        <time>2014-10-18T07:04:22Z</time>
      </trkpt>
      <trkpt lat="43.95448" lon="7.29718">
        <ele>434.343</ele>
        <time>2014-10-18T07:04:30Z</time>
      </trkpt>
      <trkpt lat="43.95461" lon="7.29746">
        <ele>438.313</ele>
        <time>2014-10-18T07:04:38Z</time>
      </trkpt>
      <trkpt lat="43.95476" lon="7.29763">
        <ele>439.703</ele>
        <time>2014-10-18T07:04:45Z</time>
      </trkpt>
      <trkpt lat="43.95493" lon="7.29766">
        <ele>437.752</ele>
        <time>2014-10-18T07:04:51Z</time>
      </trkpt>
      <trkpt lat="43.95512" lon="7.29763">
        <ele>435.421</ele>
        <time>2014-10-18T07:04:57Z</time>
      </trkpt>
      <trkpt lat="43.95527" lon="7.2976">
        <ele>434.571</ele>
        <time>2014-10-18T07:05:03Z</time>
      </trkpt>
      <trkpt lat="43.9555" lon="7.29758">
        <ele>429.65</ele>
        <time>2014-10-18T07:05:11Z</time>
      </trkpt>
      <trkpt lat="43.95572" lon="7.29762">
        <ele>426.76</ele>
        <time>2014-10-18T07:05:19Z</time>
      </trkpt>
      <trkpt lat="43.95595" lon="7.29771">
        <ele>424.831</ele>
        <time>2014-10-18T07:05:27Z</time>
      </trkpt>
      <trkpt lat="43.95611" lon="7.29777">
        <ele>423.071</ele>
        <time>2014-10-18T07:05:33Z</time>
      </trkpt>
      <trkpt lat="43.95628" lon="7.29787">
        <ele>422.863</ele>
        <time>2014-10-18T07:05:40Z</time>
      </trkpt>
      <trkpt lat="43.95643" lon="7.29798">
        <ele>425.555</ele>
        <time>2014-10-18T07:05:47Z</time>
      </trkpt>
      <trkpt lat="43.9566" lon="7.29815">
        <ele>429.456</ele>
        <time>2014-10-18T07:05:55Z</time>
      </trkpt>
      <trkpt lat="43.95674" lon="7.29838">
        <ele>430.974</ele>
        <time>2014-10-18T07:06:03Z</time>
      </trkpt>
      <trkpt lat="43.95686" lon="7.29856">
        <ele>433.874</ele>
        <time>2014-10-18T07:06:10Z</time>
      </trkpt>
      <trkpt lat="43.95702" lon="7.29877">
        <ele>437.124</ele>
        <time>2014-10-18T07:06:18Z</time>
      </trkpt>
      <trkpt lat="43.95719" lon="7.29903">
        <ele>437.913</ele>
        <time>2014-10-18T07:06:26Z</time>
      </trkpt>
      <trkpt lat="43.95742" lon="7.2992">
        <ele>436.923</ele>
        <time>2014-10-18T07:06:34Z</time>
      </trkpt>
      <trkpt lat="43.95765" lon="7.29922">
        <ele>434.238</ele>
        <time>2014-10-18T07:06:40Z</time>
      </trkpt>
      <trkpt lat="43.95795" lon="7.29921">
        <ele>432.311</ele>
        <time>2014-10-18T07:06:46Z</time>
      </trkpt>
      <trkpt lat="43.9582" lon="7.29937">
        <ele>430.97</ele>
        <time>2014-10-18T07:06:51Z</time>
      </trkpt>
      <trkpt lat="43.9583" lon="7.29954">
        <ele>431.761</ele>
        <time>2014-10-18T07:06:54Z</time>
      </trkpt>
      <trkpt lat="43.95834" lon="7.29966">
        <ele>434.523</ele>
        <time>2014-10-18T07:06:56Z</time>
      </trkpt>
      <trkpt lat="43.95845" lon="7.29994">
        <ele>438.385</ele>
        <time>2014-10-18T07:07:01Z</time>
      </trkpt>
      <trkpt lat="43.95859" lon="7.3004">
        <ele>443.066</ele>
        <time>2014-10-18T07:07:08Z</time>
      </trkpt>
      <trkpt lat="43.95865" lon="7.3006">
        <ele>445.477</ele>
        <time>2014-10-18T07:07:11Z</time>
      </trkpt>
      <trkpt lat="43.95874" lon="7.30111">
        <ele>449.777</ele>
        <time>2014-10-18T07:07:18Z</time>
      </trkpt>
      <trkpt lat="43.95881" lon="7.30172">
        <ele>454.858</ele>
        <time>2014-10-18T07:07:26Z</time>
      </trkpt>
      <trkpt lat="43.95887" lon="7.30224">
        <ele>457.596</ele>
        <time>2014-10-18T07:07:33Z</time>
      </trkpt>
      <trkpt lat="43.95889" lon="7.30238">
        <ele>457.726</ele>
        <time>2014-10-18T07:07:35Z</time>
      </trkpt>
      <trkpt lat="43.95892" lon="7.30249">
        <ele>459.236</ele>
        <time>2014-10-18T07:07:37Z</time>
      </trkpt>
      <trkpt lat="43.959" lon="7.30267">
        <ele>459.485</ele>
        <time>2014-10-18T07:07:40Z</time>
      </trkpt>
      <trkpt lat="43.95919" lon="7.30278">
        <ele>458.125</ele>
        <time>2014-10-18T07:07:44Z</time>
      </trkpt>
      <trkpt lat="43.95929" lon="7.30277">
        <ele>455.973</ele>
        <time>2014-10-18T07:07:46Z</time>
      </trkpt>
      <trkpt lat="43.95976" lon="7.30265">
        <ele>449.751</ele>
        <time>2014-10-18T07:07:55Z</time>
      </trkpt>
      <trkpt lat="43.96019" lon="7.30264">
        <ele>446.272</ele>
        <time>2014-10-18T07:08:03Z</time>
      </trkpt>
      <trkpt lat="43.96036" lon="7.30266">
        <ele>444.19</ele>
        <time>2014-10-18T07:08:06Z</time>
      </trkpt>
      <trkpt lat="43.96086" lon="7.30285">
        <ele>436.459</ele>
        <time>2014-10-18T07:08:15Z</time>
      </trkpt>
      <trkpt lat="43.96119" lon="7.30297">
        <ele>431.848</ele>
        <time>2014-10-18T07:08:21Z</time>
      </trkpt>
      <trkpt lat="43.96138" lon="7.30309">
        <ele>431.1</ele>
        <time>2014-10-18T07:08:25Z</time>
      </trkpt>
      <trkpt lat="43.96157" lon="7.30315">
        <ele>430.882</ele>
        <time>2014-10-18T07:08:29Z</time>
      </trkpt>
      <trkpt lat="43.96201" lon="7.30319">
        <ele>432.734</ele>
        <time>2014-10-18T07:08:38Z</time>
      </trkpt>
      <trkpt lat="43.96234" lon="7.30318">
        <ele>434.055</ele>
        <time>2014-10-18T07:08:45Z</time>
      </trkpt>
      <trkpt lat="43.96248" lon="7.30319">
        <ele>435.826</ele>
        <time>2014-10-18T07:08:48Z</time>
      </trkpt>
      <trkpt lat="43.96266" lon="7.3031">
        <ele>433.685</ele>
        <time>2014-10-18T07:08:52Z</time>
      </trkpt>
      <trkpt lat="43.96274" lon="7.30303">
        <ele>432.504</ele>
        <time>2014-10-18T07:08:54Z</time>
      </trkpt>
      <trkpt lat="43.963" lon="7.30273">
        <ele>426.782</ele>
        <time>2014-10-18T07:09:00Z</time>
      </trkpt>
      <trkpt lat="43.96327" lon="7.30245">
        <ele>423.122</ele>
        <time>2014-10-18T07:09:06Z</time>
      </trkpt>
      <trkpt lat="43.96336" lon="7.30237">
        <ele>422.191</ele>
        <time>2014-10-18T07:09:08Z</time>
      </trkpt>
      <trkpt lat="43.96373" lon="7.30217">
        <ele>418.004</ele>
        <time>2014-10-18T07:09:16Z</time>
      </trkpt>
      <trkpt lat="43.96401" lon="7.30208">
        <ele>414.753</ele>
        <time>2014-10-18T07:09:22Z</time>
      </trkpt>
      <trkpt lat="43.96425" lon="7.30211">
        <ele>414.234</ele>
        <time>2014-10-18T07:09:27Z</time>
      </trkpt>
      <trkpt lat="43.96466" lon="7.3023">
        <ele>414.886</ele>
        <time>2014-10-18T07:09:36Z</time>
      </trkpt>
      <trkpt lat="43.96501" lon="7.30251">
        <ele>417.016</ele>
        <time>2014-10-18T07:09:44Z</time>
      </trkpt>
      <trkpt lat="43.96542" lon="7.303">
        <ele>425.129</ele>
        <time>2014-10-18T07:09:56Z</time>
      </trkpt>
      <trkpt lat="43.96557" lon="7.30332">
        <ele>428.347</ele>
        <time>2014-10-18T07:10:02Z</time>
      </trkpt>
      <trkpt lat="43.96561" lon="7.30343">
        <ele>429.807</ele>
        <time>2014-10-18T07:10:04Z</time>
      </trkpt>
      <trkpt lat="43.96583" lon="7.30367">
        <ele>434.297</ele>
        <time>2014-10-18T07:10:11Z</time>
      </trkpt>
      <trkpt lat="43.9661" lon="7.30389">
        <ele>438.668</ele>
        <time>2014-10-18T07:10:19Z</time>
      </trkpt>
      <trkpt lat="43.96638" lon="7.30411">
        <ele>439.457</ele>
        <time>2014-10-18T07:10:27Z</time>
      </trkpt>
      <trkpt lat="43.9667" lon="7.30435">
        <ele>442.979</ele>
        <time>2014-10-18T07:10:36Z</time>
      </trkpt>
      <trkpt lat="43.96695" lon="7.30442">
        <ele>442.608</ele>
        <time>2014-10-18T07:10:42Z</time>
      </trkpt>
      <trkpt lat="43.96699" lon="7.30443">
        <ele>443.108</ele>
        <time>2014-10-18T07:10:43Z</time>
      </trkpt>
      <trkpt lat="43.96719" lon="7.30463">
        <ele>447.489</ele>
        <time>2014-10-18T07:10:49Z</time>
      </trkpt>
      <trkpt lat="43.96722" lon="7.30465">
        <ele>448.199</ele>
        <time>2014-10-18T07:10:50Z</time>
      </trkpt>
      <trkpt lat="43.96762" lon="7.30497">
        <ele>451.069</ele>
        <time>2014-10-18T07:11:00Z</time>
      </trkpt>
      <trkpt lat="43.96785" lon="7.30517">
        <ele>452.368</ele>
        <time>2014-10-18T07:11:06Z</time>
      </trkpt>
      <trkpt lat="43.9682" lon="7.30537">
        <ele>455.37</ele>
        <time>2014-10-18T07:11:15Z</time>
      </trkpt>
      <trkpt lat="43.96847" lon="7.3055">
        <ele>452.516</ele>
        <time>2014-10-18T07:11:21Z</time>
      </trkpt>
      <trkpt lat="43.96869" lon="7.30573">
        <ele>452.126</ele>
        <time>2014-10-18T07:11:27Z</time>
      </trkpt>
      <trkpt lat="43.96899" lon="7.30622">
        <ele>453.296</ele>
        <time>2014-10-18T07:11:37Z</time>
      </trkpt>
      <trkpt lat="43.96909" lon="7.30643">
        <ele>454.957</ele>
        <time>2014-10-18T07:11:41Z</time>
      </trkpt>
      <trkpt lat="43.96917" lon="7.30666">
        <ele>455.188</ele>
        <time>2014-10-18T07:11:45Z</time>
      </trkpt>
      <trkpt lat="43.96929" lon="7.30728">
        <ele>458.559</ele>
        <time>2014-10-18T07:11:55Z</time>
      </trkpt>
      <trkpt lat="43.9694" lon="7.30748">
        <ele>459.869</ele>
        <time>2014-10-18T07:11:59Z</time>
      </trkpt>
      <trkpt lat="43.9695" lon="7.30761">
        <ele>460.529</ele>
        <time>2014-10-18T07:12:02Z</time>
      </trkpt>
      <trkpt lat="43.96955" lon="7.30771">
        <ele>461.408</ele>
        <time>2014-10-18T07:12:04Z</time>
      </trkpt>
      <trkpt lat="43.96957" lon="7.30804">
        <ele>468.34</ele>
        <time>2014-10-18T07:12:10Z</time>
      </trkpt>
      <trkpt lat="43.96955" lon="7.3084">
        <ele>469.188</ele>
        <time>2014-10-18T07:12:15Z</time>
      </trkpt>
      <trkpt lat="43.96952" lon="7.30862">
        <ele>464.834</ele>
        <time>2014-10-18T07:12:19Z</time>
      </trkpt>
      <trkpt lat="43.96942" lon="7.30884">
        <ele>464.136</ele>
        <time>2014-10-18T07:12:23Z</time>
      </trkpt>
      <trkpt lat="43.96938" lon="7.30908">
        <ele>464.626</ele>
        <time>2014-10-18T07:12:27Z</time>
      </trkpt>
      <trkpt lat="43.96941" lon="7.30919">
        <ele>466.258</ele>
        <time>2014-10-18T07:12:29Z</time>
      </trkpt>
      <trkpt lat="43.96945" lon="7.30937">
        <ele>467.588</ele>
        <time>2014-10-18T07:12:32Z</time>
      </trkpt>
      <trkpt lat="43.96964" lon="7.30968">
        <ele>468.817</ele>
        <time>2014-10-18T07:12:39Z</time>
      </trkpt>
      <trkpt lat="43.96966" lon="7.30972">
        <ele>468.997</ele>
        <time>2014-10-18T07:12:40Z</time>
      </trkpt>
      <trkpt lat="43.96963" lon="7.30993">
        <ele>470.268</ele>
        <time>2014-10-18T07:12:45Z</time>
      </trkpt>
      <trkpt lat="43.96958" lon="7.3101">
        <ele>472.329</ele>
        <time>2014-10-18T07:12:49Z</time>
      </trkpt>
      <trkpt lat="43.96964" lon="7.31024">
        <ele>472.479</ele>
        <time>2014-10-18T07:12:52Z</time>
      </trkpt>
      <trkpt lat="43.96997" lon="7.31061">
        <ele>471.318</ele>
        <time>2014-10-18T07:13:02Z</time>
      </trkpt>
      <trkpt lat="43.97024" lon="7.31086">
        <ele>469.187</ele>
        <time>2014-10-18T07:13:09Z</time>
      </trkpt>
      <trkpt lat="43.97033" lon="7.31098">
        <ele>468.037</ele>
        <time>2014-10-18T07:13:12Z</time>
      </trkpt>
      <trkpt lat="43.97049" lon="7.31113">
        <ele>477.171</ele>
        <time>2014-10-18T07:13:17Z</time>
      </trkpt>
      <trkpt lat="43.97065" lon="7.31129">
        <ele>489.435</ele>
        <time>2014-10-18T07:13:22Z</time>
      </trkpt>
      <trkpt lat="43.97078" lon="7.31155">
        <ele>491.752</ele>
        <time>2014-10-18T07:13:27Z</time>
      </trkpt>
      <trkpt lat="43.97097" lon="7.31178">
        <ele>491.691</ele>
        <time>2014-10-18T07:13:32Z</time>
      </trkpt>
      <trkpt lat="43.97118" lon="7.31184">
        <ele>491.831</ele>
        <time>2014-10-18T07:13:35Z</time>
      </trkpt>
      <trkpt lat="43.97166" lon="7.31195">
        <ele>493.46</ele>
        <time>2014-10-18T07:13:42Z</time>
      </trkpt>
      <trkpt lat="43.97188" lon="7.31221">
        <ele>491.808</ele>
        <time>2014-10-18T07:13:48Z</time>
      </trkpt>
      <trkpt lat="43.9719" lon="7.31226">
        <ele>491.048</ele>
        <time>2014-10-18T07:13:49Z</time>
      </trkpt>
      <trkpt lat="43.97192" lon="7.31261">
        <ele>487.536</ele>
        <time>2014-10-18T07:13:54Z</time>
      </trkpt>
      <trkpt lat="43.97197" lon="7.3128">
        <ele>484.596</ele>
        <time>2014-10-18T07:13:57Z</time>
      </trkpt>
      <trkpt lat="43.97196" lon="7.31303">
        <ele>480.326</ele>
        <time>2014-10-18T07:14:00Z</time>
      </trkpt>
      <trkpt lat="43.97192" lon="7.31335">
        <ele>482.179</ele>
        <time>2014-10-18T07:14:05Z</time>
      </trkpt>
      <trkpt lat="43.97193" lon="7.31353">
        <ele>483.91</ele>
        <time>2014-10-18T07:14:08Z</time>
      </trkpt>
      <trkpt lat="43.97193" lon="7.31371">
        <ele>484.46</ele>
        <time>2014-10-18T07:14:11Z</time>
      </trkpt>
      <trkpt lat="43.97203" lon="7.31401">
        <ele>488.691</ele>
        <time>2014-10-18T07:14:17Z</time>
      </trkpt>
      <trkpt lat="43.97207" lon="7.31405">
        <ele>489.511</ele>
        <time>2014-10-18T07:14:18Z</time>
      </trkpt>
      <trkpt lat="43.97247" lon="7.31449">
        <ele>485.297</ele>
        <time>2014-10-18T07:14:29Z</time>
      </trkpt>
      <trkpt lat="43.97273" lon="7.31444">
        <ele>490</ele>
        <time>2014-10-18T07:14:34Z</time>
      </trkpt>
      <trkpt lat="43.97295" lon="7.31452">
        <ele>500.474</ele>
        <time>2014-10-18T07:14:40Z</time>
      </trkpt>
      <trkpt lat="43.97335" lon="7.31431">
        <ele>492.748</ele>
        <time>2014-10-18T07:14:47Z</time>
      </trkpt>
      <trkpt lat="43.97365" lon="7.31429">
        <ele>490.869</ele>
        <time>2014-10-18T07:14:53Z</time>
      </trkpt>
      <trkpt lat="43.97385" lon="7.31433">
        <ele>489.05</ele>
        <time>2014-10-18T07:14:58Z</time>
      </trkpt>
      <trkpt lat="43.97397" lon="7.31431">
        <ele>485.217</ele>
        <time>2014-10-18T07:15:04Z</time>
      </trkpt>
      <trkpt lat="43.97422" lon="7.31424">
        <ele>431.109</ele>
        <time>2014-10-18T07:17:13Z</time>
      </trkpt>
      <trkpt lat="43.9743" lon="7.31426">
        <ele>429.749</ele>
        <time>2014-10-18T07:17:17Z</time>
      </trkpt>
      <trkpt lat="43.97443" lon="7.31431">
        <ele>427.698</ele>
        <time>2014-10-18T07:17:23Z</time>
      </trkpt>
      <trkpt lat="43.97457" lon="7.31439">
        <ele>428.059</ele>
        <time>2014-10-18T07:17:30Z</time>
      </trkpt>
      <trkpt lat="43.97467" lon="7.31449">
        <ele>447.594</ele>
        <time>2014-10-18T07:17:38Z</time>
      </trkpt>
      <trkpt lat="43.97476" lon="7.31455">
        <ele>456.263</ele>
        <time>2014-10-18T07:17:45Z</time>
      </trkpt>
      <trkpt lat="43.97489" lon="7.31455">
        <ele>453.64</ele>
        <time>2014-10-18T07:17:51Z</time>
      </trkpt>
      <trkpt lat="43.97489" lon="7.3146">
        <ele>458.643</ele>
        <time>2014-10-18T07:17:56Z</time>
      </trkpt>
      <trkpt lat="43.97496" lon="7.31467">
        <ele>464.004</ele>
        <time>2014-10-18T07:18:01Z</time>
      </trkpt>
      <trkpt lat="43.97505" lon="7.31477">
        <ele>466.412</ele>
        <time>2014-10-18T07:18:08Z</time>
      </trkpt>
      <trkpt lat="43.97514" lon="7.31487">
        <ele>471.282</ele>
        <time>2014-10-18T07:18:15Z</time>
      </trkpt>
      <trkpt lat="43.97524" lon="7.31497">
        <ele>472.681</ele>
        <time>2014-10-18T07:18:22Z</time>
      </trkpt>
      <trkpt lat="43.97528" lon="7.31505">
        <ele>477.321</ele>
        <time>2014-10-18T07:18:28Z</time>
      </trkpt>
      <trkpt lat="43.97527" lon="7.3151">
        <ele>478.931</ele>
        <time>2014-10-18T07:18:33Z</time>
      </trkpt>
      <trkpt lat="43.97527" lon="7.31519">
        <ele>479.151</ele>
        <time>2014-10-18T07:18:40Z</time>
      </trkpt>
      <trkpt lat="43.97526" lon="7.31523">
        <ele>482.872</ele>
        <time>2014-10-18T07:18:45Z</time>
      </trkpt>
      <trkpt lat="43.97526" lon="7.31525">
        <ele>483.382</ele>
        <time>2014-10-18T07:18:46Z</time>
      </trkpt>
      <trkpt lat="43.97525" lon="7.31535">
        <ele>488.592</ele>
        <time>2014-10-18T07:18:55Z</time>
      </trkpt>
      <trkpt lat="43.97524" lon="7.31543">
        <ele>490.651</ele>
        <time>2014-10-18T07:19:01Z</time>
      </trkpt>
      <trkpt lat="43.97524" lon="7.31549">
        <ele>493.442</ele>
        <time>2014-10-18T07:19:07Z</time>
      </trkpt>
      <trkpt lat="43.97524" lon="7.31552">
        <ele>496.552</ele>
        <time>2014-10-18T07:19:15Z</time>
      </trkpt>
      <trkpt lat="43.97525" lon="7.31563">
        <ele>498.062</ele>
        <time>2014-10-18T07:19:20Z</time>
      </trkpt>
      <trkpt lat="43.97529" lon="7.31577">
        <ele>501.133</ele>
        <time>2014-10-18T07:19:26Z</time>
      </trkpt>
      <trkpt lat="43.97535" lon="7.31594">
        <ele>501.09</ele>
        <time>2014-10-18T07:19:33Z</time>
      </trkpt>
      <trkpt lat="43.97544" lon="7.31612">
        <ele>506.081</ele>
        <time>2014-10-18T07:19:42Z</time>
      </trkpt>
      <trkpt lat="43.97549" lon="7.31623">
        <ele>509.121</ele>
        <time>2014-10-18T07:19:48Z</time>
      </trkpt>
      <trkpt lat="43.9755" lon="7.31625">
        <ele>509.512</ele>
        <time>2014-10-18T07:19:49Z</time>
      </trkpt>
      <trkpt lat="43.97554" lon="7.31629">
        <ele>515.195</ele>
        <time>2014-10-18T07:19:53Z</time>
      </trkpt>
      <trkpt lat="43.97559" lon="7.31637">
        <ele>513.391</ele>
        <time>2014-10-18T07:19:58Z</time>
      </trkpt>
      <trkpt lat="43.9757" lon="7.31646">
        <ele>511.66</ele>
        <time>2014-10-18T07:20:05Z</time>
      </trkpt>
      <trkpt lat="43.97572" lon="7.31649">
        <ele>510.438</ele>
        <time>2014-10-18T07:20:10Z</time>
      </trkpt>
      <trkpt lat="43.97577" lon="7.31653">
        <ele>511.689</ele>
        <time>2014-10-18T07:20:18Z</time>
      </trkpt>
      <trkpt lat="43.97579" lon="7.31654">
        <ele>514.351</ele>
        <time>2014-10-18T07:20:20Z</time>
      </trkpt>
      <trkpt lat="43.97585" lon="7.31658">
        <ele>516.521</ele>
        <time>2014-10-18T07:20:27Z</time>
      </trkpt>
      <trkpt lat="43.97591" lon="7.31658">
        <ele>518.852</ele>
        <time>2014-10-18T07:20:32Z</time>
      </trkpt>
      <trkpt lat="43.97594" lon="7.3166">
        <ele>522.754</ele>
        <time>2014-10-18T07:20:36Z</time>
      </trkpt>
      <trkpt lat="43.97594" lon="7.31664">
        <ele>524.374</ele>
        <time>2014-10-18T07:20:39Z</time>
      </trkpt>
      <trkpt lat="43.97596" lon="7.31673">
        <ele>524.432</ele>
        <time>2014-10-18T07:20:46Z</time>
      </trkpt>
      <trkpt lat="43.97596" lon="7.31677">
        <ele>529.104</ele>
        <time>2014-10-18T07:20:53Z</time>
      </trkpt>
      <trkpt lat="43.97597" lon="7.31677">
        <ele>531.745</ele>
        <time>2014-10-18T07:20:55Z</time>
      </trkpt>
      <trkpt lat="43.97601" lon="7.31683">
        <ele>530.58</ele>
        <time>2014-10-18T07:21:01Z</time>
      </trkpt>
      <trkpt lat="43.97608" lon="7.31686">
        <ele>528.717</ele>
        <time>2014-10-18T07:21:10Z</time>
      </trkpt>
      <trkpt lat="43.97615" lon="7.3169">
        <ele>524.015</ele>
        <time>2014-10-18T07:21:20Z</time>
      </trkpt>
      <trkpt lat="43.9762" lon="7.31693">
        <ele>521.325</ele>
        <time>2014-10-18T07:21:27Z</time>
      </trkpt>
      <trkpt lat="43.97623" lon="7.31695">
        <ele>519.755</ele>
        <time>2014-10-18T07:21:32Z</time>
      </trkpt>
      <trkpt lat="43.97634" lon="7.31699">
        <ele>505.451</ele>
        <time>2014-10-18T07:24:21Z</time>
      </trkpt>
      <trkpt lat="43.97645" lon="7.31708">
        <ele>509.633</ele>
        <time>2014-10-18T07:24:29Z</time>
      </trkpt>
      <trkpt lat="43.97654" lon="7.31719">
        <ele>513.072</ele>
        <time>2014-10-18T07:24:36Z</time>
      </trkpt>
      <trkpt lat="43.97663" lon="7.31726">
        <ele>517.033</ele>
        <time>2014-10-18T07:24:43Z</time>
      </trkpt>
      <trkpt lat="43.97673" lon="7.31743">
        <ele>521.722</ele>
        <time>2014-10-18T07:24:53Z</time>
      </trkpt>
      <trkpt lat="43.97681" lon="7.31748">
        <ele>522.741</ele>
        <time>2014-10-18T07:24:59Z</time>
      </trkpt>
      <trkpt lat="43.97683" lon="7.3175">
        <ele>524.341</ele>
        <time>2014-10-18T07:25:02Z</time>
      </trkpt>
      <trkpt lat="43.97675" lon="7.31747">
        <ele>527.862</ele>
        <time>2014-10-18T07:25:08Z</time>
      </trkpt>
      <trkpt lat="43.97664" lon="7.3174">
        <ele>530.811</ele>
        <time>2014-10-18T07:25:14Z</time>
      </trkpt>
      <trkpt lat="43.97655" lon="7.31738">
        <ele>528.401</ele>
        <time>2014-10-18T07:25:20Z</time>
      </trkpt>
      <trkpt lat="43.9765" lon="7.31731">
        <ele>530.372</ele>
        <time>2014-10-18T07:25:25Z</time>
      </trkpt>
      <trkpt lat="43.97638" lon="7.31729">
        <ele>527.45</ele>
        <time>2014-10-18T07:25:33Z</time>
      </trkpt>
      <trkpt lat="43.97626" lon="7.31727">
        <ele>521.738</ele>
        <time>2014-10-18T07:25:40Z</time>
      </trkpt>
      <trkpt lat="43.97617" lon="7.31726">
        <ele>519.138</ele>
        <time>2014-10-18T07:25:46Z</time>
      </trkpt>
      <trkpt lat="43.97609" lon="7.31727">
        <ele>518.648</ele>
        <time>2014-10-18T07:25:51Z</time>
      </trkpt>
      <trkpt lat="43.976" lon="7.31725">
        <ele>513.826</ele>
        <time>2014-10-18T07:25:58Z</time>
      </trkpt>
      <trkpt lat="43.97587" lon="7.31727">
        <ele>515.31</ele>
        <time>2014-10-18T07:26:05Z</time>
      </trkpt>
      <trkpt lat="43.97572" lon="7.31734">
        <ele>515.289</ele>
        <time>2014-10-18T07:26:13Z</time>
      </trkpt>
      <trkpt lat="43.97557" lon="7.31736">
        <ele>520.063</ele>
        <time>2014-10-18T07:26:21Z</time>
      </trkpt>
      <trkpt lat="43.97539" lon="7.31743">
        <ele>525.213</ele>
        <time>2014-10-18T07:26:30Z</time>
      </trkpt>
      <trkpt lat="43.97535" lon="7.31741">
        <ele>524.092</ele>
        <time>2014-10-18T07:26:34Z</time>
      </trkpt>
      <trkpt lat="43.97523" lon="7.31738">
        <ele>522.511</ele>
        <time>2014-10-18T07:26:41Z</time>
      </trkpt>
      <trkpt lat="43.9751" lon="7.3173">
        <ele>527.526</ele>
        <time>2014-10-18T07:26:48Z</time>
      </trkpt>
      <trkpt lat="43.97493" lon="7.3173">
        <ele>526.681</ele>
        <time>2014-10-18T07:26:55Z</time>
      </trkpt>
      <trkpt lat="43.97477" lon="7.31731">
        <ele>525.14</ele>
        <time>2014-10-18T07:27:03Z</time>
      </trkpt>
      <trkpt lat="43.97458" lon="7.31734">
        <ele>526.621</ele>
        <time>2014-10-18T07:27:12Z</time>
      </trkpt>
      <trkpt lat="43.97442" lon="7.31742">
        <ele>527.991</ele>
        <time>2014-10-18T07:27:20Z</time>
      </trkpt>
      <trkpt lat="43.9743" lon="7.31747">
        <ele>528.241</ele>
        <time>2014-10-18T07:27:27Z</time>
      </trkpt>
      <trkpt lat="43.97424" lon="7.31753">
        <ele>528.9</ele>
        <time>2014-10-18T07:27:32Z</time>
      </trkpt>
      <trkpt lat="43.97428" lon="7.31761">
        <ele>529.911</ele>
        <time>2014-10-18T07:27:38Z</time>
      </trkpt>
      <trkpt lat="43.97434" lon="7.3176">
        <ele>533.973</ele>
        <time>2014-10-18T07:27:42Z</time>
      </trkpt>
      <trkpt lat="43.97444" lon="7.31758">
        <ele>537.993</ele>
        <time>2014-10-18T07:27:50Z</time>
      </trkpt>
      <trkpt lat="43.97457" lon="7.3176">
        <ele>539.871</ele>
        <time>2014-10-18T07:27:59Z</time>
      </trkpt>
      <trkpt lat="43.97464" lon="7.31764">
        <ele>538.359</ele>
        <time>2014-10-18T07:28:05Z</time>
      </trkpt>
      <trkpt lat="43.97529" lon="7.31779">
        <ele>529.328</ele>
        <time>2014-10-18T07:28:33Z</time>
      </trkpt>
      <trkpt lat="43.97548" lon="7.3178">
        <ele>521.764</ele>
        <time>2014-10-18T07:28:38Z</time>
      </trkpt>
      <trkpt lat="43.97569" lon="7.31779">
        <ele>522.808</ele>
        <time>2014-10-18T07:28:44Z</time>
      </trkpt>
      <trkpt lat="43.97593" lon="7.31783">
        <ele>527.26</ele>
        <time>2014-10-18T07:28:52Z</time>
      </trkpt>
      <trkpt lat="43.97607" lon="7.31786">
        <ele>527.71</ele>
        <time>2014-10-18T07:28:59Z</time>
      </trkpt>
      <trkpt lat="43.97618" lon="7.31792">
        <ele>529.472</ele>
        <time>2014-10-18T07:29:06Z</time>
      </trkpt>
      <trkpt lat="43.97632" lon="7.31798">
        <ele>533.032</ele>
        <time>2014-10-18T07:29:13Z</time>
      </trkpt>
      <trkpt lat="43.97641" lon="7.31807">
        <ele>539.505</ele>
        <time>2014-10-18T07:29:19Z</time>
      </trkpt>
      <trkpt lat="43.97652" lon="7.31822">
        <ele>550.978</ele>
        <time>2014-10-18T07:29:27Z</time>
      </trkpt>
      <trkpt lat="43.97663" lon="7.31837">
        <ele>553.505</ele>
        <time>2014-10-18T07:29:34Z</time>
      </trkpt>
      <trkpt lat="43.97678" lon="7.31853">
        <ele>561.675</ele>
        <time>2014-10-18T07:29:42Z</time>
      </trkpt>
      <trkpt lat="43.97689" lon="7.3187">
        <ele>561.113</ele>
        <time>2014-10-18T07:29:48Z</time>
      </trkpt>
      <trkpt lat="43.97704" lon="7.3189">
        <ele>562.352</ele>
        <time>2014-10-18T07:29:55Z</time>
      </trkpt>
      <trkpt lat="43.97722" lon="7.31918">
        <ele>560.13</ele>
        <time>2014-10-18T07:30:04Z</time>
      </trkpt>
      <trkpt lat="43.97736" lon="7.31939">
        <ele>557.049</ele>
        <time>2014-10-18T07:30:11Z</time>
      </trkpt>
      <trkpt lat="43.97754" lon="7.31957">
        <ele>553.229</ele>
        <time>2014-10-18T07:30:18Z</time>
      </trkpt>
      <trkpt lat="43.97706" lon="7.31919">
        <ele>467.069</ele>
        <time>2014-10-18T07:32:22Z</time>
      </trkpt>
      <trkpt lat="43.977" lon="7.31909">
        <ele>463.447</ele>
        <time>2014-10-18T07:32:28Z</time>
      </trkpt>
      <trkpt lat="43.97686" lon="7.31906">
        <ele>482.667</ele>
        <time>2014-10-18T07:32:34Z</time>
      </trkpt>
      <trkpt lat="43.97674" lon="7.31905">
        <ele>531.278</ele>
        <time>2014-10-18T07:32:39Z</time>
      </trkpt>
      <trkpt lat="43.97663" lon="7.31903">
        <ele>568.076</ele>
        <time>2014-10-18T07:32:46Z</time>
      </trkpt>
      <trkpt lat="43.97656" lon="7.31909">
        <ele>587.657</ele>
        <time>2014-10-18T07:32:50Z</time>
      </trkpt>
      <trkpt lat="43.97645" lon="7.31919">
        <ele>596.849</ele>
        <time>2014-10-18T07:32:56Z</time>
      </trkpt>
      <trkpt lat="43.97632" lon="7.31917">
        <ele>595.059</ele>
        <time>2014-10-18T07:33:03Z</time>
      </trkpt>
      <trkpt lat="43.97602" lon="7.31889">
        <ele>601.448</ele>
        <time>2014-10-18T07:33:27Z</time>
      </trkpt>
      <trkpt lat="43.97593" lon="7.3189">
        <ele>601.456</ele>
        <time>2014-10-18T07:33:33Z</time>
      </trkpt>
      <trkpt lat="43.97603" lon="7.31981">
        <ele>466.229</ele>
        <time>2014-10-18T07:36:10Z</time>
      </trkpt>
      <trkpt lat="43.97606" lon="7.31986">
        <ele>464.91</ele>
        <time>2014-10-18T07:36:13Z</time>
      </trkpt>
      <trkpt lat="43.97869" lon="7.32312">
        <ele>415.088</ele>
        <time>2014-10-18T07:41:03Z</time>
      </trkpt>
      <trkpt lat="43.97866" lon="7.32306">
        <ele>448.809</ele>
        <time>2014-10-18T07:41:06Z</time>
      </trkpt>
      <trkpt lat="43.97851" lon="7.32297">
        <ele>444.368</ele>
        <time>2014-10-18T07:41:15Z</time>
      </trkpt>
      <trkpt lat="43.97841" lon="7.32291">
        <ele>458.488</ele>
        <time>2014-10-18T07:41:21Z</time>
      </trkpt>
      <trkpt lat="43.97835" lon="7.32287">
        <ele>457.79</ele>
        <time>2014-10-18T07:41:26Z</time>
      </trkpt>
      <trkpt lat="43.97826" lon="7.32283">
        <ele>477.569</ele>
        <time>2014-10-18T07:41:31Z</time>
      </trkpt>
      <trkpt lat="43.97817" lon="7.3228">
        <ele>506.123</ele>
        <time>2014-10-18T07:41:37Z</time>
      </trkpt>
      <trkpt lat="43.97816" lon="7.32272">
        <ele>524.801</ele>
        <time>2014-10-18T07:41:43Z</time>
      </trkpt>
      <trkpt lat="43.97818" lon="7.32263">
        <ele>654.333</ele>
        <time>2014-10-18T07:41:53Z</time>
      </trkpt>
      <trkpt lat="43.97818" lon="7.32261">
        <ele>685.602</ele>
        <time>2014-10-18T07:42:01Z</time>
      </trkpt>
      <trkpt lat="43.97829" lon="7.32246">
        <ele>751.299</ele>
        <time>2014-10-18T07:42:18Z</time>
      </trkpt>
      <trkpt lat="43.97839" lon="7.32238">
        <ele>779.299</ele>
        <time>2014-10-18T07:42:27Z</time>
      </trkpt>
      <trkpt lat="43.97858" lon="7.32218">
        <ele>815.199</ele>
        <time>2014-10-18T07:42:33Z</time>
      </trkpt>
      <trkpt lat="43.97856" lon="7.32219">
        <ele>825.236</ele>
        <time>2014-10-18T07:42:41Z</time>
      </trkpt>
      <trkpt lat="43.97858" lon="7.32217">
        <ele>840.891</ele>
        <time>2014-10-18T07:42:51Z</time>
      </trkpt>
      <trkpt lat="43.97842" lon="7.32231">
        <ele>798.268</ele>
        <time>2014-10-18T07:43:41Z</time>
      </trkpt>
      <trkpt lat="43.97835" lon="7.32252">
        <ele>766.959</ele>
        <time>2014-10-18T07:43:47Z</time>
      </trkpt>
      <trkpt lat="43.97833" lon="7.32255">
        <ele>759.981</ele>
        <time>2014-10-18T07:43:48Z</time>
      </trkpt>
      <trkpt lat="43.97832" lon="7.32265">
        <ele>745.659</ele>
        <time>2014-10-18T07:43:51Z</time>
      </trkpt>
      <trkpt lat="43.9783" lon="7.32284">
        <ele>712.664</ele>
        <time>2014-10-18T07:43:57Z</time>
      </trkpt>
      <trkpt lat="43.97832" lon="7.32294">
        <ele>702.534</ele>
        <time>2014-10-18T07:44:00Z</time>
      </trkpt>
      <trkpt lat="43.97835" lon="7.32311">
        <ele>685.934</ele>
        <time>2014-10-18T07:44:06Z</time>
      </trkpt>
      <trkpt lat="43.97833" lon="7.32324">
        <ele>673.141</ele>
        <time>2014-10-18T07:44:11Z</time>
      </trkpt>
      <trkpt lat="43.97835" lon="7.32339">
        <ele>667.203</ele>
        <time>2014-10-18T07:44:17Z</time>
      </trkpt>
      <trkpt lat="43.97836" lon="7.32357">
        <ele>656.293</ele>
        <time>2014-10-18T07:44:24Z</time>
      </trkpt>
      <trkpt lat="43.97836" lon="7.32367">
        <ele>652.091</ele>
        <time>2014-10-18T07:44:29Z</time>
      </trkpt>
      <trkpt lat="43.9784" lon="7.32377">
        <ele>656.129</ele>
        <time>2014-10-18T07:44:35Z</time>
      </trkpt>
      <trkpt lat="43.97842" lon="7.32389">
        <ele>653.041</ele>
        <time>2014-10-18T07:44:42Z</time>
      </trkpt>
      <trkpt lat="43.97848" lon="7.32401">
        <ele>653.143</ele>
        <time>2014-10-18T07:44:50Z</time>
      </trkpt>
      <trkpt lat="43.97854" lon="7.3241">
        <ele>659.246</ele>
        <time>2014-10-18T07:44:57Z</time>
      </trkpt>
      <trkpt lat="43.97854" lon="7.32418">
        <ele>657.915</ele>
        <time>2014-10-18T07:45:01Z</time>
      </trkpt>
      <trkpt lat="43.97855" lon="7.32427">
        <ele>658.904</ele>
        <time>2014-10-18T07:45:06Z</time>
      </trkpt>
      <trkpt lat="43.97855" lon="7.3244">
        <ele>661.836</ele>
        <time>2014-10-18T07:45:13Z</time>
      </trkpt>
      <trkpt lat="43.97853" lon="7.32451">
        <ele>668.507</ele>
        <time>2014-10-18T07:45:22Z</time>
      </trkpt>
      <trkpt lat="43.97856" lon="7.32469">
        <ele>672.496</ele>
        <time>2014-10-18T07:45:30Z</time>
      </trkpt>
      <trkpt lat="43.97851" lon="7.3248">
        <ele>672.553</ele>
        <time>2014-10-18T07:45:36Z</time>
      </trkpt>
      <trkpt lat="43.97849" lon="7.32493">
        <ele>672.482</ele>
        <time>2014-10-18T07:45:42Z</time>
      </trkpt>
      <trkpt lat="43.97848" lon="7.32498">
        <ele>672.542</ele>
        <time>2014-10-18T07:45:45Z</time>
      </trkpt>
      <trkpt lat="43.97845" lon="7.32513">
        <ele>670.661</ele>
        <time>2014-10-18T07:45:51Z</time>
      </trkpt>
      <trkpt lat="43.97844" lon="7.32516">
        <ele>669.881</ele>
        <time>2014-10-18T07:45:52Z</time>
      </trkpt>
      <trkpt lat="43.97843" lon="7.32519">
        <ele>669.201</ele>
        <time>2014-10-18T07:45:54Z</time>
      </trkpt>
      <trkpt lat="43.97842" lon="7.32524">
        <ele>668.801</ele>
        <time>2014-10-18T07:45:56Z</time>
      </trkpt>
      <trkpt lat="43.97839" lon="7.32531">
        <ele>671.932</ele>
        <time>2014-10-18T07:46:01Z</time>
      </trkpt>
      <trkpt lat="43.97835" lon="7.32539">
        <ele>668.76</ele>
        <time>2014-10-18T07:46:05Z</time>
      </trkpt>
      <trkpt lat="43.97832" lon="7.32552">
        <ele>669.943</ele>
        <time>2014-10-18T07:46:12Z</time>
      </trkpt>
      <trkpt lat="43.97831" lon="7.3256">
        <ele>672.623</ele>
        <time>2014-10-18T07:46:17Z</time>
      </trkpt>
      <trkpt lat="43.97829" lon="7.32566">
        <ele>673.583</ele>
        <time>2014-10-18T07:46:21Z</time>
      </trkpt>
      <trkpt lat="43.97826" lon="7.32572">
        <ele>676.544</ele>
        <time>2014-10-18T07:46:26Z</time>
      </trkpt>
      <trkpt lat="43.9783" lon="7.32583">
        <ele>688.609</ele>
        <time>2014-10-18T07:46:34Z</time>
      </trkpt>
      <trkpt lat="43.97827" lon="7.32591">
        <ele>690.677</ele>
        <time>2014-10-18T07:46:39Z</time>
      </trkpt>
      <trkpt lat="43.97827" lon="7.32586">
        <ele>697.647</ele>
        <time>2014-10-18T07:46:47Z</time>
      </trkpt>
      <trkpt lat="43.97829" lon="7.3258">
        <ele>709.158</ele>
        <time>2014-10-18T07:46:58Z</time>
      </trkpt>
      <trkpt lat="43.97828" lon="7.3258">
        <ele>709.748</ele>
        <time>2014-10-18T07:46:59Z</time>
      </trkpt>
      <trkpt lat="43.9783" lon="7.32572">
        <ele>714.05</ele>
        <time>2014-10-18T07:47:03Z</time>
      </trkpt>
      <trkpt lat="43.97826" lon="7.32566">
        <ele>707.653</ele>
        <time>2014-10-18T07:47:10Z</time>
      </trkpt>
      <trkpt lat="43.97821" lon="7.32562">
        <ele>700.139</ele>
        <time>2014-10-18T07:47:18Z</time>
      </trkpt>
      <trkpt lat="43.97812" lon="7.3256">
        <ele>684.657</ele>
        <time>2014-10-18T07:49:26Z</time>
      </trkpt>
      <trkpt lat="43.97812" lon="7.32553">
        <ele>676.834</ele>
        <time>2014-10-18T07:49:32Z</time>
      </trkpt>
      <trkpt lat="43.97815" lon="7.32547">
        <ele>666.097</ele>
        <time>2014-10-18T07:49:38Z</time>
      </trkpt>
      <trkpt lat="43.97815" lon="7.32541">
        <ele>662.685</ele>
        <time>2014-10-18T07:49:42Z</time>
      </trkpt>
      <trkpt lat="43.97816" lon="7.32527">
        <ele>655.637</ele>
        <time>2014-10-18T07:49:48Z</time>
      </trkpt>
      <trkpt lat="43.97816" lon="7.32523">
        <ele>654.965</ele>
        <time>2014-10-18T07:49:50Z</time>
      </trkpt>
      <trkpt lat="43.97815" lon="7.32515">
        <ele>651.011</ele>
        <time>2014-10-18T07:49:54Z</time>
      </trkpt>
      <trkpt lat="43.97813" lon="7.32509">
        <ele>647.596</ele>
        <time>2014-10-18T07:49:57Z</time>
      </trkpt>
      <trkpt lat="43.97809" lon="7.32493">
        <ele>644.997</ele>
        <time>2014-10-18T07:50:04Z</time>
      </trkpt>
      <trkpt lat="43.97807" lon="7.32475">
        <ele>642.989</ele>
        <time>2014-10-18T07:50:11Z</time>
      </trkpt>
      <trkpt lat="43.97807" lon="7.32473">
        <ele>642.129</ele>
        <time>2014-10-18T07:50:12Z</time>
      </trkpt>
      <trkpt lat="43.97799" lon="7.3246">
        <ele>639.361</ele>
        <time>2014-10-18T07:50:19Z</time>
      </trkpt>
      <trkpt lat="43.97794" lon="7.32449">
        <ele>639.662</ele>
        <time>2014-10-18T07:50:25Z</time>
      </trkpt>
      <trkpt lat="43.97785" lon="7.32441">
        <ele>637.993</ele>
        <time>2014-10-18T07:50:32Z</time>
      </trkpt>
      <trkpt lat="43.97775" lon="7.32437">
        <ele>635.141</ele>
        <time>2014-10-18T07:50:37Z</time>
      </trkpt>
      <trkpt lat="43.97767" lon="7.32429">
        <ele>635.982</ele>
        <time>2014-10-18T07:50:44Z</time>
      </trkpt>
      <trkpt lat="43.97757" lon="7.32427">
        <ele>631.57</ele>
        <time>2014-10-18T07:50:51Z</time>
      </trkpt>
      <trkpt lat="43.97747" lon="7.32426">
        <ele>622.516</ele>
        <time>2014-10-18T07:50:58Z</time>
      </trkpt>
      <trkpt lat="43.97745" lon="7.32427">
        <ele>622.219</ele>
        <time>2014-10-18T07:51:05Z</time>
      </trkpt>
      <trkpt lat="43.9774" lon="7.32443">
        <ele>613.097</ele>
        <time>2014-10-18T07:51:18Z</time>
      </trkpt>
      <trkpt lat="43.97738" lon="7.32449">
        <ele>609.849</ele>
        <time>2014-10-18T07:51:24Z</time>
      </trkpt>
      <trkpt lat="43.97737" lon="7.32449">
        <ele>607.259</ele>
        <time>2014-10-18T07:51:29Z</time>
      </trkpt>
      <trkpt lat="43.97736" lon="7.32458">
        <ele>598.627</ele>
        <time>2014-10-18T07:51:38Z</time>
      </trkpt>
      <trkpt lat="43.97737" lon="7.32458">
        <ele>601.223</ele>
        <time>2014-10-18T07:51:49Z</time>
      </trkpt>
      <trkpt lat="43.97736" lon="7.3246">
        <ele>600.152</ele>
        <time>2014-10-18T07:51:52Z</time>
      </trkpt>
      <trkpt lat="43.97736" lon="7.32465">
        <ele>604.133</ele>
        <time>2014-10-18T07:51:59Z</time>
      </trkpt>
      <trkpt lat="43.97731" lon="7.32476">
        <ele>593.539</ele>
        <time>2014-10-18T07:52:11Z</time>
      </trkpt>
      <trkpt lat="43.97727" lon="7.32483">
        <ele>589.71</ele>
        <time>2014-10-18T07:52:18Z</time>
      </trkpt>
      <trkpt lat="43.97722" lon="7.32483">
        <ele>582.128</ele>
        <time>2014-10-18T07:52:25Z</time>
      </trkpt>
      <trkpt lat="43.9772" lon="7.32481">
        <ele>577.978</ele>
        <time>2014-10-18T07:52:31Z</time>
      </trkpt>
      <trkpt lat="43.97713" lon="7.32477">
        <ele>570.127</ele>
        <time>2014-10-18T07:52:39Z</time>
      </trkpt>
      <trkpt lat="43.97709" lon="7.32477">
        <ele>563.446</ele>
        <time>2014-10-18T07:52:45Z</time>
      </trkpt>
      <trkpt lat="43.97708" lon="7.32477">
        <ele>559.087</ele>
        <time>2014-10-18T07:52:51Z</time>
      </trkpt>
      <trkpt lat="43.97702" lon="7.32482">
        <ele>555.637</ele>
        <time>2014-10-18T07:52:55Z</time>
      </trkpt>
      <trkpt lat="43.97698" lon="7.3249">
        <ele>551.376</ele>
        <time>2014-10-18T07:53:00Z</time>
      </trkpt>
      <trkpt lat="43.97693" lon="7.32495">
        <ele>547.778</ele>
        <time>2014-10-18T07:53:05Z</time>
      </trkpt>
      <trkpt lat="43.9769" lon="7.32498">
        <ele>546.378</ele>
        <time>2014-10-18T07:53:08Z</time>
      </trkpt>
      <trkpt lat="43.97686" lon="7.32509">
        <ele>540.318</ele>
        <time>2014-10-18T07:53:15Z</time>
      </trkpt>
      <trkpt lat="43.97687" lon="7.32519">
        <ele>533.759</ele>
        <time>2014-10-18T07:53:24Z</time>
      </trkpt>
      <trkpt lat="43.97682" lon="7.32526">
        <ele>527.189</ele>
        <time>2014-10-18T07:53:31Z</time>
      </trkpt>
      <trkpt lat="43.9768" lon="7.32537">
        <ele>520.439</ele>
        <time>2014-10-18T07:53:38Z</time>
      </trkpt>
      <trkpt lat="43.97681" lon="7.32538">
        <ele>515.598</ele>
        <time>2014-10-18T07:53:43Z</time>
      </trkpt>
      <trkpt lat="43.9768" lon="7.32538">
        <ele>513.419</ele>
        <time>2014-10-18T07:53:45Z</time>
      </trkpt>
      <trkpt lat="43.97676" lon="7.3254">
        <ele>505.548</ele>
        <time>2014-10-18T07:53:53Z</time>
      </trkpt>
      <trkpt lat="43.97672" lon="7.32544">
        <ele>499.289</ele>
        <time>2014-10-18T07:54:00Z</time>
      </trkpt>
      <trkpt lat="43.9767" lon="7.32553">
        <ele>494.808</ele>
        <time>2014-10-18T07:54:05Z</time>
      </trkpt>
      <trkpt lat="43.97669" lon="7.3256">
        <ele>489.758</ele>
        <time>2014-10-18T07:54:11Z</time>
      </trkpt>
      <trkpt lat="43.97667" lon="7.32569">
        <ele>484.779</ele>
        <time>2014-10-18T07:54:17Z</time>
      </trkpt>
      <trkpt lat="43.97666" lon="7.32574">
        <ele>481.239</ele>
        <time>2014-10-18T07:54:21Z</time>
      </trkpt>
      <trkpt lat="43.97662" lon="7.32585">
        <ele>473.768</ele>
        <time>2014-10-18T07:54:30Z</time>
      </trkpt>
      <trkpt lat="43.97658" lon="7.32606">
        <ele>458.99</ele>
        <time>2014-10-18T07:54:52Z</time>
      </trkpt>
      <trkpt lat="43.97655" lon="7.32617">
        <ele>453.14</ele>
        <time>2014-10-18T07:55:04Z</time>
      </trkpt>
      <trkpt lat="43.97652" lon="7.32627">
        <ele>447.84</ele>
        <time>2014-10-18T07:55:11Z</time>
      </trkpt>
      <trkpt lat="43.9765" lon="7.32638">
        <ele>449.942</ele>
        <time>2014-10-18T07:55:33Z</time>
      </trkpt>
      <trkpt lat="43.97648" lon="7.32643">
        <ele>450.822</ele>
        <time>2014-10-18T07:55:41Z</time>
      </trkpt>
      <trkpt lat="43.97649" lon="7.32645">
        <ele>454.591</ele>
        <time>2014-10-18T07:55:46Z</time>
      </trkpt>
      <trkpt lat="43.97646" lon="7.32647">
        <ele>459.644</ele>
        <time>2014-10-18T07:55:56Z</time>
      </trkpt>
      <trkpt lat="43.97644" lon="7.32649">
        <ele>462.294</ele>
        <time>2014-10-18T07:55:59Z</time>
      </trkpt>
      <trkpt lat="43.97641" lon="7.32654">
        <ele>465.245</ele>
        <time>2014-10-18T07:56:05Z</time>
      </trkpt>
      <trkpt lat="43.97641" lon="7.32656">
        <ele>470.355</ele>
        <time>2014-10-18T07:56:10Z</time>
      </trkpt>
      <trkpt lat="43.97639" lon="7.32659">
        <ele>473.104</ele>
        <time>2014-10-18T07:56:15Z</time>
      </trkpt>
      <trkpt lat="43.97638" lon="7.32663">
        <ele>473.814</ele>
        <time>2014-10-18T07:56:19Z</time>
      </trkpt>
      <trkpt lat="43.97639" lon="7.32668">
        <ele>474.753</ele>
        <time>2014-10-18T07:56:25Z</time>
      </trkpt>
      <trkpt lat="43.9764" lon="7.32673">
        <ele>478.468</ele>
        <time>2014-10-18T07:56:30Z</time>
      </trkpt>
      <trkpt lat="43.97639" lon="7.32682">
        <ele>483.064</ele>
        <time>2014-10-18T07:56:39Z</time>
      </trkpt>
      <trkpt lat="43.9764" lon="7.32686">
        <ele>484.874</ele>
        <time>2014-10-18T07:56:44Z</time>
      </trkpt>
      <trkpt lat="43.9764" lon="7.32691">
        <ele>488.575</ele>
        <time>2014-10-18T07:56:50Z</time>
      </trkpt>
      <trkpt lat="43.97642" lon="7.32692">
        <ele>490.656</ele>
        <time>2014-10-18T07:56:53Z</time>
      </trkpt>
      <trkpt lat="43.97646" lon="7.32694">
        <ele>498.425</ele>
        <time>2014-10-18T07:57:00Z</time>
      </trkpt>
      <trkpt lat="43.97654" lon="7.32697">
        <ele>513.583</ele>
        <time>2014-10-18T07:57:17Z</time>
      </trkpt>
      <trkpt lat="43.97659" lon="7.32695">
        <ele>523.27</ele>
        <time>2014-10-18T07:57:22Z</time>
      </trkpt>
      <trkpt lat="43.97664" lon="7.32694">
        <ele>532.414</ele>
        <time>2014-10-18T07:57:27Z</time>
      </trkpt>
      <trkpt lat="43.97675" lon="7.32695">
        <ele>552.268</ele>
        <time>2014-10-18T07:57:37Z</time>
      </trkpt>
      <trkpt lat="43.9768" lon="7.327">
        <ele>561.333</ele>
        <time>2014-10-18T07:57:44Z</time>
      </trkpt>
      <trkpt lat="43.97684" lon="7.32703">
        <ele>569.195</ele>
        <time>2014-10-18T07:57:51Z</time>
      </trkpt>
      <trkpt lat="43.97685" lon="7.32708">
        <ele>573.063</ele>
        <time>2014-10-18T07:57:56Z</time>
      </trkpt>
      <trkpt lat="43.97686" lon="7.32713">
        <ele>571.632</ele>
        <time>2014-10-18T07:58:01Z</time>
      </trkpt>
      <trkpt lat="43.97687" lon="7.32722">
        <ele>576.105</ele>
        <time>2014-10-18T07:58:14Z</time>
      </trkpt>
      <trkpt lat="43.97689" lon="7.32729">
        <ele>579.966</ele>
        <time>2014-10-18T07:58:25Z</time>
      </trkpt>
      <trkpt lat="43.97693" lon="7.3274">
        <ele>600.29</ele>
        <time>2014-10-18T07:58:44Z</time>
      </trkpt>
      <trkpt lat="43.97691" lon="7.32745">
        <ele>599.922</ele>
        <time>2014-10-18T07:58:49Z</time>
      </trkpt>
      <trkpt lat="43.97691" lon="7.32753">
        <ele>605.023</ele>
        <time>2014-10-18T07:58:58Z</time>
      </trkpt>
      <trkpt lat="43.97694" lon="7.32762">
        <ele>618.12</ele>
        <time>2014-10-18T07:59:09Z</time>
      </trkpt>
      <trkpt lat="43.97695" lon="7.32766">
        <ele>620.684</ele>
        <time>2014-10-18T07:59:15Z</time>
      </trkpt>
      <trkpt lat="43.977" lon="7.32764">
        <ele>628.299</ele>
        <time>2014-10-18T07:59:21Z</time>
      </trkpt>
      <trkpt lat="43.97703" lon="7.32768">
        <ele>635.829</ele>
        <time>2014-10-18T07:59:26Z</time>
      </trkpt>
      <trkpt lat="43.97713" lon="7.32775">
        <ele>647.9</ele>
        <time>2014-10-18T07:59:33Z</time>
      </trkpt>
      <trkpt lat="43.97713" lon="7.32785">
        <ele>653.948</ele>
        <time>2014-10-18T07:59:41Z</time>
      </trkpt>
      <trkpt lat="43.97714" lon="7.3279">
        <ele>659.021</ele>
        <time>2014-10-18T07:59:47Z</time>
      </trkpt>
      <trkpt lat="43.97717" lon="7.32785">
        <ele>666.926</ele>
        <time>2014-10-18T07:59:50Z</time>
      </trkpt>
      <trkpt lat="43.97725" lon="7.32784">
        <ele>674.241</ele>
        <time>2014-10-18T07:59:54Z</time>
      </trkpt>
      <trkpt lat="43.97742" lon="7.32779">
        <ele>686.104</ele>
        <time>2014-10-18T08:00:02Z</time>
      </trkpt>
      <trkpt lat="43.97756" lon="7.32784">
        <ele>689.25</ele>
        <time>2014-10-18T08:00:09Z</time>
      </trkpt>
      <trkpt lat="43.97769" lon="7.3279">
        <ele>696.116</ele>
        <time>2014-10-18T08:00:15Z</time>
      </trkpt>
      <trkpt lat="43.97783" lon="7.32794">
        <ele>704.148</ele>
        <time>2014-10-18T08:00:22Z</time>
      </trkpt>
      <trkpt lat="43.97793" lon="7.328">
        <ele>706.782</ele>
        <time>2014-10-18T08:00:28Z</time>
      </trkpt>
      <trkpt lat="43.97801" lon="7.32806">
        <ele>710.978</ele>
        <time>2014-10-18T08:00:33Z</time>
      </trkpt>
      <trkpt lat="43.97807" lon="7.32815">
        <ele>716.076</ele>
        <time>2014-10-18T08:00:38Z</time>
      </trkpt>
      <trkpt lat="43.97811" lon="7.32825">
        <ele>726.165</ele>
        <time>2014-10-18T08:00:46Z</time>
      </trkpt>
      <trkpt lat="43.97814" lon="7.32828">
        <ele>730.882</ele>
        <time>2014-10-18T08:00:50Z</time>
      </trkpt>
      <trkpt lat="43.97822" lon="7.32829">
        <ele>737.302</ele>
        <time>2014-10-18T08:00:56Z</time>
      </trkpt>
      <trkpt lat="43.97826" lon="7.3283">
        <ele>739.692</ele>
        <time>2014-10-18T08:00:59Z</time>
      </trkpt>
      <trkpt lat="43.97837" lon="7.32833">
        <ele>748.223</ele>
        <time>2014-10-18T08:01:06Z</time>
      </trkpt>
      <trkpt lat="43.97847" lon="7.32837">
        <ele>753.209</ele>
        <time>2014-10-18T08:01:12Z</time>
      </trkpt>
      <trkpt lat="43.97852" lon="7.3284">
        <ele>756.767</ele>
        <time>2014-10-18T08:01:16Z</time>
      </trkpt>
      <trkpt lat="43.9786" lon="7.32848">
        <ele>760.405</ele>
        <time>2014-10-18T08:01:23Z</time>
      </trkpt>
      <trkpt lat="43.97863" lon="7.3285">
        <ele>762.615</ele>
        <time>2014-10-18T08:01:27Z</time>
      </trkpt>
      <trkpt lat="43.97879" lon="7.32836">
        <ele>832.308</ele>
        <time>2014-10-18T08:01:52Z</time>
      </trkpt>
      <trkpt lat="43.97883" lon="7.32838">
        <ele>841.601</ele>
        <time>2014-10-18T08:01:59Z</time>
      </trkpt>
      <trkpt lat="43.97884" lon="7.32841">
        <ele>845.772</ele>
        <time>2014-10-18T08:02:03Z</time>
      </trkpt>
      <trkpt lat="43.97889" lon="7.32843">
        <ele>858.443</ele>
        <time>2014-10-18T08:02:22Z</time>
      </trkpt>
      <trkpt lat="43.97888" lon="7.32837">
        <ele>864.861</ele>
        <time>2014-10-18T08:02:28Z</time>
      </trkpt>
      <trkpt lat="43.97881" lon="7.32832">
        <ele>866.933</ele>
        <time>2014-10-18T08:02:42Z</time>
      </trkpt>
      <trkpt lat="43.97879" lon="7.3283">
        <ele>869.088</ele>
        <time>2014-10-18T08:02:46Z</time>
      </trkpt>
      <trkpt lat="43.97876" lon="7.32831">
        <ele>871.143</ele>
        <time>2014-10-18T08:02:50Z</time>
      </trkpt>
      <trkpt lat="43.97871" lon="7.3283">
        <ele>872.865</ele>
        <time>2014-10-18T08:02:58Z</time>
      </trkpt>
      <trkpt lat="43.97867" lon="7.32831">
        <ele>871.255</ele>
        <time>2014-10-18T08:03:04Z</time>
      </trkpt>
      <trkpt lat="43.97864" lon="7.32838">
        <ele>863.995</ele>
        <time>2014-10-18T08:03:12Z</time>
      </trkpt>
      <trkpt lat="43.97865" lon="7.32841">
        <ele>864.438</ele>
        <time>2014-10-18T08:03:18Z</time>
      </trkpt>
      <trkpt lat="43.97868" lon="7.32844">
        <ele>864.889</ele>
        <time>2014-10-18T08:03:23Z</time>
      </trkpt>
      <trkpt lat="43.97871" lon="7.32857">
        <ele>860.641</ele>
        <time>2014-10-18T08:03:36Z</time>
      </trkpt>
      <trkpt lat="43.97872" lon="7.32861">
        <ele>860.971</ele>
        <time>2014-10-18T08:03:40Z</time>
      </trkpt>
      <trkpt lat="43.97874" lon="7.32863">
        <ele>864.001</ele>
        <time>2014-10-18T08:03:45Z</time>
      </trkpt>
      <trkpt lat="43.97874" lon="7.32869">
        <ele>861.274</ele>
        <time>2014-10-18T08:03:48Z</time>
      </trkpt>
      <trkpt lat="43.97875" lon="7.32869">
        <ele>868.703</ele>
        <time>2014-10-18T08:03:55Z</time>
      </trkpt>
      <trkpt lat="43.97875" lon="7.32868">
        <ele>869.396</ele>
        <time>2014-10-18T08:03:56Z</time>
      </trkpt>
      <trkpt lat="43.97875" lon="7.32862">
        <ele>874.709</ele>
        <time>2014-10-18T08:04:03Z</time>
      </trkpt>
      <trkpt lat="43.97873" lon="7.3286">
        <ele>876.878</ele>
        <time>2014-10-18T08:04:07Z</time>
      </trkpt>
      <trkpt lat="43.97866" lon="7.32849">
        <ele>888.741</ele>
        <time>2014-10-18T08:04:21Z</time>
      </trkpt>
      <trkpt lat="43.97861" lon="7.32847">
        <ele>886.39</ele>
        <time>2014-10-18T08:04:27Z</time>
      </trkpt>
      <trkpt lat="43.97858" lon="7.32844">
        <ele>888.843</ele>
        <time>2014-10-18T08:04:31Z</time>
      </trkpt>
      <trkpt lat="43.97856" lon="7.32845">
        <ele>887.959</ele>
        <time>2014-10-18T08:04:34Z</time>
      </trkpt>
      <trkpt lat="43.9785" lon="7.32839">
        <ele>894.456</ele>
        <time>2014-10-18T08:04:41Z</time>
      </trkpt>
      <trkpt lat="43.97844" lon="7.32839">
        <ele>895.76</ele>
        <time>2014-10-18T08:04:51Z</time>
      </trkpt>
      <trkpt lat="43.97841" lon="7.32843">
        <ele>893.762</ele>
        <time>2014-10-18T08:04:57Z</time>
      </trkpt>
      <trkpt lat="43.97842" lon="7.32854">
        <ele>893.231</ele>
        <time>2014-10-18T08:05:16Z</time>
      </trkpt>
      <trkpt lat="43.97844" lon="7.32863">
        <ele>889.411</ele>
        <time>2014-10-18T08:05:23Z</time>
      </trkpt>
      <trkpt lat="43.97844" lon="7.32874">
        <ele>886.43</ele>
        <time>2014-10-18T08:05:32Z</time>
      </trkpt>
      <trkpt lat="43.97864" lon="7.3289">
        <ele>911.86</ele>
        <time>2014-10-18T08:06:09Z</time>
      </trkpt>
      <trkpt lat="43.97868" lon="7.32897">
        <ele>908.437</ele>
        <time>2014-10-18T08:06:16Z</time>
      </trkpt>
      <trkpt lat="43.97866" lon="7.32903">
        <ele>902.995</ele>
        <time>2014-10-18T08:06:19Z</time>
      </trkpt>
      <trkpt lat="43.9787" lon="7.32917">
        <ele>897.879</ele>
        <time>2014-10-18T08:06:27Z</time>
      </trkpt>
      <trkpt lat="43.9788" lon="7.32919">
        <ele>903.499</ele>
        <time>2014-10-18T08:06:35Z</time>
      </trkpt>
      <trkpt lat="43.97891" lon="7.32931">
        <ele>907.745</ele>
        <time>2014-10-18T08:06:53Z</time>
      </trkpt>
      <trkpt lat="43.97892" lon="7.32931">
        <ele>910.818</ele>
        <time>2014-10-18T08:06:58Z</time>
      </trkpt>
      <trkpt lat="43.97898" lon="7.3293">
        <ele>913.547</ele>
        <time>2014-10-18T08:07:04Z</time>
      </trkpt>
      <trkpt lat="43.97905" lon="7.32932">
        <ele>911.957</ele>
        <time>2014-10-18T08:07:12Z</time>
      </trkpt>
      <trkpt lat="43.97908" lon="7.32933">
        <ele>914.398</ele>
        <time>2014-10-18T08:07:17Z</time>
      </trkpt>
      <trkpt lat="43.97913" lon="7.32934">
        <ele>914.192</ele>
        <time>2014-10-18T08:07:22Z</time>
      </trkpt>
      <trkpt lat="43.97927" lon="7.32942">
        <ele>911.117</ele>
        <time>2014-10-18T08:07:45Z</time>
      </trkpt>
      <trkpt lat="43.97932" lon="7.32949">
        <ele>910.051</ele>
        <time>2014-10-18T08:07:54Z</time>
      </trkpt>
      <trkpt lat="43.97932" lon="7.32954">
        <ele>904.313</ele>
        <time>2014-10-18T08:07:59Z</time>
      </trkpt>
      <trkpt lat="43.97939" lon="7.32953">
        <ele>910.266</ele>
        <time>2014-10-18T08:08:09Z</time>
      </trkpt>
      <trkpt lat="43.97942" lon="7.3297">
        <ele>883.561</ele>
        <time>2014-10-18T08:08:23Z</time>
      </trkpt>
      <trkpt lat="43.97944" lon="7.32971">
        <ele>883.578</ele>
        <time>2014-10-18T08:08:27Z</time>
      </trkpt>
      <trkpt lat="43.97954" lon="7.32966">
        <ele>888.405</ele>
        <time>2014-10-18T08:08:32Z</time>
      </trkpt>
      <trkpt lat="43.97963" lon="7.32962">
        <ele>892.223</ele>
        <time>2014-10-18T08:08:41Z</time>
      </trkpt>
      <trkpt lat="43.9797" lon="7.32961">
        <ele>899.434</ele>
        <time>2014-10-18T08:08:46Z</time>
      </trkpt>
      <trkpt lat="43.97968" lon="7.32963">
        <ele>895.33</ele>
        <time>2014-10-18T08:08:53Z</time>
      </trkpt>
      <trkpt lat="43.97973" lon="7.32963">
        <ele>894.833</ele>
        <time>2014-10-18T08:09:01Z</time>
      </trkpt>
      <trkpt lat="43.97983" lon="7.32956">
        <ele>910.218</ele>
        <time>2014-10-18T08:09:09Z</time>
      </trkpt>
      <trkpt lat="43.97983" lon="7.32956">
        <ele>912.75</ele>
        <time>2014-10-18T08:09:12Z</time>
      </trkpt>
      <trkpt lat="43.9799" lon="7.32945">
        <ele>929.227</ele>
        <time>2014-10-18T08:09:19Z</time>
      </trkpt>
      <trkpt lat="43.97994" lon="7.32948">
        <ele>929.939</ele>
        <time>2014-10-18T08:09:23Z</time>
      </trkpt>
      <trkpt lat="43.97998" lon="7.32956">
        <ele>925.969</ele>
        <time>2014-10-18T08:09:31Z</time>
      </trkpt>
      <trkpt lat="43.98013" lon="7.32964">
        <ele>933.351</ele>
        <time>2014-10-18T08:09:55Z</time>
      </trkpt>
      <trkpt lat="43.98015" lon="7.32963">
        <ele>934.236</ele>
        <time>2014-10-18T08:10:03Z</time>
      </trkpt>
      <trkpt lat="43.98017" lon="7.32959">
        <ele>938.513</ele>
        <time>2014-10-18T08:10:14Z</time>
      </trkpt>
      <trkpt lat="43.98017" lon="7.32967">
        <ele>936.032</ele>
        <time>2014-10-18T08:10:21Z</time>
      </trkpt>
      <trkpt lat="43.98014" lon="7.32983">
        <ele>910.888</ele>
        <time>2014-10-18T08:12:23Z</time>
      </trkpt>
      <trkpt lat="43.98014" lon="7.32995">
        <ele>894.195</ele>
        <time>2014-10-18T08:12:36Z</time>
      </trkpt>
      <trkpt lat="43.98014" lon="7.32996">
        <ele>893.089</ele>
        <time>2014-10-18T08:12:43Z</time>
      </trkpt>
      <trkpt lat="43.98018" lon="7.32949">
        <ele>965.438</ele>
        <time>2014-10-18T08:14:05Z</time>
      </trkpt>
      <trkpt lat="43.98019" lon="7.32944">
        <ele>973.998</ele>
        <time>2014-10-18T08:14:11Z</time>
      </trkpt>
      <trkpt lat="43.98019" lon="7.32938">
        <ele>983.724</ele>
        <time>2014-10-18T08:14:18Z</time>
      </trkpt>
      <trkpt lat="43.98013" lon="7.32929">
        <ele>994.817</ele>
        <time>2014-10-18T08:16:19Z</time>
      </trkpt>
      <trkpt lat="43.98011" lon="7.32919">
        <ele>1004.539</ele>
        <time>2014-10-18T08:16:29Z</time>
      </trkpt>
      <trkpt lat="43.98007" lon="7.32975">
        <ele>930.091</ele>
        <time>2014-10-18T08:17:17Z</time>
      </trkpt>
      <trkpt lat="43.98009" lon="7.32979">
        <ele>935.142</ele>
        <time>2014-10-18T08:19:11Z</time>
      </trkpt>
      <trkpt lat="43.9801" lon="7.32987">
        <ele>934.251</ele>
        <time>2014-10-18T08:19:18Z</time>
      </trkpt>
      <trkpt lat="43.98009" lon="7.32986">
        <ele>933.536</ele>
        <time>2014-10-18T08:19:24Z</time>
      </trkpt>
      <trkpt lat="43.98009" lon="7.32985">
        <ele>933.406</ele>
        <time>2014-10-18T08:19:27Z</time>
      </trkpt>
      <trkpt lat="43.98007" lon="7.32987">
        <ele>932.743</ele>
        <time>2014-10-18T08:19:33Z</time>
      </trkpt>
      <trkpt lat="43.98003" lon="7.32983">
        <ele>938.05</ele>
        <time>2014-10-18T08:19:44Z</time>
      </trkpt>
      <trkpt lat="43.98002" lon="7.3298">
        <ele>947.774</ele>
        <time>2014-10-18T08:19:53Z</time>
      </trkpt>
      <trkpt lat="43.98002" lon="7.32987">
        <ele>948.275</ele>
        <time>2014-10-18T08:20:01Z</time>
      </trkpt>
      <trkpt lat="43.98" lon="7.32993">
        <ele>946.199</ele>
        <time>2014-10-18T08:20:06Z</time>
      </trkpt>
      <trkpt lat="43.97997" lon="7.33">
        <ele>941.112</ele>
        <time>2014-10-18T08:20:11Z</time>
      </trkpt>
      <trkpt lat="43.97997" lon="7.33009">
        <ele>938.2</ele>
        <time>2014-10-18T08:20:19Z</time>
      </trkpt>
      <trkpt lat="43.97998" lon="7.3301">
        <ele>943.961</ele>
        <time>2014-10-18T08:20:24Z</time>
      </trkpt>
      <trkpt lat="43.97997" lon="7.33008">
        <ele>948.817</ele>
        <time>2014-10-18T08:20:32Z</time>
      </trkpt>
      <trkpt lat="43.97996" lon="7.33011">
        <ele>949.7</ele>
        <time>2014-10-18T08:20:39Z</time>
      </trkpt>
      <trkpt lat="43.97992" lon="7.33023">
        <ele>948.644</ele>
        <time>2014-10-18T08:20:48Z</time>
      </trkpt>
      <trkpt lat="43.97991" lon="7.3303">
        <ele>942.377</ele>
        <time>2014-10-18T08:20:55Z</time>
      </trkpt>
      <trkpt lat="43.97991" lon="7.33032">
        <ele>941.009</ele>
        <time>2014-10-18T08:21:00Z</time>
      </trkpt>
      <trkpt lat="43.97989" lon="7.33024">
        <ele>946.177</ele>
        <time>2014-10-18T08:21:06Z</time>
      </trkpt>
      <trkpt lat="43.97985" lon="7.33018">
        <ele>950.496</ele>
        <time>2014-10-18T08:21:13Z</time>
      </trkpt>
      <trkpt lat="43.9798" lon="7.33015">
        <ele>954.493</ele>
        <time>2014-10-18T08:21:19Z</time>
      </trkpt>
      <trkpt lat="43.97984" lon="7.33021">
        <ele>954.581</ele>
        <time>2014-10-18T08:21:26Z</time>
      </trkpt>
      <trkpt lat="43.97984" lon="7.33026">
        <ele>955.574</ele>
        <time>2014-10-18T08:21:32Z</time>
      </trkpt>
      <trkpt lat="43.97982" lon="7.33026">
        <ele>957.317</ele>
        <time>2014-10-18T08:21:37Z</time>
      </trkpt>
      <trkpt lat="43.97978" lon="7.33027">
        <ele>957.173</ele>
        <time>2014-10-18T08:21:43Z</time>
      </trkpt>
      <trkpt lat="43.97979" lon="7.33029">
        <ele>957.332</ele>
        <time>2014-10-18T08:21:47Z</time>
      </trkpt>
      <trkpt lat="43.9798" lon="7.33035">
        <ele>956.249</ele>
        <time>2014-10-18T08:21:53Z</time>
      </trkpt>
      <trkpt lat="43.97979" lon="7.33038">
        <ele>956.163</ele>
        <time>2014-10-18T08:21:58Z</time>
      </trkpt>
      <trkpt lat="43.97977" lon="7.33034">
        <ele>958.779</ele>
        <time>2014-10-18T08:22:03Z</time>
      </trkpt>
      <trkpt lat="43.97975" lon="7.3303">
        <ele>962.575</ele>
        <time>2014-10-18T08:22:06Z</time>
      </trkpt>
      <trkpt lat="43.97973" lon="7.33032">
        <ele>964.19</ele>
        <time>2014-10-18T08:22:12Z</time>
      </trkpt>
      <trkpt lat="43.97975" lon="7.33037">
        <ele>962.636</ele>
        <time>2014-10-18T08:22:18Z</time>
      </trkpt>
      <trkpt lat="43.97975" lon="7.33044">
        <ele>962.076</ele>
        <time>2014-10-18T08:22:25Z</time>
      </trkpt>
      <trkpt lat="43.97974" lon="7.33051">
        <ele>962.425</ele>
        <time>2014-10-18T08:22:31Z</time>
      </trkpt>
      <trkpt lat="43.9797" lon="7.33042">
        <ele>970.763</ele>
        <time>2014-10-18T08:22:42Z</time>
      </trkpt>
      <trkpt lat="43.97969" lon="7.33045">
        <ele>970.268</ele>
        <time>2014-10-18T08:22:47Z</time>
      </trkpt>
      <trkpt lat="43.97969" lon="7.33046">
        <ele>970.366</ele>
        <time>2014-10-18T08:22:48Z</time>
      </trkpt>
      <trkpt lat="43.97969" lon="7.33053">
        <ele>970.645</ele>
        <time>2014-10-18T08:22:55Z</time>
      </trkpt>
      <trkpt lat="43.97966" lon="7.33056">
        <ele>971.326</ele>
        <time>2014-10-18T08:23:02Z</time>
      </trkpt>
      <trkpt lat="43.97965" lon="7.3305">
        <ele>975.421</ele>
        <time>2014-10-18T08:23:07Z</time>
      </trkpt>
      <trkpt lat="43.97962" lon="7.33047">
        <ele>978.854</ele>
        <time>2014-10-18T08:23:13Z</time>
      </trkpt>
      <trkpt lat="43.9796" lon="7.33052">
        <ele>978.507</ele>
        <time>2014-10-18T08:23:19Z</time>
      </trkpt>
      <trkpt lat="43.97955" lon="7.33052">
        <ele>978.216</ele>
        <time>2014-10-18T08:23:24Z</time>
      </trkpt>
      <trkpt lat="43.97947" lon="7.33053">
        <ele>978.17</ele>
        <time>2014-10-18T08:23:33Z</time>
      </trkpt>
      <trkpt lat="43.9794" lon="7.33054">
        <ele>980.814</ele>
        <time>2014-10-18T08:23:42Z</time>
      </trkpt>
      <trkpt lat="43.97934" lon="7.33053">
        <ele>985.577</ele>
        <time>2014-10-18T08:23:50Z</time>
      </trkpt>
      <trkpt lat="43.9793" lon="7.33057">
        <ele>984.963</ele>
        <time>2014-10-18T08:23:57Z</time>
      </trkpt>
      <trkpt lat="43.97928" lon="7.33061">
        <ele>987.244</ele>
        <time>2014-10-18T08:24:04Z</time>
      </trkpt>
      <trkpt lat="43.97932" lon="7.3306">
        <ele>991.889</ele>
        <time>2014-10-18T08:24:10Z</time>
      </trkpt>
      <trkpt lat="43.97937" lon="7.33063">
        <ele>990.452</ele>
        <time>2014-10-18T08:24:17Z</time>
      </trkpt>
      <trkpt lat="43.97943" lon="7.33069">
        <ele>989.535</ele>
        <time>2014-10-18T08:24:26Z</time>
      </trkpt>
      <trkpt lat="43.97944" lon="7.33073">
        <ele>989.216</ele>
        <time>2014-10-18T08:24:31Z</time>
      </trkpt>
      <trkpt lat="43.97946" lon="7.33075">
        <ele>988.623</ele>
        <time>2014-10-18T08:24:38Z</time>
      </trkpt>
      <trkpt lat="43.97944" lon="7.33077">
        <ele>988.232</ele>
        <time>2014-10-18T08:24:44Z</time>
      </trkpt>
      <trkpt lat="43.97941" lon="7.33081">
        <ele>987.418</ele>
        <time>2014-10-18T08:24:50Z</time>
      </trkpt>
      <trkpt lat="43.97942" lon="7.33086">
        <ele>984.909</ele>
        <time>2014-10-18T08:24:55Z</time>
      </trkpt>
      <trkpt lat="43.97942" lon="7.33087">
        <ele>984.448</ele>
        <time>2014-10-18T08:24:56Z</time>
      </trkpt>
      <trkpt lat="43.97938" lon="7.33097">
        <ele>983.413</ele>
        <time>2014-10-18T08:25:04Z</time>
      </trkpt>
      <trkpt lat="43.97936" lon="7.33101">
        <ele>984.018</ele>
        <time>2014-10-18T08:25:10Z</time>
      </trkpt>
      <trkpt lat="43.97935" lon="7.33099">
        <ele>988.303</ele>
        <time>2014-10-18T08:25:15Z</time>
      </trkpt>
      <trkpt lat="43.97933" lon="7.33096">
        <ele>992.545</ele>
        <time>2014-10-18T08:25:20Z</time>
      </trkpt>
      <trkpt lat="43.9793" lon="7.33092">
        <ele>999</ele>
        <time>2014-10-18T08:25:29Z</time>
      </trkpt>
      <trkpt lat="43.97924" lon="7.3309">
        <ele>1001.875</ele>
        <time>2014-10-18T08:25:38Z</time>
      </trkpt>
      <trkpt lat="43.97923" lon="7.33091">
        <ele>1002.785</ele>
        <time>2014-10-18T08:25:41Z</time>
      </trkpt>
      <trkpt lat="43.97924" lon="7.33097">
        <ele>1003.493</ele>
        <time>2014-10-18T08:25:48Z</time>
      </trkpt>
      <trkpt lat="43.97924" lon="7.331">
        <ele>1001.24</ele>
        <time>2014-10-18T08:25:54Z</time>
      </trkpt>
      <trkpt lat="43.97924" lon="7.33105">
        <ele>1002.235</ele>
        <time>2014-10-18T08:26:00Z</time>
      </trkpt>
      <trkpt lat="43.97924" lon="7.33114">
        <ele>1003.329</ele>
        <time>2014-10-18T08:26:08Z</time>
      </trkpt>
      <trkpt lat="43.97923" lon="7.33119">
        <ele>1004.119</ele>
        <time>2014-10-18T08:26:13Z</time>
      </trkpt>
      <trkpt lat="43.97922" lon="7.33125">
        <ele>1004.618</ele>
        <time>2014-10-18T08:26:20Z</time>
      </trkpt>
      <trkpt lat="43.97922" lon="7.33126">
        <ele>1004.758</ele>
        <time>2014-10-18T08:26:21Z</time>
      </trkpt>
      <trkpt lat="43.97919" lon="7.33135">
        <ele>1004.306</ele>
        <time>2014-10-18T08:26:28Z</time>
      </trkpt>
      <trkpt lat="43.97917" lon="7.33141">
        <ele>1004.144</ele>
        <time>2014-10-18T08:26:34Z</time>
      </trkpt>
      <trkpt lat="43.9792" lon="7.33144">
        <ele>1008.447</ele>
        <time>2014-10-18T08:26:39Z</time>
      </trkpt>
      <trkpt lat="43.97918" lon="7.33148">
        <ele>1010.548</ele>
        <time>2014-10-18T08:26:46Z</time>
      </trkpt>
      <trkpt lat="43.97914" lon="7.3315">
        <ele>1012.234</ele>
        <time>2014-10-18T08:26:53Z</time>
      </trkpt>
      <trkpt lat="43.97914" lon="7.33154">
        <ele>1014.629</ele>
        <time>2014-10-18T08:26:58Z</time>
      </trkpt>
      <trkpt lat="43.97912" lon="7.33158">
        <ele>1014.187</ele>
        <time>2014-10-18T08:27:05Z</time>
      </trkpt>
      <trkpt lat="43.97911" lon="7.33162">
        <ele>1017.891</ele>
        <time>2014-10-18T08:27:11Z</time>
      </trkpt>
      <trkpt lat="43.97908" lon="7.33166">
        <ele>1015.963</ele>
        <time>2014-10-18T08:27:17Z</time>
      </trkpt>
      <trkpt lat="43.97907" lon="7.33172">
        <ele>1019.272</ele>
        <time>2014-10-18T08:27:23Z</time>
      </trkpt>
      <trkpt lat="43.97901" lon="7.33179">
        <ele>1020.116</ele>
        <time>2014-10-18T08:27:30Z</time>
      </trkpt>
      <trkpt lat="43.97898" lon="7.33184">
        <ele>1016.508</ele>
        <time>2014-10-18T08:27:36Z</time>
      </trkpt>
      <trkpt lat="43.97897" lon="7.33187">
        <ele>1015.847</ele>
        <time>2014-10-18T08:27:41Z</time>
      </trkpt>
      <trkpt lat="43.97896" lon="7.33191">
        <ele>1018.273</ele>
        <time>2014-10-18T08:27:45Z</time>
      </trkpt>
      <trkpt lat="43.97895" lon="7.33195">
        <ele>1018.56</ele>
        <time>2014-10-18T08:27:52Z</time>
      </trkpt>
      <trkpt lat="43.97896" lon="7.33199">
        <ele>1019.972</ele>
        <time>2014-10-18T08:27:57Z</time>
      </trkpt>
      <trkpt lat="43.97898" lon="7.33208">
        <ele>1029.526</ele>
        <time>2014-10-18T08:28:06Z</time>
      </trkpt>
      <trkpt lat="43.97898" lon="7.33211">
        <ele>1030.328</ele>
        <time>2014-10-18T08:28:11Z</time>
      </trkpt>
      <trkpt lat="43.97896" lon="7.33217">
        <ele>1031.567</ele>
        <time>2014-10-18T08:28:18Z</time>
      </trkpt>
      <trkpt lat="43.97895" lon="7.33223">
        <ele>1033.056</ele>
        <time>2014-10-18T08:28:23Z</time>
      </trkpt>
      <trkpt lat="43.97896" lon="7.33233">
        <ele>1042.292</ele>
        <time>2014-10-18T08:28:34Z</time>
      </trkpt>
      <trkpt lat="43.97892" lon="7.33234">
        <ele>1040.325</ele>
        <time>2014-10-18T08:28:38Z</time>
      </trkpt>
      <trkpt lat="43.97889" lon="7.3324">
        <ele>1039.141</ele>
        <time>2014-10-18T08:28:47Z</time>
      </trkpt>
      <trkpt lat="43.97892" lon="7.33251">
        <ele>1041.012</ele>
        <time>2014-10-18T08:28:58Z</time>
      </trkpt>
      <trkpt lat="43.97888" lon="7.33256">
        <ele>1039.692</ele>
        <time>2014-10-18T08:29:05Z</time>
      </trkpt>
      <trkpt lat="43.97887" lon="7.33259">
        <ele>1041.967</ele>
        <time>2014-10-18T08:29:09Z</time>
      </trkpt>
      <trkpt lat="43.97887" lon="7.33264">
        <ele>1043.451</ele>
        <time>2014-10-18T08:29:14Z</time>
      </trkpt>
      <trkpt lat="43.97886" lon="7.33266">
        <ele>1042.378</ele>
        <time>2014-10-18T08:29:15Z</time>
      </trkpt>
      <trkpt lat="43.97886" lon="7.33275">
        <ele>1039.184</ele>
        <time>2014-10-18T08:29:22Z</time>
      </trkpt>
      <trkpt lat="43.97895" lon="7.33288">
        <ele>1046.169</ele>
        <time>2014-10-18T08:29:39Z</time>
      </trkpt>
      <trkpt lat="43.97895" lon="7.33295">
        <ele>1045.245</ele>
        <time>2014-10-18T08:29:45Z</time>
      </trkpt>
      <trkpt lat="43.97888" lon="7.33304">
        <ele>1044.781</ele>
        <time>2014-10-18T08:29:53Z</time>
      </trkpt>
      <trkpt lat="43.97887" lon="7.3331">
        <ele>1043.22</ele>
        <time>2014-10-18T08:30:00Z</time>
      </trkpt>
      <trkpt lat="43.97886" lon="7.3332">
        <ele>1043.923</ele>
        <time>2014-10-18T08:30:06Z</time>
      </trkpt>
      <trkpt lat="43.97884" lon="7.33329">
        <ele>1047.723</ele>
        <time>2014-10-18T08:30:12Z</time>
      </trkpt>
      <trkpt lat="43.97884" lon="7.33331">
        <ele>1049.165</ele>
        <time>2014-10-18T08:30:13Z</time>
      </trkpt>
      <trkpt lat="43.97884" lon="7.33337">
        <ele>1051.638</ele>
        <time>2014-10-18T08:30:17Z</time>
      </trkpt>
      <trkpt lat="43.97887" lon="7.33347">
        <ele>1055.939</ele>
        <time>2014-10-18T08:30:22Z</time>
      </trkpt>
      <trkpt lat="43.97887" lon="7.3335">
        <ele>1058.773</ele>
        <time>2014-10-18T08:30:24Z</time>
      </trkpt>
      <trkpt lat="43.9789" lon="7.3336">
        <ele>1059.449</ele>
        <time>2014-10-18T08:30:30Z</time>
      </trkpt>
      <trkpt lat="43.9789" lon="7.33369">
        <ele>1061.214</ele>
        <time>2014-10-18T08:30:36Z</time>
      </trkpt>
      <trkpt lat="43.97892" lon="7.33382">
        <ele>1063.571</ele>
        <time>2014-10-18T08:30:43Z</time>
      </trkpt>
      <trkpt lat="43.97892" lon="7.33388">
        <ele>1062.557</ele>
        <time>2014-10-18T08:30:48Z</time>
      </trkpt>
      <trkpt lat="43.97893" lon="7.33394">
        <ele>1067.409</ele>
        <time>2014-10-18T08:30:54Z</time>
      </trkpt>
      <trkpt lat="43.97892" lon="7.33395">
        <ele>1065.986</ele>
        <time>2014-10-18T08:30:57Z</time>
      </trkpt>
      <trkpt lat="43.97886" lon="7.33394">
        <ele>1064.444</ele>
        <time>2014-10-18T08:31:03Z</time>
      </trkpt>
      <trkpt lat="43.97887" lon="7.33397">
        <ele>1066.561</ele>
        <time>2014-10-18T08:31:47Z</time>
      </trkpt>
      <trkpt lat="43.97885" lon="7.33397">
        <ele>1066.042</ele>
        <time>2014-10-18T08:31:49Z</time>
      </trkpt>
      <trkpt lat="43.97878" lon="7.334">
        <ele>1066.925</ele>
        <time>2014-10-18T08:31:56Z</time>
      </trkpt>
      <trkpt lat="43.97874" lon="7.33402">
        <ele>1076.235</ele>
        <time>2014-10-18T08:32:02Z</time>
      </trkpt>
      <trkpt lat="43.97869" lon="7.33404">
        <ele>1081.148</ele>
        <time>2014-10-18T08:32:07Z</time>
      </trkpt>
      <trkpt lat="43.97864" lon="7.33408">
        <ele>1087.551</ele>
        <time>2014-10-18T08:32:13Z</time>
      </trkpt>
      <trkpt lat="43.97856" lon="7.3341">
        <ele>1089.865</ele>
        <time>2014-10-18T08:32:19Z</time>
      </trkpt>
      <trkpt lat="43.97848" lon="7.33412">
        <ele>1096.332</ele>
        <time>2014-10-18T08:32:26Z</time>
      </trkpt>
      <trkpt lat="43.97846" lon="7.33412">
        <ele>1100.145</ele>
        <time>2014-10-18T08:32:29Z</time>
      </trkpt>
      <trkpt lat="43.9783" lon="7.3342">
        <ele>1098.066</ele>
        <time>2014-10-18T08:32:37Z</time>
      </trkpt>
      <trkpt lat="43.9782" lon="7.33425">
        <ele>1097.671</ele>
        <time>2014-10-18T08:32:42Z</time>
      </trkpt>
      <trkpt lat="43.9781" lon="7.3343">
        <ele>1096.86</ele>
        <time>2014-10-18T08:32:47Z</time>
      </trkpt>
      <trkpt lat="43.97806" lon="7.33431">
        <ele>1096.469</ele>
        <time>2014-10-18T08:32:49Z</time>
      </trkpt>
      <trkpt lat="43.97795" lon="7.33439">
        <ele>1095.74</ele>
        <time>2014-10-18T08:32:56Z</time>
      </trkpt>
      <trkpt lat="43.97786" lon="7.33444">
        <ele>1093.628</ele>
        <time>2014-10-18T08:33:01Z</time>
      </trkpt>
      <trkpt lat="43.97782" lon="7.33447">
        <ele>1092.567</ele>
        <time>2014-10-18T08:33:03Z</time>
      </trkpt>
      <trkpt lat="43.97776" lon="7.33459">
        <ele>1091.329</ele>
        <time>2014-10-18T08:33:09Z</time>
      </trkpt>
      <trkpt lat="43.97772" lon="7.33471">
        <ele>1089.761</ele>
        <time>2014-10-18T08:33:15Z</time>
      </trkpt>
      <trkpt lat="43.97769" lon="7.33473">
        <ele>1089.231</ele>
        <time>2014-10-18T08:33:17Z</time>
      </trkpt>
      <trkpt lat="43.9776" lon="7.33488">
        <ele>1086.881</ele>
        <time>2014-10-18T08:33:24Z</time>
      </trkpt>
      <trkpt lat="43.97751" lon="7.33496">
        <ele>1086.062</ele>
        <time>2014-10-18T08:33:29Z</time>
      </trkpt>
      <trkpt lat="43.97741" lon="7.335">
        <ele>1085.052</ele>
        <time>2014-10-18T08:33:34Z</time>
      </trkpt>
      <trkpt lat="43.97731" lon="7.33506">
        <ele>1083.071</ele>
        <time>2014-10-18T08:33:40Z</time>
      </trkpt>
      <trkpt lat="43.97727" lon="7.3351">
        <ele>1083.372</ele>
        <time>2014-10-18T08:33:45Z</time>
      </trkpt>
      <trkpt lat="43.97678" lon="7.33645">
        <ele>1117.062</ele>
        <time>2014-10-18T08:37:52Z</time>
      </trkpt>
      <trkpt lat="43.97679" lon="7.33647">
        <ele>1118.672</ele>
        <time>2014-10-18T08:37:53Z</time>
      </trkpt>
      <trkpt lat="43.97665" lon="7.33651">
        <ele>1103.618</ele>
        <time>2014-10-18T08:37:58Z</time>
      </trkpt>
      <trkpt lat="43.97657" lon="7.33663">
        <ele>1093.47</ele>
        <time>2014-10-18T08:38:05Z</time>
      </trkpt>
      <trkpt lat="43.97651" lon="7.33673">
        <ele>1090.916</ele>
        <time>2014-10-18T08:38:10Z</time>
      </trkpt>
      <trkpt lat="43.97645" lon="7.33681">
        <ele>1090.155</ele>
        <time>2014-10-18T08:38:15Z</time>
      </trkpt>
      <trkpt lat="43.9764" lon="7.33688">
        <ele>1090.736</ele>
        <time>2014-10-18T08:38:21Z</time>
      </trkpt>
      <trkpt lat="43.9763" lon="7.337">
        <ele>1090.987</ele>
        <time>2014-10-18T08:38:28Z</time>
      </trkpt>
      <trkpt lat="43.97628" lon="7.33703">
        <ele>1092.369</ele>
        <time>2014-10-18T08:38:30Z</time>
      </trkpt>
      <trkpt lat="43.97621" lon="7.33716">
        <ele>1096.997</ele>
        <time>2014-10-18T08:38:36Z</time>
      </trkpt>
      <trkpt lat="43.97622" lon="7.33732">
        <ele>1106.181</ele>
        <time>2014-10-18T08:38:41Z</time>
      </trkpt>
      <trkpt lat="43.97432" lon="7.33907">
        <ele>1098.384</ele>
        <time>2014-10-18T08:46:28Z</time>
      </trkpt>
      <trkpt lat="43.97425" lon="7.33904">
        <ele>1098.955</ele>
        <time>2014-10-18T08:46:32Z</time>
      </trkpt>
      <trkpt lat="43.97436" lon="7.33919">
        <ele>1106.038</ele>
        <time>2014-10-18T08:46:37Z</time>
      </trkpt>
      <trkpt lat="43.97449" lon="7.33926">
        <ele>1121.089</ele>
        <time>2014-10-18T08:46:38Z</time>
      </trkpt>
      <trkpt lat="43.97468" lon="7.33939">
        <ele>1139.477</ele>
        <time>2014-10-18T08:46:41Z</time>
      </trkpt>
      <trkpt lat="43.9748" lon="7.33958">
        <ele>1130.464</ele>
        <time>2014-10-18T08:46:49Z</time>
      </trkpt>
      <trkpt lat="43.97487" lon="7.33965">
        <ele>1128.997</ele>
        <time>2014-10-18T08:46:53Z</time>
      </trkpt>
      <trkpt lat="43.97494" lon="7.33981">
        <ele>1121.398</ele>
        <time>2014-10-18T08:46:58Z</time>
      </trkpt>
      <trkpt lat="43.97509" lon="7.34001">
        <ele>1118.848</ele>
        <time>2014-10-18T08:47:05Z</time>
      </trkpt>
      <trkpt lat="43.97515" lon="7.3401">
        <ele>1120.893</ele>
        <time>2014-10-18T08:47:10Z</time>
      </trkpt>
      <trkpt lat="43.97522" lon="7.34018">
        <ele>1123.463</ele>
        <time>2014-10-18T08:47:15Z</time>
      </trkpt>
      <trkpt lat="43.97528" lon="7.34028">
        <ele>1127.571</ele>
        <time>2014-10-18T08:47:21Z</time>
      </trkpt>
      <trkpt lat="43.9754" lon="7.34047">
        <ele>1124.178</ele>
        <time>2014-10-18T08:47:28Z</time>
      </trkpt>
      <trkpt lat="43.9755" lon="7.34068">
        <ele>1120.124</ele>
        <time>2014-10-18T08:47:35Z</time>
      </trkpt>
      <trkpt lat="43.97553" lon="7.34075">
        <ele>1119.634</ele>
        <time>2014-10-18T08:47:38Z</time>
      </trkpt>
      <trkpt lat="43.97553" lon="7.34086">
        <ele>1117.87</ele>
        <time>2014-10-18T08:47:42Z</time>
      </trkpt>
      <trkpt lat="43.97544" lon="7.34109">
        <ele>1120.739</ele>
        <time>2014-10-18T08:47:50Z</time>
      </trkpt>
      <trkpt lat="43.97544" lon="7.34111">
        <ele>1122.226</ele>
        <time>2014-10-18T08:47:51Z</time>
      </trkpt>
      <trkpt lat="43.97537" lon="7.34124">
        <ele>1126.132</ele>
        <time>2014-10-18T08:47:57Z</time>
      </trkpt>
      <trkpt lat="43.9753" lon="7.34139">
        <ele>1127.192</ele>
        <time>2014-10-18T08:48:03Z</time>
      </trkpt>
      <trkpt lat="43.97522" lon="7.34154">
        <ele>1127.079</ele>
        <time>2014-10-18T08:48:09Z</time>
      </trkpt>
      <trkpt lat="43.97522" lon="7.34156">
        <ele>1128.182</ele>
        <time>2014-10-18T08:48:10Z</time>
      </trkpt>
      <trkpt lat="43.97516" lon="7.34166">
        <ele>1132.048</ele>
        <time>2014-10-18T08:48:15Z</time>
      </trkpt>
      <trkpt lat="43.97515" lon="7.34177">
        <ele>1138.476</ele>
        <time>2014-10-18T08:48:20Z</time>
      </trkpt>
      <trkpt lat="43.97515" lon="7.34187">
        <ele>1141.818</ele>
        <time>2014-10-18T08:48:24Z</time>
      </trkpt>
      <trkpt lat="43.97511" lon="7.34197">
        <ele>1146.626</ele>
        <time>2014-10-18T08:48:30Z</time>
      </trkpt>
      <trkpt lat="43.97511" lon="7.34207">
        <ele>1155.525</ele>
        <time>2014-10-18T08:48:36Z</time>
      </trkpt>
      <trkpt lat="43.97513" lon="7.34212">
        <ele>1160.988</ele>
        <time>2014-10-18T08:48:39Z</time>
      </trkpt>
      <trkpt lat="43.97512" lon="7.34219">
        <ele>1164.083</ele>
        <time>2014-10-18T08:48:44Z</time>
      </trkpt>
      <trkpt lat="43.97509" lon="7.34224">
        <ele>1166.479</ele>
        <time>2014-10-18T08:48:49Z</time>
      </trkpt>
      <trkpt lat="43.97501" lon="7.34228">
        <ele>1164.629</ele>
        <time>2014-10-18T08:48:54Z</time>
      </trkpt>
      <trkpt lat="43.97494" lon="7.34234">
        <ele>1163.615</ele>
        <time>2014-10-18T08:48:58Z</time>
      </trkpt>
      <trkpt lat="43.97483" lon="7.34242">
        <ele>1161.265</ele>
        <time>2014-10-18T08:49:04Z</time>
      </trkpt>
      <trkpt lat="43.97473" lon="7.34245">
        <ele>1159.753</ele>
        <time>2014-10-18T08:49:08Z</time>
      </trkpt>
      <trkpt lat="43.97466" lon="7.34253">
        <ele>1158.333</ele>
        <time>2014-10-18T08:49:13Z</time>
      </trkpt>
      <trkpt lat="43.97458" lon="7.34258">
        <ele>1157.834</ele>
        <time>2014-10-18T08:49:18Z</time>
      </trkpt>
      <trkpt lat="43.97454" lon="7.34269">
        <ele>1150.468</ele>
        <time>2014-10-18T08:49:23Z</time>
      </trkpt>
      <trkpt lat="43.97453" lon="7.34273">
        <ele>1150.753</ele>
        <time>2014-10-18T08:49:25Z</time>
      </trkpt>
      <trkpt lat="43.97446" lon="7.34286">
        <ele>1145.694</ele>
        <time>2014-10-18T08:49:32Z</time>
      </trkpt>
      <trkpt lat="43.97443" lon="7.34294">
        <ele>1148.067</ele>
        <time>2014-10-18T08:49:39Z</time>
      </trkpt>
      <trkpt lat="43.97432" lon="7.34295">
        <ele>1149.159</ele>
        <time>2014-10-18T08:49:49Z</time>
      </trkpt>
      <trkpt lat="43.97332" lon="7.34389">
        <ele>1156.331</ele>
        <time>2014-10-18T08:51:20Z</time>
      </trkpt>
      <trkpt lat="43.97331" lon="7.34402">
        <ele>1166.366</ele>
        <time>2014-10-18T08:51:27Z</time>
      </trkpt>
      <trkpt lat="43.97323" lon="7.34412">
        <ele>1169.055</ele>
        <time>2014-10-18T08:51:34Z</time>
      </trkpt>
      <trkpt lat="43.97326" lon="7.34423">
        <ele>1177.005</ele>
        <time>2014-10-18T08:51:38Z</time>
      </trkpt>
      <trkpt lat="43.97307" lon="7.34447">
        <ele>1182.782</ele>
        <time>2014-10-18T08:51:54Z</time>
      </trkpt>
      <trkpt lat="43.973" lon="7.3445">
        <ele>1180.774</ele>
        <time>2014-10-18T08:51:59Z</time>
      </trkpt>
      <trkpt lat="43.97293" lon="7.34454">
        <ele>1177.567</ele>
        <time>2014-10-18T08:52:03Z</time>
      </trkpt>
      <trkpt lat="43.97283" lon="7.3446">
        <ele>1174.393</ele>
        <time>2014-10-18T08:52:08Z</time>
      </trkpt>
      <trkpt lat="43.97276" lon="7.34464">
        <ele>1176.247</ele>
        <time>2014-10-18T08:52:12Z</time>
      </trkpt>
      <trkpt lat="43.9727" lon="7.34469">
        <ele>1179.143</ele>
        <time>2014-10-18T08:52:16Z</time>
      </trkpt>
      <trkpt lat="43.97249" lon="7.34477">
        <ele>1171.523</ele>
        <time>2014-10-18T08:52:23Z</time>
      </trkpt>
      <trkpt lat="43.97235" lon="7.34475">
        <ele>1174.095</ele>
        <time>2014-10-18T08:52:28Z</time>
      </trkpt>
      <trkpt lat="43.97212" lon="7.34471">
        <ele>1174.647</ele>
        <time>2014-10-18T08:52:34Z</time>
      </trkpt>
      <trkpt lat="43.9727" lon="7.3455">
        <ele>1183.677</ele>
        <time>2014-10-18T08:53:08Z</time>
      </trkpt>
      <trkpt lat="43.97421" lon="7.34684">
        <ele>1151.744</ele>
        <time>2014-10-18T08:54:43Z</time>
      </trkpt>
      <trkpt lat="43.97428" lon="7.3469">
        <ele>1149.044</ele>
        <time>2014-10-18T08:54:47Z</time>
      </trkpt>
      <trkpt lat="43.97432" lon="7.34696">
        <ele>1147.155</ele>
        <time>2014-10-18T08:54:52Z</time>
      </trkpt>
      <trkpt lat="43.97438" lon="7.34705">
        <ele>1145.495</ele>
        <time>2014-10-18T08:54:58Z</time>
      </trkpt>
      <trkpt lat="43.97445" lon="7.3471">
        <ele>1144.404</ele>
        <time>2014-10-18T08:55:03Z</time>
      </trkpt>
      <trkpt lat="43.97448" lon="7.34713">
        <ele>1144.045</ele>
        <time>2014-10-18T08:55:06Z</time>
      </trkpt>
      <trkpt lat="43.97456" lon="7.34722">
        <ele>1143.505</ele>
        <time>2014-10-18T08:55:13Z</time>
      </trkpt>
      <trkpt lat="43.97464" lon="7.34732">
        <ele>1141.445</ele>
        <time>2014-10-18T08:55:20Z</time>
      </trkpt>
      <trkpt lat="43.97468" lon="7.34737">
        <ele>1140.114</ele>
        <time>2014-10-18T08:55:23Z</time>
      </trkpt>
      <trkpt lat="43.97474" lon="7.34741">
        <ele>1139.275</ele>
        <time>2014-10-18T08:55:27Z</time>
      </trkpt>
      <trkpt lat="43.97488" lon="7.34746">
        <ele>1137.615</ele>
        <time>2014-10-18T08:55:36Z</time>
      </trkpt>
      <trkpt lat="43.97489" lon="7.34747">
        <ele>1137.685</ele>
        <time>2014-10-18T08:55:37Z</time>
      </trkpt>
      <trkpt lat="43.97501" lon="7.3475">
        <ele>1137.798</ele>
        <time>2014-10-18T08:55:44Z</time>
      </trkpt>
      <trkpt lat="43.9751" lon="7.34755">
        <ele>1139.194</ele>
        <time>2014-10-18T08:55:50Z</time>
      </trkpt>
      <trkpt lat="43.97507" lon="7.34742">
        <ele>1174.049</ele>
        <time>2014-10-18T08:55:57Z</time>
      </trkpt>
      <trkpt lat="43.97508" lon="7.34736">
        <ele>1197.632</ele>
        <time>2014-10-18T08:56:04Z</time>
      </trkpt>
      <trkpt lat="43.97517" lon="7.34739">
        <ele>1205.749</ele>
        <time>2014-10-18T08:56:12Z</time>
      </trkpt>
      <trkpt lat="43.97528" lon="7.34746">
        <ele>1203.398</ele>
        <time>2014-10-18T08:56:19Z</time>
      </trkpt>
      <trkpt lat="43.97537" lon="7.34759">
        <ele>1199.24</ele>
        <time>2014-10-18T08:56:25Z</time>
      </trkpt>
      <trkpt lat="43.97535" lon="7.34775">
        <ele>1198.27</ele>
        <time>2014-10-18T08:56:32Z</time>
      </trkpt>
      <trkpt lat="43.97535" lon="7.34778">
        <ele>1198.1</ele>
        <time>2014-10-18T08:56:34Z</time>
      </trkpt>
      <trkpt lat="43.97532" lon="7.34782">
        <ele>1196.406</ele>
        <time>2014-10-18T08:56:38Z</time>
      </trkpt>
      <trkpt lat="43.97519" lon="7.34783">
        <ele>1195.858</ele>
        <time>2014-10-18T08:56:46Z</time>
      </trkpt>
      <trkpt lat="43.97506" lon="7.34785">
        <ele>1196.019</ele>
        <time>2014-10-18T08:56:53Z</time>
      </trkpt>
      <trkpt lat="43.97501" lon="7.34796">
        <ele>1203.184</ele>
        <time>2014-10-18T08:56:59Z</time>
      </trkpt>
      <trkpt lat="43.97491" lon="7.34808">
        <ele>1205.697</ele>
        <time>2014-10-18T08:57:05Z</time>
      </trkpt>
      <trkpt lat="43.9748" lon="7.34817">
        <ele>1208.016</ele>
        <time>2014-10-18T08:57:10Z</time>
      </trkpt>
      <trkpt lat="43.97467" lon="7.34838">
        <ele>1213.633</ele>
        <time>2014-10-18T08:57:18Z</time>
      </trkpt>
      <trkpt lat="43.97461" lon="7.34851">
        <ele>1218.685</ele>
        <time>2014-10-18T08:57:23Z</time>
      </trkpt>
      <trkpt lat="43.97449" lon="7.3488">
        <ele>1219.553</ele>
        <time>2014-10-18T08:57:34Z</time>
      </trkpt>
      <trkpt lat="43.97441" lon="7.34891">
        <ele>1217.355</ele>
        <time>2014-10-18T08:57:39Z</time>
      </trkpt>
      <trkpt lat="43.97442" lon="7.34894">
        <ele>1217.226</ele>
        <time>2014-10-18T08:57:40Z</time>
      </trkpt>
      <trkpt lat="43.97435" lon="7.34916">
        <ele>1210.125</ele>
        <time>2014-10-18T08:57:47Z</time>
      </trkpt>
      <trkpt lat="43.97434" lon="7.34922">
        <ele>1209.977</ele>
        <time>2014-10-18T08:57:49Z</time>
      </trkpt>
      <trkpt lat="43.97426" lon="7.34934">
        <ele>1204.169</ele>
        <time>2014-10-18T08:57:53Z</time>
      </trkpt>
      <trkpt lat="43.97419" lon="7.34951">
        <ele>1200.662</ele>
        <time>2014-10-18T08:57:59Z</time>
      </trkpt>
      <trkpt lat="43.9741" lon="7.34962">
        <ele>1203.725</ele>
        <time>2014-10-18T08:58:05Z</time>
      </trkpt>
      <trkpt lat="43.97406" lon="7.34965">
        <ele>1205.339</ele>
        <time>2014-10-18T08:58:07Z</time>
      </trkpt>
      <trkpt lat="43.97406" lon="7.34988">
        <ele>1205.948</ele>
        <time>2014-10-18T08:58:14Z</time>
      </trkpt>
      <trkpt lat="43.97406" lon="7.34994">
        <ele>1206.44</ele>
        <time>2014-10-18T08:58:16Z</time>
      </trkpt>
      <trkpt lat="43.97397" lon="7.35019">
        <ele>1205.588</ele>
        <time>2014-10-18T08:58:24Z</time>
      </trkpt>
      <trkpt lat="43.97392" lon="7.35032">
        <ele>1205.61</ele>
        <time>2014-10-18T08:58:29Z</time>
      </trkpt>
      <trkpt lat="43.97358" lon="7.35075">
        <ele>1203.38</ele>
        <time>2014-10-18T08:58:48Z</time>
      </trkpt>
      <trkpt lat="43.9734" lon="7.35089">
        <ele>1199.116</ele>
        <time>2014-10-18T08:59:01Z</time>
      </trkpt>
      <trkpt lat="43.9733" lon="7.35094">
        <ele>1200.727</ele>
        <time>2014-10-18T08:59:06Z</time>
      </trkpt>
      <trkpt lat="43.97317" lon="7.35101">
        <ele>1201.177</ele>
        <time>2014-10-18T08:59:13Z</time>
      </trkpt>
      <trkpt lat="43.97309" lon="7.35103">
        <ele>1201.417</ele>
        <time>2014-10-18T08:59:16Z</time>
      </trkpt>
      <trkpt lat="43.97303" lon="7.35108">
        <ele>1200.675</ele>
        <time>2014-10-18T08:59:20Z</time>
      </trkpt>
      <trkpt lat="43.97294" lon="7.35117">
        <ele>1198.634</ele>
        <time>2014-10-18T08:59:26Z</time>
      </trkpt>
      <trkpt lat="43.9729" lon="7.35132">
        <ele>1199.167</ele>
        <time>2014-10-18T08:59:33Z</time>
      </trkpt>
      <trkpt lat="43.97285" lon="7.3514">
        <ele>1199.778</ele>
        <time>2014-10-18T08:59:38Z</time>
      </trkpt>
      <trkpt lat="43.97278" lon="7.35145">
        <ele>1199.567</ele>
        <time>2014-10-18T08:59:43Z</time>
      </trkpt>
      <trkpt lat="43.97273" lon="7.35146">
        <ele>1200.326</ele>
        <time>2014-10-18T08:59:46Z</time>
      </trkpt>
      <trkpt lat="43.97252" lon="7.3514">
        <ele>1197.557</ele>
        <time>2014-10-18T08:59:52Z</time>
      </trkpt>
      <trkpt lat="43.97228" lon="7.35137">
        <ele>1195.577</ele>
        <time>2014-10-18T08:59:58Z</time>
      </trkpt>
      <trkpt lat="43.97198" lon="7.3513">
        <ele>1188.584</ele>
        <time>2014-10-18T09:00:05Z</time>
      </trkpt>
      <trkpt lat="43.97182" lon="7.35132">
        <ele>1183.25</ele>
        <time>2014-10-18T09:00:10Z</time>
      </trkpt>
      <trkpt lat="43.97152" lon="7.35133">
        <ele>1171.797</ele>
        <time>2014-10-18T09:00:18Z</time>
      </trkpt>
      <trkpt lat="43.9715" lon="7.35138">
        <ele>1170.546</ele>
        <time>2014-10-18T09:00:23Z</time>
      </trkpt>
      <trkpt lat="43.97154" lon="7.35143">
        <ele>1171.639</ele>
        <time>2014-10-18T09:00:26Z</time>
      </trkpt>
      <trkpt lat="43.97208" lon="7.35183">
        <ele>1198.372</ele>
        <time>2014-10-18T09:00:33Z</time>
      </trkpt>
      <trkpt lat="43.97247" lon="7.3521">
        <ele>1220.07</ele>
        <time>2014-10-18T09:00:38Z</time>
      </trkpt>
      <trkpt lat="43.97282" lon="7.35233">
        <ele>1230.586</ele>
        <time>2014-10-18T09:00:44Z</time>
      </trkpt>
      <trkpt lat="43.97295" lon="7.3525">
        <ele>1227.422</ele>
        <time>2014-10-18T09:00:50Z</time>
      </trkpt>
      <trkpt lat="43.97302" lon="7.35264">
        <ele>1221.645</ele>
        <time>2014-10-18T09:00:56Z</time>
      </trkpt>
      <trkpt lat="43.97312" lon="7.35274">
        <ele>1221.071</ele>
        <time>2014-10-18T09:01:03Z</time>
      </trkpt>
      <trkpt lat="43.97319" lon="7.35289">
        <ele>1218.761</ele>
        <time>2014-10-18T09:01:10Z</time>
      </trkpt>
      <trkpt lat="43.97329" lon="7.35295">
        <ele>1224.173</ele>
        <time>2014-10-18T09:01:16Z</time>
      </trkpt>
      <trkpt lat="43.97336" lon="7.35296">
        <ele>1231.214</ele>
        <time>2014-10-18T09:01:23Z</time>
      </trkpt>
      <trkpt lat="43.97343" lon="7.35299">
        <ele>1233.244</ele>
        <time>2014-10-18T09:01:28Z</time>
      </trkpt>
      <trkpt lat="43.97348" lon="7.35304">
        <ele>1232.75</ele>
        <time>2014-10-18T09:01:31Z</time>
      </trkpt>
      <trkpt lat="43.97356" lon="7.35313">
        <ele>1237.214</ele>
        <time>2014-10-18T09:01:37Z</time>
      </trkpt>
      <trkpt lat="43.9736" lon="7.35317">
        <ele>1238.597</ele>
        <time>2014-10-18T09:01:39Z</time>
      </trkpt>
      <trkpt lat="43.97369" lon="7.3533">
        <ele>1239.794</ele>
        <time>2014-10-18T09:01:45Z</time>
      </trkpt>
      <trkpt lat="43.97378" lon="7.35341">
        <ele>1240.818</ele>
        <time>2014-10-18T09:01:52Z</time>
      </trkpt>
      <trkpt lat="43.97385" lon="7.35352">
        <ele>1238.302</ele>
        <time>2014-10-18T09:01:57Z</time>
      </trkpt>
      <trkpt lat="43.97391" lon="7.35358">
        <ele>1240.698</ele>
        <time>2014-10-18T09:02:02Z</time>
      </trkpt>
      <trkpt lat="43.97398" lon="7.35365">
        <ele>1241.049</ele>
        <time>2014-10-18T09:02:06Z</time>
      </trkpt>
      <trkpt lat="43.97399" lon="7.35366">
        <ele>1241.902</ele>
        <time>2014-10-18T09:02:07Z</time>
      </trkpt>
      <trkpt lat="43.97405" lon="7.35371">
        <ele>1241.399</ele>
        <time>2014-10-18T09:02:10Z</time>
      </trkpt>
      <trkpt lat="43.97411" lon="7.3538">
        <ele>1239.4</ele>
        <time>2014-10-18T09:02:16Z</time>
      </trkpt>
      <trkpt lat="43.97422" lon="7.35389">
        <ele>1238.471</ele>
        <time>2014-10-18T09:02:31Z</time>
      </trkpt>
      <trkpt lat="43.97422" lon="7.35389">
        <ele>1238.222</ele>
        <time>2014-10-18T09:02:32Z</time>
      </trkpt>
      <trkpt lat="43.97423" lon="7.35391">
        <ele>1234.905</ele>
        <time>2014-10-18T09:02:36Z</time>
      </trkpt>
      <trkpt lat="43.97427" lon="7.35401">
        <ele>1237.82</ele>
        <time>2014-10-18T09:02:43Z</time>
      </trkpt>
      <trkpt lat="43.97425" lon="7.35413">
        <ele>1239.78</ele>
        <time>2014-10-18T09:02:50Z</time>
      </trkpt>
      <trkpt lat="43.97421" lon="7.35423">
        <ele>1238.764</ele>
        <time>2014-10-18T09:02:54Z</time>
      </trkpt>
      <trkpt lat="43.97413" lon="7.35429">
        <ele>1235.053</ele>
        <time>2014-10-18T09:02:59Z</time>
      </trkpt>
      <trkpt lat="43.97403" lon="7.35435">
        <ele>1234.446</ele>
        <time>2014-10-18T09:03:04Z</time>
      </trkpt>
      <trkpt lat="43.97402" lon="7.35439">
        <ele>1235.839</ele>
        <time>2014-10-18T09:03:06Z</time>
      </trkpt>
      <trkpt lat="43.97397" lon="7.35455">
        <ele>1236.366</ele>
        <time>2014-10-18T09:03:13Z</time>
      </trkpt>
      <trkpt lat="43.97397" lon="7.35475">
        <ele>1236.688</ele>
        <time>2014-10-18T09:03:19Z</time>
      </trkpt>
      <trkpt lat="43.97388" lon="7.355">
        <ele>1234.102</ele>
        <time>2014-10-18T09:03:27Z</time>
      </trkpt>
      <trkpt lat="43.9738" lon="7.35513">
        <ele>1238.016</ele>
        <time>2014-10-18T09:03:33Z</time>
      </trkpt>
      <trkpt lat="43.97375" lon="7.35531">
        <ele>1239.426</ele>
        <time>2014-10-18T09:03:39Z</time>
      </trkpt>
      <trkpt lat="43.97373" lon="7.3555">
        <ele>1241.855</ele>
        <time>2014-10-18T09:03:45Z</time>
      </trkpt>
      <trkpt lat="43.9737" lon="7.35575">
        <ele>1236.559</ele>
        <time>2014-10-18T09:03:51Z</time>
      </trkpt>
      <trkpt lat="43.97365" lon="7.35604">
        <ele>1235.185</ele>
        <time>2014-10-18T09:03:59Z</time>
      </trkpt>
      <trkpt lat="43.97357" lon="7.35618">
        <ele>1236.691</ele>
        <time>2014-10-18T09:04:05Z</time>
      </trkpt>
      <trkpt lat="43.97343" lon="7.35627">
        <ele>1243.356</ele>
        <time>2014-10-18T09:04:10Z</time>
      </trkpt>
      <trkpt lat="43.97333" lon="7.35637">
        <ele>1252.589</ele>
        <time>2014-10-18T09:04:15Z</time>
      </trkpt>
      <trkpt lat="43.97325" lon="7.35645">
        <ele>1263.582</ele>
        <time>2014-10-18T09:04:20Z</time>
      </trkpt>
      <trkpt lat="43.97325" lon="7.35655">
        <ele>1268.74</ele>
        <time>2014-10-18T09:04:24Z</time>
      </trkpt>
      <trkpt lat="43.97332" lon="7.35678">
        <ele>1269.466</ele>
        <time>2014-10-18T09:04:30Z</time>
      </trkpt>
      <trkpt lat="43.97338" lon="7.35684">
        <ele>1268</ele>
        <time>2014-10-18T09:04:32Z</time>
      </trkpt>
      <trkpt lat="43.97358" lon="7.35696">
        <ele>1268.559</ele>
        <time>2014-10-18T09:04:39Z</time>
      </trkpt>
      <trkpt lat="43.97375" lon="7.35713">
        <ele>1261.449</ele>
        <time>2014-10-18T09:04:46Z</time>
      </trkpt>
      <trkpt lat="43.97382" lon="7.35729">
        <ele>1255.371</ele>
        <time>2014-10-18T09:04:51Z</time>
      </trkpt>
      <trkpt lat="43.97388" lon="7.35755">
        <ele>1242.21</ele>
        <time>2014-10-18T09:04:58Z</time>
      </trkpt>
      <trkpt lat="43.97395" lon="7.35765">
        <ele>1244.821</ele>
        <time>2014-10-18T09:05:03Z</time>
      </trkpt>
      <trkpt lat="43.97396" lon="7.35767">
        <ele>1247.318</ele>
        <time>2014-10-18T09:05:07Z</time>
      </trkpt>
      <trkpt lat="43.97407" lon="7.35777">
        <ele>1246.958</ele>
        <time>2014-10-18T09:05:13Z</time>
      </trkpt>
      <trkpt lat="43.9742" lon="7.35794">
        <ele>1242.454</ele>
        <time>2014-10-18T09:05:21Z</time>
      </trkpt>
      <trkpt lat="43.97433" lon="7.35801">
        <ele>1247.553</ele>
        <time>2014-10-18T09:05:27Z</time>
      </trkpt>
      <trkpt lat="43.97445" lon="7.35804">
        <ele>1260.576</ele>
        <time>2014-10-18T09:05:34Z</time>
      </trkpt>
      <trkpt lat="43.97453" lon="7.35814">
        <ele>1270.108</ele>
        <time>2014-10-18T09:05:41Z</time>
      </trkpt>
      <trkpt lat="43.97454" lon="7.35818">
        <ele>1269.596</ele>
        <time>2014-10-18T09:05:42Z</time>
      </trkpt>
      <trkpt lat="43.97456" lon="7.35834">
        <ele>1274.576</ele>
        <time>2014-10-18T09:05:49Z</time>
      </trkpt>
      <trkpt lat="43.97463" lon="7.35843">
        <ele>1283.094</ele>
        <time>2014-10-18T09:05:54Z</time>
      </trkpt>
      <trkpt lat="43.97466" lon="7.35855">
        <ele>1285.848</ele>
        <time>2014-10-18T09:05:59Z</time>
      </trkpt>
      <trkpt lat="43.97471" lon="7.3587">
        <ele>1285.754</ele>
        <time>2014-10-18T09:06:03Z</time>
      </trkpt>
      <trkpt lat="43.97469" lon="7.35892">
        <ele>1276.422</ele>
        <time>2014-10-18T09:06:09Z</time>
      </trkpt>
      <trkpt lat="43.97469" lon="7.359">
        <ele>1272.566</ele>
        <time>2014-10-18T09:06:11Z</time>
      </trkpt>
      <trkpt lat="43.97464" lon="7.35916">
        <ele>1263.339</ele>
        <time>2014-10-18T09:06:16Z</time>
      </trkpt>
      <trkpt lat="43.9746" lon="7.35926">
        <ele>1256.236</ele>
        <time>2014-10-18T09:06:20Z</time>
      </trkpt>
      <trkpt lat="43.97463" lon="7.35934">
        <ele>1252.072</ele>
        <time>2014-10-18T09:06:26Z</time>
      </trkpt>
      <trkpt lat="43.97466" lon="7.35934">
        <ele>1253.329</ele>
        <time>2014-10-18T09:06:29Z</time>
      </trkpt>
      <trkpt lat="43.97484" lon="7.35933">
        <ele>1267.384</ele>
        <time>2014-10-18T09:06:36Z</time>
      </trkpt>
      <trkpt lat="43.97487" lon="7.3593">
        <ele>1269.265</ele>
        <time>2014-10-18T09:06:38Z</time>
      </trkpt>
      <trkpt lat="43.97485" lon="7.35924">
        <ele>1274.27</ele>
        <time>2014-10-18T09:06:41Z</time>
      </trkpt>
      <trkpt lat="43.97499" lon="7.3592">
        <ele>1278.913</ele>
        <time>2014-10-18T09:06:47Z</time>
      </trkpt>
      <trkpt lat="43.97499" lon="7.35917">
        <ele>1280.568</ele>
        <time>2014-10-18T09:06:48Z</time>
      </trkpt>
      <trkpt lat="43.97505" lon="7.35915">
        <ele>1282.611</ele>
        <time>2014-10-18T09:06:51Z</time>
      </trkpt>
      <trkpt lat="43.97523" lon="7.35917">
        <ele>1282.41</ele>
        <time>2014-10-18T09:06:57Z</time>
      </trkpt>
      <trkpt lat="43.97528" lon="7.35915">
        <ele>1283.269</ele>
        <time>2014-10-18T09:06:59Z</time>
      </trkpt>
      <trkpt lat="43.97543" lon="7.3591">
        <ele>1287.842</ele>
        <time>2014-10-18T09:07:04Z</time>
      </trkpt>
      <trkpt lat="43.97555" lon="7.35898">
        <ele>1293.572</ele>
        <time>2014-10-18T09:07:11Z</time>
      </trkpt>
      <trkpt lat="43.97562" lon="7.35889">
        <ele>1293.707</ele>
        <time>2014-10-18T09:07:17Z</time>
      </trkpt>
      <trkpt lat="43.97569" lon="7.35876">
        <ele>1294.204</ele>
        <time>2014-10-18T09:07:24Z</time>
      </trkpt>
      <trkpt lat="43.97577" lon="7.35866">
        <ele>1296.163</ele>
        <time>2014-10-18T09:07:31Z</time>
      </trkpt>
      <trkpt lat="43.97591" lon="7.35863">
        <ele>1299.379</ele>
        <time>2014-10-18T09:07:37Z</time>
      </trkpt>
      <trkpt lat="43.97595" lon="7.35855">
        <ele>1291.623</ele>
        <time>2014-10-18T09:07:44Z</time>
      </trkpt>
      <trkpt lat="43.97595" lon="7.35842">
        <ele>1284.478</ele>
        <time>2014-10-18T09:07:50Z</time>
      </trkpt>
      <trkpt lat="43.97604" lon="7.35832">
        <ele>1275.699</ele>
        <time>2014-10-18T09:07:57Z</time>
      </trkpt>
      <trkpt lat="43.97615" lon="7.35822">
        <ele>1282.316</ele>
        <time>2014-10-18T09:08:05Z</time>
      </trkpt>
      <trkpt lat="43.97626" lon="7.35819">
        <ele>1284.756</ele>
        <time>2014-10-18T09:08:13Z</time>
      </trkpt>
      <trkpt lat="43.97635" lon="7.35816">
        <ele>1286.007</ele>
        <time>2014-10-18T09:08:19Z</time>
      </trkpt>
      <trkpt lat="43.97645" lon="7.35815">
        <ele>1285.1</ele>
        <time>2014-10-18T09:08:25Z</time>
      </trkpt>
      <trkpt lat="43.97654" lon="7.35814">
        <ele>1286.308</ele>
        <time>2014-10-18T09:08:31Z</time>
      </trkpt>
      <trkpt lat="43.97657" lon="7.35811">
        <ele>1289.03</ele>
        <time>2014-10-18T09:08:33Z</time>
      </trkpt>
      <trkpt lat="43.9767" lon="7.35808">
        <ele>1288.77</ele>
        <time>2014-10-18T09:08:41Z</time>
      </trkpt>
      <trkpt lat="43.97683" lon="7.35803">
        <ele>1287.872</ele>
        <time>2014-10-18T09:08:48Z</time>
      </trkpt>
      <trkpt lat="43.97693" lon="7.35793">
        <ele>1288.793</ele>
        <time>2014-10-18T09:08:55Z</time>
      </trkpt>
      <trkpt lat="43.97706" lon="7.35785">
        <ele>1288.692</ele>
        <time>2014-10-18T09:09:03Z</time>
      </trkpt>
      <trkpt lat="43.97722" lon="7.3577">
        <ele>1281.619</ele>
        <time>2014-10-18T09:09:13Z</time>
      </trkpt>
      <trkpt lat="43.97727" lon="7.35747">
        <ele>1287.335</ele>
        <time>2014-10-18T09:09:21Z</time>
      </trkpt>
      <trkpt lat="43.97734" lon="7.35737">
        <ele>1284.539</ele>
        <time>2014-10-18T09:09:27Z</time>
      </trkpt>
      <trkpt lat="43.97746" lon="7.35728">
        <ele>1282.718</ele>
        <time>2014-10-18T09:09:35Z</time>
      </trkpt>
      <trkpt lat="43.97756" lon="7.35721">
        <ele>1288.495</ele>
        <time>2014-10-18T09:09:42Z</time>
      </trkpt>
      <trkpt lat="43.97769" lon="7.35718">
        <ele>1295.678</ele>
        <time>2014-10-18T09:09:50Z</time>
      </trkpt>
      <trkpt lat="43.97784" lon="7.3572">
        <ele>1290.803</ele>
        <time>2014-10-18T09:09:57Z</time>
      </trkpt>
      <trkpt lat="43.97785" lon="7.35719">
        <ele>1291.257</ele>
        <time>2014-10-18T09:09:58Z</time>
      </trkpt>
      <trkpt lat="43.97787" lon="7.35729">
        <ele>1291.424</ele>
        <time>2014-10-18T09:10:04Z</time>
      </trkpt>
      <trkpt lat="43.97785" lon="7.35728">
        <ele>1292.956</ele>
        <time>2014-10-18T09:10:06Z</time>
      </trkpt>
      <trkpt lat="43.97775" lon="7.35723">
        <ele>1296.855</ele>
        <time>2014-10-18T09:10:13Z</time>
      </trkpt>
      <trkpt lat="43.97765" lon="7.35724">
        <ele>1297.403</ele>
        <time>2014-10-18T09:10:20Z</time>
      </trkpt>
      <trkpt lat="43.97755" lon="7.35727">
        <ele>1295.36</ele>
        <time>2014-10-18T09:10:26Z</time>
      </trkpt>
      <trkpt lat="43.97747" lon="7.3574">
        <ele>1291.686</ele>
        <time>2014-10-18T09:10:32Z</time>
      </trkpt>
      <trkpt lat="43.97743" lon="7.35758">
        <ele>1288.746</ele>
        <time>2014-10-18T09:10:38Z</time>
      </trkpt>
      <trkpt lat="43.97741" lon="7.35773">
        <ele>1285.524</ele>
        <time>2014-10-18T09:10:44Z</time>
      </trkpt>
      <trkpt lat="43.97741" lon="7.35776">
        <ele>1284.983</ele>
        <time>2014-10-18T09:10:45Z</time>
      </trkpt>
      <trkpt lat="43.9774" lon="7.35787">
        <ele>1282.902</ele>
        <time>2014-10-18T09:10:49Z</time>
      </trkpt>
      <trkpt lat="43.97737" lon="7.35797">
        <ele>1281.091</ele>
        <time>2014-10-18T09:10:53Z</time>
      </trkpt>
      <trkpt lat="43.97731" lon="7.35815">
        <ele>1280.153</ele>
        <time>2014-10-18T09:11:00Z</time>
      </trkpt>
      <trkpt lat="43.97724" lon="7.35832">
        <ele>1281.084</ele>
        <time>2014-10-18T09:11:08Z</time>
      </trkpt>
      <trkpt lat="43.97713" lon="7.35845">
        <ele>1284.301</ele>
        <time>2014-10-18T09:11:18Z</time>
      </trkpt>
      <trkpt lat="43.97701" lon="7.35852">
        <ele>1285.91</ele>
        <time>2014-10-18T09:11:26Z</time>
      </trkpt>
      <trkpt lat="43.97691" lon="7.35857">
        <ele>1288.212</ele>
        <time>2014-10-18T09:11:33Z</time>
      </trkpt>
      <trkpt lat="43.9768" lon="7.35863">
        <ele>1291.395</ele>
        <time>2014-10-18T09:11:41Z</time>
      </trkpt>
      <trkpt lat="43.9767" lon="7.35868">
        <ele>1294.082</ele>
        <time>2014-10-18T09:11:48Z</time>
      </trkpt>
      <trkpt lat="43.97663" lon="7.35873">
        <ele>1295.203</ele>
        <time>2014-10-18T09:11:54Z</time>
      </trkpt>
      <trkpt lat="43.97654" lon="7.35883">
        <ele>1295.342</ele>
        <time>2014-10-18T09:12:01Z</time>
      </trkpt>
      <trkpt lat="43.97645" lon="7.35891">
        <ele>1296.341</ele>
        <time>2014-10-18T09:12:08Z</time>
      </trkpt>
      <trkpt lat="43.97639" lon="7.35909">
        <ele>1294.279</ele>
        <time>2014-10-18T09:12:16Z</time>
      </trkpt>
      <trkpt lat="43.97636" lon="7.35923">
        <ele>1292.414</ele>
        <time>2014-10-18T09:12:23Z</time>
      </trkpt>
      <trkpt lat="43.9763" lon="7.35937">
        <ele>1293.914</ele>
        <time>2014-10-18T09:12:31Z</time>
      </trkpt>
      <trkpt lat="43.97623" lon="7.35944">
        <ele>1295.159</ele>
        <time>2014-10-18T09:12:37Z</time>
      </trkpt>
      <trkpt lat="43.97621" lon="7.35945">
        <ele>1295.219</ele>
        <time>2014-10-18T09:12:38Z</time>
      </trkpt>
      <trkpt lat="43.97612" lon="7.35946">
        <ele>1298.275</ele>
        <time>2014-10-18T09:12:44Z</time>
      </trkpt>
      <trkpt lat="43.97601" lon="7.35954">
        <ele>1300.784</ele>
        <time>2014-10-18T09:12:52Z</time>
      </trkpt>
      <trkpt lat="43.97592" lon="7.35963">
        <ele>1304.608</ele>
        <time>2014-10-18T09:13:00Z</time>
      </trkpt>
      <trkpt lat="43.97583" lon="7.35973">
        <ele>1302.401</ele>
        <time>2014-10-18T09:13:07Z</time>
      </trkpt>
      <trkpt lat="43.97581" lon="7.35976">
        <ele>1303.281</ele>
        <time>2014-10-18T09:13:09Z</time>
      </trkpt>
      <trkpt lat="43.97571" lon="7.35988">
        <ele>1304.831</ele>
        <time>2014-10-18T09:13:17Z</time>
      </trkpt>
      <trkpt lat="43.97563" lon="7.36002">
        <ele>1307.786</ele>
        <time>2014-10-18T09:13:25Z</time>
      </trkpt>
      <trkpt lat="43.97563" lon="7.36003">
        <ele>1308.436</ele>
        <time>2014-10-18T09:13:26Z</time>
      </trkpt>
      <trkpt lat="43.97559" lon="7.3601">
        <ele>1310.336</ele>
        <time>2014-10-18T09:13:30Z</time>
      </trkpt>
      <trkpt lat="43.97552" lon="7.36023">
        <ele>1312.314</ele>
        <time>2014-10-18T09:13:38Z</time>
      </trkpt>
      <trkpt lat="43.97548" lon="7.36025">
        <ele>1313.428</ele>
        <time>2014-10-18T09:13:41Z</time>
      </trkpt>
      <trkpt lat="43.97542" lon="7.36025">
        <ele>1318.124</ele>
        <time>2014-10-18T09:13:47Z</time>
      </trkpt>
      <trkpt lat="43.97532" lon="7.36028">
        <ele>1320.316</ele>
        <time>2014-10-18T09:13:54Z</time>
      </trkpt>
      <trkpt lat="43.97524" lon="7.36028">
        <ele>1321.975</ele>
        <time>2014-10-18T09:14:00Z</time>
      </trkpt>
      <trkpt lat="43.97523" lon="7.36029">
        <ele>1321.683</ele>
        <time>2014-10-18T09:14:01Z</time>
      </trkpt>
      <trkpt lat="43.97513" lon="7.36037">
        <ele>1316.363</ele>
        <time>2014-10-18T09:14:06Z</time>
      </trkpt>
      <trkpt lat="43.97504" lon="7.36043">
        <ele>1316.113</ele>
        <time>2014-10-18T09:14:11Z</time>
      </trkpt>
      <trkpt lat="43.97506" lon="7.36056">
        <ele>1318.588</ele>
        <time>2014-10-18T09:14:17Z</time>
      </trkpt>
      <trkpt lat="43.97503" lon="7.36063">
        <ele>1318.948</ele>
        <time>2014-10-18T09:14:21Z</time>
      </trkpt>
      <trkpt lat="43.97492" lon="7.36076">
        <ele>1318.638</ele>
        <time>2014-10-18T09:14:29Z</time>
      </trkpt>
      <trkpt lat="43.97481" lon="7.36085">
        <ele>1318.909</ele>
        <time>2014-10-18T09:14:37Z</time>
      </trkpt>
      <trkpt lat="43.97465" lon="7.36091">
        <ele>1316.528</ele>
        <time>2014-10-18T09:14:45Z</time>
      </trkpt>
      <trkpt lat="43.9746" lon="7.361">
        <ele>1316.837</ele>
        <time>2014-10-18T09:14:51Z</time>
      </trkpt>
      <trkpt lat="43.97457" lon="7.36101">
        <ele>1314.202</ele>
        <time>2014-10-18T09:14:52Z</time>
      </trkpt>
      <trkpt lat="43.97444" lon="7.36101">
        <ele>1317.558</ele>
        <time>2014-10-18T09:14:59Z</time>
      </trkpt>
      <trkpt lat="43.97441" lon="7.36096">
        <ele>1321.114</ele>
        <time>2014-10-18T09:15:05Z</time>
      </trkpt>
      <trkpt lat="43.97442" lon="7.36094">
        <ele>1323.106</ele>
        <time>2014-10-18T09:15:07Z</time>
      </trkpt>
      <trkpt lat="43.97435" lon="7.36078">
        <ele>1328.9</ele>
        <time>2014-10-18T09:15:15Z</time>
      </trkpt>
      <trkpt lat="43.97428" lon="7.36071">
        <ele>1330.446</ele>
        <time>2014-10-18T09:15:21Z</time>
      </trkpt>
      <trkpt lat="43.97427" lon="7.36071">
        <ele>1330.075</ele>
        <time>2014-10-18T09:15:22Z</time>
      </trkpt>
      <trkpt lat="43.97416" lon="7.36066">
        <ele>1331.625</ele>
        <time>2014-10-18T09:15:29Z</time>
      </trkpt>
      <trkpt lat="43.97402" lon="7.36067">
        <ele>1325.944</ele>
        <time>2014-10-18T09:15:38Z</time>
      </trkpt>
      <trkpt lat="43.97394" lon="7.36063">
        <ele>1327.628</ele>
        <time>2014-10-18T09:15:44Z</time>
      </trkpt>
      <trkpt lat="43.97387" lon="7.36063">
        <ele>1331.742</ele>
        <time>2014-10-18T09:15:51Z</time>
      </trkpt>
      <trkpt lat="43.9738" lon="7.3606">
        <ele>1331.451</ele>
        <time>2014-10-18T09:15:55Z</time>
      </trkpt>
      <trkpt lat="43.97374" lon="7.36054">
        <ele>1335.074</ele>
        <time>2014-10-18T09:16:00Z</time>
      </trkpt>
      <trkpt lat="43.97366" lon="7.36043">
        <ele>1334.432</ele>
        <time>2014-10-18T09:16:05Z</time>
      </trkpt>
      <trkpt lat="43.9736" lon="7.36025">
        <ele>1338.097</ele>
        <time>2014-10-18T09:16:11Z</time>
      </trkpt>
      <trkpt lat="43.97362" lon="7.3601">
        <ele>1343.182</ele>
        <time>2014-10-18T09:16:17Z</time>
      </trkpt>
      <trkpt lat="43.97363" lon="7.35998">
        <ele>1347.737</ele>
        <time>2014-10-18T09:16:22Z</time>
      </trkpt>
      <trkpt lat="43.97365" lon="7.35986">
        <ele>1351.178</ele>
        <time>2014-10-18T09:16:29Z</time>
      </trkpt>
      <trkpt lat="43.97364" lon="7.3598">
        <ele>1352.937</ele>
        <time>2014-10-18T09:16:32Z</time>
      </trkpt>
      <trkpt lat="43.97355" lon="7.35968">
        <ele>1350.67</ele>
        <time>2014-10-18T09:16:37Z</time>
      </trkpt>
      <trkpt lat="43.97341" lon="7.35944">
        <ele>1358.289</ele>
        <time>2014-10-18T09:16:45Z</time>
      </trkpt>
      <trkpt lat="43.97334" lon="7.35928">
        <ele>1360.347</ele>
        <time>2014-10-18T09:16:49Z</time>
      </trkpt>
      <trkpt lat="43.97353" lon="7.35924">
        <ele>1372.374</ele>
        <time>2014-10-18T09:16:54Z</time>
      </trkpt>
      <trkpt lat="43.97348" lon="7.35924">
        <ele>1367.122</ele>
        <time>2014-10-18T09:16:55Z</time>
      </trkpt>
      <trkpt lat="43.97323" lon="7.35911">
        <ele>1355.148</ele>
        <time>2014-10-18T09:17:03Z</time>
      </trkpt>
      <trkpt lat="43.97323" lon="7.35908">
        <ele>1356.602</ele>
        <time>2014-10-18T09:17:08Z</time>
      </trkpt>
      <trkpt lat="43.97326" lon="7.35901">
        <ele>1365.807</ele>
        <time>2014-10-18T09:17:21Z</time>
      </trkpt>
      <trkpt lat="43.97324" lon="7.35902">
        <ele>1364.601</ele>
        <time>2014-10-18T09:17:28Z</time>
      </trkpt>
      <trkpt lat="43.97324" lon="7.35907">
        <ele>1358.248</ele>
        <time>2014-10-18T09:17:35Z</time>
      </trkpt>
      <trkpt lat="43.9734" lon="7.35913">
        <ele>1365.608</ele>
        <time>2014-10-18T09:17:43Z</time>
      </trkpt>
      <trkpt lat="43.97348" lon="7.35913">
        <ele>1374.063</ele>
        <time>2014-10-18T09:17:46Z</time>
      </trkpt>
      <trkpt lat="43.97358" lon="7.35912">
        <ele>1385.582</ele>
        <time>2014-10-18T09:17:50Z</time>
      </trkpt>
      <trkpt lat="43.97372" lon="7.35915">
        <ele>1395.664</ele>
        <time>2014-10-18T09:18:02Z</time>
      </trkpt>
      <trkpt lat="43.97358" lon="7.35917">
        <ele>1379.486</ele>
        <time>2014-10-18T09:18:11Z</time>
      </trkpt>
      <trkpt lat="43.97392" lon="7.35931">
        <ele>1395.825</ele>
        <time>2014-10-18T09:18:21Z</time>
      </trkpt>
      <trkpt lat="43.97401" lon="7.35923">
        <ele>1416.741</ele>
        <time>2014-10-18T09:18:33Z</time>
      </trkpt>
      <trkpt lat="43.97404" lon="7.35914">
        <ele>1432.805</ele>
        <time>2014-10-18T09:18:39Z</time>
      </trkpt>
      <trkpt lat="43.97401" lon="7.3591">
        <ele>1436.007</ele>
        <time>2014-10-18T09:18:43Z</time>
      </trkpt>
      <trkpt lat="43.97398" lon="7.35904">
        <ele>1442.543</ele>
        <time>2014-10-18T09:18:49Z</time>
      </trkpt>
      <trkpt lat="43.97382" lon="7.359">
        <ele>1428.794</ele>
        <time>2014-10-18T09:18:55Z</time>
      </trkpt>
      <trkpt lat="43.97366" lon="7.35907">
        <ele>1382.253</ele>
        <time>2014-10-18T09:20:18Z</time>
      </trkpt>
      <trkpt lat="43.97385" lon="7.35915">
        <ele>1390.514</ele>
        <time>2014-10-18T09:20:26Z</time>
      </trkpt>
      <trkpt lat="43.97358" lon="7.35924">
        <ele>1351.606</ele>
        <time>2014-10-18T09:20:45Z</time>
      </trkpt>
      <trkpt lat="43.97353" lon="7.35925">
        <ele>1343.761</ele>
        <time>2014-10-18T09:20:54Z</time>
      </trkpt>
      <trkpt lat="43.9735" lon="7.35924">
        <ele>1341.286</ele>
        <time>2014-10-18T09:21:02Z</time>
      </trkpt>
      <trkpt lat="43.97355" lon="7.3591">
        <ele>1372.564</ele>
        <time>2014-10-18T09:21:23Z</time>
      </trkpt>
      <trkpt lat="43.97356" lon="7.35893">
        <ele>1410.067</ele>
        <time>2014-10-18T09:21:35Z</time>
      </trkpt>
      <trkpt lat="43.97362" lon="7.35892">
        <ele>1413.992</ele>
        <time>2014-10-18T09:21:44Z</time>
      </trkpt>
      <trkpt lat="43.97358" lon="7.35892">
        <ele>1410.06</ele>
        <time>2014-10-18T09:21:50Z</time>
      </trkpt>
      <trkpt lat="43.97304" lon="7.35896">
        <ele>1358.6</ele>
        <time>2014-10-18T09:22:36Z</time>
      </trkpt>
      <trkpt lat="43.9732" lon="7.359">
        <ele>1362.672</ele>
        <time>2014-10-18T09:22:41Z</time>
      </trkpt>
      <trkpt lat="43.97335" lon="7.35903">
        <ele>1372.174</ele>
        <time>2014-10-18T09:22:47Z</time>
      </trkpt>
      <trkpt lat="43.97339" lon="7.35904">
        <ele>1382.463</ele>
        <time>2014-10-18T09:22:53Z</time>
      </trkpt>
      <trkpt lat="43.97338" lon="7.35904">
        <ele>1382.041</ele>
        <time>2014-10-18T09:22:54Z</time>
      </trkpt>
      <trkpt lat="43.97339" lon="7.35904">
        <ele>1374.858</ele>
        <time>2014-10-18T09:23:00Z</time>
      </trkpt>
      <trkpt lat="43.97327" lon="7.35903">
        <ele>1364.58</ele>
        <time>2014-10-18T09:23:06Z</time>
      </trkpt>
      <trkpt lat="43.97317" lon="7.35906">
        <ele>1353.868</ele>
        <time>2014-10-18T09:23:11Z</time>
      </trkpt>
      <trkpt lat="43.97316" lon="7.35907">
        <ele>1351.816</ele>
        <time>2014-10-18T09:23:12Z</time>
      </trkpt>
      <trkpt lat="43.97312" lon="7.35919">
        <ele>1343.965</ele>
        <time>2014-10-18T09:23:17Z</time>
      </trkpt>
      <trkpt lat="43.97313" lon="7.35923">
        <ele>1342.976</ele>
        <time>2014-10-18T09:23:18Z</time>
      </trkpt>
      <trkpt lat="43.97322" lon="7.35952">
        <ele>1338.061</ele>
        <time>2014-10-18T09:23:26Z</time>
      </trkpt>
      <trkpt lat="43.97322" lon="7.35962">
        <ele>1336.08</ele>
        <time>2014-10-18T09:23:30Z</time>
      </trkpt>
      <trkpt lat="43.97324" lon="7.35978">
        <ele>1335.864</ele>
        <time>2014-10-18T09:23:36Z</time>
      </trkpt>
      <trkpt lat="43.97331" lon="7.35998">
        <ele>1335.334</ele>
        <time>2014-10-18T09:23:43Z</time>
      </trkpt>
      <trkpt lat="43.97336" lon="7.3602">
        <ele>1335.298</ele>
        <time>2014-10-18T09:23:50Z</time>
      </trkpt>
      <trkpt lat="43.9734" lon="7.3604">
        <ele>1337.814</ele>
        <time>2014-10-18T09:23:56Z</time>
      </trkpt>
      <trkpt lat="43.97344" lon="7.36061">
        <ele>1337.573</ele>
        <time>2014-10-18T09:24:03Z</time>
      </trkpt>
      <trkpt lat="43.97347" lon="7.36078">
        <ele>1336.291</ele>
        <time>2014-10-18T09:24:09Z</time>
      </trkpt>
      <trkpt lat="43.97356" lon="7.36087">
        <ele>1339.287</ele>
        <time>2014-10-18T09:24:14Z</time>
      </trkpt>
      <trkpt lat="43.97362" lon="7.36089">
        <ele>1343.622</ele>
        <time>2014-10-18T09:24:19Z</time>
      </trkpt>
      <trkpt lat="43.97373" lon="7.36093">
        <ele>1348.973</ele>
        <time>2014-10-18T09:24:25Z</time>
      </trkpt>
      <trkpt lat="43.9739" lon="7.36099">
        <ele>1355.736</ele>
        <time>2014-10-18T09:24:33Z</time>
      </trkpt>
      <trkpt lat="43.974" lon="7.36109">
        <ele>1356.155</ele>
        <time>2014-10-18T09:24:40Z</time>
      </trkpt>
      <trkpt lat="43.97406" lon="7.36123">
        <ele>1353.977</ele>
        <time>2014-10-18T09:24:46Z</time>
      </trkpt>
      <trkpt lat="43.97409" lon="7.36131">
        <ele>1353.075</ele>
        <time>2014-10-18T09:24:49Z</time>
      </trkpt>
      <trkpt lat="43.97411" lon="7.36144">
        <ele>1352.609</ele>
        <time>2014-10-18T09:24:56Z</time>
      </trkpt>
      <trkpt lat="43.97415" lon="7.36147">
        <ele>1352.609</ele>
        <time>2014-10-18T09:24:58Z</time>
      </trkpt>
      <trkpt lat="43.97419" lon="7.36154">
        <ele>1353.903</ele>
        <time>2014-10-18T09:25:04Z</time>
      </trkpt>
      <trkpt lat="43.97421" lon="7.36158">
        <ele>1354.996</ele>
        <time>2014-10-18T09:25:10Z</time>
      </trkpt>
      <trkpt lat="43.97431" lon="7.36159">
        <ele>1359.469</ele>
        <time>2014-10-18T09:25:16Z</time>
      </trkpt>
      <trkpt lat="43.97438" lon="7.36163">
        <ele>1359.339</ele>
        <time>2014-10-18T09:25:20Z</time>
      </trkpt>
      <trkpt lat="43.97451" lon="7.36163">
        <ele>1363.624</ele>
        <time>2014-10-18T09:25:26Z</time>
      </trkpt>
      <trkpt lat="43.97453" lon="7.36162">
        <ele>1368.491</ele>
        <time>2014-10-18T09:25:31Z</time>
      </trkpt>
      <trkpt lat="43.97466" lon="7.36167">
        <ele>1365.991</ele>
        <time>2014-10-18T09:25:45Z</time>
      </trkpt>
      <trkpt lat="43.97459" lon="7.36161">
        <ele>1376.861</ele>
        <time>2014-10-18T09:25:53Z</time>
      </trkpt>
      <trkpt lat="43.97462" lon="7.36157">
        <ele>1385.603</ele>
        <time>2014-10-18T09:26:00Z</time>
      </trkpt>
      <trkpt lat="43.97461" lon="7.36158">
        <ele>1387.838</ele>
        <time>2014-10-18T09:26:07Z</time>
      </trkpt>
      <trkpt lat="43.97457" lon="7.36157">
        <ele>1387.375</ele>
        <time>2014-10-18T09:26:10Z</time>
      </trkpt>
      <trkpt lat="43.97445" lon="7.36155">
        <ele>1389.368</ele>
        <time>2014-10-18T09:26:16Z</time>
      </trkpt>
      <trkpt lat="43.97456" lon="7.36156">
        <ele>1390.503</ele>
        <time>2014-10-18T09:26:22Z</time>
      </trkpt>
      <trkpt lat="43.9745" lon="7.36156">
        <ele>1389.522</ele>
        <time>2014-10-18T09:26:29Z</time>
      </trkpt>
      <trkpt lat="43.97457" lon="7.36158">
        <ele>1395.453</ele>
        <time>2014-10-18T09:26:36Z</time>
      </trkpt>
      <trkpt lat="43.97463" lon="7.36162">
        <ele>1390.466</ele>
        <time>2014-10-18T09:26:45Z</time>
      </trkpt>
      <trkpt lat="43.97467" lon="7.36164">
        <ele>1390.245</ele>
        <time>2014-10-18T09:26:50Z</time>
      </trkpt>
      <trkpt lat="43.97456" lon="7.36155">
        <ele>1400.422</ele>
        <time>2014-10-18T09:27:22Z</time>
      </trkpt>
      <trkpt lat="43.97467" lon="7.36156">
        <ele>1390.983</ele>
        <time>2014-10-18T09:27:31Z</time>
      </trkpt>
      <trkpt lat="43.97467" lon="7.36156">
        <ele>1389.304</ele>
        <time>2014-10-18T09:27:34Z</time>
      </trkpt>
      <trkpt lat="43.97468" lon="7.3616">
        <ele>1385.241</ele>
        <time>2014-10-18T09:27:40Z</time>
      </trkpt>
      <trkpt lat="43.97467" lon="7.36164">
        <ele>1382.212</ele>
        <time>2014-10-18T09:27:46Z</time>
      </trkpt>
      <trkpt lat="43.97466" lon="7.36167">
        <ele>1382.25</ele>
        <time>2014-10-18T09:27:53Z</time>
      </trkpt>
      <trkpt lat="43.97466" lon="7.36168">
        <ele>1381.477</ele>
        <time>2014-10-18T09:27:54Z</time>
      </trkpt>
      <trkpt lat="43.97465" lon="7.3617">
        <ele>1378.569</ele>
        <time>2014-10-18T09:28:01Z</time>
      </trkpt>
      <trkpt lat="43.97466" lon="7.3617">
        <ele>1379.314</ele>
        <time>2014-10-18T09:28:08Z</time>
      </trkpt>
      <trkpt lat="43.97472" lon="7.36174">
        <ele>1378.416</ele>
        <time>2014-10-18T09:28:13Z</time>
      </trkpt>
      <trkpt lat="43.97471" lon="7.36176">
        <ele>1376.147</ele>
        <time>2014-10-18T09:28:16Z</time>
      </trkpt>
      <trkpt lat="43.97463" lon="7.36177">
        <ele>1374.214</ele>
        <time>2014-10-18T09:28:21Z</time>
      </trkpt>
      <trkpt lat="43.97467" lon="7.36179">
        <ele>1378.964</ele>
        <time>2014-10-18T09:28:36Z</time>
      </trkpt>
      <trkpt lat="43.97468" lon="7.36179">
        <ele>1382.237</ele>
        <time>2014-10-18T09:28:42Z</time>
      </trkpt>
      <trkpt lat="43.97471" lon="7.36178">
        <ele>1384.193</ele>
        <time>2014-10-18T09:28:49Z</time>
      </trkpt>
      <trkpt lat="43.97479" lon="7.36173">
        <ele>1386.724</ele>
        <time>2014-10-18T09:28:57Z</time>
      </trkpt>
      <trkpt lat="43.97482" lon="7.3617">
        <ele>1388.042</ele>
        <time>2014-10-18T09:29:01Z</time>
      </trkpt>
      <trkpt lat="43.97484" lon="7.36168">
        <ele>1389.447</ele>
        <time>2014-10-18T09:29:03Z</time>
      </trkpt>
      <trkpt lat="43.97485" lon="7.36168">
        <ele>1391.083</ele>
        <time>2014-10-18T09:29:05Z</time>
      </trkpt>
      <trkpt lat="43.97496" lon="7.36168">
        <ele>1390.419</ele>
        <time>2014-10-18T09:29:12Z</time>
      </trkpt>
      <trkpt lat="43.97502" lon="7.36172">
        <ele>1387.825</ele>
        <time>2014-10-18T09:29:16Z</time>
      </trkpt>
      <trkpt lat="43.97507" lon="7.36178">
        <ele>1385.87</ele>
        <time>2014-10-18T09:29:24Z</time>
      </trkpt>
      <trkpt lat="43.9751" lon="7.36181">
        <ele>1385.69</ele>
        <time>2014-10-18T09:29:30Z</time>
      </trkpt>
      <trkpt lat="43.97509" lon="7.36182">
        <ele>1387.425</ele>
        <time>2014-10-18T09:29:36Z</time>
      </trkpt>
      <trkpt lat="43.97502" lon="7.36187">
        <ele>1386.634</ele>
        <time>2014-10-18T09:29:43Z</time>
      </trkpt>
      <trkpt lat="43.97501" lon="7.3619">
        <ele>1385.891</ele>
        <time>2014-10-18T09:29:50Z</time>
      </trkpt>
      <trkpt lat="43.97488" lon="7.36193">
        <ele>1386.062</ele>
        <time>2014-10-18T09:29:55Z</time>
      </trkpt>
      <trkpt lat="43.97481" lon="7.36193">
        <ele>1387.284</ele>
        <time>2014-10-18T09:29:59Z</time>
      </trkpt>
      <trkpt lat="43.97479" lon="7.36195">
        <ele>1387.892</ele>
        <time>2014-10-18T09:30:05Z</time>
      </trkpt>
      <trkpt lat="43.97474" lon="7.36196">
        <ele>1390.405</ele>
        <time>2014-10-18T09:30:11Z</time>
      </trkpt>
      <trkpt lat="43.97472" lon="7.36201">
        <ele>1393.736</ele>
        <time>2014-10-18T09:30:22Z</time>
      </trkpt>
      <trkpt lat="43.97465" lon="7.36204">
        <ele>1391.33</ele>
        <time>2014-10-18T09:30:36Z</time>
      </trkpt>
      <trkpt lat="43.9746" lon="7.36205">
        <ele>1391.251</ele>
        <time>2014-10-18T09:30:42Z</time>
      </trkpt>
      <trkpt lat="43.97454" lon="7.36208">
        <ele>1393.084</ele>
        <time>2014-10-18T09:30:54Z</time>
      </trkpt>
      <trkpt lat="43.9745" lon="7.36206">
        <ele>1394.385</ele>
        <time>2014-10-18T09:30:58Z</time>
      </trkpt>
      <trkpt lat="43.97443" lon="7.36205">
        <ele>1395.492</ele>
        <time>2014-10-18T09:31:06Z</time>
      </trkpt>
      <trkpt lat="43.97437" lon="7.36205">
        <ele>1395.213</ele>
        <time>2014-10-18T09:31:11Z</time>
      </trkpt>
      <trkpt lat="43.97427" lon="7.36204">
        <ele>1396.044</ele>
        <time>2014-10-18T09:31:17Z</time>
      </trkpt>
      <trkpt lat="43.97421" lon="7.36202">
        <ele>1398.375</ele>
        <time>2014-10-18T09:31:24Z</time>
      </trkpt>
      <trkpt lat="43.97413" lon="7.36196">
        <ele>1397.972</ele>
        <time>2014-10-18T09:31:29Z</time>
      </trkpt>
      <trkpt lat="43.97401" lon="7.36189">
        <ele>1398.942</ele>
        <time>2014-10-18T09:31:34Z</time>
      </trkpt>
      <trkpt lat="43.97395" lon="7.36184">
        <ele>1397.298</ele>
        <time>2014-10-18T09:31:38Z</time>
      </trkpt>
      <trkpt lat="43.9739" lon="7.36172">
        <ele>1400.326</ele>
        <time>2014-10-18T09:31:43Z</time>
      </trkpt>
      <trkpt lat="43.97389" lon="7.36169">
        <ele>1401.047</ele>
        <time>2014-10-18T09:31:44Z</time>
      </trkpt>
      <trkpt lat="43.97386" lon="7.36156">
        <ele>1406.744</ele>
        <time>2014-10-18T09:31:51Z</time>
      </trkpt>
      <trkpt lat="43.97384" lon="7.36154">
        <ele>1406.57</ele>
        <time>2014-10-18T09:31:53Z</time>
      </trkpt>
      <trkpt lat="43.97369" lon="7.36149">
        <ele>1407.734</ele>
        <time>2014-10-18T09:32:02Z</time>
      </trkpt>
      <trkpt lat="43.97364" lon="7.36149">
        <ele>1408.205</ele>
        <time>2014-10-18T09:32:05Z</time>
      </trkpt>
      <trkpt lat="43.97351" lon="7.36154">
        <ele>1406.301</ele>
        <time>2014-10-18T09:32:12Z</time>
      </trkpt>
      <trkpt lat="43.97343" lon="7.36149">
        <ele>1408.647</ele>
        <time>2014-10-18T09:32:16Z</time>
      </trkpt>
      <trkpt lat="43.97332" lon="7.36146">
        <ele>1407.241</ele>
        <time>2014-10-18T09:32:22Z</time>
      </trkpt>
      <trkpt lat="43.97331" lon="7.36145">
        <ele>1407.172</ele>
        <time>2014-10-18T09:32:23Z</time>
      </trkpt>
      <trkpt lat="43.97318" lon="7.3614">
        <ele>1406.57</ele>
        <time>2014-10-18T09:32:29Z</time>
      </trkpt>
      <trkpt lat="43.97312" lon="7.36135">
        <ele>1407.391</ele>
        <time>2014-10-18T09:32:34Z</time>
      </trkpt>
      <trkpt lat="43.97309" lon="7.3612">
        <ele>1412.399</ele>
        <time>2014-10-18T09:32:39Z</time>
      </trkpt>
      <trkpt lat="43.97304" lon="7.36105">
        <ele>1415.692</ele>
        <time>2014-10-18T09:32:46Z</time>
      </trkpt>
      <trkpt lat="43.97301" lon="7.36098">
        <ele>1415.746</ele>
        <time>2014-10-18T09:32:49Z</time>
      </trkpt>
      <trkpt lat="43.973" lon="7.3609">
        <ele>1417.799</ele>
        <time>2014-10-18T09:32:54Z</time>
      </trkpt>
      <trkpt lat="43.97291" lon="7.36071">
        <ele>1417.429</ele>
        <time>2014-10-18T09:33:02Z</time>
      </trkpt>
      <trkpt lat="43.97292" lon="7.36059">
        <ele>1421.836</ele>
        <time>2014-10-18T09:33:07Z</time>
      </trkpt>
      <trkpt lat="43.97283" lon="7.36061">
        <ele>1407.73</ele>
        <time>2014-10-18T09:33:13Z</time>
      </trkpt>
      <trkpt lat="43.97287" lon="7.36057">
        <ele>1410.683</ele>
        <time>2014-10-18T09:33:21Z</time>
      </trkpt>
      <trkpt lat="43.97289" lon="7.36053">
        <ele>1412.097</ele>
        <time>2014-10-18T09:33:23Z</time>
      </trkpt>
      <trkpt lat="43.97282" lon="7.36042">
        <ele>1415.59</ele>
        <time>2014-10-18T09:33:29Z</time>
      </trkpt>
      <trkpt lat="43.9728" lon="7.36036">
        <ele>1418.553</ele>
        <time>2014-10-18T09:33:34Z</time>
      </trkpt>
      <trkpt lat="43.97279" lon="7.36031">
        <ele>1420.194</ele>
        <time>2014-10-18T09:33:39Z</time>
      </trkpt>
      <trkpt lat="43.9728" lon="7.36028">
        <ele>1421.835</ele>
        <time>2014-10-18T09:33:41Z</time>
      </trkpt>
      <trkpt lat="43.97276" lon="7.36022">
        <ele>1423.604</ele>
        <time>2014-10-18T09:33:45Z</time>
      </trkpt>
      <trkpt lat="43.97271" lon="7.36016">
        <ele>1425.62</ele>
        <time>2014-10-18T09:33:53Z</time>
      </trkpt>
      <trkpt lat="43.97267" lon="7.36013">
        <ele>1426.546</ele>
        <time>2014-10-18T09:33:58Z</time>
      </trkpt>
      <trkpt lat="43.9726" lon="7.36011">
        <ele>1424.592</ele>
        <time>2014-10-18T09:34:04Z</time>
      </trkpt>
      <trkpt lat="43.97251" lon="7.36009">
        <ele>1420.723</ele>
        <time>2014-10-18T09:34:08Z</time>
      </trkpt>
      <trkpt lat="43.97242" lon="7.36006">
        <ele>1418.754</ele>
        <time>2014-10-18T09:34:13Z</time>
      </trkpt>
      <trkpt lat="43.97236" lon="7.36005">
        <ele>1416.372</ele>
        <time>2014-10-18T09:34:19Z</time>
      </trkpt>
      <trkpt lat="43.97233" lon="7.36003">
        <ele>1415.058</ele>
        <time>2014-10-18T09:34:25Z</time>
      </trkpt>
      <trkpt lat="43.97225" lon="7.35997">
        <ele>1416.687</ele>
        <time>2014-10-18T09:34:29Z</time>
      </trkpt>
      <trkpt lat="43.97217" lon="7.3599">
        <ele>1417.785</ele>
        <time>2014-10-18T09:34:32Z</time>
      </trkpt>
      <trkpt lat="43.97213" lon="7.35978">
        <ele>1424.051</ele>
        <time>2014-10-18T09:34:38Z</time>
      </trkpt>
      <trkpt lat="43.97207" lon="7.35976">
        <ele>1423.496</ele>
        <time>2014-10-18T09:34:42Z</time>
      </trkpt>
      <trkpt lat="43.97206" lon="7.3597">
        <ele>1424.414</ele>
        <time>2014-10-18T09:34:53Z</time>
      </trkpt>
      <trkpt lat="43.97208" lon="7.35966">
        <ele>1426.027</ele>
        <time>2014-10-18T09:34:56Z</time>
      </trkpt>
      <trkpt lat="43.97212" lon="7.35959">
        <ele>1424.18</ele>
        <time>2014-10-18T09:35:03Z</time>
      </trkpt>
      <trkpt lat="43.97211" lon="7.35958">
        <ele>1424.797</ele>
        <time>2014-10-18T09:35:04Z</time>
      </trkpt>
      <trkpt lat="43.97208" lon="7.35949">
        <ele>1429.458</ele>
        <time>2014-10-18T09:35:09Z</time>
      </trkpt>
      <trkpt lat="43.97199" lon="7.35943">
        <ele>1427.49</ele>
        <time>2014-10-18T09:35:16Z</time>
      </trkpt>
      <trkpt lat="43.97203" lon="7.35945">
        <ele>1415.209</ele>
        <time>2014-10-18T09:36:09Z</time>
      </trkpt>
      <trkpt lat="43.97201" lon="7.35943">
        <ele>1419.106</ele>
        <time>2014-10-18T09:36:18Z</time>
      </trkpt>
      <trkpt lat="43.972" lon="7.35943">
        <ele>1419.255</ele>
        <time>2014-10-18T09:36:19Z</time>
      </trkpt>
      <trkpt lat="43.97202" lon="7.35936">
        <ele>1420.966</ele>
        <time>2014-10-18T09:36:26Z</time>
      </trkpt>
      <trkpt lat="43.97205" lon="7.35934">
        <ele>1420.47</ele>
        <time>2014-10-18T09:36:39Z</time>
      </trkpt>
      <trkpt lat="43.97205" lon="7.3593">
        <ele>1421.743</ele>
        <time>2014-10-18T09:36:42Z</time>
      </trkpt>
      <trkpt lat="43.97198" lon="7.35929">
        <ele>1422.354</ele>
        <time>2014-10-18T09:36:47Z</time>
      </trkpt>
      <trkpt lat="43.97181" lon="7.35923">
        <ele>1424.848</ele>
        <time>2014-10-18T09:36:55Z</time>
      </trkpt>
      <trkpt lat="43.97173" lon="7.3592">
        <ele>1425.954</ele>
        <time>2014-10-18T09:37:00Z</time>
      </trkpt>
      <trkpt lat="43.9716" lon="7.35918">
        <ele>1425.67</ele>
        <time>2014-10-18T09:37:07Z</time>
      </trkpt>
      <trkpt lat="43.97147" lon="7.35918">
        <ele>1425.36</ele>
        <time>2014-10-18T09:37:15Z</time>
      </trkpt>
      <trkpt lat="43.97135" lon="7.35916">
        <ele>1425.733</ele>
        <time>2014-10-18T09:37:22Z</time>
      </trkpt>
      <trkpt lat="43.97125" lon="7.35912">
        <ele>1429.196</ele>
        <time>2014-10-18T09:37:28Z</time>
      </trkpt>
      <trkpt lat="43.9711" lon="7.35908">
        <ele>1429.01</ele>
        <time>2014-10-18T09:37:36Z</time>
      </trkpt>
      <trkpt lat="43.97101" lon="7.35902">
        <ele>1431.097</ele>
        <time>2014-10-18T09:37:41Z</time>
      </trkpt>
      <trkpt lat="43.97095" lon="7.35902">
        <ele>1431.865</ele>
        <time>2014-10-18T09:37:46Z</time>
      </trkpt>
      <trkpt lat="43.97091" lon="7.35905">
        <ele>1430.363</ele>
        <time>2014-10-18T09:37:53Z</time>
      </trkpt>
      <trkpt lat="43.97088" lon="7.35901">
        <ele>1434.764</ele>
        <time>2014-10-18T09:38:00Z</time>
      </trkpt>
      <trkpt lat="43.97083" lon="7.35902">
        <ele>1436.554</ele>
        <time>2014-10-18T09:38:07Z</time>
      </trkpt>
      <trkpt lat="43.97082" lon="7.35901">
        <ele>1438.455</ele>
        <time>2014-10-18T09:38:13Z</time>
      </trkpt>
      <trkpt lat="43.97076" lon="7.35897">
        <ele>1440.294</ele>
        <time>2014-10-18T09:38:17Z</time>
      </trkpt>
      <trkpt lat="43.97072" lon="7.35896">
        <ele>1440.558</ele>
        <time>2014-10-18T09:38:22Z</time>
      </trkpt>
      <trkpt lat="43.97069" lon="7.35895">
        <ele>1439.336</ele>
        <time>2014-10-18T09:38:27Z</time>
      </trkpt>
      <trkpt lat="43.97069" lon="7.35894">
        <ele>1440.52</ele>
        <time>2014-10-18T09:38:31Z</time>
      </trkpt>
      <trkpt lat="43.97067" lon="7.35888">
        <ele>1444.373</ele>
        <time>2014-10-18T09:38:38Z</time>
      </trkpt>
      <trkpt lat="43.97066" lon="7.35888">
        <ele>1444.08</ele>
        <time>2014-10-18T09:38:43Z</time>
      </trkpt>
      <trkpt lat="43.97069" lon="7.35884">
        <ele>1446.565</ele>
        <time>2014-10-18T09:38:50Z</time>
      </trkpt>
      <trkpt lat="43.97064" lon="7.35881">
        <ele>1442.905</ele>
        <time>2014-10-18T09:38:56Z</time>
      </trkpt>
      <trkpt lat="43.97063" lon="7.35879">
        <ele>1442.433</ele>
        <time>2014-10-18T09:39:04Z</time>
      </trkpt>
      <trkpt lat="43.97058" lon="7.35873">
        <ele>1443.208</ele>
        <time>2014-10-18T09:39:10Z</time>
      </trkpt>
      <trkpt lat="43.97053" lon="7.35863">
        <ele>1446.705</ele>
        <time>2014-10-18T09:39:16Z</time>
      </trkpt>
      <trkpt lat="43.97043" lon="7.35857">
        <ele>1451.417</ele>
        <time>2014-10-18T09:39:25Z</time>
      </trkpt>
      <trkpt lat="43.97036" lon="7.35852">
        <ele>1455.495</ele>
        <time>2014-10-18T09:39:34Z</time>
      </trkpt>
      <trkpt lat="43.9703" lon="7.35849">
        <ele>1456.166</ele>
        <time>2014-10-18T09:39:42Z</time>
      </trkpt>
      <trkpt lat="43.97026" lon="7.35845">
        <ele>1456.615</ele>
        <time>2014-10-18T09:39:49Z</time>
      </trkpt>
      <trkpt lat="43.97021" lon="7.35845">
        <ele>1455.322</ele>
        <time>2014-10-18T09:39:54Z</time>
      </trkpt>
      <trkpt lat="43.97012" lon="7.35847">
        <ele>1451.2</ele>
        <time>2014-10-18T09:40:07Z</time>
      </trkpt>
      <trkpt lat="43.97003" lon="7.35844">
        <ele>1449.33</ele>
        <time>2014-10-18T09:40:18Z</time>
      </trkpt>
      <trkpt lat="43.96995" lon="7.35843">
        <ele>1446.798</ele>
        <time>2014-10-18T09:40:26Z</time>
      </trkpt>
      <trkpt lat="43.96991" lon="7.35841">
        <ele>1451.872</ele>
        <time>2014-10-18T09:40:35Z</time>
      </trkpt>
      <trkpt lat="43.96986" lon="7.3583">
        <ele>1459.955</ele>
        <time>2014-10-18T09:40:50Z</time>
      </trkpt>
      <trkpt lat="43.96977" lon="7.35829">
        <ele>1455.006</ele>
        <time>2014-10-18T09:40:57Z</time>
      </trkpt>
      <trkpt lat="43.96979" lon="7.35824">
        <ele>1460.885</ele>
        <time>2014-10-18T09:41:09Z</time>
      </trkpt>
      <trkpt lat="43.96983" lon="7.3582">
        <ele>1458.227</ele>
        <time>2014-10-18T09:41:16Z</time>
      </trkpt>
      <trkpt lat="43.9698" lon="7.35815">
        <ele>1456.084</ele>
        <time>2014-10-18T09:41:22Z</time>
      </trkpt>
      <trkpt lat="43.96976" lon="7.358">
        <ele>1454.556</ele>
        <time>2014-10-18T09:41:28Z</time>
      </trkpt>
      <trkpt lat="43.96983" lon="7.35791">
        <ele>1459.952</ele>
        <time>2014-10-18T09:41:31Z</time>
      </trkpt>
      <trkpt lat="43.96986" lon="7.35782">
        <ele>1462.143</ele>
        <time>2014-10-18T09:41:34Z</time>
      </trkpt>
      <trkpt lat="43.96989" lon="7.35762">
        <ele>1463.87</ele>
        <time>2014-10-18T09:41:39Z</time>
      </trkpt>
      <trkpt lat="43.96988" lon="7.35752">
        <ele>1462.146</ele>
        <time>2014-10-18T09:41:41Z</time>
      </trkpt>
      <trkpt lat="43.96993" lon="7.35742">
        <ele>1460.886</ele>
        <time>2014-10-18T09:41:47Z</time>
      </trkpt>
      <trkpt lat="43.96994" lon="7.35739">
        <ele>1458.865</ele>
        <time>2014-10-18T09:41:52Z</time>
      </trkpt>
      <trkpt lat="43.96995" lon="7.35733">
        <ele>1457.849</ele>
        <time>2014-10-18T09:41:59Z</time>
      </trkpt>
      <trkpt lat="43.96997" lon="7.35729">
        <ele>1455.029</ele>
        <time>2014-10-18T09:42:04Z</time>
      </trkpt>
      <trkpt lat="43.96999" lon="7.35723">
        <ele>1455.364</ele>
        <time>2014-10-18T09:42:09Z</time>
      </trkpt>
      <trkpt lat="43.97001" lon="7.35717">
        <ele>1455.203</ele>
        <time>2014-10-18T09:42:13Z</time>
      </trkpt>
      <trkpt lat="43.97005" lon="7.35712">
        <ele>1458.819</ele>
        <time>2014-10-18T09:42:19Z</time>
      </trkpt>
      <trkpt lat="43.97004" lon="7.35703">
        <ele>1457.761</ele>
        <time>2014-10-18T09:42:24Z</time>
      </trkpt>
      <trkpt lat="43.97006" lon="7.35691">
        <ele>1456.793</ele>
        <time>2014-10-18T09:42:32Z</time>
      </trkpt>
      <trkpt lat="43.97007" lon="7.35686">
        <ele>1456.452</ele>
        <time>2014-10-18T09:42:35Z</time>
      </trkpt>
      <trkpt lat="43.97" lon="7.35672">
        <ele>1452.293</ele>
        <time>2014-10-18T09:42:40Z</time>
      </trkpt>
      <trkpt lat="43.97001" lon="7.35663">
        <ele>1451.386</ele>
        <time>2014-10-18T09:42:45Z</time>
      </trkpt>
      <trkpt lat="43.97007" lon="7.35654">
        <ele>1457.617</ele>
        <time>2014-10-18T09:42:54Z</time>
      </trkpt>
      <trkpt lat="43.97009" lon="7.35647">
        <ele>1458.082</ele>
        <time>2014-10-18T09:42:59Z</time>
      </trkpt>
      <trkpt lat="43.97009" lon="7.35647">
        <ele>1457.56</ele>
        <time>2014-10-18T09:43:01Z</time>
      </trkpt>
      <trkpt lat="43.97007" lon="7.35642">
        <ele>1457.732</ele>
        <time>2014-10-18T09:43:04Z</time>
      </trkpt>
      <trkpt lat="43.97004" lon="7.35631">
        <ele>1458.714</ele>
        <time>2014-10-18T09:43:12Z</time>
      </trkpt>
      <trkpt lat="43.96999" lon="7.35623">
        <ele>1464.7</ele>
        <time>2014-10-18T09:43:19Z</time>
      </trkpt>
      <trkpt lat="43.96998" lon="7.35618">
        <ele>1468.525</ele>
        <time>2014-10-18T09:43:24Z</time>
      </trkpt>
      <trkpt lat="43.97" lon="7.35606">
        <ele>1478.198</ele>
        <time>2014-10-18T09:43:34Z</time>
      </trkpt>
      <trkpt lat="43.96998" lon="7.35604">
        <ele>1477.182</ele>
        <time>2014-10-18T09:43:38Z</time>
      </trkpt>
      <trkpt lat="43.96998" lon="7.35594">
        <ele>1482.254</ele>
        <time>2014-10-18T09:43:45Z</time>
      </trkpt>
      <trkpt lat="43.96999" lon="7.35589">
        <ele>1479.678</ele>
        <time>2014-10-18T09:44:20Z</time>
      </trkpt>
      <trkpt lat="43.97001" lon="7.35589">
        <ele>1473.2</ele>
        <time>2014-10-18T09:44:27Z</time>
      </trkpt>
      <trkpt lat="43.9701" lon="7.35601">
        <ele>1481.228</ele>
        <time>2014-10-18T09:46:22Z</time>
      </trkpt>
      <trkpt lat="43.97013" lon="7.35587">
        <ele>1486.287</ele>
        <time>2014-10-18T09:46:55Z</time>
      </trkpt>
      <trkpt lat="43.97006" lon="7.35577">
        <ele>1484.629</ele>
        <time>2014-10-18T09:47:00Z</time>
      </trkpt>
      <trkpt lat="43.97007" lon="7.35579">
        <ele>1489.677</ele>
        <time>2014-10-18T09:47:06Z</time>
      </trkpt>
      <trkpt lat="43.97007" lon="7.35565">
        <ele>1478.305</ele>
        <time>2014-10-18T09:48:48Z</time>
      </trkpt>
      <trkpt lat="43.97011" lon="7.3556">
        <ele>1476.853</ele>
        <time>2014-10-18T09:48:55Z</time>
      </trkpt>
      <trkpt lat="43.97014" lon="7.35557">
        <ele>1479.386</ele>
        <time>2014-10-18T09:49:04Z</time>
      </trkpt>
      <trkpt lat="43.97017" lon="7.35552">
        <ele>1478.302</ele>
        <time>2014-10-18T09:49:07Z</time>
      </trkpt>
      <trkpt lat="43.97023" lon="7.35549">
        <ele>1476.198</ele>
        <time>2014-10-18T09:49:13Z</time>
      </trkpt>
      <trkpt lat="43.97026" lon="7.35542">
        <ele>1468.192</ele>
        <time>2014-10-18T09:49:25Z</time>
      </trkpt>
      <trkpt lat="43.97032" lon="7.35534">
        <ele>1457.675</ele>
        <time>2014-10-18T09:49:40Z</time>
      </trkpt>
      <trkpt lat="43.9704" lon="7.35533">
        <ele>1458.237</ele>
        <time>2014-10-18T09:49:44Z</time>
      </trkpt>
      <trkpt lat="43.97053" lon="7.35525">
        <ele>1460.546</ele>
        <time>2014-10-18T09:49:49Z</time>
      </trkpt>
      <trkpt lat="43.9706" lon="7.35518">
        <ele>1462.92</ele>
        <time>2014-10-18T09:49:52Z</time>
      </trkpt>
      <trkpt lat="43.97065" lon="7.35508">
        <ele>1458.868</ele>
        <time>2014-10-18T09:49:58Z</time>
      </trkpt>
      <trkpt lat="43.97061" lon="7.35499">
        <ele>1455.606</ele>
        <time>2014-10-18T09:50:01Z</time>
      </trkpt>
      <trkpt lat="43.97055" lon="7.35494">
        <ele>1450.824</ele>
        <time>2014-10-18T09:50:07Z</time>
      </trkpt>
      <trkpt lat="43.97052" lon="7.35491">
        <ele>1449.768</ele>
        <time>2014-10-18T09:50:11Z</time>
      </trkpt>
      <trkpt lat="43.97048" lon="7.35488">
        <ele>1449.428</ele>
        <time>2014-10-18T09:50:16Z</time>
      </trkpt>
      <trkpt lat="43.97042" lon="7.35486">
        <ele>1448.93</ele>
        <time>2014-10-18T09:50:23Z</time>
      </trkpt>
      <trkpt lat="43.97038" lon="7.35487">
        <ele>1446.489</ele>
        <time>2014-10-18T09:51:23Z</time>
      </trkpt>
      <trkpt lat="43.97038" lon="7.35484">
        <ele>1446.748</ele>
        <time>2014-10-18T09:51:40Z</time>
      </trkpt>
      <trkpt lat="43.97036" lon="7.35483">
        <ele>1445.619</ele>
        <time>2014-10-18T09:51:46Z</time>
      </trkpt>
      <trkpt lat="43.9703" lon="7.35478">
        <ele>1447.582</ele>
        <time>2014-10-18T09:51:53Z</time>
      </trkpt>
      <trkpt lat="43.9703" lon="7.35475">
        <ele>1450.394</ele>
        <time>2014-10-18T09:51:56Z</time>
      </trkpt>
      <trkpt lat="43.97023" lon="7.3547">
        <ele>1451.994</ele>
        <time>2014-10-18T09:52:04Z</time>
      </trkpt>
      <trkpt lat="43.97022" lon="7.35469">
        <ele>1451.739</ele>
        <time>2014-10-18T09:52:10Z</time>
      </trkpt>
      <trkpt lat="43.97022" lon="7.35468">
        <ele>1452.712</ele>
        <time>2014-10-18T09:52:19Z</time>
      </trkpt>
      <trkpt lat="43.97022" lon="7.35466">
        <ele>1452.759</ele>
        <time>2014-10-18T09:52:26Z</time>
      </trkpt>
      <trkpt lat="43.97018" lon="7.35461">
        <ele>1450.814</ele>
        <time>2014-10-18T09:52:32Z</time>
      </trkpt>
      <trkpt lat="43.97011" lon="7.35453">
        <ele>1447.738</ele>
        <time>2014-10-18T09:52:39Z</time>
      </trkpt>
      <trkpt lat="43.97009" lon="7.35453">
        <ele>1446.902</ele>
        <time>2014-10-18T09:52:45Z</time>
      </trkpt>
      <trkpt lat="43.97005" lon="7.35452">
        <ele>1448.33</ele>
        <time>2014-10-18T09:52:51Z</time>
      </trkpt>
      <trkpt lat="43.97002" lon="7.3545">
        <ele>1450.634</ele>
        <time>2014-10-18T09:52:57Z</time>
      </trkpt>
      <trkpt lat="43.96998" lon="7.35449">
        <ele>1450.833</ele>
        <time>2014-10-18T09:53:04Z</time>
      </trkpt>
      <trkpt lat="43.96991" lon="7.35445">
        <ele>1452.612</ele>
        <time>2014-10-18T09:53:09Z</time>
      </trkpt>
      <trkpt lat="43.96988" lon="7.35443">
        <ele>1453.703</ele>
        <time>2014-10-18T09:53:13Z</time>
      </trkpt>
      <trkpt lat="43.96986" lon="7.35436">
        <ele>1461.755</ele>
        <time>2014-10-18T09:53:21Z</time>
      </trkpt>
      <trkpt lat="43.96986" lon="7.35438">
        <ele>1460.722</ele>
        <time>2014-10-18T09:53:25Z</time>
      </trkpt>
      <trkpt lat="43.96974" lon="7.35436">
        <ele>1456.434</ele>
        <time>2014-10-18T09:53:38Z</time>
      </trkpt>
      <trkpt lat="43.96972" lon="7.35435">
        <ele>1456.076</ele>
        <time>2014-10-18T09:53:45Z</time>
      </trkpt>
      <trkpt lat="43.96964" lon="7.35437">
        <ele>1451.54</ele>
        <time>2014-10-18T09:54:00Z</time>
      </trkpt>
      <trkpt lat="43.96957" lon="7.35433">
        <ele>1452.883</ele>
        <time>2014-10-18T09:54:05Z</time>
      </trkpt>
      <trkpt lat="43.96952" lon="7.35431">
        <ele>1453.056</ele>
        <time>2014-10-18T09:54:10Z</time>
      </trkpt>
      <trkpt lat="43.96953" lon="7.35427">
        <ele>1455.728</ele>
        <time>2014-10-18T09:54:17Z</time>
      </trkpt>
      <trkpt lat="43.96951" lon="7.35427">
        <ele>1454.706</ele>
        <time>2014-10-18T09:54:19Z</time>
      </trkpt>
      <trkpt lat="43.96944" lon="7.3542">
        <ele>1454.989</ele>
        <time>2014-10-18T09:54:24Z</time>
      </trkpt>
      <trkpt lat="43.9694" lon="7.35418">
        <ele>1454.66</ele>
        <time>2014-10-18T09:54:26Z</time>
      </trkpt>
      <trkpt lat="43.96929" lon="7.35409">
        <ele>1452.988</ele>
        <time>2014-10-18T09:54:31Z</time>
      </trkpt>
      <trkpt lat="43.96923" lon="7.35407">
        <ele>1452.607</ele>
        <time>2014-10-18T09:54:35Z</time>
      </trkpt>
      <trkpt lat="43.96923" lon="7.35403">
        <ele>1455.001</ele>
        <time>2014-10-18T09:54:40Z</time>
      </trkpt>
      <trkpt lat="43.96918" lon="7.35399">
        <ele>1453.406</ele>
        <time>2014-10-18T09:54:45Z</time>
      </trkpt>
      <trkpt lat="43.96913" lon="7.35393">
        <ele>1452.857</ele>
        <time>2014-10-18T09:54:49Z</time>
      </trkpt>
      <trkpt lat="43.96903" lon="7.35386">
        <ele>1452.908</ele>
        <time>2014-10-18T09:54:55Z</time>
      </trkpt>
      <trkpt lat="43.96899" lon="7.35379">
        <ele>1455.271</ele>
        <time>2014-10-18T09:54:58Z</time>
      </trkpt>
      <trkpt lat="43.96891" lon="7.35367">
        <ele>1458.748</ele>
        <time>2014-10-18T09:55:04Z</time>
      </trkpt>
      <trkpt lat="43.96883" lon="7.35354">
        <ele>1458.571</ele>
        <time>2014-10-18T09:55:10Z</time>
      </trkpt>
      <trkpt lat="43.96873" lon="7.35339">
        <ele>1458.582</ele>
        <time>2014-10-18T09:55:16Z</time>
      </trkpt>
      <trkpt lat="43.9687" lon="7.35332">
        <ele>1460.215</ele>
        <time>2014-10-18T09:55:20Z</time>
      </trkpt>
      <trkpt lat="43.96869" lon="7.35331">
        <ele>1460.584</ele>
        <time>2014-10-18T09:55:21Z</time>
      </trkpt>
      <trkpt lat="43.96868" lon="7.35322">
        <ele>1462.333</ele>
        <time>2014-10-18T09:55:26Z</time>
      </trkpt>
      <trkpt lat="43.96872" lon="7.35325">
        <ele>1460.058</ele>
        <time>2014-10-18T10:03:26Z</time>
      </trkpt>
      <trkpt lat="43.96873" lon="7.35329">
        <ele>1461.678</ele>
        <time>2014-10-18T10:03:34Z</time>
      </trkpt>
      <trkpt lat="43.96871" lon="7.3533">
        <ele>1464.055</ele>
        <time>2014-10-18T10:04:12Z</time>
      </trkpt>
      <trkpt lat="43.96867" lon="7.35338">
        <ele>1461.277</ele>
        <time>2014-10-18T10:04:16Z</time>
      </trkpt>
      <trkpt lat="43.96867" lon="7.35341">
        <ele>1459.795</ele>
        <time>2014-10-18T10:04:17Z</time>
      </trkpt>
      <trkpt lat="43.9687" lon="7.35366">
        <ele>1452.826</ele>
        <time>2014-10-18T10:04:23Z</time>
      </trkpt>
      <trkpt lat="43.96875" lon="7.35388">
        <ele>1449.426</ele>
        <time>2014-10-18T10:04:28Z</time>
      </trkpt>
      <trkpt lat="43.96874" lon="7.35407">
        <ele>1446.496</ele>
        <time>2014-10-18T10:04:32Z</time>
      </trkpt>
      <trkpt lat="43.96867" lon="7.35425">
        <ele>1443.177</ele>
        <time>2014-10-18T10:04:37Z</time>
      </trkpt>
      <trkpt lat="43.96858" lon="7.35441">
        <ele>1438.767</ele>
        <time>2014-10-18T10:04:42Z</time>
      </trkpt>
      <trkpt lat="43.96853" lon="7.35461">
        <ele>1436.492</ele>
        <time>2014-10-18T10:04:47Z</time>
      </trkpt>
      <trkpt lat="43.96844" lon="7.35479">
        <ele>1433.836</ele>
        <time>2014-10-18T10:04:52Z</time>
      </trkpt>
      <trkpt lat="43.96833" lon="7.35488">
        <ele>1434.822</ele>
        <time>2014-10-18T10:04:57Z</time>
      </trkpt>
      <trkpt lat="43.96822" lon="7.35494">
        <ele>1435.483</ele>
        <time>2014-10-18T10:05:02Z</time>
      </trkpt>
      <trkpt lat="43.96814" lon="7.3551">
        <ele>1434.897</ele>
        <time>2014-10-18T10:05:07Z</time>
      </trkpt>
      <trkpt lat="43.96809" lon="7.35523">
        <ele>1435.409</ele>
        <time>2014-10-18T10:05:12Z</time>
      </trkpt>
      <trkpt lat="43.96803" lon="7.35537">
        <ele>1436.356</ele>
        <time>2014-10-18T10:05:18Z</time>
      </trkpt>
      <trkpt lat="43.96803" lon="7.35538">
        <ele>1437.199</ele>
        <time>2014-10-18T10:05:24Z</time>
      </trkpt>
      <trkpt lat="43.96803" lon="7.35539">
        <ele>1437.87</ele>
        <time>2014-10-18T10:05:27Z</time>
      </trkpt>
      <trkpt lat="43.96804" lon="7.35545">
        <ele>1439.079</ele>
        <time>2014-10-18T10:05:34Z</time>
      </trkpt>
      <trkpt lat="43.96804" lon="7.35558">
        <ele>1438.536</ele>
        <time>2014-10-18T10:05:38Z</time>
      </trkpt>
      <trkpt lat="43.96807" lon="7.35569">
        <ele>1439.228</ele>
        <time>2014-10-18T10:05:42Z</time>
      </trkpt>
      <trkpt lat="43.96807" lon="7.35569">
        <ele>1443.794</ele>
        <time>2014-10-18T10:05:52Z</time>
      </trkpt>
      <trkpt lat="43.96804" lon="7.3557">
        <ele>1456.035</ele>
        <time>2014-10-18T10:06:57Z</time>
      </trkpt>
      <trkpt lat="43.96806" lon="7.35575">
        <ele>1455.471</ele>
        <time>2014-10-18T10:07:02Z</time>
      </trkpt>
      <trkpt lat="43.96809" lon="7.35591">
        <ele>1454.207</ele>
        <time>2014-10-18T10:07:06Z</time>
      </trkpt>
      <trkpt lat="43.9681" lon="7.35613">
        <ele>1451.933</ele>
        <time>2014-10-18T10:07:11Z</time>
      </trkpt>
      <trkpt lat="43.9681" lon="7.35621">
        <ele>1450.652</ele>
        <time>2014-10-18T10:07:15Z</time>
      </trkpt>
      <trkpt lat="43.96809" lon="7.3563">
        <ele>1448.129</ele>
        <time>2014-10-18T10:07:19Z</time>
      </trkpt>
      <trkpt lat="43.96804" lon="7.35652">
        <ele>1445.037</ele>
        <time>2014-10-18T10:07:24Z</time>
      </trkpt>
      <trkpt lat="43.96798" lon="7.35675">
        <ele>1439.029</ele>
        <time>2014-10-18T10:07:30Z</time>
      </trkpt>
      <trkpt lat="43.96789" lon="7.35687">
        <ele>1433.791</ele>
        <time>2014-10-18T10:07:35Z</time>
      </trkpt>
      <trkpt lat="43.96774" lon="7.35703">
        <ele>1431.598</ele>
        <time>2014-10-18T10:07:41Z</time>
      </trkpt>
      <trkpt lat="43.96765" lon="7.35715">
        <ele>1429.747</ele>
        <time>2014-10-18T10:07:46Z</time>
      </trkpt>
      <trkpt lat="43.96755" lon="7.35722">
        <ele>1429.855</ele>
        <time>2014-10-18T10:07:51Z</time>
      </trkpt>
      <trkpt lat="43.96744" lon="7.35726">
        <ele>1428.877</ele>
        <time>2014-10-18T10:07:56Z</time>
      </trkpt>
      <trkpt lat="43.96739" lon="7.35734">
        <ele>1428.295</ele>
        <time>2014-10-18T10:08:00Z</time>
      </trkpt>
      <trkpt lat="43.96736" lon="7.35751">
        <ele>1426.07</ele>
        <time>2014-10-18T10:08:04Z</time>
      </trkpt>
      <trkpt lat="43.96735" lon="7.35761">
        <ele>1425.182</ele>
        <time>2014-10-18T10:08:10Z</time>
      </trkpt>
      <trkpt lat="43.96735" lon="7.35763">
        <ele>1424.916</ele>
        <time>2014-10-18T10:08:20Z</time>
      </trkpt>
      <trkpt lat="43.96735" lon="7.35765">
        <ele>1420.474</ele>
        <time>2014-10-18T10:08:41Z</time>
      </trkpt>
      <trkpt lat="43.96735" lon="7.35772">
        <ele>1419.031</ele>
        <time>2014-10-18T10:08:45Z</time>
      </trkpt>
      <trkpt lat="43.96735" lon="7.3578">
        <ele>1417.719</ele>
        <time>2014-10-18T10:08:47Z</time>
      </trkpt>
      <trkpt lat="43.96741" lon="7.35795">
        <ele>1417.519</ele>
        <time>2014-10-18T10:08:52Z</time>
      </trkpt>
      <trkpt lat="43.96743" lon="7.35797">
        <ele>1417.449</ele>
        <time>2014-10-18T10:08:53Z</time>
      </trkpt>
      <trkpt lat="43.9675" lon="7.35806">
        <ele>1417.682</ele>
        <time>2014-10-18T10:08:58Z</time>
      </trkpt>
      <trkpt lat="43.96756" lon="7.35819">
        <ele>1416.952</ele>
        <time>2014-10-18T10:09:04Z</time>
      </trkpt>
      <trkpt lat="43.96755" lon="7.35825">
        <ele>1417.494</ele>
        <time>2014-10-18T10:09:07Z</time>
      </trkpt>
      <trkpt lat="43.96754" lon="7.35824">
        <ele>1417.916</ele>
        <time>2014-10-18T10:09:08Z</time>
      </trkpt>
      <trkpt lat="43.96752" lon="7.35822">
        <ele>1419.366</ele>
        <time>2014-10-18T10:09:14Z</time>
      </trkpt>
      <trkpt lat="43.96752" lon="7.35822">
        <ele>1420.5</ele>
        <time>2014-10-18T10:09:16Z</time>
      </trkpt>
      <trkpt lat="43.96751" lon="7.35821">
        <ele>1421.77</ele>
        <time>2014-10-18T10:09:20Z</time>
      </trkpt>
      <trkpt lat="43.9675" lon="7.35824">
        <ele>1423.454</ele>
        <time>2014-10-18T10:09:25Z</time>
      </trkpt>
      <trkpt lat="43.96751" lon="7.35826">
        <ele>1422.79</ele>
        <time>2014-10-18T10:09:30Z</time>
      </trkpt>
      <trkpt lat="43.9676" lon="7.3584">
        <ele>1419.894</ele>
        <time>2014-10-18T10:09:36Z</time>
      </trkpt>
      <trkpt lat="43.9677" lon="7.35861">
        <ele>1417.242</ele>
        <time>2014-10-18T10:09:42Z</time>
      </trkpt>
      <trkpt lat="43.96771" lon="7.35864">
        <ele>1416.902</ele>
        <time>2014-10-18T10:09:43Z</time>
      </trkpt>
      <trkpt lat="43.96772" lon="7.35885">
        <ele>1415.414</ele>
        <time>2014-10-18T10:09:49Z</time>
      </trkpt>
      <trkpt lat="43.96772" lon="7.35896">
        <ele>1414.345</ele>
        <time>2014-10-18T10:09:52Z</time>
      </trkpt>
      <trkpt lat="43.96768" lon="7.35916">
        <ele>1414.728</ele>
        <time>2014-10-18T10:09:58Z</time>
      </trkpt>
      <trkpt lat="43.96768" lon="7.35923">
        <ele>1415.531</ele>
        <time>2014-10-18T10:10:02Z</time>
      </trkpt>
      <trkpt lat="43.96768" lon="7.35926">
        <ele>1423.76</ele>
        <time>2014-10-18T10:11:38Z</time>
      </trkpt>
      <trkpt lat="43.96776" lon="7.35935">
        <ele>1424.522</ele>
        <time>2014-10-18T10:11:43Z</time>
      </trkpt>
      <trkpt lat="43.96782" lon="7.3594">
        <ele>1425.173</ele>
        <time>2014-10-18T10:11:46Z</time>
      </trkpt>
      <trkpt lat="43.96793" lon="7.35952">
        <ele>1425.993</ele>
        <time>2014-10-18T10:11:53Z</time>
      </trkpt>
      <trkpt lat="43.96801" lon="7.35961">
        <ele>1426.273</ele>
        <time>2014-10-18T10:11:58Z</time>
      </trkpt>
      <trkpt lat="43.9681" lon="7.35979">
        <ele>1424.237</ele>
        <time>2014-10-18T10:12:05Z</time>
      </trkpt>
      <trkpt lat="43.9681" lon="7.35981">
        <ele>1423.727</ele>
        <time>2014-10-18T10:12:10Z</time>
      </trkpt>
      <trkpt lat="43.96812" lon="7.35988">
        <ele>1423.778</ele>
        <time>2014-10-18T10:12:16Z</time>
      </trkpt>
      <trkpt lat="43.96813" lon="7.36">
        <ele>1422.486</ele>
        <time>2014-10-18T10:12:22Z</time>
      </trkpt>
      <trkpt lat="43.96817" lon="7.36015">
        <ele>1420.555</ele>
        <time>2014-10-18T10:12:28Z</time>
      </trkpt>
      <trkpt lat="43.96819" lon="7.3602">
        <ele>1419.926</ele>
        <time>2014-10-18T10:12:32Z</time>
      </trkpt>
      <trkpt lat="43.96819" lon="7.36021">
        <ele>1419.206</ele>
        <time>2014-10-18T10:12:35Z</time>
      </trkpt>
      <trkpt lat="43.96821" lon="7.36035">
        <ele>1417.345</ele>
        <time>2014-10-18T10:12:40Z</time>
      </trkpt>
      <trkpt lat="43.96823" lon="7.36045">
        <ele>1416.866</ele>
        <time>2014-10-18T10:12:45Z</time>
      </trkpt>
      <trkpt lat="43.96823" lon="7.36049">
        <ele>1420.176</ele>
        <time>2014-10-18T10:12:51Z</time>
      </trkpt>
      <trkpt lat="43.96824" lon="7.36058">
        <ele>1421.094</ele>
        <time>2014-10-18T10:12:58Z</time>
      </trkpt>
      <trkpt lat="43.96823" lon="7.36061">
        <ele>1421.542</ele>
        <time>2014-10-18T10:13:04Z</time>
      </trkpt>
      <trkpt lat="43.96821" lon="7.36076">
        <ele>1420.25</ele>
        <time>2014-10-18T10:13:10Z</time>
      </trkpt>
      <trkpt lat="43.9682" lon="7.36087">
        <ele>1418.585</ele>
        <time>2014-10-18T10:13:16Z</time>
      </trkpt>
      <trkpt lat="43.96817" lon="7.3609">
        <ele>1416.354</ele>
        <time>2014-10-18T10:13:22Z</time>
      </trkpt>
      <trkpt lat="43.96818" lon="7.36094">
        <ele>1412.24</ele>
        <time>2014-10-18T10:13:28Z</time>
      </trkpt>
      <trkpt lat="43.96819" lon="7.36103">
        <ele>1410.269</ele>
        <time>2014-10-18T10:13:33Z</time>
      </trkpt>
      <trkpt lat="43.96819" lon="7.36119">
        <ele>1408.417</ele>
        <time>2014-10-18T10:13:37Z</time>
      </trkpt>
      <trkpt lat="43.96821" lon="7.36143">
        <ele>1405.765</ele>
        <time>2014-10-18T10:13:43Z</time>
      </trkpt>
      <trkpt lat="43.96823" lon="7.36164">
        <ele>1403.616</ele>
        <time>2014-10-18T10:13:48Z</time>
      </trkpt>
      <trkpt lat="43.96825" lon="7.36187">
        <ele>1393.763</ele>
        <time>2014-10-18T10:13:54Z</time>
      </trkpt>
      <trkpt lat="43.96824" lon="7.36202">
        <ele>1389.633</ele>
        <time>2014-10-18T10:13:59Z</time>
      </trkpt>
      <trkpt lat="43.96826" lon="7.36223">
        <ele>1385.103</ele>
        <time>2014-10-18T10:14:05Z</time>
      </trkpt>
      <trkpt lat="43.96828" lon="7.36233">
        <ele>1384.092</ele>
        <time>2014-10-18T10:14:08Z</time>
      </trkpt>
      <trkpt lat="43.96828" lon="7.36243">
        <ele>1382.254</ele>
        <time>2014-10-18T10:14:13Z</time>
      </trkpt>
      <trkpt lat="43.96826" lon="7.36247">
        <ele>1383.722</ele>
        <time>2014-10-18T10:14:20Z</time>
      </trkpt>
      <trkpt lat="43.96825" lon="7.36248">
        <ele>1385.787</ele>
        <time>2014-10-18T10:14:23Z</time>
      </trkpt>
      <trkpt lat="43.96821" lon="7.36248">
        <ele>1390.195</ele>
        <time>2014-10-18T10:14:28Z</time>
      </trkpt>
      <trkpt lat="43.96816" lon="7.36252">
        <ele>1390.644</ele>
        <time>2014-10-18T10:14:34Z</time>
      </trkpt>
      <trkpt lat="43.96811" lon="7.36261">
        <ele>1389.979</ele>
        <time>2014-10-18T10:14:41Z</time>
      </trkpt>
      <trkpt lat="43.96811" lon="7.36274">
        <ele>1388.329</ele>
        <time>2014-10-18T10:14:49Z</time>
      </trkpt>
      <trkpt lat="43.96811" lon="7.3628">
        <ele>1388.838</ele>
        <time>2014-10-18T10:14:55Z</time>
      </trkpt>
      <trkpt lat="43.96809" lon="7.36287">
        <ele>1389.127</ele>
        <time>2014-10-18T10:15:00Z</time>
      </trkpt>
      <trkpt lat="43.96804" lon="7.363">
        <ele>1389.362</ele>
        <time>2014-10-18T10:15:10Z</time>
      </trkpt>
      <trkpt lat="43.96804" lon="7.36305">
        <ele>1389.704</ele>
        <time>2014-10-18T10:15:13Z</time>
      </trkpt>
      <trkpt lat="43.96799" lon="7.36309">
        <ele>1389.856</ele>
        <time>2014-10-18T10:15:19Z</time>
      </trkpt>
      <trkpt lat="43.96789" lon="7.36309">
        <ele>1389.348</ele>
        <time>2014-10-18T10:15:28Z</time>
      </trkpt>
      <trkpt lat="43.96788" lon="7.36309">
        <ele>1389.499</ele>
        <time>2014-10-18T10:15:29Z</time>
      </trkpt>
      <trkpt lat="43.96784" lon="7.36308">
        <ele>1390.612</ele>
        <time>2014-10-18T10:15:37Z</time>
      </trkpt>
      <trkpt lat="43.96774" lon="7.36311">
        <ele>1390.792</ele>
        <time>2014-10-18T10:15:43Z</time>
      </trkpt>
      <trkpt lat="43.96762" lon="7.36315">
        <ele>1390.353</ele>
        <time>2014-10-18T10:15:48Z</time>
      </trkpt>
      <trkpt lat="43.96748" lon="7.36324">
        <ele>1389.369</ele>
        <time>2014-10-18T10:15:54Z</time>
      </trkpt>
      <trkpt lat="43.96743" lon="7.36337">
        <ele>1388.315</ele>
        <time>2014-10-18T10:15:59Z</time>
      </trkpt>
      <trkpt lat="43.96735" lon="7.36339">
        <ele>1390.717</ele>
        <time>2014-10-18T10:16:03Z</time>
      </trkpt>
      <trkpt lat="43.96732" lon="7.36335">
        <ele>1393.484</ele>
        <time>2014-10-18T10:16:08Z</time>
      </trkpt>
      <trkpt lat="43.9672" lon="7.36329">
        <ele>1396.407</ele>
        <time>2014-10-18T10:16:14Z</time>
      </trkpt>
      <trkpt lat="43.96705" lon="7.36323">
        <ele>1395.159</ele>
        <time>2014-10-18T10:16:20Z</time>
      </trkpt>
      <trkpt lat="43.96691" lon="7.36321">
        <ele>1395.665</ele>
        <time>2014-10-18T10:16:25Z</time>
      </trkpt>
      <trkpt lat="43.96681" lon="7.36325">
        <ele>1394.656</ele>
        <time>2014-10-18T10:16:30Z</time>
      </trkpt>
      <trkpt lat="43.96671" lon="7.3633">
        <ele>1393.034</ele>
        <time>2014-10-18T10:16:34Z</time>
      </trkpt>
      <trkpt lat="43.9667" lon="7.3633">
        <ele>1392.734</ele>
        <time>2014-10-18T10:16:35Z</time>
      </trkpt>
      <trkpt lat="43.96663" lon="7.3633">
        <ele>1392.649</ele>
        <time>2014-10-18T10:16:40Z</time>
      </trkpt>
      <trkpt lat="43.96652" lon="7.3633">
        <ele>1394.134</ele>
        <time>2014-10-18T10:16:46Z</time>
      </trkpt>
      <trkpt lat="43.96648" lon="7.36331">
        <ele>1393.93</ele>
        <time>2014-10-18T10:16:52Z</time>
      </trkpt>
      <trkpt lat="43.96643" lon="7.36333">
        <ele>1392.207</ele>
        <time>2014-10-18T10:16:57Z</time>
      </trkpt>
      <trkpt lat="43.9663" lon="7.3633">
        <ele>1392.802</ele>
        <time>2014-10-18T10:17:01Z</time>
      </trkpt>
      <trkpt lat="43.9662" lon="7.3633">
        <ele>1393.854</ele>
        <time>2014-10-18T10:17:06Z</time>
      </trkpt>
      <trkpt lat="43.96609" lon="7.36325">
        <ele>1392.608</ele>
        <time>2014-10-18T10:17:10Z</time>
      </trkpt>
      <trkpt lat="43.96596" lon="7.36319">
        <ele>1392.078</ele>
        <time>2014-10-18T10:17:15Z</time>
      </trkpt>
      <trkpt lat="43.9658" lon="7.36316">
        <ele>1392.423</ele>
        <time>2014-10-18T10:17:21Z</time>
      </trkpt>
      <trkpt lat="43.96567" lon="7.36316">
        <ele>1392.501</ele>
        <time>2014-10-18T10:17:27Z</time>
      </trkpt>
      <trkpt lat="43.96556" lon="7.36321">
        <ele>1391.998</ele>
        <time>2014-10-18T10:17:33Z</time>
      </trkpt>
      <trkpt lat="43.96554" lon="7.36322">
        <ele>1391.97</ele>
        <time>2014-10-18T10:17:34Z</time>
      </trkpt>
      <trkpt lat="43.96548" lon="7.36336">
        <ele>1391.106</ele>
        <time>2014-10-18T10:17:41Z</time>
      </trkpt>
      <trkpt lat="43.96546" lon="7.36347">
        <ele>1390.496</ele>
        <time>2014-10-18T10:17:46Z</time>
      </trkpt>
      <trkpt lat="43.96542" lon="7.36355">
        <ele>1389.144</ele>
        <time>2014-10-18T10:17:50Z</time>
      </trkpt>
      <trkpt lat="43.96541" lon="7.36359">
        <ele>1388.003</ele>
        <time>2014-10-18T10:17:52Z</time>
      </trkpt>
      <trkpt lat="43.96535" lon="7.36365">
        <ele>1386.842</ele>
        <time>2014-10-18T10:17:56Z</time>
      </trkpt>
      <trkpt lat="43.96526" lon="7.36377">
        <ele>1392.819</ele>
        <time>2014-10-18T10:18:03Z</time>
      </trkpt>
      <trkpt lat="43.96516" lon="7.36385">
        <ele>1394.137</ele>
        <time>2014-10-18T10:18:10Z</time>
      </trkpt>
      <trkpt lat="43.96501" lon="7.36386">
        <ele>1396.337</ele>
        <time>2014-10-18T10:18:18Z</time>
      </trkpt>
      <trkpt lat="43.9649" lon="7.36389">
        <ele>1398.366</ele>
        <time>2014-10-18T10:18:24Z</time>
      </trkpt>
      <trkpt lat="43.96476" lon="7.36392">
        <ele>1400.447</ele>
        <time>2014-10-18T10:18:31Z</time>
      </trkpt>
      <trkpt lat="43.96466" lon="7.36396">
        <ele>1400.354</ele>
        <time>2014-10-18T10:18:37Z</time>
      </trkpt>
      <trkpt lat="43.96456" lon="7.36407">
        <ele>1397.564</ele>
        <time>2014-10-18T10:18:45Z</time>
      </trkpt>
      <trkpt lat="43.96456" lon="7.36409">
        <ele>1398.511</ele>
        <time>2014-10-18T10:18:55Z</time>
      </trkpt>
      <trkpt lat="43.96458" lon="7.36415">
        <ele>1411.249</ele>
        <time>2014-10-18T10:20:29Z</time>
      </trkpt>
      <trkpt lat="43.9646" lon="7.36432">
        <ele>1407.178</ele>
        <time>2014-10-18T10:20:34Z</time>
      </trkpt>
      <trkpt lat="43.96465" lon="7.36445">
        <ele>1405.228</ele>
        <time>2014-10-18T10:20:37Z</time>
      </trkpt>
      <trkpt lat="43.96474" lon="7.36475">
        <ele>1400.554</ele>
        <time>2014-10-18T10:20:43Z</time>
      </trkpt>
      <trkpt lat="43.96481" lon="7.36499">
        <ele>1396.662</ele>
        <time>2014-10-18T10:20:48Z</time>
      </trkpt>
      <trkpt lat="43.96487" lon="7.36523">
        <ele>1393.002</ele>
        <time>2014-10-18T10:20:53Z</time>
      </trkpt>
      <trkpt lat="43.96488" lon="7.36527">
        <ele>1392.392</ele>
        <time>2014-10-18T10:20:54Z</time>
      </trkpt>
      <trkpt lat="43.96504" lon="7.36544">
        <ele>1391.378</ele>
        <time>2014-10-18T10:20:59Z</time>
      </trkpt>
      <trkpt lat="43.96508" lon="7.36552">
        <ele>1391.631</ele>
        <time>2014-10-18T10:21:01Z</time>
      </trkpt>
      <trkpt lat="43.96524" lon="7.3658">
        <ele>1394.601</ele>
        <time>2014-10-18T10:21:08Z</time>
      </trkpt>
      <trkpt lat="43.96525" lon="7.36595">
        <ele>1396.614</ele>
        <time>2014-10-18T10:21:12Z</time>
      </trkpt>
      <trkpt lat="43.96526" lon="7.36609">
        <ele>1397.425</ele>
        <time>2014-10-18T10:21:15Z</time>
      </trkpt>
      <trkpt lat="43.96521" lon="7.36625">
        <ele>1399.308</ele>
        <time>2014-10-18T10:21:18Z</time>
      </trkpt>
      <trkpt lat="43.96519" lon="7.36631">
        <ele>1399.055</ele>
        <time>2014-10-18T10:21:19Z</time>
      </trkpt>
      <trkpt lat="43.96514" lon="7.36647">
        <ele>1396.492</ele>
        <time>2014-10-18T10:21:22Z</time>
      </trkpt>
      <trkpt lat="43.96503" lon="7.36676">
        <ele>1394.858</ele>
        <time>2014-10-18T10:21:28Z</time>
      </trkpt>
      <trkpt lat="43.96501" lon="7.36698">
        <ele>1394.34</ele>
        <time>2014-10-18T10:21:33Z</time>
      </trkpt>
      <trkpt lat="43.96508" lon="7.3671">
        <ele>1393.098</ele>
        <time>2014-10-18T10:21:37Z</time>
      </trkpt>
      <trkpt lat="43.96515" lon="7.36719">
        <ele>1391.892</ele>
        <time>2014-10-18T10:21:40Z</time>
      </trkpt>
      <trkpt lat="43.96522" lon="7.36726">
        <ele>1390.909</ele>
        <time>2014-10-18T10:21:42Z</time>
      </trkpt>
      <trkpt lat="43.96543" lon="7.3675">
        <ele>1388.437</ele>
        <time>2014-10-18T10:21:47Z</time>
      </trkpt>
      <trkpt lat="43.96561" lon="7.36765">
        <ele>1386.607</ele>
        <time>2014-10-18T10:21:51Z</time>
      </trkpt>
      <trkpt lat="43.96566" lon="7.36775">
        <ele>1386.369</ele>
        <time>2014-10-18T10:21:53Z</time>
      </trkpt>
      <trkpt lat="43.96572" lon="7.36784">
        <ele>1385.318</ele>
        <time>2014-10-18T10:21:55Z</time>
      </trkpt>
      <trkpt lat="43.96579" lon="7.36792">
        <ele>1385.13</ele>
        <time>2014-10-18T10:21:57Z</time>
      </trkpt>
      <trkpt lat="43.96585" lon="7.368">
        <ele>1385.262</ele>
        <time>2014-10-18T10:21:59Z</time>
      </trkpt>
      <trkpt lat="43.96591" lon="7.36815">
        <ele>1384.662</ele>
        <time>2014-10-18T10:22:03Z</time>
      </trkpt>
      <trkpt lat="43.96589" lon="7.36816">
        <ele>1385.306</ele>
        <time>2014-10-18T10:22:08Z</time>
      </trkpt>
      <trkpt lat="43.96588" lon="7.36817">
        <ele>1384.503</ele>
        <time>2014-10-18T10:22:12Z</time>
      </trkpt>
      <trkpt lat="43.96586" lon="7.36818">
        <ele>1385.275</ele>
        <time>2014-10-18T10:22:14Z</time>
      </trkpt>
      <trkpt lat="43.96585" lon="7.36821">
        <ele>1387.479</ele>
        <time>2014-10-18T10:22:16Z</time>
      </trkpt>
      <trkpt lat="43.96577" lon="7.36826">
        <ele>1401.609</ele>
        <time>2014-10-18T10:22:24Z</time>
      </trkpt>
      <trkpt lat="43.96575" lon="7.36827">
        <ele>1398.105</ele>
        <time>2014-10-18T10:22:30Z</time>
      </trkpt>
      <trkpt lat="43.9657" lon="7.36831">
        <ele>1397.221</ele>
        <time>2014-10-18T10:22:37Z</time>
      </trkpt>
      <trkpt lat="43.96563" lon="7.3684">
        <ele>1389.568</ele>
        <time>2014-10-18T10:22:43Z</time>
      </trkpt>
      <trkpt lat="43.96562" lon="7.36847">
        <ele>1385.902</ele>
        <time>2014-10-18T10:22:48Z</time>
      </trkpt>
      <trkpt lat="43.96559" lon="7.36856">
        <ele>1381.623</ele>
        <time>2014-10-18T10:22:54Z</time>
      </trkpt>
      <trkpt lat="43.96557" lon="7.3686">
        <ele>1383.881</ele>
        <time>2014-10-18T10:22:57Z</time>
      </trkpt>
      <trkpt lat="43.9655" lon="7.36863">
        <ele>1387.24</ele>
        <time>2014-10-18T10:23:05Z</time>
      </trkpt>
      <trkpt lat="43.96545" lon="7.36867">
        <ele>1389.305</ele>
        <time>2014-10-18T10:23:12Z</time>
      </trkpt>
      <trkpt lat="43.96543" lon="7.36872">
        <ele>1391.389</ele>
        <time>2014-10-18T10:23:18Z</time>
      </trkpt>
      <trkpt lat="43.96543" lon="7.36876">
        <ele>1391.973</ele>
        <time>2014-10-18T10:23:26Z</time>
      </trkpt>
      <trkpt lat="43.96543" lon="7.36878">
        <ele>1391.943</ele>
        <time>2014-10-18T10:23:28Z</time>
      </trkpt>
      <trkpt lat="43.96541" lon="7.36883">
        <ele>1393.487</ele>
        <time>2014-10-18T10:23:32Z</time>
      </trkpt>
      <trkpt lat="43.96539" lon="7.36887">
        <ele>1394.727</ele>
        <time>2014-10-18T10:23:35Z</time>
      </trkpt>
      <trkpt lat="43.96538" lon="7.36895">
        <ele>1394.855</ele>
        <time>2014-10-18T10:23:41Z</time>
      </trkpt>
      <trkpt lat="43.96538" lon="7.36898">
        <ele>1395.162</ele>
        <time>2014-10-18T10:23:46Z</time>
      </trkpt>
      <trkpt lat="43.96532" lon="7.36912">
        <ele>1394.52</ele>
        <time>2014-10-18T10:23:51Z</time>
      </trkpt>
      <trkpt lat="43.96523" lon="7.36928">
        <ele>1395.331</ele>
        <time>2014-10-18T10:23:57Z</time>
      </trkpt>
      <trkpt lat="43.96524" lon="7.36948">
        <ele>1394.294</ele>
        <time>2014-10-18T10:24:02Z</time>
      </trkpt>
      <trkpt lat="43.96527" lon="7.36969">
        <ele>1393.453</ele>
        <time>2014-10-18T10:24:06Z</time>
      </trkpt>
      <trkpt lat="43.96525" lon="7.36991">
        <ele>1391.66</ele>
        <time>2014-10-18T10:24:10Z</time>
      </trkpt>
      <trkpt lat="43.96526" lon="7.36997">
        <ele>1391.469</ele>
        <time>2014-10-18T10:24:11Z</time>
      </trkpt>
      <trkpt lat="43.96531" lon="7.37033">
        <ele>1389.459</ele>
        <time>2014-10-18T10:24:17Z</time>
      </trkpt>
      <trkpt lat="43.96535" lon="7.37048">
        <ele>1388.388</ele>
        <time>2014-10-18T10:24:21Z</time>
      </trkpt>
      <trkpt lat="43.96538" lon="7.37053">
        <ele>1387.95</ele>
        <time>2014-10-18T10:24:26Z</time>
      </trkpt>
      <trkpt lat="43.96534" lon="7.37059">
        <ele>1400.807</ele>
        <time>2014-10-18T10:24:35Z</time>
      </trkpt>
      <trkpt lat="43.96534" lon="7.3706">
        <ele>1400.174</ele>
        <time>2014-10-18T10:24:36Z</time>
      </trkpt>
      <trkpt lat="43.96528" lon="7.37061">
        <ele>1400.9</ele>
        <time>2014-10-18T10:24:42Z</time>
      </trkpt>
      <trkpt lat="43.96518" lon="7.37054">
        <ele>1402.486</ele>
        <time>2014-10-18T10:24:47Z</time>
      </trkpt>
      <trkpt lat="43.96515" lon="7.37055">
        <ele>1402.069</ele>
        <time>2014-10-18T10:24:53Z</time>
      </trkpt>
      <trkpt lat="43.96508" lon="7.37059">
        <ele>1401.471</ele>
        <time>2014-10-18T10:24:57Z</time>
      </trkpt>
      <trkpt lat="43.96498" lon="7.37065">
        <ele>1400.098</ele>
        <time>2014-10-18T10:25:02Z</time>
      </trkpt>
      <trkpt lat="43.96483" lon="7.37068">
        <ele>1399.602</ele>
        <time>2014-10-18T10:25:08Z</time>
      </trkpt>
      <trkpt lat="43.96472" lon="7.37085">
        <ele>1395.986</ele>
        <time>2014-10-18T10:25:15Z</time>
      </trkpt>
      <trkpt lat="43.96468" lon="7.37092">
        <ele>1394.705</ele>
        <time>2014-10-18T10:25:17Z</time>
      </trkpt>
      <trkpt lat="43.96457" lon="7.37118">
        <ele>1390.971</ele>
        <time>2014-10-18T10:25:23Z</time>
      </trkpt>
      <trkpt lat="43.96447" lon="7.37134">
        <ele>1388.729</ele>
        <time>2014-10-18T10:25:27Z</time>
      </trkpt>
      <trkpt lat="43.96436" lon="7.37152">
        <ele>1383.775</ele>
        <time>2014-10-18T10:25:31Z</time>
      </trkpt>
      <trkpt lat="43.96425" lon="7.37171">
        <ele>1386.274</ele>
        <time>2014-10-18T10:25:35Z</time>
      </trkpt>
      <trkpt lat="43.96413" lon="7.37188">
        <ele>1386.355</ele>
        <time>2014-10-18T10:25:39Z</time>
      </trkpt>
      <trkpt lat="43.96406" lon="7.37205">
        <ele>1388.782</ele>
        <time>2014-10-18T10:25:44Z</time>
      </trkpt>
      <trkpt lat="43.96404" lon="7.3721">
        <ele>1390.043</ele>
        <time>2014-10-18T10:25:46Z</time>
      </trkpt>
      <trkpt lat="43.964" lon="7.37205">
        <ele>1393.429</ele>
        <time>2014-10-18T10:25:52Z</time>
      </trkpt>
      <trkpt lat="43.96399" lon="7.372">
        <ele>1395.833</ele>
        <time>2014-10-18T10:25:55Z</time>
      </trkpt>
      <trkpt lat="43.96395" lon="7.37184">
        <ele>1402.656</ele>
        <time>2014-10-18T10:26:03Z</time>
      </trkpt>
      <trkpt lat="43.96392" lon="7.37177">
        <ele>1402.381</ele>
        <time>2014-10-18T10:26:08Z</time>
      </trkpt>
      <trkpt lat="43.96386" lon="7.37171">
        <ele>1400.554</ele>
        <time>2014-10-18T10:26:14Z</time>
      </trkpt>
      <trkpt lat="43.96387" lon="7.3717">
        <ele>1399.902</ele>
        <time>2014-10-18T10:26:16Z</time>
      </trkpt>
      <trkpt lat="43.96383" lon="7.37166">
        <ele>1400.709</ele>
        <time>2014-10-18T10:26:23Z</time>
      </trkpt>
      <trkpt lat="43.96381" lon="7.37158">
        <ele>1407.418</ele>
        <time>2014-10-18T10:26:32Z</time>
      </trkpt>
      <trkpt lat="43.9638" lon="7.37152">
        <ele>1404.396</ele>
        <time>2014-10-18T10:26:38Z</time>
      </trkpt>
      <trkpt lat="43.96375" lon="7.37142">
        <ele>1401.591</ele>
        <time>2014-10-18T10:26:46Z</time>
      </trkpt>
      <trkpt lat="43.96375" lon="7.37139">
        <ele>1397.825</ele>
        <time>2014-10-18T10:26:52Z</time>
      </trkpt>
      <trkpt lat="43.96374" lon="7.37137">
        <ele>1395.218</ele>
        <time>2014-10-18T10:26:59Z</time>
      </trkpt>
      <trkpt lat="43.96374" lon="7.37134">
        <ele>1396.291</ele>
        <time>2014-10-18T10:27:10Z</time>
      </trkpt>
      <trkpt lat="43.96368" lon="7.37125">
        <ele>1398.703</ele>
        <time>2014-10-18T10:27:17Z</time>
      </trkpt>
      <trkpt lat="43.96358" lon="7.37114">
        <ele>1400.004</ele>
        <time>2014-10-18T10:27:23Z</time>
      </trkpt>
      <trkpt lat="43.9635" lon="7.37102">
        <ele>1406.602</ele>
        <time>2014-10-18T10:27:30Z</time>
      </trkpt>
      <trkpt lat="43.9634" lon="7.37092">
        <ele>1408.877</ele>
        <time>2014-10-18T10:27:38Z</time>
      </trkpt>
      <trkpt lat="43.96329" lon="7.37081">
        <ele>1410.188</ele>
        <time>2014-10-18T10:27:46Z</time>
      </trkpt>
      <trkpt lat="43.96321" lon="7.37073">
        <ele>1416.058</ele>
        <time>2014-10-18T10:27:53Z</time>
      </trkpt>
      <trkpt lat="43.96321" lon="7.3707">
        <ele>1414.538</ele>
        <time>2014-10-18T10:27:58Z</time>
      </trkpt>
      <trkpt lat="43.96321" lon="7.37069">
        <ele>1412.534</ele>
        <time>2014-10-18T10:28:05Z</time>
      </trkpt>
      <trkpt lat="43.96315" lon="7.37068">
        <ele>1414.184</ele>
        <time>2014-10-18T10:28:14Z</time>
      </trkpt>
      <trkpt lat="43.96312" lon="7.37067">
        <ele>1416.299</ele>
        <time>2014-10-18T10:28:36Z</time>
      </trkpt>
      <trkpt lat="43.9631" lon="7.37071">
        <ele>1416.362</ele>
        <time>2014-10-18T10:31:11Z</time>
      </trkpt>
      <trkpt lat="43.96307" lon="7.37066">
        <ele>1418.271</ele>
        <time>2014-10-18T10:31:18Z</time>
      </trkpt>
      <trkpt lat="43.96307" lon="7.37066">
        <ele>1417.909</ele>
        <time>2014-10-18T10:31:20Z</time>
      </trkpt>
      <trkpt lat="43.96298" lon="7.37063">
        <ele>1417.259</ele>
        <time>2014-10-18T10:31:27Z</time>
      </trkpt>
      <trkpt lat="43.96285" lon="7.37055">
        <ele>1418.902</ele>
        <time>2014-10-18T10:31:34Z</time>
      </trkpt>
      <trkpt lat="43.96268" lon="7.3705">
        <ele>1420.974</ele>
        <time>2014-10-18T10:31:43Z</time>
      </trkpt>
      <trkpt lat="43.96255" lon="7.37048">
        <ele>1423.013</ele>
        <time>2014-10-18T10:31:50Z</time>
      </trkpt>
      <trkpt lat="43.96241" lon="7.37049">
        <ele>1418.995</ele>
        <time>2014-10-18T10:31:57Z</time>
      </trkpt>
      <trkpt lat="43.96228" lon="7.37051">
        <ele>1415.518</ele>
        <time>2014-10-18T10:32:04Z</time>
      </trkpt>
      <trkpt lat="43.96217" lon="7.37051">
        <ele>1415.859</ele>
        <time>2014-10-18T10:32:10Z</time>
      </trkpt>
      <trkpt lat="43.9621" lon="7.37052">
        <ele>1418.292</ele>
        <time>2014-10-18T10:32:16Z</time>
      </trkpt>
      <trkpt lat="43.96197" lon="7.37048">
        <ele>1420.265</ele>
        <time>2014-10-18T10:32:23Z</time>
      </trkpt>
      <trkpt lat="43.96186" lon="7.37046">
        <ele>1421.861</ele>
        <time>2014-10-18T10:32:30Z</time>
      </trkpt>
      <trkpt lat="43.96169" lon="7.37045">
        <ele>1418.207</ele>
        <time>2014-10-18T10:32:39Z</time>
      </trkpt>
      <trkpt lat="43.96159" lon="7.37046">
        <ele>1417.78</ele>
        <time>2014-10-18T10:32:45Z</time>
      </trkpt>
      <trkpt lat="43.96145" lon="7.37048">
        <ele>1415.319</ele>
        <time>2014-10-18T10:32:51Z</time>
      </trkpt>
      <trkpt lat="43.96132" lon="7.37052">
        <ele>1418.304</ele>
        <time>2014-10-18T10:33:00Z</time>
      </trkpt>
      <trkpt lat="43.96116" lon="7.37053">
        <ele>1419.904</ele>
        <time>2014-10-18T10:33:09Z</time>
      </trkpt>
      <trkpt lat="43.96101" lon="7.37059">
        <ele>1421.593</ele>
        <time>2014-10-18T10:33:18Z</time>
      </trkpt>
      <trkpt lat="43.96088" lon="7.37063">
        <ele>1421.453</ele>
        <time>2014-10-18T10:33:25Z</time>
      </trkpt>
      <trkpt lat="43.96078" lon="7.37066">
        <ele>1422.574</ele>
        <time>2014-10-18T10:33:31Z</time>
      </trkpt>
      <trkpt lat="43.96069" lon="7.37068">
        <ele>1424.568</ele>
        <time>2014-10-18T10:33:37Z</time>
      </trkpt>
      <trkpt lat="43.96058" lon="7.37074">
        <ele>1425.654</ele>
        <time>2014-10-18T10:33:44Z</time>
      </trkpt>
      <trkpt lat="43.96046" lon="7.37081">
        <ele>1424.029</ele>
        <time>2014-10-18T10:33:51Z</time>
      </trkpt>
      <trkpt lat="43.96037" lon="7.37084">
        <ele>1425.973</ele>
        <time>2014-10-18T10:33:57Z</time>
      </trkpt>
      <trkpt lat="43.96027" lon="7.37087">
        <ele>1427.155</ele>
        <time>2014-10-18T10:34:04Z</time>
      </trkpt>
      <trkpt lat="43.96021" lon="7.37093">
        <ele>1428.163</ele>
        <time>2014-10-18T10:34:11Z</time>
      </trkpt>
      <trkpt lat="43.96007" lon="7.37095">
        <ele>1430.374</ele>
        <time>2014-10-18T10:34:18Z</time>
      </trkpt>
      <trkpt lat="43.95997" lon="7.37097">
        <ele>1431.293</ele>
        <time>2014-10-18T10:34:25Z</time>
      </trkpt>
      <trkpt lat="43.95987" lon="7.37099">
        <ele>1433.251</ele>
        <time>2014-10-18T10:34:31Z</time>
      </trkpt>
      <trkpt lat="43.95977" lon="7.37098">
        <ele>1438.472</ele>
        <time>2014-10-18T10:34:38Z</time>
      </trkpt>
      <trkpt lat="43.95967" lon="7.37096">
        <ele>1439.586</ele>
        <time>2014-10-18T10:34:45Z</time>
      </trkpt>
      <trkpt lat="43.95954" lon="7.37097">
        <ele>1440.513</ele>
        <time>2014-10-18T10:34:53Z</time>
      </trkpt>
      <trkpt lat="43.95946" lon="7.37096">
        <ele>1442.823</ele>
        <time>2014-10-18T10:34:58Z</time>
      </trkpt>
      <trkpt lat="43.95934" lon="7.37092">
        <ele>1450.709</ele>
        <time>2014-10-18T10:35:07Z</time>
      </trkpt>
      <trkpt lat="43.95921" lon="7.37097">
        <ele>1447.388</ele>
        <time>2014-10-18T10:35:15Z</time>
      </trkpt>
      <trkpt lat="43.95907" lon="7.37098">
        <ele>1446.818</ele>
        <time>2014-10-18T10:35:23Z</time>
      </trkpt>
      <trkpt lat="43.95899" lon="7.37096">
        <ele>1449.383</ele>
        <time>2014-10-18T10:35:29Z</time>
      </trkpt>
      <trkpt lat="43.95893" lon="7.37097">
        <ele>1446.707</ele>
        <time>2014-10-18T10:35:34Z</time>
      </trkpt>
      <trkpt lat="43.95882" lon="7.371">
        <ele>1445.837</ele>
        <time>2014-10-18T10:35:40Z</time>
      </trkpt>
      <trkpt lat="43.95871" lon="7.37097">
        <ele>1449.545</ele>
        <time>2014-10-18T10:35:47Z</time>
      </trkpt>
      <trkpt lat="43.95859" lon="7.37099">
        <ele>1444.744</ele>
        <time>2014-10-18T10:35:53Z</time>
      </trkpt>
      <trkpt lat="43.9585" lon="7.371">
        <ele>1442.556</ele>
        <time>2014-10-18T10:35:58Z</time>
      </trkpt>
      <trkpt lat="43.95838" lon="7.37099">
        <ele>1443.6</ele>
        <time>2014-10-18T10:36:06Z</time>
      </trkpt>
      <trkpt lat="43.95828" lon="7.37098">
        <ele>1446.217</ele>
        <time>2014-10-18T10:36:14Z</time>
      </trkpt>
      <trkpt lat="43.95821" lon="7.37096">
        <ele>1451.237</ele>
        <time>2014-10-18T10:36:20Z</time>
      </trkpt>
      <trkpt lat="43.95813" lon="7.37092">
        <ele>1455.317</ele>
        <time>2014-10-18T10:36:26Z</time>
      </trkpt>
      <trkpt lat="43.95805" lon="7.37089">
        <ele>1454.571</ele>
        <time>2014-10-18T10:36:32Z</time>
      </trkpt>
      <trkpt lat="43.95791" lon="7.37087">
        <ele>1455.871</ele>
        <time>2014-10-18T10:36:41Z</time>
      </trkpt>
      <trkpt lat="43.9578" lon="7.37085">
        <ele>1455.891</ele>
        <time>2014-10-18T10:36:48Z</time>
      </trkpt>
      <trkpt lat="43.9577" lon="7.37083">
        <ele>1455.892</ele>
        <time>2014-10-18T10:36:54Z</time>
      </trkpt>
      <trkpt lat="43.95762" lon="7.3708">
        <ele>1457.963</ele>
        <time>2014-10-18T10:36:59Z</time>
      </trkpt>
      <trkpt lat="43.95751" lon="7.37071">
        <ele>1462.826</ele>
        <time>2014-10-18T10:37:07Z</time>
      </trkpt>
      <trkpt lat="43.95745" lon="7.37067">
        <ele>1463.103</ele>
        <time>2014-10-18T10:37:12Z</time>
      </trkpt>
      <trkpt lat="43.95733" lon="7.37056">
        <ele>1463.436</ele>
        <time>2014-10-18T10:37:21Z</time>
      </trkpt>
      <trkpt lat="43.95722" lon="7.3705">
        <ele>1464.946</ele>
        <time>2014-10-18T10:37:29Z</time>
      </trkpt>
      <trkpt lat="43.9572" lon="7.37049">
        <ele>1465.027</ele>
        <time>2014-10-18T10:37:30Z</time>
      </trkpt>
      <trkpt lat="43.95704" lon="7.37044">
        <ele>1464.802</ele>
        <time>2014-10-18T10:37:40Z</time>
      </trkpt>
      <trkpt lat="43.95691" lon="7.37042">
        <ele>1464.244</ele>
        <time>2014-10-18T10:37:48Z</time>
      </trkpt>
      <trkpt lat="43.95682" lon="7.3704">
        <ele>1464.945</ele>
        <time>2014-10-18T10:37:54Z</time>
      </trkpt>
      <trkpt lat="43.9567" lon="7.37039">
        <ele>1463.403</ele>
        <time>2014-10-18T10:38:02Z</time>
      </trkpt>
      <trkpt lat="43.95659" lon="7.37039">
        <ele>1462.929</ele>
        <time>2014-10-18T10:38:09Z</time>
      </trkpt>
      <trkpt lat="43.95646" lon="7.37038">
        <ele>1464.904</ele>
        <time>2014-10-18T10:38:16Z</time>
      </trkpt>
      <trkpt lat="43.95638" lon="7.37037">
        <ele>1468.647</ele>
        <time>2014-10-18T10:38:22Z</time>
      </trkpt>
      <trkpt lat="43.95629" lon="7.37037">
        <ele>1469.795</ele>
        <time>2014-10-18T10:38:28Z</time>
      </trkpt>
      <trkpt lat="43.95617" lon="7.37034">
        <ele>1470.911</ele>
        <time>2014-10-18T10:38:36Z</time>
      </trkpt>
      <trkpt lat="43.95605" lon="7.37031">
        <ele>1472.348</ele>
        <time>2014-10-18T10:38:45Z</time>
      </trkpt>
      <trkpt lat="43.95592" lon="7.37029">
        <ele>1472.58</ele>
        <time>2014-10-18T10:38:53Z</time>
      </trkpt>
      <trkpt lat="43.95578" lon="7.37029">
        <ele>1471.697</ele>
        <time>2014-10-18T10:39:01Z</time>
      </trkpt>
      <trkpt lat="43.95564" lon="7.37029">
        <ele>1471.536</ele>
        <time>2014-10-18T10:39:09Z</time>
      </trkpt>
      <trkpt lat="43.95553" lon="7.37028">
        <ele>1473.291</ele>
        <time>2014-10-18T10:39:15Z</time>
      </trkpt>
      <trkpt lat="43.95541" lon="7.37026">
        <ele>1472.581</ele>
        <time>2014-10-18T10:39:22Z</time>
      </trkpt>
      <trkpt lat="43.95527" lon="7.37031">
        <ele>1473.538</ele>
        <time>2014-10-18T10:39:30Z</time>
      </trkpt>
      <trkpt lat="43.95519" lon="7.37032">
        <ele>1478.166</ele>
        <time>2014-10-18T10:39:36Z</time>
      </trkpt>
      <trkpt lat="43.95509" lon="7.37025">
        <ele>1481.902</ele>
        <time>2014-10-18T10:39:42Z</time>
      </trkpt>
      <trkpt lat="43.95501" lon="7.37018">
        <ele>1485.016</ele>
        <time>2014-10-18T10:39:47Z</time>
      </trkpt>
      <trkpt lat="43.9549" lon="7.37015">
        <ele>1483.016</ele>
        <time>2014-10-18T10:39:53Z</time>
      </trkpt>
      <trkpt lat="43.95481" lon="7.37009">
        <ele>1482.115</ele>
        <time>2014-10-18T10:39:58Z</time>
      </trkpt>
      <trkpt lat="43.9547" lon="7.37">
        <ele>1480.446</ele>
        <time>2014-10-18T10:40:06Z</time>
      </trkpt>
      <trkpt lat="43.9546" lon="7.3699">
        <ele>1480.858</ele>
        <time>2014-10-18T10:40:12Z</time>
      </trkpt>
      <trkpt lat="43.95449" lon="7.36977">
        <ele>1482.287</ele>
        <time>2014-10-18T10:40:20Z</time>
      </trkpt>
      <trkpt lat="43.9544" lon="7.36966">
        <ele>1483.229</ele>
        <time>2014-10-18T10:40:27Z</time>
      </trkpt>
      <trkpt lat="43.95428" lon="7.36957">
        <ele>1484.151</ele>
        <time>2014-10-18T10:40:35Z</time>
      </trkpt>
      <trkpt lat="43.9542" lon="7.3695">
        <ele>1485.472</ele>
        <time>2014-10-18T10:40:40Z</time>
      </trkpt>
      <trkpt lat="43.95407" lon="7.36947">
        <ele>1485.599</ele>
        <time>2014-10-18T10:40:48Z</time>
      </trkpt>
      <trkpt lat="43.95393" lon="7.36945">
        <ele>1485.299</ele>
        <time>2014-10-18T10:40:56Z</time>
      </trkpt>
      <trkpt lat="43.95382" lon="7.36942">
        <ele>1485.911</ele>
        <time>2014-10-18T10:41:03Z</time>
      </trkpt>
      <trkpt lat="43.95371" lon="7.36937">
        <ele>1486.17</ele>
        <time>2014-10-18T10:41:11Z</time>
      </trkpt>
      <trkpt lat="43.95359" lon="7.36924">
        <ele>1489.24</ele>
        <time>2014-10-18T10:41:20Z</time>
      </trkpt>
      <trkpt lat="43.95354" lon="7.36912">
        <ele>1491.249</ele>
        <time>2014-10-18T10:41:26Z</time>
      </trkpt>
      <trkpt lat="43.95348" lon="7.36907">
        <ele>1491.507</ele>
        <time>2014-10-18T10:41:30Z</time>
      </trkpt>
      <trkpt lat="43.95337" lon="7.36892">
        <ele>1491.627</ele>
        <time>2014-10-18T10:41:39Z</time>
      </trkpt>
      <trkpt lat="43.95332" lon="7.36881">
        <ele>1493.627</ele>
        <time>2014-10-18T10:41:46Z</time>
      </trkpt>
      <trkpt lat="43.95331" lon="7.36879">
        <ele>1493.436</ele>
        <time>2014-10-18T10:41:48Z</time>
      </trkpt>
      <trkpt lat="43.95328" lon="7.36877">
        <ele>1493.276</ele>
        <time>2014-10-18T10:41:51Z</time>
      </trkpt>
      <trkpt lat="43.95323" lon="7.36869">
        <ele>1493.358</ele>
        <time>2014-10-18T10:41:57Z</time>
      </trkpt>
      <trkpt lat="43.95315" lon="7.36854">
        <ele>1496.703</ele>
        <time>2014-10-18T10:42:05Z</time>
      </trkpt>
      <trkpt lat="43.95314" lon="7.36851">
        <ele>1497.252</ele>
        <time>2014-10-18T10:42:07Z</time>
      </trkpt>
      <trkpt lat="43.95311" lon="7.36844">
        <ele>1499.115</ele>
        <time>2014-10-18T10:42:11Z</time>
      </trkpt>
      <trkpt lat="43.95305" lon="7.36834">
        <ele>1501.093</ele>
        <time>2014-10-18T10:42:18Z</time>
      </trkpt>
      <trkpt lat="43.95299" lon="7.36824">
        <ele>1502.794</ele>
        <time>2014-10-18T10:42:24Z</time>
      </trkpt>
      <trkpt lat="43.95287" lon="7.36812">
        <ele>1503.031</ele>
        <time>2014-10-18T10:42:32Z</time>
      </trkpt>
      <trkpt lat="43.95278" lon="7.36804">
        <ele>1502.842</ele>
        <time>2014-10-18T10:42:38Z</time>
      </trkpt>
      <trkpt lat="43.9527" lon="7.36807">
        <ele>1483.767</ele>
        <time>2014-10-18T10:44:23Z</time>
      </trkpt>
      <trkpt lat="43.95265" lon="7.36792">
        <ele>1486.423</ele>
        <time>2014-10-18T10:44:30Z</time>
      </trkpt>
      <trkpt lat="43.95261" lon="7.36769">
        <ele>1489.045</ele>
        <time>2014-10-18T10:44:36Z</time>
      </trkpt>
      <trkpt lat="43.95256" lon="7.36737">
        <ele>1493.003</ele>
        <time>2014-10-18T10:44:44Z</time>
      </trkpt>
      <trkpt lat="43.95248" lon="7.36717">
        <ele>1493.569</ele>
        <time>2014-10-18T10:44:49Z</time>
      </trkpt>
      <trkpt lat="43.95238" lon="7.36699">
        <ele>1495.203</ele>
        <time>2014-10-18T10:44:54Z</time>
      </trkpt>
      <trkpt lat="43.95224" lon="7.3667">
        <ele>1496.945</ele>
        <time>2014-10-18T10:45:02Z</time>
      </trkpt>
      <trkpt lat="43.95216" lon="7.36644">
        <ele>1499.817</ele>
        <time>2014-10-18T10:45:08Z</time>
      </trkpt>
      <trkpt lat="43.95214" lon="7.36615">
        <ele>1505.006</ele>
        <time>2014-10-18T10:45:14Z</time>
      </trkpt>
      <trkpt lat="43.95212" lon="7.36584">
        <ele>1506.039</ele>
        <time>2014-10-18T10:45:20Z</time>
      </trkpt>
      <trkpt lat="43.9521" lon="7.36545">
        <ele>1511.808</ele>
        <time>2014-10-18T10:45:28Z</time>
      </trkpt>
      <trkpt lat="43.95205" lon="7.36523">
        <ele>1510.996</ele>
        <time>2014-10-18T10:45:33Z</time>
      </trkpt>
      <trkpt lat="43.95194" lon="7.36512">
        <ele>1509.087</ele>
        <time>2014-10-18T10:45:38Z</time>
      </trkpt>
      <trkpt lat="43.95186" lon="7.36514">
        <ele>1507.804</ele>
        <time>2014-10-18T10:45:42Z</time>
      </trkpt>
      <trkpt lat="43.95177" lon="7.36522">
        <ele>1506.513</ele>
        <time>2014-10-18T10:45:49Z</time>
      </trkpt>
      <trkpt lat="43.95163" lon="7.36533">
        <ele>1504.04</ele>
        <time>2014-10-18T10:45:56Z</time>
      </trkpt>
      <trkpt lat="43.95149" lon="7.36551">
        <ele>1501.127</ele>
        <time>2014-10-18T10:46:02Z</time>
      </trkpt>
      <trkpt lat="43.95135" lon="7.36572">
        <ele>1499.25</ele>
        <time>2014-10-18T10:46:08Z</time>
      </trkpt>
      <trkpt lat="43.95128" lon="7.36586">
        <ele>1498.851</ele>
        <time>2014-10-18T10:46:12Z</time>
      </trkpt>
      <trkpt lat="43.95115" lon="7.36604">
        <ele>1498.041</ele>
        <time>2014-10-18T10:46:17Z</time>
      </trkpt>
      <trkpt lat="43.95093" lon="7.36624">
        <ele>1495.661</ele>
        <time>2014-10-18T10:46:24Z</time>
      </trkpt>
      <trkpt lat="43.95074" lon="7.36634">
        <ele>1494.423</ele>
        <time>2014-10-18T10:46:30Z</time>
      </trkpt>
      <trkpt lat="43.95054" lon="7.36638">
        <ele>1495.488</ele>
        <time>2014-10-18T10:46:36Z</time>
      </trkpt>
      <trkpt lat="43.95037" lon="7.36644">
        <ele>1495.575</ele>
        <time>2014-10-18T10:46:41Z</time>
      </trkpt>
      <trkpt lat="43.95018" lon="7.36647">
        <ele>1496.697</ele>
        <time>2014-10-18T10:46:47Z</time>
      </trkpt>
      <trkpt lat="43.94995" lon="7.36652">
        <ele>1498.358</ele>
        <time>2014-10-18T10:46:54Z</time>
      </trkpt>
      <trkpt lat="43.94972" lon="7.36655">
        <ele>1499.524</ele>
        <time>2014-10-18T10:47:02Z</time>
      </trkpt>
      <trkpt lat="43.94952" lon="7.36658">
        <ele>1500.104</ele>
        <time>2014-10-18T10:47:09Z</time>
      </trkpt>
      <trkpt lat="43.94934" lon="7.36662">
        <ele>1498.745</ele>
        <time>2014-10-18T10:47:16Z</time>
      </trkpt>
      <trkpt lat="43.94918" lon="7.36665">
        <ele>1497.793</ele>
        <time>2014-10-18T10:47:22Z</time>
      </trkpt>
      <trkpt lat="43.94897" lon="7.36667">
        <ele>1499.013</ele>
        <time>2014-10-18T10:47:29Z</time>
      </trkpt>
      <trkpt lat="43.94883" lon="7.36668">
        <ele>1498.503</ele>
        <time>2014-10-18T10:47:34Z</time>
      </trkpt>
      <trkpt lat="43.9486" lon="7.36668">
        <ele>1499.012</ele>
        <time>2014-10-18T10:47:41Z</time>
      </trkpt>
      <trkpt lat="43.94835" lon="7.36668">
        <ele>1501.335</ele>
        <time>2014-10-18T10:47:49Z</time>
      </trkpt>
      <trkpt lat="43.94811" lon="7.36674">
        <ele>1499.627</ele>
        <time>2014-10-18T10:47:57Z</time>
      </trkpt>
      <trkpt lat="43.94795" lon="7.36679">
        <ele>1497.403</ele>
        <time>2014-10-18T10:48:02Z</time>
      </trkpt>
      <trkpt lat="43.94774" lon="7.36681">
        <ele>1498.876</ele>
        <time>2014-10-18T10:48:08Z</time>
      </trkpt>
      <trkpt lat="43.9475" lon="7.36682">
        <ele>1497.296</ele>
        <time>2014-10-18T10:48:15Z</time>
      </trkpt>
      <trkpt lat="43.94733" lon="7.36683">
        <ele>1494.835</ele>
        <time>2014-10-18T10:48:20Z</time>
      </trkpt>
      <trkpt lat="43.94707" lon="7.36682">
        <ele>1494.406</ele>
        <time>2014-10-18T10:48:27Z</time>
      </trkpt>
      <trkpt lat="43.9468" lon="7.36677">
        <ele>1492.576</ele>
        <time>2014-10-18T10:48:34Z</time>
      </trkpt>
      <trkpt lat="43.94651" lon="7.36666">
        <ele>1490.857</ele>
        <time>2014-10-18T10:48:41Z</time>
      </trkpt>
      <trkpt lat="43.9463" lon="7.36656">
        <ele>1490.078</ele>
        <time>2014-10-18T10:48:45Z</time>
      </trkpt>
      <trkpt lat="43.94613" lon="7.36649">
        <ele>1489.528</ele>
        <time>2014-10-18T10:48:49Z</time>
      </trkpt>
      <trkpt lat="43.94592" lon="7.3664">
        <ele>1490.771</ele>
        <time>2014-10-18T10:48:54Z</time>
      </trkpt>
      <trkpt lat="43.94563" lon="7.36632">
        <ele>1492.123</ele>
        <time>2014-10-18T10:49:00Z</time>
      </trkpt>
      <trkpt lat="43.94523" lon="7.36622">
        <ele>1490.189</ele>
        <time>2014-10-18T10:49:07Z</time>
      </trkpt>
      <trkpt lat="43.94484" lon="7.36612">
        <ele>1489.171</ele>
        <time>2014-10-18T10:49:13Z</time>
      </trkpt>
      <trkpt lat="43.9445" lon="7.36611">
        <ele>1486.37</ele>
        <time>2014-10-18T10:49:18Z</time>
      </trkpt>
      <trkpt lat="43.94421" lon="7.36613">
        <ele>1482.776</ele>
        <time>2014-10-18T10:49:22Z</time>
      </trkpt>
      <trkpt lat="43.94399" lon="7.36619">
        <ele>1480.964</ele>
        <time>2014-10-18T10:49:25Z</time>
      </trkpt>
      <trkpt lat="43.94373" lon="7.36639">
        <ele>1477.559</ele>
        <time>2014-10-18T10:49:29Z</time>
      </trkpt>
      <trkpt lat="43.94345" lon="7.36659">
        <ele>1476.3</ele>
        <time>2014-10-18T10:49:33Z</time>
      </trkpt>
      <trkpt lat="43.943" lon="7.36674">
        <ele>1470.755</ele>
        <time>2014-10-18T10:49:39Z</time>
      </trkpt>
      <trkpt lat="43.94286" lon="7.36676">
        <ele>1468.485</ele>
        <time>2014-10-18T10:49:41Z</time>
      </trkpt>
      <trkpt lat="43.94253" lon="7.36682">
        <ele>1465.428</ele>
        <time>2014-10-18T10:49:46Z</time>
      </trkpt>
      <trkpt lat="43.94219" lon="7.36676">
        <ele>1465.1</ele>
        <time>2014-10-18T10:49:51Z</time>
      </trkpt>
      <trkpt lat="43.94179" lon="7.36652">
        <ele>1462.775</ele>
        <time>2014-10-18T10:49:57Z</time>
      </trkpt>
      <trkpt lat="43.94156" lon="7.36635">
        <ele>1461.836</ele>
        <time>2014-10-18T10:50:01Z</time>
      </trkpt>
      <trkpt lat="43.94143" lon="7.36626">
        <ele>1460.826</ele>
        <time>2014-10-18T10:50:05Z</time>
      </trkpt>
      <trkpt lat="43.9414" lon="7.36622">
        <ele>1460.401</ele>
        <time>2014-10-18T10:50:09Z</time>
      </trkpt>
      <trkpt lat="43.94141" lon="7.36624">
        <ele>1460.004</ele>
        <time>2014-10-18T10:50:25Z</time>
      </trkpt>
      <trkpt lat="43.94141" lon="7.36612">
        <ele>1458.346</ele>
        <time>2014-10-18T10:50:31Z</time>
      </trkpt>
      <trkpt lat="43.94145" lon="7.36606">
        <ele>1456.174</ele>
        <time>2014-10-18T10:50:34Z</time>
      </trkpt>
      <trkpt lat="43.94142" lon="7.36601">
        <ele>1455.057</ele>
        <time>2014-10-18T10:50:37Z</time>
      </trkpt>
      <trkpt lat="43.9414" lon="7.36601">
        <ele>1454.648</ele>
        <time>2014-10-18T10:50:38Z</time>
      </trkpt>
      <trkpt lat="43.94121" lon="7.36598">
        <ele>1452.578</ele>
        <time>2014-10-18T10:50:45Z</time>
      </trkpt>
      <trkpt lat="43.94101" lon="7.36596">
        <ele>1450.048</ele>
        <time>2014-10-18T10:50:51Z</time>
      </trkpt>
      <trkpt lat="43.94079" lon="7.36595">
        <ele>1446.897</ele>
        <time>2014-10-18T10:50:57Z</time>
      </trkpt>
      <trkpt lat="43.94058" lon="7.36596">
        <ele>1444.178</ele>
        <time>2014-10-18T10:51:04Z</time>
      </trkpt>
      <trkpt lat="43.94042" lon="7.36596">
        <ele>1442.981</ele>
        <time>2014-10-18T10:51:10Z</time>
      </trkpt>
      <trkpt lat="43.94029" lon="7.36594">
        <ele>1443.661</ele>
        <time>2014-10-18T10:51:14Z</time>
      </trkpt>
      <trkpt lat="43.94006" lon="7.36581">
        <ele>1443.251</ele>
        <time>2014-10-18T10:51:19Z</time>
      </trkpt>
      <trkpt lat="43.93969" lon="7.36559">
        <ele>1442.179</ele>
        <time>2014-10-18T10:51:25Z</time>
      </trkpt>
      <trkpt lat="43.93941" lon="7.36544">
        <ele>1440.318</ele>
        <time>2014-10-18T10:51:29Z</time>
      </trkpt>
      <trkpt lat="43.93918" lon="7.36523">
        <ele>1439.528</ele>
        <time>2014-10-18T10:51:34Z</time>
      </trkpt>
      <trkpt lat="43.93921" lon="7.36514">
        <ele>1439.611</ele>
        <time>2014-10-18T10:51:38Z</time>
      </trkpt>
      <trkpt lat="43.93932" lon="7.36518">
        <ele>1439.874</ele>
        <time>2014-10-18T10:51:42Z</time>
      </trkpt>
      <trkpt lat="43.93936" lon="7.3652">
        <ele>1439.784</ele>
        <time>2014-10-18T10:51:43Z</time>
      </trkpt>
      <trkpt lat="43.93969" lon="7.3653">
        <ele>1442.602</ele>
        <time>2014-10-18T10:51:49Z</time>
      </trkpt>
      <trkpt lat="43.93987" lon="7.36535">
        <ele>1445.207</ele>
        <time>2014-10-18T10:51:52Z</time>
      </trkpt>
      <trkpt lat="43.94003" lon="7.36538">
        <ele>1447.821</ele>
        <time>2014-10-18T10:51:56Z</time>
      </trkpt>
      <trkpt lat="43.94008" lon="7.36533">
        <ele>1445.363</ele>
        <time>2014-10-18T10:52:00Z</time>
      </trkpt>
      <trkpt lat="43.94007" lon="7.36522">
        <ele>1444.08</ele>
        <time>2014-10-18T10:52:04Z</time>
      </trkpt>
      <trkpt lat="43.94008" lon="7.36512">
        <ele>1440.422</ele>
        <time>2014-10-18T10:52:09Z</time>
      </trkpt>
      <trkpt lat="43.94009" lon="7.36512">
        <ele>1442.145</ele>
        <time>2014-10-18T10:52:18Z</time>
      </trkpt>
      <trkpt lat="43.94008" lon="7.36507">
        <ele>1441.202</ele>
        <time>2014-10-18T10:52:23Z</time>
      </trkpt>
      <trkpt lat="43.94006" lon="7.36505">
        <ele>1439.017</ele>
        <time>2014-10-18T10:52:28Z</time>
      </trkpt>
      <trkpt lat="43.94004" lon="7.36504">
        <ele>1437.489</ele>
        <time>2014-10-18T10:52:33Z</time>
      </trkpt>
      <trkpt lat="43.94002" lon="7.36499">
        <ele>1438.048</ele>
        <time>2014-10-18T10:52:38Z</time>
      </trkpt>
      <trkpt lat="43.93991" lon="7.3649">
        <ele>1434.034</ele>
        <time>2014-10-18T10:52:43Z</time>
      </trkpt>
      <trkpt lat="43.93988" lon="7.36488">
        <ele>1433.383</ele>
        <time>2014-10-18T10:52:44Z</time>
      </trkpt>
      <trkpt lat="43.93974" lon="7.36474">
        <ele>1431.07</ele>
        <time>2014-10-18T10:52:48Z</time>
      </trkpt>
      <trkpt lat="43.93963" lon="7.36463">
        <ele>1427.507</ele>
        <time>2014-10-18T10:52:51Z</time>
      </trkpt>
      <trkpt lat="43.93943" lon="7.36439">
        <ele>1422.872</ele>
        <time>2014-10-18T10:52:56Z</time>
      </trkpt>
      <trkpt lat="43.93924" lon="7.36411">
        <ele>1419.026</ele>
        <time>2014-10-18T10:53:01Z</time>
      </trkpt>
      <trkpt lat="43.93913" lon="7.36373">
        <ele>1416.397</ele>
        <time>2014-10-18T10:53:06Z</time>
      </trkpt>
      <trkpt lat="43.93912" lon="7.36357">
        <ele>1415.085</ele>
        <time>2014-10-18T10:53:08Z</time>
      </trkpt>
      <trkpt lat="43.93908" lon="7.3632">
        <ele>1412.22</ele>
        <time>2014-10-18T10:53:13Z</time>
      </trkpt>
      <trkpt lat="43.93908" lon="7.36315">
        <ele>1411.399</ele>
        <time>2014-10-18T10:53:14Z</time>
      </trkpt>
      <trkpt lat="43.93903" lon="7.36296">
        <ele>1407.95</ele>
        <time>2014-10-18T10:53:19Z</time>
      </trkpt>
      <trkpt lat="43.93902" lon="7.36292">
        <ele>1407.361</ele>
        <time>2014-10-18T10:53:20Z</time>
      </trkpt>
      <trkpt lat="43.93898" lon="7.36285">
        <ele>1405.869</ele>
        <time>2014-10-18T10:53:22Z</time>
      </trkpt>
      <trkpt lat="43.93899" lon="7.36264">
        <ele>1401.071</ele>
        <time>2014-10-18T10:53:27Z</time>
      </trkpt>
      <trkpt lat="43.939" lon="7.36254">
        <ele>1398.84</ele>
        <time>2014-10-18T10:53:29Z</time>
      </trkpt>
      <trkpt lat="43.93908" lon="7.36221">
        <ele>1393.329</ele>
        <time>2014-10-18T10:53:34Z</time>
      </trkpt>
      <trkpt lat="43.93915" lon="7.36199">
        <ele>1388.646</ele>
        <time>2014-10-18T10:53:38Z</time>
      </trkpt>
      <trkpt lat="43.93919" lon="7.36187">
        <ele>1386.62</ele>
        <time>2014-10-18T10:53:40Z</time>
      </trkpt>
      <trkpt lat="43.93926" lon="7.36154">
        <ele>1380.651</ele>
        <time>2014-10-18T10:53:46Z</time>
      </trkpt>
      <trkpt lat="43.93936" lon="7.36135">
        <ele>1375.709</ele>
        <time>2014-10-18T10:53:51Z</time>
      </trkpt>
      <trkpt lat="43.93948" lon="7.36123">
        <ele>1372.239</ele>
        <time>2014-10-18T10:53:55Z</time>
      </trkpt>
      <trkpt lat="43.93949" lon="7.36114">
        <ele>1370.864</ele>
        <time>2014-10-18T10:54:00Z</time>
      </trkpt>
      <trkpt lat="43.93947" lon="7.36109">
        <ele>1370.247</ele>
        <time>2014-10-18T10:54:25Z</time>
      </trkpt>
      <trkpt lat="43.93949" lon="7.3609">
        <ele>1368.588</ele>
        <time>2014-10-18T10:54:29Z</time>
      </trkpt>
      <trkpt lat="43.93956" lon="7.36071">
        <ele>1365.291</ele>
        <time>2014-10-18T10:54:33Z</time>
      </trkpt>
      <trkpt lat="43.93974" lon="7.3605">
        <ele>1362.041</ele>
        <time>2014-10-18T10:54:38Z</time>
      </trkpt>
      <trkpt lat="43.93977" lon="7.36045">
        <ele>1361.25</ele>
        <time>2014-10-18T10:54:39Z</time>
      </trkpt>
      <trkpt lat="43.93989" lon="7.36024">
        <ele>1358.503</ele>
        <time>2014-10-18T10:54:44Z</time>
      </trkpt>
      <trkpt lat="43.93999" lon="7.36016">
        <ele>1357.879</ele>
        <time>2014-10-18T10:54:48Z</time>
      </trkpt>
      <trkpt lat="43.94004" lon="7.36013">
        <ele>1357.389</ele>
        <time>2014-10-18T10:54:51Z</time>
      </trkpt>
      <trkpt lat="43.94022" lon="7.36025">
        <ele>1355.521</ele>
        <time>2014-10-18T10:54:58Z</time>
      </trkpt>
      <trkpt lat="43.94027" lon="7.3603">
        <ele>1355.292</ele>
        <time>2014-10-18T10:55:01Z</time>
      </trkpt>
      <trkpt lat="43.94034" lon="7.36044">
        <ele>1354.483</ele>
        <time>2014-10-18T10:55:08Z</time>
      </trkpt>
      <trkpt lat="43.94043" lon="7.36043">
        <ele>1354.465</ele>
        <time>2014-10-18T10:55:12Z</time>
      </trkpt>
      <trkpt lat="43.94048" lon="7.36044">
        <ele>1355.218</ele>
        <time>2014-10-18T10:55:15Z</time>
      </trkpt>
      <trkpt lat="43.94058" lon="7.36051">
        <ele>1355.556</ele>
        <time>2014-10-18T10:55:22Z</time>
      </trkpt>
      <trkpt lat="43.9406" lon="7.36052">
        <ele>1356.678</ele>
        <time>2014-10-18T10:55:27Z</time>
      </trkpt>
      <trkpt lat="43.94062" lon="7.36053">
        <ele>1356.684</ele>
        <time>2014-10-18T10:55:34Z</time>
      </trkpt>
      <trkpt lat="43.94062" lon="7.36053">
        <ele>1356.923</ele>
        <time>2014-10-18T10:55:36Z</time>
      </trkpt>
      <trkpt lat="43.9407" lon="7.36062">
        <ele>1355.911</ele>
        <time>2014-10-18T10:55:41Z</time>
      </trkpt>
      <trkpt lat="43.9408" lon="7.36075">
        <ele>1354.882</ele>
        <time>2014-10-18T10:55:47Z</time>
      </trkpt>
      <trkpt lat="43.94094" lon="7.36084">
        <ele>1353.401</ele>
        <time>2014-10-18T10:55:54Z</time>
      </trkpt>
      <trkpt lat="43.94096" lon="7.36085">
        <ele>1353.544</ele>
        <time>2014-10-18T10:55:55Z</time>
      </trkpt>
      <trkpt lat="43.94107" lon="7.36081">
        <ele>1353.724</ele>
        <time>2014-10-18T10:56:01Z</time>
      </trkpt>
      <trkpt lat="43.94117" lon="7.36082">
        <ele>1354.287</ele>
        <time>2014-10-18T10:56:06Z</time>
      </trkpt>
      <trkpt lat="43.94128" lon="7.36079">
        <ele>1354.888</ele>
        <time>2014-10-18T10:56:12Z</time>
      </trkpt>
      <trkpt lat="43.9413" lon="7.36078">
        <ele>1354.938</ele>
        <time>2014-10-18T10:56:13Z</time>
      </trkpt>
      <trkpt lat="43.94134" lon="7.36067">
        <ele>1355.281</ele>
        <time>2014-10-18T10:56:18Z</time>
      </trkpt>
      <trkpt lat="43.94132" lon="7.36064">
        <ele>1356.068</ele>
        <time>2014-10-18T10:56:22Z</time>
      </trkpt>
      <trkpt lat="43.94133" lon="7.36062">
        <ele>1354.195</ele>
        <time>2014-10-18T10:56:45Z</time>
      </trkpt>
      <trkpt lat="43.94129" lon="7.36057">
        <ele>1356.322</ele>
        <time>2014-10-18T10:56:50Z</time>
      </trkpt>
      <trkpt lat="43.94129" lon="7.36055">
        <ele>1356.712</ele>
        <time>2014-10-18T10:56:51Z</time>
      </trkpt>
      <trkpt lat="43.94128" lon="7.36049">
        <ele>1359.099</ele>
        <time>2014-10-18T10:56:55Z</time>
      </trkpt>
      <trkpt lat="43.94134" lon="7.36042">
        <ele>1361.353</ele>
        <time>2014-10-18T10:57:02Z</time>
      </trkpt>
      <trkpt lat="43.94135" lon="7.36041">
        <ele>1361.484</ele>
        <time>2014-10-18T10:57:03Z</time>
      </trkpt>
      <trkpt lat="43.94145" lon="7.36032">
        <ele>1365.975</ele>
        <time>2014-10-18T10:57:13Z</time>
      </trkpt>
      <trkpt lat="43.94146" lon="7.36031">
        <ele>1366.375</ele>
        <time>2014-10-18T10:57:14Z</time>
      </trkpt>
      <trkpt lat="43.94151" lon="7.36025">
        <ele>1366.512</ele>
        <time>2014-10-18T10:57:21Z</time>
      </trkpt>
      <trkpt lat="43.94152" lon="7.36025">
        <ele>1366.22</ele>
        <time>2014-10-18T10:57:22Z</time>
      </trkpt>
      <trkpt lat="43.94157" lon="7.36011">
        <ele>1365.97</ele>
        <time>2014-10-18T10:57:28Z</time>
      </trkpt>
      <trkpt lat="43.94166" lon="7.3598">
        <ele>1364.625</ele>
        <time>2014-10-18T10:57:35Z</time>
      </trkpt>
      <trkpt lat="43.94169" lon="7.35967">
        <ele>1363.865</ele>
        <time>2014-10-18T10:57:39Z</time>
      </trkpt>
      <trkpt lat="43.9417" lon="7.35966">
        <ele>1362.351</ele>
        <time>2014-10-18T10:57:44Z</time>
      </trkpt>
      <trkpt lat="43.9417" lon="7.35967">
        <ele>1368.554</ele>
        <time>2014-10-18T11:30:08Z</time>
      </trkpt>
      <trkpt lat="43.94179" lon="7.35975">
        <ele>1366.769</ele>
        <time>2014-10-18T11:30:13Z</time>
      </trkpt>
      <trkpt lat="43.94186" lon="7.35992">
        <ele>1363.967</ele>
        <time>2014-10-18T11:30:19Z</time>
      </trkpt>
      <trkpt lat="43.94193" lon="7.36005">
        <ele>1361.953</ele>
        <time>2014-10-18T11:30:23Z</time>
      </trkpt>
      <trkpt lat="43.94199" lon="7.36016">
        <ele>1360.969</ele>
        <time>2014-10-18T11:30:27Z</time>
      </trkpt>
      <trkpt lat="43.94204" lon="7.36024">
        <ele>1360</ele>
        <time>2014-10-18T11:30:31Z</time>
      </trkpt>
      <trkpt lat="43.94216" lon="7.36028">
        <ele>1358.761</ele>
        <time>2014-10-18T11:30:35Z</time>
      </trkpt>
      <trkpt lat="43.94222" lon="7.36031">
        <ele>1359.576</ele>
        <time>2014-10-18T11:30:41Z</time>
      </trkpt>
      <trkpt lat="43.94223" lon="7.36031">
        <ele>1360.336</ele>
        <time>2014-10-18T11:30:44Z</time>
      </trkpt>
      <trkpt lat="43.94231" lon="7.36029">
        <ele>1361.587</ele>
        <time>2014-10-18T11:30:50Z</time>
      </trkpt>
      <trkpt lat="43.94231" lon="7.36038">
        <ele>1361.756</ele>
        <time>2014-10-18T11:30:55Z</time>
      </trkpt>
      <trkpt lat="43.94232" lon="7.36035">
        <ele>1362.022</ele>
        <time>2014-10-18T11:30:58Z</time>
      </trkpt>
      <trkpt lat="43.94236" lon="7.36024">
        <ele>1361.514</ele>
        <time>2014-10-18T11:31:02Z</time>
      </trkpt>
      <trkpt lat="43.94239" lon="7.36024">
        <ele>1361.064</ele>
        <time>2014-10-18T11:31:03Z</time>
      </trkpt>
      <trkpt lat="43.94251" lon="7.36022">
        <ele>1358.948</ele>
        <time>2014-10-18T11:31:07Z</time>
      </trkpt>
      <trkpt lat="43.94269" lon="7.36006">
        <ele>1357.51</ele>
        <time>2014-10-18T11:31:12Z</time>
      </trkpt>
      <trkpt lat="43.94279" lon="7.35997">
        <ele>1356.794</ele>
        <time>2014-10-18T11:31:16Z</time>
      </trkpt>
      <trkpt lat="43.94283" lon="7.35996">
        <ele>1355.499</ele>
        <time>2014-10-18T11:31:18Z</time>
      </trkpt>
      <trkpt lat="43.94289" lon="7.3599">
        <ele>1353.62</ele>
        <time>2014-10-18T11:31:22Z</time>
      </trkpt>
      <trkpt lat="43.94297" lon="7.35984">
        <ele>1350.81</ele>
        <time>2014-10-18T11:31:26Z</time>
      </trkpt>
      <trkpt lat="43.94306" lon="7.3598">
        <ele>1351.048</ele>
        <time>2014-10-18T11:31:32Z</time>
      </trkpt>
      <trkpt lat="43.94306" lon="7.3598">
        <ele>1351.848</ele>
        <time>2014-10-18T11:31:38Z</time>
      </trkpt>
      <trkpt lat="43.94312" lon="7.35977">
        <ele>1353.589</ele>
        <time>2014-10-18T11:31:43Z</time>
      </trkpt>
      <trkpt lat="43.94316" lon="7.35971">
        <ele>1355.343</ele>
        <time>2014-10-18T11:31:49Z</time>
      </trkpt>
      <trkpt lat="43.94324" lon="7.35962">
        <ele>1356.107</ele>
        <time>2014-10-18T11:31:57Z</time>
      </trkpt>
      <trkpt lat="43.9433" lon="7.35957">
        <ele>1356.07</ele>
        <time>2014-10-18T11:32:03Z</time>
      </trkpt>
      <trkpt lat="43.94336" lon="7.35958">
        <ele>1361.43</ele>
        <time>2014-10-18T11:32:11Z</time>
      </trkpt>
      <trkpt lat="43.94337" lon="7.35957">
        <ele>1357.997</ele>
        <time>2014-10-18T11:32:16Z</time>
      </trkpt>
      <trkpt lat="43.94334" lon="7.35951">
        <ele>1357.276</ele>
        <time>2014-10-18T11:32:21Z</time>
      </trkpt>
      <trkpt lat="43.94342" lon="7.35941">
        <ele>1355.165</ele>
        <time>2014-10-18T11:32:26Z</time>
      </trkpt>
      <trkpt lat="43.94348" lon="7.35931">
        <ele>1354.152</ele>
        <time>2014-10-18T11:32:29Z</time>
      </trkpt>
      <trkpt lat="43.94361" lon="7.35905">
        <ele>1352.6</ele>
        <time>2014-10-18T11:32:36Z</time>
      </trkpt>
      <trkpt lat="43.94371" lon="7.35895">
        <ele>1351.572</ele>
        <time>2014-10-18T11:32:41Z</time>
      </trkpt>
      <trkpt lat="43.94376" lon="7.3589">
        <ele>1351.606</ele>
        <time>2014-10-18T11:32:43Z</time>
      </trkpt>
      <trkpt lat="43.94382" lon="7.35869">
        <ele>1356.638</ele>
        <time>2014-10-18T11:32:48Z</time>
      </trkpt>
      <trkpt lat="43.94386" lon="7.35855">
        <ele>1358.344</ele>
        <time>2014-10-18T11:32:53Z</time>
      </trkpt>
      <trkpt lat="43.94392" lon="7.35838">
        <ele>1355.846</ele>
        <time>2014-10-18T11:32:58Z</time>
      </trkpt>
      <trkpt lat="43.94391" lon="7.35822">
        <ele>1353.422</ele>
        <time>2014-10-18T11:33:02Z</time>
      </trkpt>
      <trkpt lat="43.94386" lon="7.35813">
        <ele>1352.891</ele>
        <time>2014-10-18T11:33:06Z</time>
      </trkpt>
      <trkpt lat="43.94385" lon="7.35809">
        <ele>1353.084</ele>
        <time>2014-10-18T11:33:11Z</time>
      </trkpt>
      <trkpt lat="43.94384" lon="7.35803">
        <ele>1352.716</ele>
        <time>2014-10-18T11:33:18Z</time>
      </trkpt>
      <trkpt lat="43.94383" lon="7.35799">
        <ele>1354.678</ele>
        <time>2014-10-18T11:33:23Z</time>
      </trkpt>
      <trkpt lat="43.94383" lon="7.35787">
        <ele>1354.869</ele>
        <time>2014-10-18T11:33:29Z</time>
      </trkpt>
      <trkpt lat="43.94383" lon="7.35785">
        <ele>1355.101</ele>
        <time>2014-10-18T11:33:30Z</time>
      </trkpt>
      <trkpt lat="43.94385" lon="7.35772">
        <ele>1355.71</ele>
        <time>2014-10-18T11:33:35Z</time>
      </trkpt>
      <trkpt lat="43.94382" lon="7.35766">
        <ele>1356.381</ele>
        <time>2014-10-18T11:33:38Z</time>
      </trkpt>
      <trkpt lat="43.94379" lon="7.35752">
        <ele>1355.197</ele>
        <time>2014-10-18T11:33:43Z</time>
      </trkpt>
      <trkpt lat="43.94378" lon="7.35743">
        <ele>1354.055</ele>
        <time>2014-10-18T11:33:46Z</time>
      </trkpt>
      <trkpt lat="43.94374" lon="7.3573">
        <ele>1353.614</ele>
        <time>2014-10-18T11:33:50Z</time>
      </trkpt>
      <trkpt lat="43.9437" lon="7.35721">
        <ele>1353.463</ele>
        <time>2014-10-18T11:33:52Z</time>
      </trkpt>
      <trkpt lat="43.94371" lon="7.35694">
        <ele>1353.424</ele>
        <time>2014-10-18T11:33:57Z</time>
      </trkpt>
      <trkpt lat="43.94369" lon="7.35668">
        <ele>1348.14</ele>
        <time>2014-10-18T11:34:01Z</time>
      </trkpt>
      <trkpt lat="43.94367" lon="7.35652">
        <ele>1345.479</ele>
        <time>2014-10-18T11:34:03Z</time>
      </trkpt>
      <trkpt lat="43.94367" lon="7.35612">
        <ele>1341.053</ele>
        <time>2014-10-18T11:34:09Z</time>
      </trkpt>
      <trkpt lat="43.94367" lon="7.35604">
        <ele>1339.591</ele>
        <time>2014-10-18T11:34:11Z</time>
      </trkpt>
      <trkpt lat="43.94361" lon="7.35581">
        <ele>1337.841</ele>
        <time>2014-10-18T11:34:17Z</time>
      </trkpt>
      <trkpt lat="43.9436" lon="7.35562">
        <ele>1335.723</ele>
        <time>2014-10-18T11:34:21Z</time>
      </trkpt>
      <trkpt lat="43.9436" lon="7.35554">
        <ele>1333.059</ele>
        <time>2014-10-18T11:34:25Z</time>
      </trkpt>
      <trkpt lat="43.94363" lon="7.35543">
        <ele>1310.793</ele>
        <time>2014-10-18T11:35:03Z</time>
      </trkpt>
      <trkpt lat="43.94366" lon="7.35531">
        <ele>1314.773</ele>
        <time>2014-10-18T11:35:08Z</time>
      </trkpt>
      <trkpt lat="43.94371" lon="7.35513">
        <ele>1319.429</ele>
        <time>2014-10-18T11:35:13Z</time>
      </trkpt>
      <trkpt lat="43.94376" lon="7.35503">
        <ele>1319.587</ele>
        <time>2014-10-18T11:35:15Z</time>
      </trkpt>
      <trkpt lat="43.9439" lon="7.35482">
        <ele>1321.489</ele>
        <time>2014-10-18T11:35:20Z</time>
      </trkpt>
      <trkpt lat="43.94399" lon="7.35463">
        <ele>1320.389</ele>
        <time>2014-10-18T11:35:25Z</time>
      </trkpt>
      <trkpt lat="43.94402" lon="7.35455">
        <ele>1317.439</ele>
        <time>2014-10-18T11:35:30Z</time>
      </trkpt>
      <trkpt lat="43.94411" lon="7.35441">
        <ele>1314.939</ele>
        <time>2014-10-18T11:35:35Z</time>
      </trkpt>
      <trkpt lat="43.94421" lon="7.35425">
        <ele>1313.504</ele>
        <time>2014-10-18T11:35:40Z</time>
      </trkpt>
      <trkpt lat="43.94427" lon="7.3541">
        <ele>1310.942</ele>
        <time>2014-10-18T11:35:45Z</time>
      </trkpt>
      <trkpt lat="43.94428" lon="7.35403">
        <ele>1309.003</ele>
        <time>2014-10-18T11:35:50Z</time>
      </trkpt>
      <trkpt lat="43.9443" lon="7.35387">
        <ele>1306.31</ele>
        <time>2014-10-18T11:35:55Z</time>
      </trkpt>
      <trkpt lat="43.94434" lon="7.35361">
        <ele>1303.647</ele>
        <time>2014-10-18T11:36:00Z</time>
      </trkpt>
      <trkpt lat="43.94433" lon="7.35342">
        <ele>1300.498</ele>
        <time>2014-10-18T11:36:04Z</time>
      </trkpt>
      <trkpt lat="43.94432" lon="7.35321">
        <ele>1296.391</ele>
        <time>2014-10-18T11:36:09Z</time>
      </trkpt>
      <trkpt lat="43.94434" lon="7.35307">
        <ele>1293.839</ele>
        <time>2014-10-18T11:36:12Z</time>
      </trkpt>
      <trkpt lat="43.9444" lon="7.35294">
        <ele>1290.024</ele>
        <time>2014-10-18T11:36:17Z</time>
      </trkpt>
      <trkpt lat="43.94441" lon="7.35289">
        <ele>1286.025</ele>
        <time>2014-10-18T11:36:21Z</time>
      </trkpt>
      <trkpt lat="43.94446" lon="7.35275">
        <ele>1279.818</ele>
        <time>2014-10-18T11:37:45Z</time>
      </trkpt>
      <trkpt lat="43.94448" lon="7.35275">
        <ele>1279.569</ele>
        <time>2014-10-18T11:37:46Z</time>
      </trkpt>
      <trkpt lat="43.94449" lon="7.35284">
        <ele>1277.648</ele>
        <time>2014-10-18T11:37:51Z</time>
      </trkpt>
      <trkpt lat="43.94451" lon="7.35293">
        <ele>1274.559</ele>
        <time>2014-10-18T11:37:55Z</time>
      </trkpt>
      <trkpt lat="43.94453" lon="7.35292">
        <ele>1273.23</ele>
        <time>2014-10-18T11:37:57Z</time>
      </trkpt>
      <trkpt lat="43.94466" lon="7.35289">
        <ele>1273.741</ele>
        <time>2014-10-18T11:38:02Z</time>
      </trkpt>
      <trkpt lat="43.94485" lon="7.35279">
        <ele>1270.597</ele>
        <time>2014-10-18T11:38:09Z</time>
      </trkpt>
      <trkpt lat="43.94498" lon="7.35276">
        <ele>1270.549</ele>
        <time>2014-10-18T11:38:13Z</time>
      </trkpt>
      <trkpt lat="43.94512" lon="7.3527">
        <ele>1264.128</ele>
        <time>2014-10-18T11:38:19Z</time>
      </trkpt>
      <trkpt lat="43.94526" lon="7.35269">
        <ele>1260.977</ele>
        <time>2014-10-18T11:38:25Z</time>
      </trkpt>
      <trkpt lat="43.94543" lon="7.35263">
        <ele>1256.101</ele>
        <time>2014-10-18T11:38:30Z</time>
      </trkpt>
      <trkpt lat="43.94545" lon="7.35261">
        <ele>1254.85</ele>
        <time>2014-10-18T11:38:31Z</time>
      </trkpt>
      <trkpt lat="43.94549" lon="7.35254">
        <ele>1251.522</ele>
        <time>2014-10-18T11:38:35Z</time>
      </trkpt>
      <trkpt lat="43.9455" lon="7.35259">
        <ele>1249.161</ele>
        <time>2014-10-18T11:38:39Z</time>
      </trkpt>
      <trkpt lat="43.94554" lon="7.35259">
        <ele>1247.266</ele>
        <time>2014-10-18T11:38:43Z</time>
      </trkpt>
      <trkpt lat="43.94559" lon="7.35256">
        <ele>1246.516</ele>
        <time>2014-10-18T11:38:48Z</time>
      </trkpt>
      <trkpt lat="43.94558" lon="7.35259">
        <ele>1245.617</ele>
        <time>2014-10-18T11:38:53Z</time>
      </trkpt>
      <trkpt lat="43.94556" lon="7.35265">
        <ele>1245.075</ele>
        <time>2014-10-18T11:38:59Z</time>
      </trkpt>
      <trkpt lat="43.94552" lon="7.35272">
        <ele>1243.18</ele>
        <time>2014-10-18T11:39:02Z</time>
      </trkpt>
      <trkpt lat="43.94545" lon="7.35288">
        <ele>1239.356</ele>
        <time>2014-10-18T11:39:08Z</time>
      </trkpt>
      <trkpt lat="43.94542" lon="7.353">
        <ele>1237.816</ele>
        <time>2014-10-18T11:39:12Z</time>
      </trkpt>
      <trkpt lat="43.9454" lon="7.35307">
        <ele>1237.749</ele>
        <time>2014-10-18T11:39:14Z</time>
      </trkpt>
      <trkpt lat="43.94541" lon="7.35312">
        <ele>1237.592</ele>
        <time>2014-10-18T11:39:17Z</time>
      </trkpt>
      <trkpt lat="43.94552" lon="7.35309">
        <ele>1236.775</ele>
        <time>2014-10-18T11:39:22Z</time>
      </trkpt>
      <trkpt lat="43.94554" lon="7.35309">
        <ele>1235.794</ele>
        <time>2014-10-18T11:39:23Z</time>
      </trkpt>
      <trkpt lat="43.9457" lon="7.35306">
        <ele>1229.997</ele>
        <time>2014-10-18T11:39:30Z</time>
      </trkpt>
      <trkpt lat="43.94576" lon="7.35295">
        <ele>1223.097</ele>
        <time>2014-10-18T11:39:34Z</time>
      </trkpt>
      <trkpt lat="43.94583" lon="7.35278">
        <ele>1218.478</ele>
        <time>2014-10-18T11:39:38Z</time>
      </trkpt>
      <trkpt lat="43.9459" lon="7.35263">
        <ele>1213.053</ele>
        <time>2014-10-18T11:39:42Z</time>
      </trkpt>
      <trkpt lat="43.94596" lon="7.35251">
        <ele>1209.106</ele>
        <time>2014-10-18T11:39:45Z</time>
      </trkpt>
      <trkpt lat="43.94596" lon="7.3524">
        <ele>1203.26</ele>
        <time>2014-10-18T11:39:51Z</time>
      </trkpt>
      <trkpt lat="43.94598" lon="7.35236">
        <ele>1204.793</ele>
        <time>2014-10-18T11:39:55Z</time>
      </trkpt>
      <trkpt lat="43.94599" lon="7.35233">
        <ele>1206.658</ele>
        <time>2014-10-18T11:40:00Z</time>
      </trkpt>
      <trkpt lat="43.94597" lon="7.35219">
        <ele>1204.844</ele>
        <time>2014-10-18T11:40:05Z</time>
      </trkpt>
      <trkpt lat="43.9459" lon="7.35202">
        <ele>1205.221</ele>
        <time>2014-10-18T11:40:10Z</time>
      </trkpt>
      <trkpt lat="43.94593" lon="7.3519">
        <ele>1206.401</ele>
        <time>2014-10-18T11:40:14Z</time>
      </trkpt>
      <trkpt lat="43.94598" lon="7.35172">
        <ele>1210.148</ele>
        <time>2014-10-18T11:40:19Z</time>
      </trkpt>
      <trkpt lat="43.94606" lon="7.35148">
        <ele>1218.029</ele>
        <time>2014-10-18T11:40:25Z</time>
      </trkpt>
      <trkpt lat="43.94606" lon="7.35122">
        <ele>1218.277</ele>
        <time>2014-10-18T11:40:30Z</time>
      </trkpt>
      <trkpt lat="43.94609" lon="7.35103">
        <ele>1218.131</ele>
        <time>2014-10-18T11:40:35Z</time>
      </trkpt>
      <trkpt lat="43.94613" lon="7.35089">
        <ele>1220.244</ele>
        <time>2014-10-18T11:40:39Z</time>
      </trkpt>
      <trkpt lat="43.94622" lon="7.35072">
        <ele>1221.043</ele>
        <time>2014-10-18T11:40:44Z</time>
      </trkpt>
      <trkpt lat="43.9463" lon="7.3506">
        <ele>1216.821</ele>
        <time>2014-10-18T11:40:47Z</time>
      </trkpt>
      <trkpt lat="43.94631" lon="7.35045">
        <ele>1208.884</ele>
        <time>2014-10-18T11:40:53Z</time>
      </trkpt>
      <trkpt lat="43.94616" lon="7.35038">
        <ele>1199.336</ele>
        <time>2014-10-18T11:41:13Z</time>
      </trkpt>
      <trkpt lat="43.94611" lon="7.35035">
        <ele>1193.584</ele>
        <time>2014-10-18T11:41:20Z</time>
      </trkpt>
      <trkpt lat="43.94638" lon="7.3503">
        <ele>1197.209</ele>
        <time>2014-10-18T11:42:07Z</time>
      </trkpt>
      <trkpt lat="43.94649" lon="7.35029">
        <ele>1207.203</ele>
        <time>2014-10-18T11:42:45Z</time>
      </trkpt>
      <trkpt lat="43.94645" lon="7.35024">
        <ele>1204.525</ele>
        <time>2014-10-18T11:42:49Z</time>
      </trkpt>
      <trkpt lat="43.94639" lon="7.35021">
        <ele>1196.113</ele>
        <time>2014-10-18T11:42:52Z</time>
      </trkpt>
      <trkpt lat="43.94641" lon="7.35017">
        <ele>1182.355</ele>
        <time>2014-10-18T11:42:57Z</time>
      </trkpt>
      <trkpt lat="43.94657" lon="7.35012">
        <ele>1174.43</ele>
        <time>2014-10-18T11:43:02Z</time>
      </trkpt>
      <trkpt lat="43.94676" lon="7.34998">
        <ele>1164.121</ele>
        <time>2014-10-18T11:43:07Z</time>
      </trkpt>
      <trkpt lat="43.94697" lon="7.34986">
        <ele>1158.452</ele>
        <time>2014-10-18T11:43:12Z</time>
      </trkpt>
      <trkpt lat="43.94711" lon="7.34977">
        <ele>1150.075</ele>
        <time>2014-10-18T11:43:16Z</time>
      </trkpt>
      <trkpt lat="43.94724" lon="7.34956">
        <ele>1139.4</ele>
        <time>2014-10-18T11:43:21Z</time>
      </trkpt>
      <trkpt lat="43.94725" lon="7.34953">
        <ele>1137.78</ele>
        <time>2014-10-18T11:43:22Z</time>
      </trkpt>
      <trkpt lat="43.94732" lon="7.34942">
        <ele>1141.289</ele>
        <time>2014-10-18T11:43:28Z</time>
      </trkpt>
      <trkpt lat="43.94731" lon="7.34939">
        <ele>1140.158</ele>
        <time>2014-10-18T11:43:30Z</time>
      </trkpt>
      <trkpt lat="43.94737" lon="7.34919">
        <ele>1139.536</ele>
        <time>2014-10-18T11:43:37Z</time>
      </trkpt>
      <trkpt lat="43.94746" lon="7.34901">
        <ele>1146.303</ele>
        <time>2014-10-18T11:43:42Z</time>
      </trkpt>
      <trkpt lat="43.94757" lon="7.34898">
        <ele>1153.297</ele>
        <time>2014-10-18T11:43:46Z</time>
      </trkpt>
      <trkpt lat="43.94759" lon="7.34896">
        <ele>1153.244</ele>
        <time>2014-10-18T11:43:47Z</time>
      </trkpt>
      <trkpt lat="43.94766" lon="7.34888">
        <ele>1152.35</ele>
        <time>2014-10-18T11:43:53Z</time>
      </trkpt>
      <trkpt lat="43.94767" lon="7.34887">
        <ele>1150.496</ele>
        <time>2014-10-18T11:43:55Z</time>
      </trkpt>
      <trkpt lat="43.94776" lon="7.34881">
        <ele>1145.769</ele>
        <time>2014-10-18T11:44:00Z</time>
      </trkpt>
      <trkpt lat="43.94794" lon="7.34868">
        <ele>1142.671</ele>
        <time>2014-10-18T11:44:05Z</time>
      </trkpt>
      <trkpt lat="43.948" lon="7.34856">
        <ele>1134.302</ele>
        <time>2014-10-18T11:44:08Z</time>
      </trkpt>
      <trkpt lat="43.94809" lon="7.34829">
        <ele>1124.101</ele>
        <time>2014-10-18T11:44:14Z</time>
      </trkpt>
      <trkpt lat="43.94808" lon="7.34816">
        <ele>1119.877</ele>
        <time>2014-10-18T11:44:17Z</time>
      </trkpt>
      <trkpt lat="43.94792" lon="7.34809">
        <ele>1116.051</ele>
        <time>2014-10-18T11:44:22Z</time>
      </trkpt>
      <trkpt lat="43.94776" lon="7.34805">
        <ele>1115.833</ele>
        <time>2014-10-18T11:44:27Z</time>
      </trkpt>
      <trkpt lat="43.94766" lon="7.34796">
        <ele>1117.216</ele>
        <time>2014-10-18T11:44:31Z</time>
      </trkpt>
      <trkpt lat="43.94758" lon="7.3478">
        <ele>1119.215</ele>
        <time>2014-10-18T11:44:35Z</time>
      </trkpt>
      <trkpt lat="43.94745" lon="7.34766">
        <ele>1117.381</ele>
        <time>2014-10-18T11:44:40Z</time>
      </trkpt>
      <trkpt lat="43.94738" lon="7.34754">
        <ele>1120.447</ele>
        <time>2014-10-18T11:44:45Z</time>
      </trkpt>
      <trkpt lat="43.94729" lon="7.34747">
        <ele>1121.185</ele>
        <time>2014-10-18T11:44:49Z</time>
      </trkpt>
      <trkpt lat="43.94714" lon="7.3474">
        <ele>1122.576</ele>
        <time>2014-10-18T11:44:54Z</time>
      </trkpt>
      <trkpt lat="43.94703" lon="7.34734">
        <ele>1123.46</ele>
        <time>2014-10-18T11:44:58Z</time>
      </trkpt>
      <trkpt lat="43.94696" lon="7.34728">
        <ele>1122.976</ele>
        <time>2014-10-18T11:45:02Z</time>
      </trkpt>
      <trkpt lat="43.94697" lon="7.34725">
        <ele>1123.196</ele>
        <time>2014-10-18T11:45:07Z</time>
      </trkpt>
      <trkpt lat="43.94699" lon="7.34725">
        <ele>1121.852</ele>
        <time>2014-10-18T11:45:10Z</time>
      </trkpt>
      <trkpt lat="43.94707" lon="7.34714">
        <ele>1119.041</ele>
        <time>2014-10-18T11:45:16Z</time>
      </trkpt>
      <trkpt lat="43.94708" lon="7.34711">
        <ele>1118.499</ele>
        <time>2014-10-18T11:45:17Z</time>
      </trkpt>
      <trkpt lat="43.94714" lon="7.34698">
        <ele>1118.143</ele>
        <time>2014-10-18T11:45:23Z</time>
      </trkpt>
      <trkpt lat="43.94725" lon="7.3468">
        <ele>1125.361</ele>
        <time>2014-10-18T11:45:28Z</time>
      </trkpt>
      <trkpt lat="43.94731" lon="7.34665">
        <ele>1134.266</ele>
        <time>2014-10-18T11:45:32Z</time>
      </trkpt>
      <trkpt lat="43.94746" lon="7.34648">
        <ele>1147.422</ele>
        <time>2014-10-18T11:45:37Z</time>
      </trkpt>
      <trkpt lat="43.94761" lon="7.34639">
        <ele>1153.705</ele>
        <time>2014-10-18T11:45:42Z</time>
      </trkpt>
      <trkpt lat="43.94771" lon="7.34631">
        <ele>1152.686</ele>
        <time>2014-10-18T11:45:46Z</time>
      </trkpt>
      <trkpt lat="43.94774" lon="7.34626">
        <ele>1149.812</ele>
        <time>2014-10-18T11:45:50Z</time>
      </trkpt>
      <trkpt lat="43.94775" lon="7.34624">
        <ele>1149.201</ele>
        <time>2014-10-18T11:45:51Z</time>
      </trkpt>
      <trkpt lat="43.94774" lon="7.34615">
        <ele>1143.455</ele>
        <time>2014-10-18T11:45:57Z</time>
      </trkpt>
      <trkpt lat="43.94773" lon="7.34606">
        <ele>1135.509</ele>
        <time>2014-10-18T11:46:02Z</time>
      </trkpt>
      <trkpt lat="43.94765" lon="7.34594">
        <ele>1116.571</ele>
        <time>2014-10-18T11:46:11Z</time>
      </trkpt>
      <trkpt lat="43.94765" lon="7.34585">
        <ele>1110.119</ele>
        <time>2014-10-18T11:46:17Z</time>
      </trkpt>
      <trkpt lat="43.94765" lon="7.34583">
        <ele>1107.982</ele>
        <time>2014-10-18T11:46:20Z</time>
      </trkpt>
      <trkpt lat="43.94772" lon="7.34571">
        <ele>1103.91</ele>
        <time>2014-10-18T11:46:26Z</time>
      </trkpt>
      <trkpt lat="43.94775" lon="7.34557">
        <ele>1099.388</ele>
        <time>2014-10-18T11:46:30Z</time>
      </trkpt>
      <trkpt lat="43.9477" lon="7.34541">
        <ele>1097.153</ele>
        <time>2014-10-18T11:46:35Z</time>
      </trkpt>
      <trkpt lat="43.94766" lon="7.34533">
        <ele>1097.214</ele>
        <time>2014-10-18T11:46:37Z</time>
      </trkpt>
      <trkpt lat="43.94763" lon="7.34519">
        <ele>1096.762</ele>
        <time>2014-10-18T11:46:40Z</time>
      </trkpt>
      <trkpt lat="43.94764" lon="7.34512">
        <ele>1096.641</ele>
        <time>2014-10-18T11:46:42Z</time>
      </trkpt>
      <trkpt lat="43.94772" lon="7.34503">
        <ele>1096.194</ele>
        <time>2014-10-18T11:46:47Z</time>
      </trkpt>
      <trkpt lat="43.9478" lon="7.34496">
        <ele>1096.658</ele>
        <time>2014-10-18T11:46:50Z</time>
      </trkpt>
      <trkpt lat="43.94797" lon="7.34486">
        <ele>1103.161</ele>
        <time>2014-10-18T11:46:57Z</time>
      </trkpt>
      <trkpt lat="43.94808" lon="7.34478">
        <ele>1105.659</ele>
        <time>2014-10-18T11:47:02Z</time>
      </trkpt>
      <trkpt lat="43.94815" lon="7.3447">
        <ele>1106.456</ele>
        <time>2014-10-18T11:47:07Z</time>
      </trkpt>
      <trkpt lat="43.94819" lon="7.34459">
        <ele>1105.192</ele>
        <time>2014-10-18T11:47:11Z</time>
      </trkpt>
      <trkpt lat="43.94818" lon="7.34446">
        <ele>1102.247</ele>
        <time>2014-10-18T11:47:16Z</time>
      </trkpt>
      <trkpt lat="43.94816" lon="7.34441">
        <ele>1102.378</ele>
        <time>2014-10-18T11:47:19Z</time>
      </trkpt>
      <trkpt lat="43.94812" lon="7.34433">
        <ele>1102.685</ele>
        <time>2014-10-18T11:47:24Z</time>
      </trkpt>
      <trkpt lat="43.94814" lon="7.34419">
        <ele>1112.941</ele>
        <time>2014-10-18T11:49:27Z</time>
      </trkpt>
      <trkpt lat="43.94816" lon="7.34412">
        <ele>1119.612</ele>
        <time>2014-10-18T11:49:32Z</time>
      </trkpt>
      <trkpt lat="43.94818" lon="7.34406">
        <ele>1129.712</ele>
        <time>2014-10-18T11:49:37Z</time>
      </trkpt>
      <trkpt lat="43.9483" lon="7.34403">
        <ele>1140.023</ele>
        <time>2014-10-18T11:49:48Z</time>
      </trkpt>
      <trkpt lat="43.94835" lon="7.34402">
        <ele>1144.47</ele>
        <time>2014-10-18T11:49:53Z</time>
      </trkpt>
      <trkpt lat="43.94839" lon="7.34402">
        <ele>1150.314</ele>
        <time>2014-10-18T11:49:58Z</time>
      </trkpt>
      <trkpt lat="43.94838" lon="7.34403">
        <ele>1150.452</ele>
        <time>2014-10-18T11:50:05Z</time>
      </trkpt>
      <trkpt lat="43.94838" lon="7.34405">
        <ele>1150.559</ele>
        <time>2014-10-18T11:50:15Z</time>
      </trkpt>
      <trkpt lat="43.94839" lon="7.34403">
        <ele>1147.491</ele>
        <time>2014-10-18T11:50:23Z</time>
      </trkpt>
      <trkpt lat="43.94851" lon="7.34394">
        <ele>1153.328</ele>
        <time>2014-10-18T11:50:40Z</time>
      </trkpt>
      <trkpt lat="43.94855" lon="7.34392">
        <ele>1153.885</ele>
        <time>2014-10-18T11:50:46Z</time>
      </trkpt>
      <trkpt lat="43.9486" lon="7.34382">
        <ele>1138.662</ele>
        <time>2014-10-18T11:50:52Z</time>
      </trkpt>
      <trkpt lat="43.94862" lon="7.34362">
        <ele>1125.842</ele>
        <time>2014-10-18T11:50:57Z</time>
      </trkpt>
      <trkpt lat="43.9486" lon="7.34339">
        <ele>1112.029</ele>
        <time>2014-10-18T11:51:01Z</time>
      </trkpt>
      <trkpt lat="43.94865" lon="7.34316">
        <ele>1096.437</ele>
        <time>2014-10-18T11:51:06Z</time>
      </trkpt>
      <trkpt lat="43.9488" lon="7.34296">
        <ele>1090.131</ele>
        <time>2014-10-18T11:51:12Z</time>
      </trkpt>
      <trkpt lat="43.94888" lon="7.34279">
        <ele>1088.536</ele>
        <time>2014-10-18T11:51:16Z</time>
      </trkpt>
      <trkpt lat="43.94895" lon="7.34257">
        <ele>1081.543</ele>
        <time>2014-10-18T11:51:20Z</time>
      </trkpt>
      <trkpt lat="43.94897" lon="7.34229">
        <ele>1081.8</ele>
        <time>2014-10-18T11:51:25Z</time>
      </trkpt>
      <trkpt lat="43.94901" lon="7.34218">
        <ele>1082.366</ele>
        <time>2014-10-18T11:51:27Z</time>
      </trkpt>
      <trkpt lat="43.94905" lon="7.34206">
        <ele>1081.628</ele>
        <time>2014-10-18T11:51:29Z</time>
      </trkpt>
      <trkpt lat="43.9491" lon="7.34179">
        <ele>1078.633</ele>
        <time>2014-10-18T11:51:34Z</time>
      </trkpt>
      <trkpt lat="43.94908" lon="7.34167">
        <ele>1076.964</ele>
        <time>2014-10-18T11:51:38Z</time>
      </trkpt>
      <trkpt lat="43.94904" lon="7.34148">
        <ele>1078.843</ele>
        <time>2014-10-18T11:51:44Z</time>
      </trkpt>
      <trkpt lat="43.94904" lon="7.34145">
        <ele>1079.325</ele>
        <time>2014-10-18T11:51:45Z</time>
      </trkpt>
      <trkpt lat="43.94909" lon="7.34132">
        <ele>1081.472</ele>
        <time>2014-10-18T11:51:50Z</time>
      </trkpt>
      <trkpt lat="43.94914" lon="7.34119">
        <ele>1082.704</ele>
        <time>2014-10-18T11:51:53Z</time>
      </trkpt>
      <trkpt lat="43.94917" lon="7.34105">
        <ele>1081.109</ele>
        <time>2014-10-18T11:51:55Z</time>
      </trkpt>
      <trkpt lat="43.94924" lon="7.34081">
        <ele>1079.653</ele>
        <time>2014-10-18T11:52:00Z</time>
      </trkpt>
      <trkpt lat="43.94931" lon="7.34073">
        <ele>1080.258</ele>
        <time>2014-10-18T11:52:04Z</time>
      </trkpt>
      <trkpt lat="43.94933" lon="7.34071">
        <ele>1080.078</ele>
        <time>2014-10-18T11:52:05Z</time>
      </trkpt>
      <trkpt lat="43.94936" lon="7.34065">
        <ele>1077.365</ele>
        <time>2014-10-18T11:52:11Z</time>
      </trkpt>
      <trkpt lat="43.94939" lon="7.3406">
        <ele>1074.563</ele>
        <time>2014-10-18T11:52:16Z</time>
      </trkpt>
      <trkpt lat="43.94941" lon="7.34056">
        <ele>1073.023</ele>
        <time>2014-10-18T11:52:18Z</time>
      </trkpt>
      <trkpt lat="43.94945" lon="7.34051">
        <ele>1069.231</ele>
        <time>2014-10-18T11:52:24Z</time>
      </trkpt>
      <trkpt lat="43.94956" lon="7.34042">
        <ele>1066.098</ele>
        <time>2014-10-18T11:52:28Z</time>
      </trkpt>
      <trkpt lat="43.94959" lon="7.34038">
        <ele>1064.444</ele>
        <time>2014-10-18T11:52:31Z</time>
      </trkpt>
      <trkpt lat="43.94954" lon="7.34038">
        <ele>1059.842</ele>
        <time>2014-10-18T11:52:39Z</time>
      </trkpt>
      <trkpt lat="43.94949" lon="7.3404">
        <ele>1057.403</ele>
        <time>2014-10-18T11:53:00Z</time>
      </trkpt>
      <trkpt lat="43.94948" lon="7.34042">
        <ele>1059.344</ele>
        <time>2014-10-18T11:53:06Z</time>
      </trkpt>
      <trkpt lat="43.94951" lon="7.34044">
        <ele>1063.405</ele>
        <time>2014-10-18T11:53:33Z</time>
      </trkpt>
      <trkpt lat="43.94954" lon="7.34041">
        <ele>1064.564</ele>
        <time>2014-10-18T11:53:38Z</time>
      </trkpt>
      <trkpt lat="43.94955" lon="7.34041">
        <ele>1064.382</ele>
        <time>2014-10-18T11:53:45Z</time>
      </trkpt>
      <trkpt lat="43.9495" lon="7.34028">
        <ele>1062.54</ele>
        <time>2014-10-18T11:53:52Z</time>
      </trkpt>
      <trkpt lat="43.94948" lon="7.34017">
        <ele>1060.875</ele>
        <time>2014-10-18T11:53:58Z</time>
      </trkpt>
      <trkpt lat="43.94947" lon="7.34013">
        <ele>1060.241</ele>
        <time>2014-10-18T11:54:08Z</time>
      </trkpt>
      <trkpt lat="43.94947" lon="7.34008">
        <ele>1059.76</ele>
        <time>2014-10-18T11:54:12Z</time>
      </trkpt>
      <trkpt lat="43.9495" lon="7.3401">
        <ele>1059.4</ele>
        <time>2014-10-18T11:54:17Z</time>
      </trkpt>
      <trkpt lat="43.9495" lon="7.34014">
        <ele>1057.692</ele>
        <time>2014-10-18T11:54:23Z</time>
      </trkpt>
      <trkpt lat="43.94952" lon="7.34018">
        <ele>1056.997</ele>
        <time>2014-10-18T11:54:30Z</time>
      </trkpt>
      <trkpt lat="43.94954" lon="7.34019">
        <ele>1056.591</ele>
        <time>2014-10-18T11:54:34Z</time>
      </trkpt>
      <trkpt lat="43.94955" lon="7.34015">
        <ele>1055.778</ele>
        <time>2014-10-18T11:54:38Z</time>
      </trkpt>
      <trkpt lat="43.94956" lon="7.34012">
        <ele>1053.547</ele>
        <time>2014-10-18T11:55:02Z</time>
      </trkpt>
      <trkpt lat="43.94957" lon="7.3401">
        <ele>1051.93</ele>
        <time>2014-10-18T11:55:05Z</time>
      </trkpt>
      <trkpt lat="43.94958" lon="7.34006">
        <ele>1051.134</ele>
        <time>2014-10-18T11:55:08Z</time>
      </trkpt>
      <trkpt lat="43.94956" lon="7.33998">
        <ele>1049.956</ele>
        <time>2014-10-18T11:55:14Z</time>
      </trkpt>
      <trkpt lat="43.94957" lon="7.34">
        <ele>1049.183</ele>
        <time>2014-10-18T11:55:17Z</time>
      </trkpt>
      <trkpt lat="43.94961" lon="7.34004">
        <ele>1047.036</ele>
        <time>2014-10-18T11:55:24Z</time>
      </trkpt>
      <trkpt lat="43.94965" lon="7.34004">
        <ele>1046.232</ele>
        <time>2014-10-18T11:55:42Z</time>
      </trkpt>
      <trkpt lat="43.94968" lon="7.34008">
        <ele>1045.028</ele>
        <time>2014-10-18T11:55:47Z</time>
      </trkpt>
      <trkpt lat="43.94969" lon="7.3401">
        <ele>1044.489</ele>
        <time>2014-10-18T11:55:54Z</time>
      </trkpt>
      <trkpt lat="43.94972" lon="7.34013">
        <ele>1043.567</ele>
        <time>2014-10-18T11:55:57Z</time>
      </trkpt>
      <trkpt lat="43.94973" lon="7.34014">
        <ele>1043.518</ele>
        <time>2014-10-18T11:56:01Z</time>
      </trkpt>
      <trkpt lat="43.94977" lon="7.34016">
        <ele>1042.443</ele>
        <time>2014-10-18T11:56:06Z</time>
      </trkpt>
      <trkpt lat="43.94978" lon="7.34014">
        <ele>1042.65</ele>
        <time>2014-10-18T11:56:11Z</time>
      </trkpt>
      <trkpt lat="43.94978" lon="7.34012">
        <ele>1043.1</ele>
        <time>2014-10-18T11:56:14Z</time>
      </trkpt>
      <trkpt lat="43.94975" lon="7.33999">
        <ele>1042.089</ele>
        <time>2014-10-18T11:56:20Z</time>
      </trkpt>
      <trkpt lat="43.9497" lon="7.33983">
        <ele>1039.112</ele>
        <time>2014-10-18T11:56:26Z</time>
      </trkpt>
      <trkpt lat="43.94968" lon="7.33973">
        <ele>1035.059</ele>
        <time>2014-10-18T11:56:31Z</time>
      </trkpt>
      <trkpt lat="43.94967" lon="7.33969">
        <ele>1031.801</ele>
        <time>2014-10-18T11:56:35Z</time>
      </trkpt>
      <trkpt lat="43.94959" lon="7.33964">
        <ele>1032.212</ele>
        <time>2014-10-18T11:56:39Z</time>
      </trkpt>
      <trkpt lat="43.94957" lon="7.33962">
        <ele>1028.903</ele>
        <time>2014-10-18T11:56:45Z</time>
      </trkpt>
      <trkpt lat="43.94956" lon="7.33961">
        <ele>1027.822</ele>
        <time>2014-10-18T11:56:47Z</time>
      </trkpt>
      <trkpt lat="43.94948" lon="7.33949">
        <ele>1032.04</ele>
        <time>2014-10-18T11:56:53Z</time>
      </trkpt>
      <trkpt lat="43.94947" lon="7.33947">
        <ele>1032.761</ele>
        <time>2014-10-18T11:56:54Z</time>
      </trkpt>
      <trkpt lat="43.94945" lon="7.33935">
        <ele>1034.82</ele>
        <time>2014-10-18T11:56:59Z</time>
      </trkpt>
      <trkpt lat="43.94946" lon="7.33912">
        <ele>1034.433</ele>
        <time>2014-10-18T11:57:05Z</time>
      </trkpt>
      <trkpt lat="43.94944" lon="7.33901">
        <ele>1034.144</ele>
        <time>2014-10-18T11:57:08Z</time>
      </trkpt>
      <trkpt lat="43.94936" lon="7.33885">
        <ele>1035.311</ele>
        <time>2014-10-18T11:57:13Z</time>
      </trkpt>
      <trkpt lat="43.94937" lon="7.33871">
        <ele>1034.377</ele>
        <time>2014-10-18T11:57:17Z</time>
      </trkpt>
      <trkpt lat="43.94938" lon="7.33864">
        <ele>1033.768</ele>
        <time>2014-10-18T11:57:21Z</time>
      </trkpt>
      <trkpt lat="43.94939" lon="7.3386">
        <ele>1032.266</ele>
        <time>2014-10-18T11:57:31Z</time>
      </trkpt>
      <trkpt lat="43.94939" lon="7.33854">
        <ele>1030.433</ele>
        <time>2014-10-18T11:57:36Z</time>
      </trkpt>
      <trkpt lat="43.94938" lon="7.33852">
        <ele>1029.449</ele>
        <time>2014-10-18T11:57:39Z</time>
      </trkpt>
      <trkpt lat="43.94938" lon="7.33855">
        <ele>1025.713</ele>
        <time>2014-10-18T11:57:46Z</time>
      </trkpt>
      <trkpt lat="43.94938" lon="7.33857">
        <ele>1024.351</ele>
        <time>2014-10-18T11:57:49Z</time>
      </trkpt>
      <trkpt lat="43.94939" lon="7.33859">
        <ele>1023.047</ele>
        <time>2014-10-18T11:57:51Z</time>
      </trkpt>
      <trkpt lat="43.9494" lon="7.33856">
        <ele>1022.13</ele>
        <time>2014-10-18T11:57:58Z</time>
      </trkpt>
      <trkpt lat="43.9494" lon="7.33853">
        <ele>1021.751</ele>
        <time>2014-10-18T11:58:00Z</time>
      </trkpt>
      <trkpt lat="43.94939" lon="7.33841">
        <ele>1019.134</ele>
        <time>2014-10-18T11:58:06Z</time>
      </trkpt>
      <trkpt lat="43.94935" lon="7.33833">
        <ele>1019.013</ele>
        <time>2014-10-18T11:58:11Z</time>
      </trkpt>
      <trkpt lat="43.94934" lon="7.33828">
        <ele>1016.071</ele>
        <time>2014-10-18T11:58:29Z</time>
      </trkpt>
      <trkpt lat="43.94935" lon="7.33825">
        <ele>1015.185</ele>
        <time>2014-10-18T11:58:34Z</time>
      </trkpt>
      <trkpt lat="43.94934" lon="7.33823">
        <ele>1016.105</ele>
        <time>2014-10-18T11:58:41Z</time>
      </trkpt>
      <trkpt lat="43.94937" lon="7.33817">
        <ele>1015.256</ele>
        <time>2014-10-18T11:58:58Z</time>
      </trkpt>
      <trkpt lat="43.94938" lon="7.33815">
        <ele>1014.385</ele>
        <time>2014-10-18T11:59:00Z</time>
      </trkpt>
      <trkpt lat="43.94937" lon="7.33809">
        <ele>1012.927</ele>
        <time>2014-10-18T11:59:05Z</time>
      </trkpt>
      <trkpt lat="43.94939" lon="7.33805">
        <ele>1011.306</ele>
        <time>2014-10-18T11:59:09Z</time>
      </trkpt>
      <trkpt lat="43.94938" lon="7.33801">
        <ele>1009.524</ele>
        <time>2014-10-18T11:59:12Z</time>
      </trkpt>
      <trkpt lat="43.94936" lon="7.33791">
        <ele>1007.179</ele>
        <time>2014-10-18T11:59:18Z</time>
      </trkpt>
      <trkpt lat="43.94931" lon="7.33781">
        <ele>1004.999</ele>
        <time>2014-10-18T11:59:24Z</time>
      </trkpt>
      <trkpt lat="43.94928" lon="7.33773">
        <ele>1005.122</ele>
        <time>2014-10-18T11:59:30Z</time>
      </trkpt>
      <trkpt lat="43.94928" lon="7.33771">
        <ele>1006.774</ele>
        <time>2014-10-18T11:59:33Z</time>
      </trkpt>
      <trkpt lat="43.94931" lon="7.33757">
        <ele>1008.153</ele>
        <time>2014-10-18T11:59:39Z</time>
      </trkpt>
      <trkpt lat="43.94935" lon="7.33735">
        <ele>1007.612</ele>
        <time>2014-10-18T11:59:43Z</time>
      </trkpt>
      <trkpt lat="43.94935" lon="7.33719">
        <ele>1003.855</ele>
        <time>2014-10-18T11:59:47Z</time>
      </trkpt>
      <trkpt lat="43.94935" lon="7.33715">
        <ele>1002.879</ele>
        <time>2014-10-18T11:59:48Z</time>
      </trkpt>
      <trkpt lat="43.94944" lon="7.33704">
        <ele>999.947</ele>
        <time>2014-10-18T11:59:53Z</time>
      </trkpt>
      <trkpt lat="43.94945" lon="7.33695">
        <ele>996.657</ele>
        <time>2014-10-18T11:59:57Z</time>
      </trkpt>
      <trkpt lat="43.94942" lon="7.33681">
        <ele>993.557</ele>
        <time>2014-10-18T12:00:03Z</time>
      </trkpt>
      <trkpt lat="43.94942" lon="7.33668">
        <ele>991.55</ele>
        <time>2014-10-18T12:00:07Z</time>
      </trkpt>
      <trkpt lat="43.94943" lon="7.3365">
        <ele>990.994</ele>
        <time>2014-10-18T12:00:13Z</time>
      </trkpt>
      <trkpt lat="43.94942" lon="7.33646">
        <ele>988.872</ele>
        <time>2014-10-18T12:00:17Z</time>
      </trkpt>
      <trkpt lat="43.94941" lon="7.33643">
        <ele>986.85</ele>
        <time>2014-10-18T12:00:25Z</time>
      </trkpt>
      <trkpt lat="43.94947" lon="7.33641">
        <ele>987.972</ele>
        <time>2014-10-18T12:00:29Z</time>
      </trkpt>
      <trkpt lat="43.94956" lon="7.3363">
        <ele>988.724</ele>
        <time>2014-10-18T12:00:35Z</time>
      </trkpt>
      <trkpt lat="43.94959" lon="7.33619">
        <ele>985.771</ele>
        <time>2014-10-18T12:00:40Z</time>
      </trkpt>
      <trkpt lat="43.94963" lon="7.33605">
        <ele>981.938</ele>
        <time>2014-10-18T12:00:45Z</time>
      </trkpt>
      <trkpt lat="43.94957" lon="7.33583">
        <ele>975.503</ele>
        <time>2014-10-18T12:00:51Z</time>
      </trkpt>
      <trkpt lat="43.94954" lon="7.33577">
        <ele>973.103</ele>
        <time>2014-10-18T12:00:53Z</time>
      </trkpt>
      <trkpt lat="43.94952" lon="7.33556">
        <ele>969.266</ele>
        <time>2014-10-18T12:00:58Z</time>
      </trkpt>
      <trkpt lat="43.94946" lon="7.33538">
        <ele>962.231</ele>
        <time>2014-10-18T12:01:04Z</time>
      </trkpt>
      <trkpt lat="43.94945" lon="7.33536">
        <ele>961.793</ele>
        <time>2014-10-18T12:01:05Z</time>
      </trkpt>
      <trkpt lat="43.94934" lon="7.33527">
        <ele>955.896</ele>
        <time>2014-10-18T12:01:11Z</time>
      </trkpt>
      <trkpt lat="43.9493" lon="7.33527">
        <ele>953.846</ele>
        <time>2014-10-18T12:01:13Z</time>
      </trkpt>
      <trkpt lat="43.94923" lon="7.33523">
        <ele>949.57</ele>
        <time>2014-10-18T12:01:17Z</time>
      </trkpt>
      <trkpt lat="43.94918" lon="7.33507">
        <ele>945.118</ele>
        <time>2014-10-18T12:01:23Z</time>
      </trkpt>
      <trkpt lat="43.94913" lon="7.33487">
        <ele>940.56</ele>
        <time>2014-10-18T12:01:28Z</time>
      </trkpt>
      <trkpt lat="43.94906" lon="7.33467">
        <ele>936.122</ele>
        <time>2014-10-18T12:01:34Z</time>
      </trkpt>
      <trkpt lat="43.94908" lon="7.3345">
        <ele>931.969</ele>
        <time>2014-10-18T12:01:40Z</time>
      </trkpt>
      <trkpt lat="43.9491" lon="7.33428">
        <ele>927.354</ele>
        <time>2014-10-18T12:01:45Z</time>
      </trkpt>
      <trkpt lat="43.94915" lon="7.33411">
        <ele>924.108</ele>
        <time>2014-10-18T12:01:50Z</time>
      </trkpt>
      <trkpt lat="43.9492" lon="7.33387">
        <ele>921.443</ele>
        <time>2014-10-18T12:01:56Z</time>
      </trkpt>
      <trkpt lat="43.94919" lon="7.33381">
        <ele>921.485</ele>
        <time>2014-10-18T12:01:58Z</time>
      </trkpt>
      <trkpt lat="43.94912" lon="7.3337">
        <ele>918.362</ele>
        <time>2014-10-18T12:02:02Z</time>
      </trkpt>
      <trkpt lat="43.94895" lon="7.33358">
        <ele>911.469</ele>
        <time>2014-10-18T12:02:08Z</time>
      </trkpt>
      <trkpt lat="43.94886" lon="7.33352">
        <ele>907.684</ele>
        <time>2014-10-18T12:02:11Z</time>
      </trkpt>
      <trkpt lat="43.94884" lon="7.33341">
        <ele>904.406</ele>
        <time>2014-10-18T12:02:15Z</time>
      </trkpt>
      <trkpt lat="43.94885" lon="7.33336">
        <ele>903.906</ele>
        <time>2014-10-18T12:02:16Z</time>
      </trkpt>
      <trkpt lat="43.9488" lon="7.3331">
        <ele>900.72</ele>
        <time>2014-10-18T12:02:21Z</time>
      </trkpt>
      <trkpt lat="43.94871" lon="7.33297">
        <ele>897.871</ele>
        <time>2014-10-18T12:02:25Z</time>
      </trkpt>
      <trkpt lat="43.94866" lon="7.33285">
        <ele>897.318</ele>
        <time>2014-10-18T12:02:29Z</time>
      </trkpt>
      <trkpt lat="43.94864" lon="7.33283">
        <ele>896.858</ele>
        <time>2014-10-18T12:02:30Z</time>
      </trkpt>
      <trkpt lat="43.94852" lon="7.33284">
        <ele>896.039</ele>
        <time>2014-10-18T12:02:33Z</time>
      </trkpt>
      <trkpt lat="43.94845" lon="7.3328">
        <ele>894.718</ele>
        <time>2014-10-18T12:02:35Z</time>
      </trkpt>
      <trkpt lat="43.94827" lon="7.33265">
        <ele>892.286</ele>
        <time>2014-10-18T12:02:40Z</time>
      </trkpt>
      <trkpt lat="43.94815" lon="7.33237">
        <ele>889.794</ele>
        <time>2014-10-18T12:02:45Z</time>
      </trkpt>
      <trkpt lat="43.94815" lon="7.33233">
        <ele>888.099</ele>
        <time>2014-10-18T12:02:48Z</time>
      </trkpt>
      <trkpt lat="43.94816" lon="7.33235">
        <ele>888.5</ele>
        <time>2014-10-18T12:02:59Z</time>
      </trkpt>
      <trkpt lat="43.94812" lon="7.33235">
        <ele>886.579</ele>
        <time>2014-10-18T12:03:10Z</time>
      </trkpt>
      <trkpt lat="43.94804" lon="7.33227">
        <ele>885.228</ele>
        <time>2014-10-18T12:03:14Z</time>
      </trkpt>
      <trkpt lat="43.94796" lon="7.33207">
        <ele>885.278</ele>
        <time>2014-10-18T12:03:18Z</time>
      </trkpt>
      <trkpt lat="43.94794" lon="7.33202">
        <ele>885.306</ele>
        <time>2014-10-18T12:03:19Z</time>
      </trkpt>
      <trkpt lat="43.9479" lon="7.33197">
        <ele>885.527</ele>
        <time>2014-10-18T12:03:24Z</time>
      </trkpt>
      <trkpt lat="43.94791" lon="7.33193">
        <ele>894.381</ele>
        <time>2014-10-18T12:04:36Z</time>
      </trkpt>
      <trkpt lat="43.94788" lon="7.33185">
        <ele>892.43</ele>
        <time>2014-10-18T12:04:41Z</time>
      </trkpt>
      <trkpt lat="43.94781" lon="7.3319">
        <ele>890.403</ele>
        <time>2014-10-18T12:04:44Z</time>
      </trkpt>
      <trkpt lat="43.94781" lon="7.33199">
        <ele>888.885</ele>
        <time>2014-10-18T12:04:46Z</time>
      </trkpt>
      <trkpt lat="43.94787" lon="7.33224">
        <ele>883.498</ele>
        <time>2014-10-18T12:04:51Z</time>
      </trkpt>
      <trkpt lat="43.94788" lon="7.3323">
        <ele>881.966</ele>
        <time>2014-10-18T12:04:52Z</time>
      </trkpt>
      <trkpt lat="43.94793" lon="7.33246">
        <ele>877.339</ele>
        <time>2014-10-18T12:04:55Z</time>
      </trkpt>
      <trkpt lat="43.94796" lon="7.33284">
        <ele>870.172</ele>
        <time>2014-10-18T12:05:01Z</time>
      </trkpt>
      <trkpt lat="43.94797" lon="7.33302">
        <ele>868.302</ele>
        <time>2014-10-18T12:05:04Z</time>
      </trkpt>
      <trkpt lat="43.94805" lon="7.33315">
        <ele>867.055</ele>
        <time>2014-10-18T12:05:07Z</time>
      </trkpt>
      <trkpt lat="43.94813" lon="7.3333">
        <ele>865.353</ele>
        <time>2014-10-18T12:05:10Z</time>
      </trkpt>
      <trkpt lat="43.94808" lon="7.33344">
        <ele>864.987</ele>
        <time>2014-10-18T12:05:14Z</time>
      </trkpt>
      <trkpt lat="43.94802" lon="7.3336">
        <ele>863.205</ele>
        <time>2014-10-18T12:05:17Z</time>
      </trkpt>
      <trkpt lat="43.94806" lon="7.33381">
        <ele>862.226</ele>
        <time>2014-10-18T12:05:20Z</time>
      </trkpt>
      <trkpt lat="43.94815" lon="7.334">
        <ele>860.866</ele>
        <time>2014-10-18T12:05:24Z</time>
      </trkpt>
      <trkpt lat="43.94812" lon="7.33413">
        <ele>857.932</ele>
        <time>2014-10-18T12:05:28Z</time>
      </trkpt>
      <trkpt lat="43.94809" lon="7.33412">
        <ele>857.533</ele>
        <time>2014-10-18T12:05:29Z</time>
      </trkpt>
      <trkpt lat="43.94795" lon="7.33413">
        <ele>857.495</ele>
        <time>2014-10-18T12:05:35Z</time>
      </trkpt>
      <trkpt lat="43.94785" lon="7.33411">
        <ele>857.537</ele>
        <time>2014-10-18T12:05:39Z</time>
      </trkpt>
      <trkpt lat="43.94772" lon="7.33405">
        <ele>859.415</ele>
        <time>2014-10-18T12:05:44Z</time>
      </trkpt>
      <trkpt lat="43.9477" lon="7.33404">
        <ele>859.701</ele>
        <time>2014-10-18T12:05:45Z</time>
      </trkpt>
      <trkpt lat="43.94753" lon="7.334">
        <ele>861.508</ele>
        <time>2014-10-18T12:05:52Z</time>
      </trkpt>
      <trkpt lat="43.94736" lon="7.33392">
        <ele>863.144</ele>
        <time>2014-10-18T12:06:00Z</time>
      </trkpt>
      <trkpt lat="43.94724" lon="7.33388">
        <ele>863.17</ele>
        <time>2014-10-18T12:06:05Z</time>
      </trkpt>
      <trkpt lat="43.9471" lon="7.33392">
        <ele>862.871</ele>
        <time>2014-10-18T12:06:09Z</time>
      </trkpt>
      <trkpt lat="43.94695" lon="7.33409">
        <ele>861.568</ele>
        <time>2014-10-18T12:06:13Z</time>
      </trkpt>
      <trkpt lat="43.94685" lon="7.33412">
        <ele>860.897</ele>
        <time>2014-10-18T12:06:15Z</time>
      </trkpt>
      <trkpt lat="43.94657" lon="7.33423">
        <ele>861.373</ele>
        <time>2014-10-18T12:06:21Z</time>
      </trkpt>
      <trkpt lat="43.94661" lon="7.33433">
        <ele>859.873</ele>
        <time>2014-10-18T12:06:24Z</time>
      </trkpt>
      <trkpt lat="43.94665" lon="7.33438">
        <ele>858.655</ele>
        <time>2014-10-18T12:06:26Z</time>
      </trkpt>
      <trkpt lat="43.94669" lon="7.33446">
        <ele>858.226</ele>
        <time>2014-10-18T12:06:28Z</time>
      </trkpt>
      <trkpt lat="43.94684" lon="7.33462">
        <ele>856.959</ele>
        <time>2014-10-18T12:06:33Z</time>
      </trkpt>
      <trkpt lat="43.94693" lon="7.33475">
        <ele>856.051</ele>
        <time>2014-10-18T12:06:37Z</time>
      </trkpt>
      <trkpt lat="43.94702" lon="7.33483">
        <ele>855.411</ele>
        <time>2014-10-18T12:06:41Z</time>
      </trkpt>
      <trkpt lat="43.94706" lon="7.33492">
        <ele>854.276</ele>
        <time>2014-10-18T12:06:44Z</time>
      </trkpt>
      <trkpt lat="43.94701" lon="7.33508">
        <ele>853.366</ele>
        <time>2014-10-18T12:06:48Z</time>
      </trkpt>
      <trkpt lat="43.947" lon="7.33522">
        <ele>850.162</ele>
        <time>2014-10-18T12:06:51Z</time>
      </trkpt>
      <trkpt lat="43.94698" lon="7.33524">
        <ele>849.061</ele>
        <time>2014-10-18T12:06:52Z</time>
      </trkpt>
      <trkpt lat="43.94695" lon="7.33538">
        <ele>845.407</ele>
        <time>2014-10-18T12:06:57Z</time>
      </trkpt>
      <trkpt lat="43.94687" lon="7.33547">
        <ele>844.642</ele>
        <time>2014-10-18T12:07:02Z</time>
      </trkpt>
      <trkpt lat="43.94678" lon="7.33544">
        <ele>844.51</ele>
        <time>2014-10-18T12:07:06Z</time>
      </trkpt>
      <trkpt lat="43.94669" lon="7.33541">
        <ele>845.705</ele>
        <time>2014-10-18T12:07:10Z</time>
      </trkpt>
      <trkpt lat="43.94661" lon="7.33541">
        <ele>848.597</ele>
        <time>2014-10-18T12:07:16Z</time>
      </trkpt>
      <trkpt lat="43.94658" lon="7.3354">
        <ele>859.355</ele>
        <time>2014-10-18T12:07:37Z</time>
      </trkpt>
      <trkpt lat="43.94651" lon="7.33556">
        <ele>855.739</ele>
        <time>2014-10-18T12:07:42Z</time>
      </trkpt>
      <trkpt lat="43.94645" lon="7.33569">
        <ele>852.424</ele>
        <time>2014-10-18T12:07:46Z</time>
      </trkpt>
      <trkpt lat="43.94651" lon="7.33591">
        <ele>849.535</ele>
        <time>2014-10-18T12:07:51Z</time>
      </trkpt>
      <trkpt lat="43.94648" lon="7.33605">
        <ele>847.154</ele>
        <time>2014-10-18T12:07:55Z</time>
      </trkpt>
      <trkpt lat="43.94641" lon="7.33621">
        <ele>845.212</ele>
        <time>2014-10-18T12:08:00Z</time>
      </trkpt>
      <trkpt lat="43.94635" lon="7.33625">
        <ele>843.241</ele>
        <time>2014-10-18T12:08:04Z</time>
      </trkpt>
      <trkpt lat="43.9463" lon="7.33627">
        <ele>843.207</ele>
        <time>2014-10-18T12:08:09Z</time>
      </trkpt>
      <trkpt lat="43.94628" lon="7.33625">
        <ele>845.152</ele>
        <time>2014-10-18T12:08:10Z</time>
      </trkpt>
      <trkpt lat="43.94622" lon="7.33618">
        <ele>849.645</ele>
        <time>2014-10-18T12:08:15Z</time>
      </trkpt>
      <trkpt lat="43.94613" lon="7.33601">
        <ele>854.392</ele>
        <time>2014-10-18T12:08:22Z</time>
      </trkpt>
      <trkpt lat="43.94603" lon="7.33588">
        <ele>855.762</ele>
        <time>2014-10-18T12:08:27Z</time>
      </trkpt>
      <trkpt lat="43.94594" lon="7.33579">
        <ele>856.865</ele>
        <time>2014-10-18T12:08:32Z</time>
      </trkpt>
      <trkpt lat="43.94579" lon="7.33574">
        <ele>854.859</ele>
        <time>2014-10-18T12:08:38Z</time>
      </trkpt>
      <trkpt lat="43.94566" lon="7.33577">
        <ele>853.915</ele>
        <time>2014-10-18T12:08:46Z</time>
      </trkpt>
      <trkpt lat="43.94555" lon="7.33585">
        <ele>854.374</ele>
        <time>2014-10-18T12:08:53Z</time>
      </trkpt>
      <trkpt lat="43.94551" lon="7.33592">
        <ele>852.709</ele>
        <time>2014-10-18T12:08:58Z</time>
      </trkpt>
      <trkpt lat="43.94548" lon="7.33598">
        <ele>850.533</ele>
        <time>2014-10-18T12:09:03Z</time>
      </trkpt>
      <trkpt lat="43.94543" lon="7.33601">
        <ele>848.601</ele>
        <time>2014-10-18T12:09:07Z</time>
      </trkpt>
      <trkpt lat="43.94537" lon="7.33603">
        <ele>847.176</ele>
        <time>2014-10-18T12:09:12Z</time>
      </trkpt>
      <trkpt lat="43.94526" lon="7.33609">
        <ele>848.537</ele>
        <time>2014-10-18T12:09:16Z</time>
      </trkpt>
      <trkpt lat="43.94518" lon="7.33614">
        <ele>846.221</ele>
        <time>2014-10-18T12:09:21Z</time>
      </trkpt>
      <trkpt lat="43.94517" lon="7.33613">
        <ele>845.091</ele>
        <time>2014-10-18T12:09:23Z</time>
      </trkpt>
      <trkpt lat="43.94519" lon="7.33612">
        <ele>843.829</ele>
        <time>2014-10-18T12:09:25Z</time>
      </trkpt>
      <trkpt lat="43.94516" lon="7.33606">
        <ele>847.788</ele>
        <time>2014-10-18T12:09:29Z</time>
      </trkpt>
      <trkpt lat="43.94507" lon="7.33611">
        <ele>851.455</ele>
        <time>2014-10-18T12:09:34Z</time>
      </trkpt>
      <trkpt lat="43.94505" lon="7.33614">
        <ele>851.192</ele>
        <time>2014-10-18T12:09:35Z</time>
      </trkpt>
      <trkpt lat="43.94505" lon="7.33618">
        <ele>847.138</ele>
        <time>2014-10-18T12:09:37Z</time>
      </trkpt>
      <trkpt lat="43.94507" lon="7.33616">
        <ele>845.295</ele>
        <time>2014-10-18T12:09:42Z</time>
      </trkpt>
      <trkpt lat="43.94506" lon="7.33615">
        <ele>843.794</ele>
        <time>2014-10-18T12:09:44Z</time>
      </trkpt>
      <trkpt lat="43.94499" lon="7.33596">
        <ele>848.104</ele>
        <time>2014-10-18T12:09:50Z</time>
      </trkpt>
      <trkpt lat="43.94491" lon="7.33575">
        <ele>850.379</ele>
        <time>2014-10-18T12:09:56Z</time>
      </trkpt>
      <trkpt lat="43.9449" lon="7.33556">
        <ele>854.16</ele>
        <time>2014-10-18T12:10:01Z</time>
      </trkpt>
      <trkpt lat="43.94485" lon="7.33537">
        <ele>855.652</ele>
        <time>2014-10-18T12:10:06Z</time>
      </trkpt>
      <trkpt lat="43.94484" lon="7.33533">
        <ele>855.914</ele>
        <time>2014-10-18T12:10:07Z</time>
      </trkpt>
      <trkpt lat="43.94473" lon="7.33511">
        <ele>858.64</ele>
        <time>2014-10-18T12:10:13Z</time>
      </trkpt>
      <trkpt lat="43.9446" lon="7.33505">
        <ele>854.275</ele>
        <time>2014-10-18T12:10:17Z</time>
      </trkpt>
      <trkpt lat="43.9444" lon="7.335">
        <ele>848.886</ele>
        <time>2014-10-18T12:10:23Z</time>
      </trkpt>
      <trkpt lat="43.94433" lon="7.33493">
        <ele>846.765</ele>
        <time>2014-10-18T12:10:27Z</time>
      </trkpt>
      <trkpt lat="43.94423" lon="7.33472">
        <ele>851.24</ele>
        <time>2014-10-18T12:10:32Z</time>
      </trkpt>
      <trkpt lat="43.94417" lon="7.33458">
        <ele>853.321</ele>
        <time>2014-10-18T12:10:37Z</time>
      </trkpt>
      <trkpt lat="43.94412" lon="7.33443">
        <ele>853.906</ele>
        <time>2014-10-18T12:10:44Z</time>
      </trkpt>
      <trkpt lat="43.94406" lon="7.33439">
        <ele>854.176</ele>
        <time>2014-10-18T12:10:48Z</time>
      </trkpt>
      <trkpt lat="43.94397" lon="7.33434">
        <ele>855.076</ele>
        <time>2014-10-18T12:10:54Z</time>
      </trkpt>
      <trkpt lat="43.94388" lon="7.33431">
        <ele>857.743</ele>
        <time>2014-10-18T12:11:00Z</time>
      </trkpt>
      <trkpt lat="43.9438" lon="7.3343">
        <ele>858.676</ele>
        <time>2014-10-18T12:11:05Z</time>
      </trkpt>
      <trkpt lat="43.94368" lon="7.33432">
        <ele>859.939</ele>
        <time>2014-10-18T12:11:13Z</time>
      </trkpt>
      <trkpt lat="43.94359" lon="7.33436">
        <ele>859.834</ele>
        <time>2014-10-18T12:11:20Z</time>
      </trkpt>
      <trkpt lat="43.94357" lon="7.33437">
        <ele>858.552</ele>
        <time>2014-10-18T12:11:25Z</time>
      </trkpt>
      <trkpt lat="43.94351" lon="7.33441">
        <ele>855.839</ele>
        <time>2014-10-18T12:11:43Z</time>
      </trkpt>
      <trkpt lat="43.94338" lon="7.33446">
        <ele>856.459</ele>
        <time>2014-10-18T12:11:47Z</time>
      </trkpt>
      <trkpt lat="43.94326" lon="7.33457">
        <ele>856.231</ele>
        <time>2014-10-18T12:11:51Z</time>
      </trkpt>
      <trkpt lat="43.94308" lon="7.33467">
        <ele>856.936</ele>
        <time>2014-10-18T12:11:56Z</time>
      </trkpt>
      <trkpt lat="43.94294" lon="7.33492">
        <ele>855.889</ele>
        <time>2014-10-18T12:12:01Z</time>
      </trkpt>
      <trkpt lat="43.94288" lon="7.33504">
        <ele>855.056</ele>
        <time>2014-10-18T12:12:04Z</time>
      </trkpt>
      <trkpt lat="43.94276" lon="7.33509">
        <ele>854.128</ele>
        <time>2014-10-18T12:12:07Z</time>
      </trkpt>
      <trkpt lat="43.94264" lon="7.33518">
        <ele>852.365</ele>
        <time>2014-10-18T12:12:10Z</time>
      </trkpt>
      <trkpt lat="43.94245" lon="7.33529">
        <ele>850.515</ele>
        <time>2014-10-18T12:12:15Z</time>
      </trkpt>
      <trkpt lat="43.94229" lon="7.33534">
        <ele>849.004</ele>
        <time>2014-10-18T12:12:18Z</time>
      </trkpt>
      <trkpt lat="43.9422" lon="7.33542">
        <ele>848.225</ele>
        <time>2014-10-18T12:12:20Z</time>
      </trkpt>
      <trkpt lat="43.94205" lon="7.33567">
        <ele>846.605</ele>
        <time>2014-10-18T12:12:25Z</time>
      </trkpt>
      <trkpt lat="43.942" lon="7.3357">
        <ele>846.274</ele>
        <time>2014-10-18T12:12:26Z</time>
      </trkpt>
      <trkpt lat="43.94182" lon="7.33578">
        <ele>844.381</ele>
        <time>2014-10-18T12:12:30Z</time>
      </trkpt>
      <trkpt lat="43.94179" lon="7.33593">
        <ele>842.256</ele>
        <time>2014-10-18T12:12:34Z</time>
      </trkpt>
      <trkpt lat="43.94174" lon="7.3361">
        <ele>840.26</ele>
        <time>2014-10-18T12:12:37Z</time>
      </trkpt>
      <trkpt lat="43.94169" lon="7.33632">
        <ele>838.648</ele>
        <time>2014-10-18T12:12:41Z</time>
      </trkpt>
      <trkpt lat="43.94166" lon="7.33663">
        <ele>837.401</ele>
        <time>2014-10-18T12:12:46Z</time>
      </trkpt>
      <trkpt lat="43.94169" lon="7.33688">
        <ele>835.567</ele>
        <time>2014-10-18T12:12:51Z</time>
      </trkpt>
      <trkpt lat="43.94173" lon="7.33702">
        <ele>833.201</ele>
        <time>2014-10-18T12:12:54Z</time>
      </trkpt>
      <trkpt lat="43.94192" lon="7.33726">
        <ele>830.193</ele>
        <time>2014-10-18T12:13:00Z</time>
      </trkpt>
      <trkpt lat="43.94192" lon="7.33741">
        <ele>828.682</ele>
        <time>2014-10-18T12:13:03Z</time>
      </trkpt>
      <trkpt lat="43.94191" lon="7.33747">
        <ele>828.427</ele>
        <time>2014-10-18T12:13:04Z</time>
      </trkpt>
      <trkpt lat="43.94182" lon="7.33776">
        <ele>826.397</ele>
        <time>2014-10-18T12:13:09Z</time>
      </trkpt>
      <trkpt lat="43.9418" lon="7.33784">
        <ele>826.127</ele>
        <time>2014-10-18T12:13:10Z</time>
      </trkpt>
      <trkpt lat="43.9417" lon="7.33815">
        <ele>822.758</ele>
        <time>2014-10-18T12:13:15Z</time>
      </trkpt>
      <trkpt lat="43.94158" lon="7.3383">
        <ele>821.773</ele>
        <time>2014-10-18T12:13:21Z</time>
      </trkpt>
      <trkpt lat="43.94145" lon="7.3383">
        <ele>825.704</ele>
        <time>2014-10-18T12:13:26Z</time>
      </trkpt>
      <trkpt lat="43.9413" lon="7.33829">
        <ele>828.302</ele>
        <time>2014-10-18T12:13:32Z</time>
      </trkpt>
      <trkpt lat="43.94119" lon="7.33828">
        <ele>828.278</ele>
        <time>2014-10-18T12:13:36Z</time>
      </trkpt>
      <trkpt lat="43.94102" lon="7.33829">
        <ele>827.541</ele>
        <time>2014-10-18T12:13:40Z</time>
      </trkpt>
      <trkpt lat="43.94086" lon="7.33841">
        <ele>824.545</ele>
        <time>2014-10-18T12:13:44Z</time>
      </trkpt>
      <trkpt lat="43.94079" lon="7.3387">
        <ele>820.089</ele>
        <time>2014-10-18T12:13:49Z</time>
      </trkpt>
      <trkpt lat="43.94084" lon="7.33884">
        <ele>816.613</ele>
        <time>2014-10-18T12:13:51Z</time>
      </trkpt>
      <trkpt lat="43.94094" lon="7.33911">
        <ele>810.995</ele>
        <time>2014-10-18T12:13:56Z</time>
      </trkpt>
      <trkpt lat="43.94094" lon="7.33927">
        <ele>809.59</ele>
        <time>2014-10-18T12:14:00Z</time>
      </trkpt>
      <trkpt lat="43.94093" lon="7.33939">
        <ele>807.832</ele>
        <time>2014-10-18T12:14:02Z</time>
      </trkpt>
      <trkpt lat="43.94094" lon="7.33966">
        <ele>807.055</ele>
        <time>2014-10-18T12:14:07Z</time>
      </trkpt>
      <trkpt lat="43.94094" lon="7.33968">
        <ele>806.076</ele>
        <time>2014-10-18T12:14:09Z</time>
      </trkpt>
      <trkpt lat="43.94091" lon="7.33964">
        <ele>809.035</ele>
        <time>2014-10-18T12:14:12Z</time>
      </trkpt>
      <trkpt lat="43.94088" lon="7.3396">
        <ele>810.708</ele>
        <time>2014-10-18T12:14:14Z</time>
      </trkpt>
      <trkpt lat="43.9408" lon="7.33956">
        <ele>812.926</ele>
        <time>2014-10-18T12:14:19Z</time>
      </trkpt>
      <trkpt lat="43.94071" lon="7.33945">
        <ele>829.733</ele>
        <time>2014-10-18T12:14:40Z</time>
      </trkpt>
      <trkpt lat="43.94066" lon="7.33936">
        <ele>837.949</ele>
        <time>2014-10-18T12:14:47Z</time>
      </trkpt>
      <trkpt lat="43.94061" lon="7.33938">
        <ele>837.933</ele>
        <time>2014-10-18T12:14:55Z</time>
      </trkpt>
      <trkpt lat="43.9406" lon="7.33946">
        <ele>830.176</ele>
        <time>2014-10-18T12:15:02Z</time>
      </trkpt>
      <trkpt lat="43.94053" lon="7.33948">
        <ele>829.279</ele>
        <time>2014-10-18T12:15:08Z</time>
      </trkpt>
      <trkpt lat="43.9405" lon="7.33947">
        <ele>827.257</ele>
        <time>2014-10-18T12:15:14Z</time>
      </trkpt>
      <trkpt lat="43.94045" lon="7.33946">
        <ele>825.068</ele>
        <time>2014-10-18T12:15:21Z</time>
      </trkpt>
      <trkpt lat="43.94039" lon="7.3394">
        <ele>829.927</ele>
        <time>2014-10-18T12:15:25Z</time>
      </trkpt>
      <trkpt lat="43.94032" lon="7.33938">
        <ele>831.56</ele>
        <time>2014-10-18T12:15:30Z</time>
      </trkpt>
      <trkpt lat="43.94029" lon="7.33937">
        <ele>831.847</ele>
        <time>2014-10-18T12:15:35Z</time>
      </trkpt>
      <trkpt lat="43.94026" lon="7.33939">
        <ele>831.376</ele>
        <time>2014-10-18T12:15:40Z</time>
      </trkpt>
      <trkpt lat="43.94018" lon="7.33939">
        <ele>825.657</ele>
        <time>2014-10-18T12:15:50Z</time>
      </trkpt>
      <trkpt lat="43.94006" lon="7.33929">
        <ele>831.961</ele>
        <time>2014-10-18T12:15:57Z</time>
      </trkpt>
      <trkpt lat="43.93993" lon="7.33923">
        <ele>838.624</ele>
        <time>2014-10-18T12:16:04Z</time>
      </trkpt>
      <trkpt lat="43.93979" lon="7.33919">
        <ele>840.887</ele>
        <time>2014-10-18T12:16:11Z</time>
      </trkpt>
      <trkpt lat="43.93971" lon="7.33916">
        <ele>841.473</ele>
        <time>2014-10-18T12:16:15Z</time>
      </trkpt>
      <trkpt lat="43.9396" lon="7.33909">
        <ele>844.466</ele>
        <time>2014-10-18T12:16:23Z</time>
      </trkpt>
      <trkpt lat="43.93948" lon="7.33903">
        <ele>844.892</ele>
        <time>2014-10-18T12:16:30Z</time>
      </trkpt>
      <trkpt lat="43.93938" lon="7.33902">
        <ele>846.687</ele>
        <time>2014-10-18T12:16:36Z</time>
      </trkpt>
      <trkpt lat="43.93927" lon="7.33912">
        <ele>845.377</ele>
        <time>2014-10-18T12:16:42Z</time>
      </trkpt>
      <trkpt lat="43.93916" lon="7.33933">
        <ele>841.562</ele>
        <time>2014-10-18T12:16:49Z</time>
      </trkpt>
      <trkpt lat="43.9391" lon="7.33951">
        <ele>838.744</ele>
        <time>2014-10-18T12:16:53Z</time>
      </trkpt>
      <trkpt lat="43.93901" lon="7.33962">
        <ele>836.896</ele>
        <time>2014-10-18T12:16:57Z</time>
      </trkpt>
      <trkpt lat="43.93892" lon="7.33981">
        <ele>836.04</ele>
        <time>2014-10-18T12:17:02Z</time>
      </trkpt>
      <trkpt lat="43.93887" lon="7.34">
        <ele>834.729</ele>
        <time>2014-10-18T12:17:07Z</time>
      </trkpt>
      <trkpt lat="43.93879" lon="7.34006">
        <ele>834.83</ele>
        <time>2014-10-18T12:17:10Z</time>
      </trkpt>
      <trkpt lat="43.93872" lon="7.34027">
        <ele>834.017</ele>
        <time>2014-10-18T12:17:14Z</time>
      </trkpt>
      <trkpt lat="43.9387" lon="7.34032">
        <ele>834.209</ele>
        <time>2014-10-18T12:17:15Z</time>
      </trkpt>
      <trkpt lat="43.93864" lon="7.34047">
        <ele>835.079</ele>
        <time>2014-10-18T12:17:18Z</time>
      </trkpt>
      <trkpt lat="43.9385" lon="7.34054">
        <ele>835.11</ele>
        <time>2014-10-18T12:17:22Z</time>
      </trkpt>
      <trkpt lat="43.93838" lon="7.3407">
        <ele>835.08</ele>
        <time>2014-10-18T12:17:26Z</time>
      </trkpt>
      <trkpt lat="43.93834" lon="7.34083">
        <ele>834.89</ele>
        <time>2014-10-18T12:17:28Z</time>
      </trkpt>
      <trkpt lat="43.93831" lon="7.34098">
        <ele>834.598</ele>
        <time>2014-10-18T12:17:30Z</time>
      </trkpt>
      <trkpt lat="43.93833" lon="7.34124">
        <ele>834.581</ele>
        <time>2014-10-18T12:17:34Z</time>
      </trkpt>
      <trkpt lat="43.93834" lon="7.34143">
        <ele>833.284</ele>
        <time>2014-10-18T12:17:37Z</time>
      </trkpt>
      <trkpt lat="43.93829" lon="7.34153">
        <ele>833.626</ele>
        <time>2014-10-18T12:17:40Z</time>
      </trkpt>
      <trkpt lat="43.93817" lon="7.34165">
        <ele>831.271</ele>
        <time>2014-10-18T12:17:44Z</time>
      </trkpt>
      <trkpt lat="43.93802" lon="7.34175">
        <ele>829.51</ele>
        <time>2014-10-18T12:17:48Z</time>
      </trkpt>
      <trkpt lat="43.938" lon="7.34181">
        <ele>829.039</ele>
        <time>2014-10-18T12:17:49Z</time>
      </trkpt>
      <trkpt lat="43.93796" lon="7.34194">
        <ele>828.744</ele>
        <time>2014-10-18T12:17:51Z</time>
      </trkpt>
      <trkpt lat="43.93787" lon="7.34223">
        <ele>826.135</ele>
        <time>2014-10-18T12:17:55Z</time>
      </trkpt>
      <trkpt lat="43.93773" lon="7.34249">
        <ele>823.311</ele>
        <time>2014-10-18T12:18:00Z</time>
      </trkpt>
      <trkpt lat="43.93764" lon="7.34259">
        <ele>819.964</ele>
        <time>2014-10-18T12:18:03Z</time>
      </trkpt>
      <trkpt lat="43.93753" lon="7.34253">
        <ele>821.548</ele>
        <time>2014-10-18T12:18:07Z</time>
      </trkpt>
      <trkpt lat="43.93751" lon="7.34253">
        <ele>822.502</ele>
        <time>2014-10-18T12:18:12Z</time>
      </trkpt>
      <trkpt lat="43.93752" lon="7.34248">
        <ele>832.894</ele>
        <time>2014-10-18T12:18:22Z</time>
      </trkpt>
      <trkpt lat="43.93749" lon="7.34242">
        <ele>836.478</ele>
        <time>2014-10-18T12:18:25Z</time>
      </trkpt>
      <trkpt lat="43.93745" lon="7.34241">
        <ele>837.752</ele>
        <time>2014-10-18T12:18:29Z</time>
      </trkpt>
      <trkpt lat="43.93743" lon="7.3424">
        <ele>838.313</ele>
        <time>2014-10-18T12:18:33Z</time>
      </trkpt>
      <trkpt lat="43.93735" lon="7.34234">
        <ele>834.971</ele>
        <time>2014-10-18T12:18:39Z</time>
      </trkpt>
      <trkpt lat="43.93735" lon="7.34237">
        <ele>825.187</ele>
        <time>2014-10-18T12:18:50Z</time>
      </trkpt>
      <trkpt lat="43.9373" lon="7.34238">
        <ele>817.126</ele>
        <time>2014-10-18T12:19:09Z</time>
      </trkpt>
      <trkpt lat="43.93728" lon="7.34234">
        <ele>817.169</ele>
        <time>2014-10-18T12:19:19Z</time>
      </trkpt>
      <trkpt lat="43.93727" lon="7.34229">
        <ele>818.023</ele>
        <time>2014-10-18T12:19:23Z</time>
      </trkpt>
      <trkpt lat="43.93723" lon="7.34225">
        <ele>819.949</ele>
        <time>2014-10-18T12:19:28Z</time>
      </trkpt>
      <trkpt lat="43.93722" lon="7.34223">
        <ele>820.921</ele>
        <time>2014-10-18T12:19:30Z</time>
      </trkpt>
      <trkpt lat="43.93718" lon="7.34218">
        <ele>823.76</ele>
        <time>2014-10-18T12:19:38Z</time>
      </trkpt>
      <trkpt lat="43.93717" lon="7.34218">
        <ele>823.83</ele>
        <time>2014-10-18T12:19:39Z</time>
      </trkpt>
      <trkpt lat="43.93713" lon="7.34219">
        <ele>825.056</ele>
        <time>2014-10-18T12:19:46Z</time>
      </trkpt>
      <trkpt lat="43.93716" lon="7.34219">
        <ele>833.111</ele>
        <time>2014-10-18T12:20:05Z</time>
      </trkpt>
      <trkpt lat="43.93719" lon="7.34222">
        <ele>821.828</ele>
        <time>2014-10-18T12:22:08Z</time>
      </trkpt>
      <trkpt lat="43.93719" lon="7.34216">
        <ele>826.88</ele>
        <time>2014-10-18T12:22:14Z</time>
      </trkpt>
      <trkpt lat="43.93711" lon="7.34205">
        <ele>837.457</ele>
        <time>2014-10-18T12:22:19Z</time>
      </trkpt>
      <trkpt lat="43.93708" lon="7.3419">
        <ele>852.376</ele>
        <time>2014-10-18T12:22:25Z</time>
      </trkpt>
      <trkpt lat="43.93713" lon="7.34173">
        <ele>861.281</ele>
        <time>2014-10-18T12:22:31Z</time>
      </trkpt>
      <trkpt lat="43.93714" lon="7.34161">
        <ele>862.89</ele>
        <time>2014-10-18T12:22:36Z</time>
      </trkpt>
      <trkpt lat="43.93713" lon="7.34151">
        <ele>859.132</ele>
        <time>2014-10-18T12:22:41Z</time>
      </trkpt>
      <trkpt lat="43.93708" lon="7.34128">
        <ele>858.082</ele>
        <time>2014-10-18T12:22:49Z</time>
      </trkpt>
      <trkpt lat="43.93706" lon="7.34121">
        <ele>856.1</ele>
        <time>2014-10-18T12:22:52Z</time>
      </trkpt>
      <trkpt lat="43.93701" lon="7.34106">
        <ele>852.144</ele>
        <time>2014-10-18T12:22:58Z</time>
      </trkpt>
      <trkpt lat="43.93701" lon="7.3409">
        <ele>849.618</ele>
        <time>2014-10-18T12:23:04Z</time>
      </trkpt>
      <trkpt lat="43.93699" lon="7.34085">
        <ele>840.013</ele>
        <time>2014-10-18T12:23:26Z</time>
      </trkpt>
      <trkpt lat="43.93696" lon="7.34074">
        <ele>838.672</ele>
        <time>2014-10-18T12:23:32Z</time>
      </trkpt>
      <trkpt lat="43.93693" lon="7.34071">
        <ele>838.019</ele>
        <time>2014-10-18T12:23:34Z</time>
      </trkpt>
      <trkpt lat="43.93681" lon="7.34066">
        <ele>837.062</ele>
        <time>2014-10-18T12:23:43Z</time>
      </trkpt>
      <trkpt lat="43.93677" lon="7.34064">
        <ele>837.096</ele>
        <time>2014-10-18T12:23:48Z</time>
      </trkpt>
      <trkpt lat="43.93667" lon="7.34058">
        <ele>837.047</ele>
        <time>2014-10-18T12:23:54Z</time>
      </trkpt>
      <trkpt lat="43.93658" lon="7.34053">
        <ele>835.974</ele>
        <time>2014-10-18T12:24:01Z</time>
      </trkpt>
      <trkpt lat="43.93656" lon="7.34052">
        <ele>834.995</ele>
        <time>2014-10-18T12:24:09Z</time>
      </trkpt>
      <trkpt lat="43.93653" lon="7.3405">
        <ele>835.805</ele>
        <time>2014-10-18T12:24:13Z</time>
      </trkpt>
      <trkpt lat="43.9365" lon="7.34048">
        <ele>838.602</ele>
        <time>2014-10-18T12:24:16Z</time>
      </trkpt>
      <trkpt lat="43.93652" lon="7.3404">
        <ele>846.876</ele>
        <time>2014-10-18T12:24:20Z</time>
      </trkpt>
      <trkpt lat="43.93653" lon="7.34032">
        <ele>856.372</ele>
        <time>2014-10-18T12:24:26Z</time>
      </trkpt>
      <trkpt lat="43.93659" lon="7.34027">
        <ele>865.322</ele>
        <time>2014-10-18T12:24:43Z</time>
      </trkpt>
      <trkpt lat="43.93664" lon="7.34019">
        <ele>870.717</ele>
        <time>2014-10-18T12:24:52Z</time>
      </trkpt>
      <trkpt lat="43.93662" lon="7.33972">
        <ele>854.183</ele>
        <time>2014-10-18T12:25:39Z</time>
      </trkpt>
      <trkpt lat="43.93663" lon="7.33969">
        <ele>858.183</ele>
        <time>2014-10-18T12:25:45Z</time>
      </trkpt>
      <trkpt lat="43.93666" lon="7.33963">
        <ele>862.078</ele>
        <time>2014-10-18T12:25:52Z</time>
      </trkpt>
      <trkpt lat="43.93667" lon="7.33956">
        <ele>864.461</ele>
        <time>2014-10-18T12:26:02Z</time>
      </trkpt>
      <trkpt lat="43.93671" lon="7.33944">
        <ele>872.318</ele>
        <time>2014-10-18T12:26:21Z</time>
      </trkpt>
      <trkpt lat="43.9367" lon="7.33938">
        <ele>871.948</ele>
        <time>2014-10-18T12:26:28Z</time>
      </trkpt>
      <trkpt lat="43.9367" lon="7.33931">
        <ele>874.797</ele>
        <time>2014-10-18T12:26:38Z</time>
      </trkpt>
      <trkpt lat="43.93667" lon="7.33927">
        <ele>869.77</ele>
        <time>2014-10-18T12:26:45Z</time>
      </trkpt>
      <trkpt lat="43.93667" lon="7.33922">
        <ele>868.17</ele>
        <time>2014-10-18T12:26:50Z</time>
      </trkpt>
      <trkpt lat="43.93668" lon="7.33916">
        <ele>865.749</ele>
        <time>2014-10-18T12:26:55Z</time>
      </trkpt>
      <trkpt lat="43.93669" lon="7.3391">
        <ele>867.032</ele>
        <time>2014-10-18T12:27:02Z</time>
      </trkpt>
      <trkpt lat="43.93668" lon="7.33902">
        <ele>867.383</ele>
        <time>2014-10-18T12:27:08Z</time>
      </trkpt>
      <trkpt lat="43.93668" lon="7.33896">
        <ele>867.294</ele>
        <time>2014-10-18T12:27:13Z</time>
      </trkpt>
      <trkpt lat="43.93666" lon="7.33889">
        <ele>867.101</ele>
        <time>2014-10-18T12:27:19Z</time>
      </trkpt>
      <trkpt lat="43.93663" lon="7.3388">
        <ele>870.664</ele>
        <time>2014-10-18T12:27:26Z</time>
      </trkpt>
      <trkpt lat="43.9366" lon="7.33875">
        <ele>872.678</ele>
        <time>2014-10-18T12:27:31Z</time>
      </trkpt>
      <trkpt lat="43.93658" lon="7.33874">
        <ele>872.367</ele>
        <time>2014-10-18T12:27:36Z</time>
      </trkpt>
      <trkpt lat="43.93652" lon="7.33875">
        <ele>871.875</ele>
        <time>2014-10-18T12:27:41Z</time>
      </trkpt>
      <trkpt lat="43.93649" lon="7.3388">
        <ele>872.254</ele>
        <time>2014-10-18T12:27:48Z</time>
      </trkpt>
      <trkpt lat="43.93645" lon="7.33884">
        <ele>873.935</ele>
        <time>2014-10-18T12:27:55Z</time>
      </trkpt>
      <trkpt lat="43.93639" lon="7.33889">
        <ele>874.541</ele>
        <time>2014-10-18T12:28:03Z</time>
      </trkpt>
      <trkpt lat="43.93637" lon="7.33892">
        <ele>874.301</ele>
        <time>2014-10-18T12:28:06Z</time>
      </trkpt>
      <trkpt lat="43.93632" lon="7.33901">
        <ele>877.006</ele>
        <time>2014-10-18T12:28:15Z</time>
      </trkpt>
      <trkpt lat="43.93628" lon="7.33903">
        <ele>878.716</ele>
        <time>2014-10-18T12:28:22Z</time>
      </trkpt>
      <trkpt lat="43.93625" lon="7.33908">
        <ele>879.877</ele>
        <time>2014-10-18T12:28:29Z</time>
      </trkpt>
      <trkpt lat="43.93624" lon="7.33909">
        <ele>881.277</ele>
        <time>2014-10-18T12:28:34Z</time>
      </trkpt>
      <trkpt lat="43.93625" lon="7.33908">
        <ele>885.228</ele>
        <time>2014-10-18T12:28:43Z</time>
      </trkpt>
      <trkpt lat="43.93623" lon="7.33906">
        <ele>886.134</ele>
        <time>2014-10-18T12:29:00Z</time>
      </trkpt>
      <trkpt lat="43.9362" lon="7.33903">
        <ele>886.981</ele>
        <time>2014-10-18T12:29:06Z</time>
      </trkpt>
      <trkpt lat="43.93615" lon="7.33903">
        <ele>888.471</ele>
        <time>2014-10-18T12:29:14Z</time>
      </trkpt>
      <trkpt lat="43.93614" lon="7.339">
        <ele>889.257</ele>
        <time>2014-10-18T12:29:21Z</time>
      </trkpt>
      <trkpt lat="43.93614" lon="7.33899">
        <ele>889.528</ele>
        <time>2014-10-18T12:29:22Z</time>
      </trkpt>
      <trkpt lat="43.93613" lon="7.33892">
        <ele>891.436</ele>
        <time>2014-10-18T12:29:30Z</time>
      </trkpt>
      <trkpt lat="43.93609" lon="7.33887">
        <ele>891.694</ele>
        <time>2014-10-18T12:29:38Z</time>
      </trkpt>
      <trkpt lat="43.93605" lon="7.33889">
        <ele>893.074</ele>
        <time>2014-10-18T12:29:44Z</time>
      </trkpt>
      <trkpt lat="43.93601" lon="7.33895">
        <ele>894.175</ele>
        <time>2014-10-18T12:29:53Z</time>
      </trkpt>
      <trkpt lat="43.93598" lon="7.33899">
        <ele>895.201</ele>
        <time>2014-10-18T12:30:01Z</time>
      </trkpt>
      <trkpt lat="43.93591" lon="7.33903">
        <ele>896.782</ele>
        <time>2014-10-18T12:30:11Z</time>
      </trkpt>
      <trkpt lat="43.93588" lon="7.33904">
        <ele>896.841</ele>
        <time>2014-10-18T12:30:15Z</time>
      </trkpt>
      <trkpt lat="43.93585" lon="7.33912">
        <ele>897.8</ele>
        <time>2014-10-18T12:30:24Z</time>
      </trkpt>
      <trkpt lat="43.93586" lon="7.33914">
        <ele>898.248</ele>
        <time>2014-10-18T12:30:30Z</time>
      </trkpt>
      <trkpt lat="43.93585" lon="7.33909">
        <ele>898.21</ele>
        <time>2014-10-18T12:30:58Z</time>
      </trkpt>
      <trkpt lat="43.9358" lon="7.33907">
        <ele>899.92</ele>
        <time>2014-10-18T12:31:05Z</time>
      </trkpt>
      <trkpt lat="43.93577" lon="7.33907">
        <ele>899.965</ele>
        <time>2014-10-18T12:31:07Z</time>
      </trkpt>
      <trkpt lat="43.93571" lon="7.33905">
        <ele>901.554</ele>
        <time>2014-10-18T12:31:14Z</time>
      </trkpt>
      <trkpt lat="43.93565" lon="7.33903">
        <ele>902.308</ele>
        <time>2014-10-18T12:31:19Z</time>
      </trkpt>
      <trkpt lat="43.9356" lon="7.33897">
        <ele>905.365</ele>
        <time>2014-10-18T12:31:26Z</time>
      </trkpt>
      <trkpt lat="43.93556" lon="7.33892">
        <ele>907.114</ele>
        <time>2014-10-18T12:31:33Z</time>
      </trkpt>
      <trkpt lat="43.93557" lon="7.33887">
        <ele>909.057</ele>
        <time>2014-10-18T12:31:39Z</time>
      </trkpt>
      <trkpt lat="43.93552" lon="7.33883">
        <ele>912.471</ele>
        <time>2014-10-18T12:31:45Z</time>
      </trkpt>
      <trkpt lat="43.93549" lon="7.33883">
        <ele>912.228</ele>
        <time>2014-10-18T12:31:47Z</time>
      </trkpt>
      <trkpt lat="43.93545" lon="7.33885">
        <ele>910.419</ele>
        <time>2014-10-18T12:31:50Z</time>
      </trkpt>
      <trkpt lat="43.93541" lon="7.33882">
        <ele>908.425</ele>
        <time>2014-10-18T12:31:54Z</time>
      </trkpt>
      <trkpt lat="43.93541" lon="7.33879">
        <ele>908.446</ele>
        <time>2014-10-18T12:31:58Z</time>
      </trkpt>
      <trkpt lat="43.93535" lon="7.33872">
        <ele>907.277</ele>
        <time>2014-10-18T12:32:03Z</time>
      </trkpt>
      <trkpt lat="43.93531" lon="7.33864">
        <ele>913.106</ele>
        <time>2014-10-18T12:32:10Z</time>
      </trkpt>
      <trkpt lat="43.93526" lon="7.33853">
        <ele>918.854</ele>
        <time>2014-10-18T12:32:16Z</time>
      </trkpt>
      <trkpt lat="43.93525" lon="7.33842">
        <ele>925.758</ele>
        <time>2014-10-18T12:32:23Z</time>
      </trkpt>
      <trkpt lat="43.93522" lon="7.33831">
        <ele>931.418</ele>
        <time>2014-10-18T12:32:29Z</time>
      </trkpt>
      <trkpt lat="43.93518" lon="7.33822">
        <ele>934.475</ele>
        <time>2014-10-18T12:32:35Z</time>
      </trkpt>
      <trkpt lat="43.93514" lon="7.3381">
        <ele>933.899</ele>
        <time>2014-10-18T12:32:41Z</time>
      </trkpt>
      <trkpt lat="43.93513" lon="7.33809">
        <ele>933.462</ele>
        <time>2014-10-18T12:32:42Z</time>
      </trkpt>
      <trkpt lat="43.93507" lon="7.33806">
        <ele>930.49</ele>
        <time>2014-10-18T12:32:45Z</time>
      </trkpt>
      <trkpt lat="43.93498" lon="7.33801">
        <ele>927.844</ele>
        <time>2014-10-18T12:32:50Z</time>
      </trkpt>
      <trkpt lat="43.9349" lon="7.33798">
        <ele>926.307</ele>
        <time>2014-10-18T12:32:58Z</time>
      </trkpt>
      <trkpt lat="43.93489" lon="7.33798">
        <ele>926.151</ele>
        <time>2014-10-18T12:33:00Z</time>
      </trkpt>
      <trkpt lat="43.9348" lon="7.338">
        <ele>924.463</ele>
        <time>2014-10-18T12:33:05Z</time>
      </trkpt>
      <trkpt lat="43.93472" lon="7.338">
        <ele>924.753</ele>
        <time>2014-10-18T12:33:10Z</time>
      </trkpt>
      <trkpt lat="43.93462" lon="7.33799">
        <ele>926.026</ele>
        <time>2014-10-18T12:33:17Z</time>
      </trkpt>
      <trkpt lat="43.9346" lon="7.33787">
        <ele>929.982</ele>
        <time>2014-10-18T12:33:24Z</time>
      </trkpt>
      <trkpt lat="43.93461" lon="7.33773">
        <ele>932.267</ele>
        <time>2014-10-18T12:33:30Z</time>
      </trkpt>
      <trkpt lat="43.93461" lon="7.33764">
        <ele>934.78</ele>
        <time>2014-10-18T12:33:35Z</time>
      </trkpt>
      <trkpt lat="43.93453" lon="7.33758">
        <ele>933.361</ele>
        <time>2014-10-18T12:33:40Z</time>
      </trkpt>
      <trkpt lat="43.93445" lon="7.33757">
        <ele>931.603</ele>
        <time>2014-10-18T12:33:45Z</time>
      </trkpt>
      <trkpt lat="43.93438" lon="7.33758">
        <ele>930.404</ele>
        <time>2014-10-18T12:33:49Z</time>
      </trkpt>
      <trkpt lat="43.93429" lon="7.33763">
        <ele>930.046</ele>
        <time>2014-10-18T12:33:56Z</time>
      </trkpt>
      <trkpt lat="43.93428" lon="7.33763">
        <ele>930.416</ele>
        <time>2014-10-18T12:34:00Z</time>
      </trkpt>
      <trkpt lat="43.93425" lon="7.33759">
        <ele>932.778</ele>
        <time>2014-10-18T12:34:06Z</time>
      </trkpt>
      <trkpt lat="43.93423" lon="7.33759">
        <ele>933.79</ele>
        <time>2014-10-18T12:34:15Z</time>
      </trkpt>
      <trkpt lat="43.93424" lon="7.3376">
        <ele>934.691</ele>
        <time>2014-10-18T12:34:28Z</time>
      </trkpt>
      <trkpt lat="43.93419" lon="7.33748">
        <ele>937.184</ele>
        <time>2014-10-18T12:34:35Z</time>
      </trkpt>
      <trkpt lat="43.93409" lon="7.33744">
        <ele>936.925</ele>
        <time>2014-10-18T12:34:41Z</time>
      </trkpt>
      <trkpt lat="43.93403" lon="7.33746">
        <ele>934.929</ele>
        <time>2014-10-18T12:34:44Z</time>
      </trkpt>
      <trkpt lat="43.93394" lon="7.33742">
        <ele>934.103</ele>
        <time>2014-10-18T12:34:51Z</time>
      </trkpt>
      <trkpt lat="43.93392" lon="7.33741">
        <ele>934.143</ele>
        <time>2014-10-18T12:34:53Z</time>
      </trkpt>
      <trkpt lat="43.93384" lon="7.33739">
        <ele>936.348</ele>
        <time>2014-10-18T12:35:00Z</time>
      </trkpt>
      <trkpt lat="43.93377" lon="7.33733">
        <ele>940.724</ele>
        <time>2014-10-18T12:35:06Z</time>
      </trkpt>
      <trkpt lat="43.93372" lon="7.33728">
        <ele>946.206</ele>
        <time>2014-10-18T12:35:13Z</time>
      </trkpt>
      <trkpt lat="43.93368" lon="7.33722">
        <ele>950.554</ele>
        <time>2014-10-18T12:35:20Z</time>
      </trkpt>
      <trkpt lat="43.93367" lon="7.33722">
        <ele>949.858</ele>
        <time>2014-10-18T12:35:26Z</time>
      </trkpt>
      <trkpt lat="43.93362" lon="7.33718">
        <ele>946.589</ele>
        <time>2014-10-18T12:35:46Z</time>
      </trkpt>
      <trkpt lat="43.93357" lon="7.33709">
        <ele>945.201</ele>
        <time>2014-10-18T12:35:54Z</time>
      </trkpt>
      <trkpt lat="43.93353" lon="7.33702">
        <ele>945.423</ele>
        <time>2014-10-18T12:36:02Z</time>
      </trkpt>
      <trkpt lat="43.93352" lon="7.33698">
        <ele>950.363</ele>
        <time>2014-10-18T12:36:08Z</time>
      </trkpt>
      <trkpt lat="43.93351" lon="7.33697">
        <ele>951.341</ele>
        <time>2014-10-18T12:36:10Z</time>
      </trkpt>
      <trkpt lat="43.93351" lon="7.33693">
        <ele>954.095</ele>
        <time>2014-10-18T12:36:14Z</time>
      </trkpt>
      <trkpt lat="43.93348" lon="7.33689">
        <ele>954.426</ele>
        <time>2014-10-18T12:36:21Z</time>
      </trkpt>
      <trkpt lat="43.93348" lon="7.33684">
        <ele>954.215</ele>
        <time>2014-10-18T12:36:29Z</time>
      </trkpt>
      <trkpt lat="43.93352" lon="7.33671">
        <ele>955.878</ele>
        <time>2014-10-18T12:36:36Z</time>
      </trkpt>
      <trkpt lat="43.93352" lon="7.33661">
        <ele>955.812</ele>
        <time>2014-10-18T12:36:40Z</time>
      </trkpt>
      <trkpt lat="43.93348" lon="7.33649">
        <ele>957.181</ele>
        <time>2014-10-18T12:36:47Z</time>
      </trkpt>
      <trkpt lat="43.93346" lon="7.33644">
        <ele>956.766</ele>
        <time>2014-10-18T12:36:49Z</time>
      </trkpt>
      <trkpt lat="43.93348" lon="7.33628">
        <ele>958.76</ele>
        <time>2014-10-18T12:36:56Z</time>
      </trkpt>
      <trkpt lat="43.9335" lon="7.33612">
        <ele>960.421</ele>
        <time>2014-10-18T12:37:03Z</time>
      </trkpt>
      <trkpt lat="43.93343" lon="7.336">
        <ele>960.285</ele>
        <time>2014-10-18T12:37:10Z</time>
      </trkpt>
      <trkpt lat="43.93338" lon="7.33591">
        <ele>961.408</ele>
        <time>2014-10-18T12:37:15Z</time>
      </trkpt>
      <trkpt lat="43.93328" lon="7.33577">
        <ele>958.371</ele>
        <time>2014-10-18T12:37:22Z</time>
      </trkpt>
      <trkpt lat="43.93322" lon="7.33559">
        <ele>955.554</ele>
        <time>2014-10-18T12:37:27Z</time>
      </trkpt>
      <trkpt lat="43.93318" lon="7.33542">
        <ele>955.123</ele>
        <time>2014-10-18T12:37:34Z</time>
      </trkpt>
      <trkpt lat="43.93316" lon="7.33538">
        <ele>954.851</ele>
        <time>2014-10-18T12:37:36Z</time>
      </trkpt>
      <trkpt lat="43.93317" lon="7.33536">
        <ele>955.12</ele>
        <time>2014-10-18T12:37:43Z</time>
      </trkpt>
      <trkpt lat="43.93317" lon="7.33535">
        <ele>953.045</ele>
        <time>2014-10-18T12:43:57Z</time>
      </trkpt>
      <trkpt lat="43.93315" lon="7.33535">
        <ele>952.63</ele>
        <time>2014-10-18T12:44:01Z</time>
      </trkpt>
      <trkpt lat="43.93304" lon="7.33523">
        <ele>950.286</ele>
        <time>2014-10-18T12:44:07Z</time>
      </trkpt>
      <trkpt lat="43.93305" lon="7.33508">
        <ele>947.691</ele>
        <time>2014-10-18T12:44:10Z</time>
      </trkpt>
      <trkpt lat="43.93303" lon="7.33492">
        <ele>945.306</ele>
        <time>2014-10-18T12:44:13Z</time>
      </trkpt>
      <trkpt lat="43.93293" lon="7.33483">
        <ele>944.278</ele>
        <time>2014-10-18T12:44:16Z</time>
      </trkpt>
      <trkpt lat="43.93278" lon="7.3347">
        <ele>941.83</ele>
        <time>2014-10-18T12:44:21Z</time>
      </trkpt>
      <trkpt lat="43.93273" lon="7.3347">
        <ele>942.127</ele>
        <time>2014-10-18T12:44:22Z</time>
      </trkpt>
      <trkpt lat="43.93252" lon="7.33467">
        <ele>942.256</ele>
        <time>2014-10-18T12:44:26Z</time>
      </trkpt>
      <trkpt lat="43.93229" lon="7.33462">
        <ele>941.006</ele>
        <time>2014-10-18T12:44:30Z</time>
      </trkpt>
      <trkpt lat="43.93219" lon="7.33468">
        <ele>939.938</ele>
        <time>2014-10-18T12:44:32Z</time>
      </trkpt>
      <trkpt lat="43.93204" lon="7.33479">
        <ele>938.042</ele>
        <time>2014-10-18T12:44:35Z</time>
      </trkpt>
      <trkpt lat="43.93188" lon="7.33489">
        <ele>935.121</ele>
        <time>2014-10-18T12:44:39Z</time>
      </trkpt>
      <trkpt lat="43.93173" lon="7.33493">
        <ele>932.095</ele>
        <time>2014-10-18T12:44:43Z</time>
      </trkpt>
      <trkpt lat="43.9316" lon="7.33503">
        <ele>928.457</ele>
        <time>2014-10-18T12:44:48Z</time>
      </trkpt>
      <trkpt lat="43.93158" lon="7.33506">
        <ele>927.09</ele>
        <time>2014-10-18T12:44:49Z</time>
      </trkpt>
      <trkpt lat="43.93146" lon="7.33508">
        <ele>923.717</ele>
        <time>2014-10-18T12:44:54Z</time>
      </trkpt>
      <trkpt lat="43.93145" lon="7.3352">
        <ele>921.237</ele>
        <time>2014-10-18T12:44:57Z</time>
      </trkpt>
      <trkpt lat="43.93149" lon="7.33529">
        <ele>918.754</ele>
        <time>2014-10-18T12:44:59Z</time>
      </trkpt>
      <trkpt lat="43.93155" lon="7.33537">
        <ele>917.045</ele>
        <time>2014-10-18T12:45:01Z</time>
      </trkpt>
      <trkpt lat="43.93151" lon="7.33549">
        <ele>914.398</ele>
        <time>2014-10-18T12:45:05Z</time>
      </trkpt>
      <trkpt lat="43.93139" lon="7.33554">
        <ele>913.957</ele>
        <time>2014-10-18T12:45:08Z</time>
      </trkpt>
      <trkpt lat="43.93136" lon="7.33553">
        <ele>914.162</ele>
        <time>2014-10-18T12:45:09Z</time>
      </trkpt>
      <trkpt lat="43.9312" lon="7.33537">
        <ele>914.029</ele>
        <time>2014-10-18T12:45:14Z</time>
      </trkpt>
      <trkpt lat="43.93113" lon="7.3352">
        <ele>915.691</ele>
        <time>2014-10-18T12:45:18Z</time>
      </trkpt>
      <trkpt lat="43.93109" lon="7.33515">
        <ele>916.256</ele>
        <time>2014-10-18T12:45:19Z</time>
      </trkpt>
      <trkpt lat="43.93088" lon="7.335">
        <ele>916.493</ele>
        <time>2014-10-18T12:45:23Z</time>
      </trkpt>
      <trkpt lat="43.9307" lon="7.33494">
        <ele>914.26</ele>
        <time>2014-10-18T12:45:26Z</time>
      </trkpt>
      <trkpt lat="43.93052" lon="7.33501">
        <ele>912.621</ele>
        <time>2014-10-18T12:45:30Z</time>
      </trkpt>
      <trkpt lat="43.93045" lon="7.33518">
        <ele>906.952</ele>
        <time>2014-10-18T12:45:33Z</time>
      </trkpt>
      <trkpt lat="43.93041" lon="7.33523">
        <ele>905.028</ele>
        <time>2014-10-18T12:45:34Z</time>
      </trkpt>
      <trkpt lat="43.93031" lon="7.33537">
        <ele>901.967</ele>
        <time>2014-10-18T12:45:37Z</time>
      </trkpt>
      <trkpt lat="43.93016" lon="7.33546">
        <ele>900.187</ele>
        <time>2014-10-18T12:45:40Z</time>
      </trkpt>
      <trkpt lat="43.92992" lon="7.33556">
        <ele>897.603</ele>
        <time>2014-10-18T12:45:45Z</time>
      </trkpt>
      <trkpt lat="43.92984" lon="7.33557">
        <ele>896.789</ele>
        <time>2014-10-18T12:45:47Z</time>
      </trkpt>
      <trkpt lat="43.92977" lon="7.33561">
        <ele>895.21</ele>
        <time>2014-10-18T12:45:49Z</time>
      </trkpt>
      <trkpt lat="43.92965" lon="7.33565">
        <ele>893.057</ele>
        <time>2014-10-18T12:45:52Z</time>
      </trkpt>
      <trkpt lat="43.92937" lon="7.33573">
        <ele>888.347</ele>
        <time>2014-10-18T12:45:58Z</time>
      </trkpt>
      <trkpt lat="43.92912" lon="7.33581">
        <ele>883.537</ele>
        <time>2014-10-18T12:46:04Z</time>
      </trkpt>
      <trkpt lat="43.92902" lon="7.33595">
        <ele>879.17</ele>
        <time>2014-10-18T12:46:08Z</time>
      </trkpt>
      <trkpt lat="43.92905" lon="7.33609">
        <ele>876.229</ele>
        <time>2014-10-18T12:46:11Z</time>
      </trkpt>
      <trkpt lat="43.92915" lon="7.33625">
        <ele>873.94</ele>
        <time>2014-10-18T12:46:15Z</time>
      </trkpt>
      <trkpt lat="43.92919" lon="7.3363">
        <ele>873.333</ele>
        <time>2014-10-18T12:46:17Z</time>
      </trkpt>
      <trkpt lat="43.92938" lon="7.33653">
        <ele>869.614</ele>
        <time>2014-10-18T12:46:23Z</time>
      </trkpt>
      <trkpt lat="43.92942" lon="7.33654">
        <ele>869.137</ele>
        <time>2014-10-18T12:46:24Z</time>
      </trkpt>
      <trkpt lat="43.92967" lon="7.33664">
        <ele>866.728</ele>
        <time>2014-10-18T12:46:30Z</time>
      </trkpt>
      <trkpt lat="43.92982" lon="7.33676">
        <ele>865.201</ele>
        <time>2014-10-18T12:46:34Z</time>
      </trkpt>
      <trkpt lat="43.92981" lon="7.33695">
        <ele>868.548</ele>
        <time>2014-10-18T12:46:39Z</time>
      </trkpt>
      <trkpt lat="43.9298" lon="7.33699">
        <ele>869.57</ele>
        <time>2014-10-18T12:46:40Z</time>
      </trkpt>
      <trkpt lat="43.92972" lon="7.33724">
        <ele>873.737</ele>
        <time>2014-10-18T12:46:48Z</time>
      </trkpt>
      <trkpt lat="43.92974" lon="7.33746">
        <ele>873.263</ele>
        <time>2014-10-18T12:46:54Z</time>
      </trkpt>
      <trkpt lat="43.92982" lon="7.33763">
        <ele>872.782</ele>
        <time>2014-10-18T12:47:00Z</time>
      </trkpt>
      <trkpt lat="43.92991" lon="7.33772">
        <ele>873.162</ele>
        <time>2014-10-18T12:47:04Z</time>
      </trkpt>
      <trkpt lat="43.93" lon="7.33782">
        <ele>874.376</ele>
        <time>2014-10-18T12:47:09Z</time>
      </trkpt>
      <trkpt lat="43.93005" lon="7.33794">
        <ele>876.938</ele>
        <time>2014-10-18T12:47:15Z</time>
      </trkpt>
      <trkpt lat="43.93006" lon="7.33798">
        <ele>878.016</ele>
        <time>2014-10-18T12:47:17Z</time>
      </trkpt>
      <trkpt lat="43.93005" lon="7.33804">
        <ele>877.03</ele>
        <time>2014-10-18T12:47:22Z</time>
      </trkpt>
      <trkpt lat="43.93004" lon="7.33804">
        <ele>881.83</ele>
        <time>2014-10-18T12:47:35Z</time>
      </trkpt>
      <trkpt lat="43.92992" lon="7.33802">
        <ele>883.266</ele>
        <time>2014-10-18T12:47:41Z</time>
      </trkpt>
      <trkpt lat="43.92978" lon="7.33803">
        <ele>884.429</ele>
        <time>2014-10-18T12:47:47Z</time>
      </trkpt>
      <trkpt lat="43.92962" lon="7.33803">
        <ele>886.17</ele>
        <time>2014-10-18T12:47:54Z</time>
      </trkpt>
      <trkpt lat="43.9295" lon="7.33807">
        <ele>886.501</ele>
        <time>2014-10-18T12:47:59Z</time>
      </trkpt>
      <trkpt lat="43.9294" lon="7.33821">
        <ele>885.589</ele>
        <time>2014-10-18T12:48:04Z</time>
      </trkpt>
      <trkpt lat="43.92936" lon="7.33835">
        <ele>885.575</ele>
        <time>2014-10-18T12:48:09Z</time>
      </trkpt>
      <trkpt lat="43.92936" lon="7.33837">
        <ele>885.517</ele>
        <time>2014-10-18T12:48:10Z</time>
      </trkpt>
      <trkpt lat="43.92934" lon="7.3385">
        <ele>883.452</ele>
        <time>2014-10-18T12:48:15Z</time>
      </trkpt>
      <trkpt lat="43.92936" lon="7.33876">
        <ele>883.013</ele>
        <time>2014-10-18T12:48:25Z</time>
      </trkpt>
      <trkpt lat="43.92938" lon="7.33892">
        <ele>885.889</ele>
        <time>2014-10-18T12:48:31Z</time>
      </trkpt>
      <trkpt lat="43.92943" lon="7.33904">
        <ele>886.63</ele>
        <time>2014-10-18T12:48:37Z</time>
      </trkpt>
      <trkpt lat="43.92947" lon="7.3392">
        <ele>885.67</ele>
        <time>2014-10-18T12:48:43Z</time>
      </trkpt>
      <trkpt lat="43.92953" lon="7.33945">
        <ele>886.512</ele>
        <time>2014-10-18T12:48:49Z</time>
      </trkpt>
      <trkpt lat="43.92955" lon="7.33977">
        <ele>890.197</ele>
        <time>2014-10-18T12:48:56Z</time>
      </trkpt>
      <trkpt lat="43.92948" lon="7.3399">
        <ele>893.43</ele>
        <time>2014-10-18T12:49:00Z</time>
      </trkpt>
      <trkpt lat="43.9294" lon="7.33997">
        <ele>894.358</ele>
        <time>2014-10-18T12:49:05Z</time>
      </trkpt>
      <trkpt lat="43.9294" lon="7.34">
        <ele>886.492</ele>
        <time>2014-10-18T12:49:10Z</time>
      </trkpt>
      <trkpt lat="43.92935" lon="7.34003">
        <ele>881.763</ele>
        <time>2014-10-18T12:49:15Z</time>
      </trkpt>
      <trkpt lat="43.92933" lon="7.34004">
        <ele>882.015</ele>
        <time>2014-10-18T12:49:16Z</time>
      </trkpt>
      <trkpt lat="43.92925" lon="7.34009">
        <ele>880.959</ele>
        <time>2014-10-18T12:49:21Z</time>
      </trkpt>
      <trkpt lat="43.9292" lon="7.34015">
        <ele>881.659</ele>
        <time>2014-10-18T12:49:24Z</time>
      </trkpt>
      <trkpt lat="43.92914" lon="7.34035">
        <ele>882.273</ele>
        <time>2014-10-18T12:49:30Z</time>
      </trkpt>
      <trkpt lat="43.92912" lon="7.34038">
        <ele>882.593</ele>
        <time>2014-10-18T12:49:31Z</time>
      </trkpt>
      <trkpt lat="43.92907" lon="7.34057">
        <ele>883.144</ele>
        <time>2014-10-18T12:49:37Z</time>
      </trkpt>
      <trkpt lat="43.92907" lon="7.34064">
        <ele>882.993</ele>
        <time>2014-10-18T12:49:39Z</time>
      </trkpt>
      <trkpt lat="43.92897" lon="7.34082">
        <ele>883.624</ele>
        <time>2014-10-18T12:49:45Z</time>
      </trkpt>
      <trkpt lat="43.92885" lon="7.34094">
        <ele>884.757</ele>
        <time>2014-10-18T12:49:51Z</time>
      </trkpt>
      <trkpt lat="43.92883" lon="7.34097">
        <ele>884.717</ele>
        <time>2014-10-18T12:49:52Z</time>
      </trkpt>
      <trkpt lat="43.92873" lon="7.34107">
        <ele>886.361</ele>
        <time>2014-10-18T12:49:57Z</time>
      </trkpt>
      <trkpt lat="43.92867" lon="7.34123">
        <ele>889.474</ele>
        <time>2014-10-18T12:50:03Z</time>
      </trkpt>
      <trkpt lat="43.9286" lon="7.34139">
        <ele>891.411</ele>
        <time>2014-10-18T12:50:10Z</time>
      </trkpt>
      <trkpt lat="43.92854" lon="7.34155">
        <ele>893.058</ele>
        <time>2014-10-18T12:50:16Z</time>
      </trkpt>
      <trkpt lat="43.92857" lon="7.3418">
        <ele>890.883</ele>
        <time>2014-10-18T12:50:24Z</time>
      </trkpt>
      <trkpt lat="43.92861" lon="7.342">
        <ele>891.595</ele>
        <time>2014-10-18T12:50:31Z</time>
      </trkpt>
      <trkpt lat="43.9286" lon="7.34216">
        <ele>891.687</ele>
        <time>2014-10-18T12:50:37Z</time>
      </trkpt>
      <trkpt lat="43.92859" lon="7.34219">
        <ele>892.497</ele>
        <time>2014-10-18T12:50:38Z</time>
      </trkpt>
      <trkpt lat="43.92851" lon="7.3422">
        <ele>894.338</ele>
        <time>2014-10-18T12:50:42Z</time>
      </trkpt>
      <trkpt lat="43.92839" lon="7.34218">
        <ele>896.096</ele>
        <time>2014-10-18T12:50:47Z</time>
      </trkpt>
      <trkpt lat="43.9283" lon="7.34222">
        <ele>897.692</ele>
        <time>2014-10-18T12:50:52Z</time>
      </trkpt>
      <trkpt lat="43.92823" lon="7.34234">
        <ele>896.625</ele>
        <time>2014-10-18T12:50:58Z</time>
      </trkpt>
      <trkpt lat="43.92823" lon="7.34241">
        <ele>896.233</ele>
        <time>2014-10-18T12:51:01Z</time>
      </trkpt>
      <trkpt lat="43.92818" lon="7.34257">
        <ele>897.097</ele>
        <time>2014-10-18T12:51:08Z</time>
      </trkpt>
      <trkpt lat="43.92809" lon="7.34276">
        <ele>901.265</ele>
        <time>2014-10-18T12:51:15Z</time>
      </trkpt>
      <trkpt lat="43.92797" lon="7.34293">
        <ele>905.095</ele>
        <time>2014-10-18T12:51:22Z</time>
      </trkpt>
      <trkpt lat="43.92789" lon="7.34304">
        <ele>905.512</ele>
        <time>2014-10-18T12:51:27Z</time>
      </trkpt>
      <trkpt lat="43.92774" lon="7.34315">
        <ele>900.745</ele>
        <time>2014-10-18T12:51:32Z</time>
      </trkpt>
      <trkpt lat="43.92767" lon="7.3432">
        <ele>900.531</ele>
        <time>2014-10-18T12:51:36Z</time>
      </trkpt>
      <trkpt lat="43.92764" lon="7.34328">
        <ele>901.184</ele>
        <time>2014-10-18T12:51:39Z</time>
      </trkpt>
      <trkpt lat="43.92761" lon="7.34341">
        <ele>904.406</ele>
        <time>2014-10-18T12:51:45Z</time>
      </trkpt>
      <trkpt lat="43.92756" lon="7.34343">
        <ele>903.719</ele>
        <time>2014-10-18T12:51:52Z</time>
      </trkpt>
      <trkpt lat="43.92755" lon="7.34347">
        <ele>899.61</ele>
        <time>2014-10-18T12:51:57Z</time>
      </trkpt>
      <trkpt lat="43.92755" lon="7.34348">
        <ele>897.452</ele>
        <time>2014-10-18T12:52:07Z</time>
      </trkpt>
      <trkpt lat="43.92753" lon="7.34347">
        <ele>897.995</ele>
        <time>2014-10-18T12:52:13Z</time>
      </trkpt>
      <trkpt lat="43.92751" lon="7.34343">
        <ele>902.372</ele>
        <time>2014-10-18T12:52:20Z</time>
      </trkpt>
      <trkpt lat="43.92749" lon="7.34338">
        <ele>903.714</ele>
        <time>2014-10-18T12:52:29Z</time>
      </trkpt>
      <trkpt lat="43.92748" lon="7.34337">
        <ele>903.714</ele>
        <time>2014-10-18T12:52:30Z</time>
      </trkpt>
      <trkpt lat="43.92747" lon="7.34334">
        <ele>904.006</ele>
        <time>2014-10-18T12:52:32Z</time>
      </trkpt>
      <trkpt lat="43.92746" lon="7.34322">
        <ele>906.727</ele>
        <time>2014-10-18T12:52:39Z</time>
      </trkpt>
      <trkpt lat="43.92747" lon="7.3431">
        <ele>908.125</ele>
        <time>2014-10-18T12:52:46Z</time>
      </trkpt>
      <trkpt lat="43.92752" lon="7.34298">
        <ele>915.592</ele>
        <time>2014-10-18T12:52:52Z</time>
      </trkpt>
      <trkpt lat="43.92753" lon="7.34292">
        <ele>919.242</ele>
        <time>2014-10-18T12:52:55Z</time>
      </trkpt>
      <trkpt lat="43.92755" lon="7.34277">
        <ele>919.275</ele>
        <time>2014-10-18T12:53:01Z</time>
      </trkpt>
      <trkpt lat="43.92753" lon="7.34256">
        <ele>915.732</ele>
        <time>2014-10-18T12:53:09Z</time>
      </trkpt>
      <trkpt lat="43.92752" lon="7.34253">
        <ele>917.187</ele>
        <time>2014-10-18T12:53:11Z</time>
      </trkpt>
      <trkpt lat="43.92752" lon="7.34245">
        <ele>915.972</ele>
        <time>2014-10-18T12:53:18Z</time>
      </trkpt>
      <trkpt lat="43.92754" lon="7.34238">
        <ele>914.813</ele>
        <time>2014-10-18T12:53:24Z</time>
      </trkpt>
      <trkpt lat="43.92755" lon="7.34231">
        <ele>915.966</ele>
        <time>2014-10-18T12:53:30Z</time>
      </trkpt>
      <trkpt lat="43.92754" lon="7.34223">
        <ele>915.025</ele>
        <time>2014-10-18T12:53:37Z</time>
      </trkpt>
      <trkpt lat="43.92755" lon="7.34215">
        <ele>918.044</ele>
        <time>2014-10-18T12:53:44Z</time>
      </trkpt>
      <trkpt lat="43.92752" lon="7.34201">
        <ele>921.672</ele>
        <time>2014-10-18T12:53:52Z</time>
      </trkpt>
      <trkpt lat="43.92751" lon="7.34195">
        <ele>915.86</ele>
        <time>2014-10-18T12:54:00Z</time>
      </trkpt>
      <trkpt lat="43.92749" lon="7.34189">
        <ele>915.641</ele>
        <time>2014-10-18T12:54:03Z</time>
      </trkpt>
      <trkpt lat="43.92744" lon="7.34177">
        <ele>912.694</ele>
        <time>2014-10-18T12:54:09Z</time>
      </trkpt>
      <trkpt lat="43.92741" lon="7.34166">
        <ele>911.828</ele>
        <time>2014-10-18T12:54:15Z</time>
      </trkpt>
      <trkpt lat="43.92736" lon="7.34156">
        <ele>913.703</ele>
        <time>2014-10-18T12:54:19Z</time>
      </trkpt>
      <trkpt lat="43.92736" lon="7.3414">
        <ele>913.361</ele>
        <time>2014-10-18T12:54:26Z</time>
      </trkpt>
      <trkpt lat="43.9274" lon="7.3413">
        <ele>919.728</ele>
        <time>2014-10-18T12:54:31Z</time>
      </trkpt>
      <trkpt lat="43.92741" lon="7.34124">
        <ele>922.569</ele>
        <time>2014-10-18T12:54:34Z</time>
      </trkpt>
      <trkpt lat="43.92734" lon="7.3411">
        <ele>915.954</ele>
        <time>2014-10-18T12:54:40Z</time>
      </trkpt>
      <trkpt lat="43.92732" lon="7.34094">
        <ele>914.605</ele>
        <time>2014-10-18T12:54:46Z</time>
      </trkpt>
      <trkpt lat="43.92729" lon="7.34079">
        <ele>913.401</ele>
        <time>2014-10-18T12:54:52Z</time>
      </trkpt>
      <trkpt lat="43.92725" lon="7.3407">
        <ele>911.158</ele>
        <time>2014-10-18T12:54:55Z</time>
      </trkpt>
      <trkpt lat="43.92722" lon="7.34061">
        <ele>914.003</ele>
        <time>2014-10-18T12:54:59Z</time>
      </trkpt>
      <trkpt lat="43.92717" lon="7.34044">
        <ele>912.766</ele>
        <time>2014-10-18T12:55:05Z</time>
      </trkpt>
      <trkpt lat="43.92719" lon="7.34042">
        <ele>914.318</ele>
        <time>2014-10-18T12:55:06Z</time>
      </trkpt>
      <trkpt lat="43.92717" lon="7.34018">
        <ele>918.3</ele>
        <time>2014-10-18T12:55:15Z</time>
      </trkpt>
      <trkpt lat="43.92716" lon="7.34009">
        <ele>917.98</ele>
        <time>2014-10-18T12:55:18Z</time>
      </trkpt>
      <trkpt lat="43.92713" lon="7.3399">
        <ele>919.477</ele>
        <time>2014-10-18T12:55:25Z</time>
      </trkpt>
      <trkpt lat="43.92705" lon="7.33974">
        <ele>920.208</ele>
        <time>2014-10-18T12:55:31Z</time>
      </trkpt>
      <trkpt lat="43.92703" lon="7.33972">
        <ele>920.659</ele>
        <time>2014-10-18T12:55:32Z</time>
      </trkpt>
      <trkpt lat="43.92691" lon="7.33961">
        <ele>920.136</ele>
        <time>2014-10-18T12:55:38Z</time>
      </trkpt>
      <trkpt lat="43.9268" lon="7.33946">
        <ele>917.697</ele>
        <time>2014-10-18T12:55:45Z</time>
      </trkpt>
      <trkpt lat="43.92668" lon="7.33939">
        <ele>913.389</ele>
        <time>2014-10-18T12:55:51Z</time>
      </trkpt>
      <trkpt lat="43.92658" lon="7.33932">
        <ele>910.578</ele>
        <time>2014-10-18T12:55:56Z</time>
      </trkpt>
      <trkpt lat="43.92655" lon="7.33928">
        <ele>908.523</ele>
        <time>2014-10-18T12:55:59Z</time>
      </trkpt>
      <trkpt lat="43.92648" lon="7.33916">
        <ele>905.99</ele>
        <time>2014-10-18T12:56:04Z</time>
      </trkpt>
      <trkpt lat="43.92647" lon="7.33913">
        <ele>905.713</ele>
        <time>2014-10-18T12:56:05Z</time>
      </trkpt>
      <trkpt lat="43.92638" lon="7.33906">
        <ele>908.172</ele>
        <time>2014-10-18T12:56:10Z</time>
      </trkpt>
      <trkpt lat="43.92631" lon="7.33897">
        <ele>908.941</ele>
        <time>2014-10-18T12:56:15Z</time>
      </trkpt>
      <trkpt lat="43.9262" lon="7.33887">
        <ele>908.64</ele>
        <time>2014-10-18T12:56:20Z</time>
      </trkpt>
      <trkpt lat="43.92608" lon="7.33879">
        <ele>908.062</ele>
        <time>2014-10-18T12:56:25Z</time>
      </trkpt>
      <trkpt lat="43.92596" lon="7.33873">
        <ele>904.543</ele>
        <time>2014-10-18T12:56:31Z</time>
      </trkpt>
      <trkpt lat="43.92585" lon="7.33856">
        <ele>914.468</ele>
        <time>2014-10-18T12:56:38Z</time>
      </trkpt>
      <trkpt lat="43.92584" lon="7.33841">
        <ele>922.39</ele>
        <time>2014-10-18T12:56:42Z</time>
      </trkpt>
      <trkpt lat="43.92582" lon="7.33814">
        <ele>926.666</ele>
        <time>2014-10-18T12:56:49Z</time>
      </trkpt>
      <trkpt lat="43.92581" lon="7.33798">
        <ele>932.05</ele>
        <time>2014-10-18T12:56:55Z</time>
      </trkpt>
      <trkpt lat="43.92578" lon="7.33777">
        <ele>932.107</ele>
        <time>2014-10-18T12:57:02Z</time>
      </trkpt>
      <trkpt lat="43.92578" lon="7.33762">
        <ele>933.815</ele>
        <time>2014-10-18T12:57:08Z</time>
      </trkpt>
      <trkpt lat="43.92568" lon="7.33748">
        <ele>930.822</ele>
        <time>2014-10-18T12:57:14Z</time>
      </trkpt>
      <trkpt lat="43.92559" lon="7.33737">
        <ele>932.111</ele>
        <time>2014-10-18T12:57:20Z</time>
      </trkpt>
      <trkpt lat="43.9255" lon="7.33731">
        <ele>932.488</ele>
        <time>2014-10-18T12:57:25Z</time>
      </trkpt>
      <trkpt lat="43.92535" lon="7.33732">
        <ele>929.717</ele>
        <time>2014-10-18T12:57:31Z</time>
      </trkpt>
      <trkpt lat="43.92521" lon="7.33729">
        <ele>927.547</ele>
        <time>2014-10-18T12:57:36Z</time>
      </trkpt>
      <trkpt lat="43.92511" lon="7.33723">
        <ele>927.279</ele>
        <time>2014-10-18T12:57:42Z</time>
      </trkpt>
      <trkpt lat="43.925" lon="7.33717">
        <ele>928.121</ele>
        <time>2014-10-18T12:57:47Z</time>
      </trkpt>
      <trkpt lat="43.92487" lon="7.33708">
        <ele>930.454</ele>
        <time>2014-10-18T12:57:54Z</time>
      </trkpt>
      <trkpt lat="43.9248" lon="7.33701">
        <ele>931.007</ele>
        <time>2014-10-18T12:57:59Z</time>
      </trkpt>
      <trkpt lat="43.92468" lon="7.33696">
        <ele>931.738</ele>
        <time>2014-10-18T12:58:05Z</time>
      </trkpt>
      <trkpt lat="43.92464" lon="7.33697">
        <ele>931.385</ele>
        <time>2014-10-18T12:58:06Z</time>
      </trkpt>
      <trkpt lat="43.92447" lon="7.33703">
        <ele>930.045</ele>
        <time>2014-10-18T12:58:10Z</time>
      </trkpt>
      <trkpt lat="43.9242" lon="7.3371">
        <ele>928.311</ele>
        <time>2014-10-18T12:58:17Z</time>
      </trkpt>
      <trkpt lat="43.92404" lon="7.33711">
        <ele>929.205</ele>
        <time>2014-10-18T12:58:25Z</time>
      </trkpt>
      <trkpt lat="43.92394" lon="7.33721">
        <ele>928.662</ele>
        <time>2014-10-18T12:58:31Z</time>
      </trkpt>
      <trkpt lat="43.92388" lon="7.33734">
        <ele>929.005</ele>
        <time>2014-10-18T12:58:35Z</time>
      </trkpt>
      <trkpt lat="43.92378" lon="7.33746">
        <ele>930.403</ele>
        <time>2014-10-18T12:58:41Z</time>
      </trkpt>
      <trkpt lat="43.92375" lon="7.33762">
        <ele>929.808</ele>
        <time>2014-10-18T12:58:45Z</time>
      </trkpt>
      <trkpt lat="43.92369" lon="7.3378">
        <ele>927.986</ele>
        <time>2014-10-18T12:58:49Z</time>
      </trkpt>
      <trkpt lat="43.92366" lon="7.33793">
        <ele>927.249</ele>
        <time>2014-10-18T12:58:53Z</time>
      </trkpt>
      <trkpt lat="43.92366" lon="7.33812">
        <ele>926.077</ele>
        <time>2014-10-18T12:58:58Z</time>
      </trkpt>
      <trkpt lat="43.92365" lon="7.33822">
        <ele>925.767</ele>
        <time>2014-10-18T12:59:01Z</time>
      </trkpt>
      <trkpt lat="43.92357" lon="7.3383">
        <ele>925.078</ele>
        <time>2014-10-18T12:59:05Z</time>
      </trkpt>
      <trkpt lat="43.9234" lon="7.3383">
        <ele>926.264</ele>
        <time>2014-10-18T12:59:12Z</time>
      </trkpt>
      <trkpt lat="43.92333" lon="7.33836">
        <ele>926.731</ele>
        <time>2014-10-18T12:59:16Z</time>
      </trkpt>
      <trkpt lat="43.92324" lon="7.33837">
        <ele>928.366</ele>
        <time>2014-10-18T12:59:21Z</time>
      </trkpt>
      <trkpt lat="43.92311" lon="7.33841">
        <ele>930.216</ele>
        <time>2014-10-18T12:59:28Z</time>
      </trkpt>
      <trkpt lat="43.92301" lon="7.33848">
        <ele>931.986</ele>
        <time>2014-10-18T12:59:34Z</time>
      </trkpt>
      <trkpt lat="43.92291" lon="7.33859">
        <ele>934.578</ele>
        <time>2014-10-18T12:59:42Z</time>
      </trkpt>
      <trkpt lat="43.92286" lon="7.33875">
        <ele>935.625</ele>
        <time>2014-10-18T12:59:50Z</time>
      </trkpt>
      <trkpt lat="43.92278" lon="7.33892">
        <ele>935.861</ele>
        <time>2014-10-18T12:59:59Z</time>
      </trkpt>
      <trkpt lat="43.92276" lon="7.33909">
        <ele>938.839</ele>
        <time>2014-10-18T13:00:06Z</time>
      </trkpt>
      <trkpt lat="43.92276" lon="7.33919">
        <ele>939.665</ele>
        <time>2014-10-18T13:00:10Z</time>
      </trkpt>
      <trkpt lat="43.92268" lon="7.33926">
        <ele>939.946</ele>
        <time>2014-10-18T13:00:15Z</time>
      </trkpt>
      <trkpt lat="43.92259" lon="7.33939">
        <ele>939.983</ele>
        <time>2014-10-18T13:00:22Z</time>
      </trkpt>
      <trkpt lat="43.92251" lon="7.3395">
        <ele>939.632</ele>
        <time>2014-10-18T13:00:28Z</time>
      </trkpt>
      <trkpt lat="43.92243" lon="7.33961">
        <ele>937.676</ele>
        <time>2014-10-18T13:00:34Z</time>
      </trkpt>
      <trkpt lat="43.92242" lon="7.33976">
        <ele>935.43</ele>
        <time>2014-10-18T13:00:38Z</time>
      </trkpt>
      <trkpt lat="43.9224" lon="7.33988">
        <ele>932.666</ele>
        <time>2014-10-18T13:00:42Z</time>
      </trkpt>
      <trkpt lat="43.92239" lon="7.34004">
        <ele>929.403</ele>
        <time>2014-10-18T13:00:46Z</time>
      </trkpt>
      <trkpt lat="43.9224" lon="7.34006">
        <ele>930.459</ele>
        <time>2014-10-18T13:00:50Z</time>
      </trkpt>
      <trkpt lat="43.92239" lon="7.34009">
        <ele>930.885</ele>
        <time>2014-10-18T13:00:54Z</time>
      </trkpt>
      <trkpt lat="43.92233" lon="7.3402">
        <ele>928.714</ele>
        <time>2014-10-18T13:01:00Z</time>
      </trkpt>
      <trkpt lat="43.92227" lon="7.34029">
        <ele>926.612</ele>
        <time>2014-10-18T13:01:04Z</time>
      </trkpt>
      <trkpt lat="43.92222" lon="7.34038">
        <ele>924.058</ele>
        <time>2014-10-18T13:01:08Z</time>
      </trkpt>
      <trkpt lat="43.92212" lon="7.34045">
        <ele>921.537</ele>
        <time>2014-10-18T13:01:12Z</time>
      </trkpt>
      <trkpt lat="43.92199" lon="7.34049">
        <ele>922.006</ele>
        <time>2014-10-18T13:01:17Z</time>
      </trkpt>
      <trkpt lat="43.92175" lon="7.34038">
        <ele>926.268</ele>
        <time>2014-10-18T13:01:25Z</time>
      </trkpt>
      <trkpt lat="43.92158" lon="7.34034">
        <ele>923.91</ele>
        <time>2014-10-18T13:01:29Z</time>
      </trkpt>
      <trkpt lat="43.92144" lon="7.34045">
        <ele>922.331</ele>
        <time>2014-10-18T13:01:33Z</time>
      </trkpt>
      <trkpt lat="43.92139" lon="7.34054">
        <ele>921.59</ele>
        <time>2014-10-18T13:01:35Z</time>
      </trkpt>
      <trkpt lat="43.92128" lon="7.34078">
        <ele>919.431</ele>
        <time>2014-10-18T13:01:40Z</time>
      </trkpt>
      <trkpt lat="43.9213" lon="7.34102">
        <ele>917.019</ele>
        <time>2014-10-18T13:01:44Z</time>
      </trkpt>
      <trkpt lat="43.92125" lon="7.3413">
        <ele>913.626</ele>
        <time>2014-10-18T13:01:49Z</time>
      </trkpt>
      <trkpt lat="43.92107" lon="7.34132">
        <ele>913.118</ele>
        <time>2014-10-18T13:01:54Z</time>
      </trkpt>
      <trkpt lat="43.92095" lon="7.3413">
        <ele>911.925</ele>
        <time>2014-10-18T13:01:57Z</time>
      </trkpt>
      <trkpt lat="43.92076" lon="7.34127">
        <ele>911.931</ele>
        <time>2014-10-18T13:02:01Z</time>
      </trkpt>
      <trkpt lat="43.9206" lon="7.34142">
        <ele>908.555</ele>
        <time>2014-10-18T13:02:05Z</time>
      </trkpt>
      <trkpt lat="43.92047" lon="7.34158">
        <ele>905.04</ele>
        <time>2014-10-18T13:02:08Z</time>
      </trkpt>
      <trkpt lat="43.92022" lon="7.34204">
        <ele>900.79</ele>
        <time>2014-10-18T13:02:15Z</time>
      </trkpt>
      <trkpt lat="43.92021" lon="7.34218">
        <ele>897.758</ele>
        <time>2014-10-18T13:02:17Z</time>
      </trkpt>
      <trkpt lat="43.92016" lon="7.3422">
        <ele>902.113</ele>
        <time>2014-10-18T13:02:22Z</time>
      </trkpt>
      <trkpt lat="43.92011" lon="7.3421">
        <ele>918.083</ele>
        <time>2014-10-18T13:02:31Z</time>
      </trkpt>
      <trkpt lat="43.92009" lon="7.34206">
        <ele>922.459</ele>
        <time>2014-10-18T13:03:01Z</time>
      </trkpt>
      <trkpt lat="43.92008" lon="7.34202">
        <ele>920.485</ele>
        <time>2014-10-18T13:03:10Z</time>
      </trkpt>
      <trkpt lat="43.92003" lon="7.34188">
        <ele>915.981</ele>
        <time>2014-10-18T13:03:16Z</time>
      </trkpt>
      <trkpt lat="43.92001" lon="7.34173">
        <ele>916.586</ele>
        <time>2014-10-18T13:03:21Z</time>
      </trkpt>
      <trkpt lat="43.92001" lon="7.34166">
        <ele>916.427</ele>
        <time>2014-10-18T13:03:24Z</time>
      </trkpt>
      <trkpt lat="43.92002" lon="7.34147">
        <ele>922.692</ele>
        <time>2014-10-18T13:03:32Z</time>
      </trkpt>
      <trkpt lat="43.92002" lon="7.34135">
        <ele>924.177</ele>
        <time>2014-10-18T13:03:38Z</time>
      </trkpt>
      <trkpt lat="43.92002" lon="7.34125">
        <ele>925.878</ele>
        <time>2014-10-18T13:03:43Z</time>
      </trkpt>
      <trkpt lat="43.92001" lon="7.34108">
        <ele>924.837</ele>
        <time>2014-10-18T13:03:50Z</time>
      </trkpt>
      <trkpt lat="43.92002" lon="7.34105">
        <ele>925.518</ele>
        <time>2014-10-18T13:03:51Z</time>
      </trkpt>
      <trkpt lat="43.91999" lon="7.34092">
        <ele>925.776</ele>
        <time>2014-10-18T13:03:58Z</time>
      </trkpt>
      <trkpt lat="43.91998" lon="7.34088">
        <ele>923.712</ele>
        <time>2014-10-18T13:04:00Z</time>
      </trkpt>
      <trkpt lat="43.91994" lon="7.34077">
        <ele>922.092</ele>
        <time>2014-10-18T13:04:05Z</time>
      </trkpt>
      <trkpt lat="43.91985" lon="7.34066">
        <ele>921.275</ele>
        <time>2014-10-18T13:04:14Z</time>
      </trkpt>
      <trkpt lat="43.91978" lon="7.34055">
        <ele>925.601</ele>
        <time>2014-10-18T13:04:22Z</time>
      </trkpt>
      <trkpt lat="43.91977" lon="7.34046">
        <ele>930.987</ele>
        <time>2014-10-18T13:04:26Z</time>
      </trkpt>
      <trkpt lat="43.91976" lon="7.34032">
        <ele>933.358</ele>
        <time>2014-10-18T13:04:33Z</time>
      </trkpt>
      <trkpt lat="43.91975" lon="7.34029">
        <ele>934.097</ele>
        <time>2014-10-18T13:04:35Z</time>
      </trkpt>
      <trkpt lat="43.91967" lon="7.34014">
        <ele>935.906</ele>
        <time>2014-10-18T13:04:41Z</time>
      </trkpt>
      <trkpt lat="43.91963" lon="7.34001">
        <ele>936.514</ele>
        <time>2014-10-18T13:04:46Z</time>
      </trkpt>
      <trkpt lat="43.91962" lon="7.33989">
        <ele>937.171</ele>
        <time>2014-10-18T13:04:52Z</time>
      </trkpt>
      <trkpt lat="43.91958" lon="7.33975">
        <ele>936.71</ele>
        <time>2014-10-18T13:04:59Z</time>
      </trkpt>
      <trkpt lat="43.91958" lon="7.33966">
        <ele>936.708</ele>
        <time>2014-10-18T13:05:03Z</time>
      </trkpt>
      <trkpt lat="43.91955" lon="7.33955">
        <ele>935.007</ele>
        <time>2014-10-18T13:05:09Z</time>
      </trkpt>
      <trkpt lat="43.91953" lon="7.33945">
        <ele>934.437</ele>
        <time>2014-10-18T13:05:13Z</time>
      </trkpt>
      <trkpt lat="43.91954" lon="7.33943">
        <ele>935.139</ele>
        <time>2014-10-18T13:05:14Z</time>
      </trkpt>
      <trkpt lat="43.9195" lon="7.33925">
        <ele>934.369</ele>
        <time>2014-10-18T13:05:22Z</time>
      </trkpt>
      <trkpt lat="43.9194" lon="7.33916">
        <ele>932.209</ele>
        <time>2014-10-18T13:05:29Z</time>
      </trkpt>
      <trkpt lat="43.91934" lon="7.33905">
        <ele>936.367</ele>
        <time>2014-10-18T13:05:35Z</time>
      </trkpt>
      <trkpt lat="43.91929" lon="7.33898">
        <ele>937.013</ele>
        <time>2014-10-18T13:05:38Z</time>
      </trkpt>
      <trkpt lat="43.91925" lon="7.33889">
        <ele>938.021</ele>
        <time>2014-10-18T13:05:42Z</time>
      </trkpt>
      <trkpt lat="43.9192" lon="7.33872">
        <ele>937.055</ele>
        <time>2014-10-18T13:05:50Z</time>
      </trkpt>
      <trkpt lat="43.91916" lon="7.3386">
        <ele>938.371</ele>
        <time>2014-10-18T13:05:55Z</time>
      </trkpt>
      <trkpt lat="43.91912" lon="7.33846">
        <ele>938.72</ele>
        <time>2014-10-18T13:06:01Z</time>
      </trkpt>
      <trkpt lat="43.9191" lon="7.33842">
        <ele>937.841</ele>
        <time>2014-10-18T13:06:03Z</time>
      </trkpt>
      <trkpt lat="43.91904" lon="7.33827">
        <ele>936.657</ele>
        <time>2014-10-18T13:06:10Z</time>
      </trkpt>
      <trkpt lat="43.91892" lon="7.33821">
        <ele>936.839</ele>
        <time>2014-10-18T13:06:16Z</time>
      </trkpt>
      <trkpt lat="43.91878" lon="7.33823">
        <ele>936.23</ele>
        <time>2014-10-18T13:06:22Z</time>
      </trkpt>
      <trkpt lat="43.91863" lon="7.33828">
        <ele>935.717</ele>
        <time>2014-10-18T13:06:28Z</time>
      </trkpt>
      <trkpt lat="43.91858" lon="7.33835">
        <ele>935.184</ele>
        <time>2014-10-18T13:06:30Z</time>
      </trkpt>
      <trkpt lat="43.91844" lon="7.33838">
        <ele>934.857</ele>
        <time>2014-10-18T13:06:34Z</time>
      </trkpt>
      <trkpt lat="43.91824" lon="7.33838">
        <ele>934.525</ele>
        <time>2014-10-18T13:06:40Z</time>
      </trkpt>
      <trkpt lat="43.91812" lon="7.33836">
        <ele>934.031</ele>
        <time>2014-10-18T13:06:43Z</time>
      </trkpt>
      <trkpt lat="43.91803" lon="7.33835">
        <ele>933.62</ele>
        <time>2014-10-18T13:06:45Z</time>
      </trkpt>
      <trkpt lat="43.91784" lon="7.33833">
        <ele>933.908</ele>
        <time>2014-10-18T13:06:50Z</time>
      </trkpt>
      <trkpt lat="43.91769" lon="7.33835">
        <ele>933.719</ele>
        <time>2014-10-18T13:06:55Z</time>
      </trkpt>
      <trkpt lat="43.91755" lon="7.33849">
        <ele>933.497</ele>
        <time>2014-10-18T13:07:00Z</time>
      </trkpt>
      <trkpt lat="43.91738" lon="7.33855">
        <ele>932.762</ele>
        <time>2014-10-18T13:07:05Z</time>
      </trkpt>
      <trkpt lat="43.91729" lon="7.33857">
        <ele>931.71</ele>
        <time>2014-10-18T13:07:08Z</time>
      </trkpt>
      <trkpt lat="43.91729" lon="7.33854">
        <ele>932.135</ele>
        <time>2014-10-18T13:07:12Z</time>
      </trkpt>
      <trkpt lat="43.91731" lon="7.33852">
        <ele>931.954</ele>
        <time>2014-10-18T13:07:13Z</time>
      </trkpt>
      <trkpt lat="43.91745" lon="7.33842">
        <ele>931.395</ele>
        <time>2014-10-18T13:07:20Z</time>
      </trkpt>
      <trkpt lat="43.91746" lon="7.33837">
        <ele>930.935</ele>
        <time>2014-10-18T13:07:24Z</time>
      </trkpt>
      <trkpt lat="43.91744" lon="7.33836">
        <ele>927.137</ele>
        <time>2014-10-18T13:08:07Z</time>
      </trkpt>
      <trkpt lat="43.91739" lon="7.33842">
        <ele>929.25</ele>
        <time>2014-10-18T13:08:16Z</time>
      </trkpt>
      <trkpt lat="43.91739" lon="7.33842">
        <ele>929.878</ele>
        <time>2014-10-18T13:08:26Z</time>
      </trkpt>
      <trkpt lat="43.91747" lon="7.33846">
        <ele>940.169</ele>
        <time>2014-10-18T13:09:36Z</time>
      </trkpt>
      <trkpt lat="43.91737" lon="7.33855">
        <ele>939.15</ele>
        <time>2014-10-18T13:09:45Z</time>
      </trkpt>
      <trkpt lat="43.9173" lon="7.3386">
        <ele>940.283</ele>
        <time>2014-10-18T13:09:53Z</time>
      </trkpt>
      <trkpt lat="43.91727" lon="7.33859">
        <ele>940.969</ele>
        <time>2014-10-18T13:10:03Z</time>
      </trkpt>
      <trkpt lat="43.91724" lon="7.3386">
        <ele>940.598</ele>
        <time>2014-10-18T13:10:12Z</time>
      </trkpt>
      <trkpt lat="43.91722" lon="7.33863">
        <ele>941.337</ele>
        <time>2014-10-18T13:10:35Z</time>
      </trkpt>
      <trkpt lat="43.91716" lon="7.33869">
        <ele>937.324</ele>
        <time>2014-10-18T13:10:43Z</time>
      </trkpt>
      <trkpt lat="43.91706" lon="7.33877">
        <ele>937.409</ele>
        <time>2014-10-18T13:10:49Z</time>
      </trkpt>
      <trkpt lat="43.91699" lon="7.33887">
        <ele>937.941</ele>
        <time>2014-10-18T13:10:54Z</time>
      </trkpt>
      <trkpt lat="43.91689" lon="7.33902">
        <ele>939.082</ele>
        <time>2014-10-18T13:11:02Z</time>
      </trkpt>
      <trkpt lat="43.91675" lon="7.3392">
        <ele>940.523</ele>
        <time>2014-10-18T13:11:12Z</time>
      </trkpt>
      <trkpt lat="43.91662" lon="7.33933">
        <ele>941.513</ele>
        <time>2014-10-18T13:11:21Z</time>
      </trkpt>
      <trkpt lat="43.91649" lon="7.33942">
        <ele>942.342</ele>
        <time>2014-10-18T13:11:29Z</time>
      </trkpt>
      <trkpt lat="43.91636" lon="7.33946">
        <ele>941.448</ele>
        <time>2014-10-18T13:11:37Z</time>
      </trkpt>
      <trkpt lat="43.91623" lon="7.33942">
        <ele>942.241</ele>
        <time>2014-10-18T13:11:45Z</time>
      </trkpt>
      <trkpt lat="43.9161" lon="7.33948">
        <ele>945.706</ele>
        <time>2014-10-18T13:11:54Z</time>
      </trkpt>
      <trkpt lat="43.91601" lon="7.33956">
        <ele>949.68</ele>
        <time>2014-10-18T13:12:01Z</time>
      </trkpt>
      <trkpt lat="43.91591" lon="7.33972">
        <ele>951.464</ele>
        <time>2014-10-18T13:12:10Z</time>
      </trkpt>
      <trkpt lat="43.91582" lon="7.33983">
        <ele>952.165</ele>
        <time>2014-10-18T13:12:16Z</time>
      </trkpt>
      <trkpt lat="43.91568" lon="7.33988">
        <ele>950.818</ele>
        <time>2014-10-18T13:12:22Z</time>
      </trkpt>
      <trkpt lat="43.91554" lon="7.33979">
        <ele>952.182</ele>
        <time>2014-10-18T13:12:28Z</time>
      </trkpt>
      <trkpt lat="43.91544" lon="7.33963">
        <ele>954.144</ele>
        <time>2014-10-18T13:12:34Z</time>
      </trkpt>
      <trkpt lat="43.91543" lon="7.33949">
        <ele>954.142</ele>
        <time>2014-10-18T13:12:38Z</time>
      </trkpt>
      <trkpt lat="43.91547" lon="7.33926">
        <ele>959.51</ele>
        <time>2014-10-18T13:12:45Z</time>
      </trkpt>
      <trkpt lat="43.91554" lon="7.33902">
        <ele>963.419</ele>
        <time>2014-10-18T13:12:54Z</time>
      </trkpt>
      <trkpt lat="43.91557" lon="7.33879">
        <ele>961.104</ele>
        <time>2014-10-18T13:13:03Z</time>
      </trkpt>
      <trkpt lat="43.91558" lon="7.33858">
        <ele>960.204</ele>
        <time>2014-10-18T13:13:11Z</time>
      </trkpt>
      <trkpt lat="43.91563" lon="7.33838">
        <ele>962.134</ele>
        <time>2014-10-18T13:13:18Z</time>
      </trkpt>
      <trkpt lat="43.91565" lon="7.3382">
        <ele>963.937</ele>
        <time>2014-10-18T13:13:25Z</time>
      </trkpt>
      <trkpt lat="43.91564" lon="7.33802">
        <ele>964.247</ele>
        <time>2014-10-18T13:13:32Z</time>
      </trkpt>
      <trkpt lat="43.91559" lon="7.3379">
        <ele>962.451</ele>
        <time>2014-10-18T13:13:38Z</time>
      </trkpt>
      <trkpt lat="43.91548" lon="7.33774">
        <ele>961.993</ele>
        <time>2014-10-18T13:13:45Z</time>
      </trkpt>
      <trkpt lat="43.91537" lon="7.33754">
        <ele>961.653</ele>
        <time>2014-10-18T13:13:53Z</time>
      </trkpt>
      <trkpt lat="43.91533" lon="7.33737">
        <ele>966.408</ele>
        <time>2014-10-18T13:14:00Z</time>
      </trkpt>
      <trkpt lat="43.91532" lon="7.33734">
        <ele>967.07</ele>
        <time>2014-10-18T13:14:02Z</time>
      </trkpt>
      <trkpt lat="43.91518" lon="7.3372">
        <ele>964.981</ele>
        <time>2014-10-18T13:14:12Z</time>
      </trkpt>
      <trkpt lat="43.91508" lon="7.33711">
        <ele>964.208</ele>
        <time>2014-10-18T13:14:19Z</time>
      </trkpt>
      <trkpt lat="43.91498" lon="7.33699">
        <ele>963.625</ele>
        <time>2014-10-18T13:14:27Z</time>
      </trkpt>
      <trkpt lat="43.91488" lon="7.33683">
        <ele>969.963</ele>
        <time>2014-10-18T13:14:35Z</time>
      </trkpt>
      <trkpt lat="43.91474" lon="7.33669">
        <ele>974.512</ele>
        <time>2014-10-18T13:14:44Z</time>
      </trkpt>
      <trkpt lat="43.91471" lon="7.33664">
        <ele>975.891</ele>
        <time>2014-10-18T13:14:47Z</time>
      </trkpt>
      <trkpt lat="43.91463" lon="7.33651">
        <ele>980.826</ele>
        <time>2014-10-18T13:14:55Z</time>
      </trkpt>
      <trkpt lat="43.91462" lon="7.33649">
        <ele>981.306</ele>
        <time>2014-10-18T13:14:56Z</time>
      </trkpt>
      <trkpt lat="43.91456" lon="7.33637">
        <ele>983.066</ele>
        <time>2014-10-18T13:15:02Z</time>
      </trkpt>
      <trkpt lat="43.91449" lon="7.33624">
        <ele>979.858</ele>
        <time>2014-10-18T13:15:09Z</time>
      </trkpt>
      <trkpt lat="43.91442" lon="7.3361">
        <ele>982.053</ele>
        <time>2014-10-18T13:15:16Z</time>
      </trkpt>
      <trkpt lat="43.91439" lon="7.33607">
        <ele>980.379</ele>
        <time>2014-10-18T13:15:18Z</time>
      </trkpt>
      <trkpt lat="43.91436" lon="7.33597">
        <ele>982.111</ele>
        <time>2014-10-18T13:15:23Z</time>
      </trkpt>
      <trkpt lat="43.91433" lon="7.33577">
        <ele>986.097</ele>
        <time>2014-10-18T13:15:32Z</time>
      </trkpt>
      <trkpt lat="43.91428" lon="7.33566">
        <ele>988.669</ele>
        <time>2014-10-18T13:15:38Z</time>
      </trkpt>
      <trkpt lat="43.91421" lon="7.33553">
        <ele>986.276</ele>
        <time>2014-10-18T13:15:45Z</time>
      </trkpt>
      <trkpt lat="43.91414" lon="7.33539">
        <ele>990.582</ele>
        <time>2014-10-18T13:15:52Z</time>
      </trkpt>
      <trkpt lat="43.91406" lon="7.33526">
        <ele>992.039</ele>
        <time>2014-10-18T13:15:59Z</time>
      </trkpt>
      <trkpt lat="43.91405" lon="7.33523">
        <ele>991.906</ele>
        <time>2014-10-18T13:16:01Z</time>
      </trkpt>
      <trkpt lat="43.91396" lon="7.33506">
        <ele>995.257</ele>
        <time>2014-10-18T13:16:10Z</time>
      </trkpt>
      <trkpt lat="43.91389" lon="7.33496">
        <ele>993.24</ele>
        <time>2014-10-18T13:16:15Z</time>
      </trkpt>
      <trkpt lat="43.91376" lon="7.33486">
        <ele>989.689</ele>
        <time>2014-10-18T13:16:22Z</time>
      </trkpt>
      <trkpt lat="43.91365" lon="7.3349">
        <ele>989.124</ele>
        <time>2014-10-18T13:16:28Z</time>
      </trkpt>
      <trkpt lat="43.91363" lon="7.33494">
        <ele>988.981</ele>
        <time>2014-10-18T13:16:30Z</time>
      </trkpt>
      <trkpt lat="43.91363" lon="7.33507">
        <ele>985.578</ele>
        <time>2014-10-18T13:16:37Z</time>
      </trkpt>
      <trkpt lat="43.91365" lon="7.33508">
        <ele>986.318</ele>
        <time>2014-10-18T13:16:38Z</time>
      </trkpt>
      <trkpt lat="43.9138" lon="7.33519">
        <ele>989.092</ele>
        <time>2014-10-18T13:16:46Z</time>
      </trkpt>
      <trkpt lat="43.91388" lon="7.33529">
        <ele>991.095</ele>
        <time>2014-10-18T13:16:51Z</time>
      </trkpt>
      <trkpt lat="43.91397" lon="7.33547">
        <ele>992.593</ele>
        <time>2014-10-18T13:16:58Z</time>
      </trkpt>
      <trkpt lat="43.91409" lon="7.33569">
        <ele>995.287</ele>
        <time>2014-10-18T13:17:05Z</time>
      </trkpt>
      <trkpt lat="43.91411" lon="7.33579">
        <ele>992.92</ele>
        <time>2014-10-18T13:17:08Z</time>
      </trkpt>
      <trkpt lat="43.91405" lon="7.3359">
        <ele>991.948</ele>
        <time>2014-10-18T13:17:13Z</time>
      </trkpt>
      <trkpt lat="43.914" lon="7.33587">
        <ele>991.837</ele>
        <time>2014-10-18T13:17:16Z</time>
      </trkpt>
      <trkpt lat="43.91395" lon="7.33572">
        <ele>990.027</ele>
        <time>2014-10-18T13:17:23Z</time>
      </trkpt>
      <trkpt lat="43.91391" lon="7.33561">
        <ele>991.983</ele>
        <time>2014-10-18T13:17:28Z</time>
      </trkpt>
      <trkpt lat="43.91384" lon="7.33551">
        <ele>990.599</ele>
        <time>2014-10-18T13:17:33Z</time>
      </trkpt>
      <trkpt lat="43.91373" lon="7.3354">
        <ele>992.163</ele>
        <time>2014-10-18T13:17:39Z</time>
      </trkpt>
      <trkpt lat="43.91363" lon="7.33531">
        <ele>995.495</ele>
        <time>2014-10-18T13:17:45Z</time>
      </trkpt>
      <trkpt lat="43.91353" lon="7.33525">
        <ele>995.042</ele>
        <time>2014-10-18T13:17:51Z</time>
      </trkpt>
      <trkpt lat="43.91343" lon="7.3352">
        <ele>994.639</ele>
        <time>2014-10-18T13:17:58Z</time>
      </trkpt>
      <trkpt lat="43.91334" lon="7.33501">
        <ele>999.323</ele>
        <time>2014-10-18T13:18:06Z</time>
      </trkpt>
      <trkpt lat="43.91327" lon="7.3349">
        <ele>1003.133</ele>
        <time>2014-10-18T13:18:13Z</time>
      </trkpt>
      <trkpt lat="43.91318" lon="7.33488">
        <ele>1003.03</ele>
        <time>2014-10-18T13:18:19Z</time>
      </trkpt>
      <trkpt lat="43.91308" lon="7.33491">
        <ele>1003.7</ele>
        <time>2014-10-18T13:18:26Z</time>
      </trkpt>
      <trkpt lat="43.91296" lon="7.33495">
        <ele>1005.083</ele>
        <time>2014-10-18T13:18:34Z</time>
      </trkpt>
      <trkpt lat="43.91285" lon="7.33496">
        <ele>1000.972</ele>
        <time>2014-10-18T13:18:41Z</time>
      </trkpt>
      <trkpt lat="43.91276" lon="7.33488">
        <ele>999.319</ele>
        <time>2014-10-18T13:18:47Z</time>
      </trkpt>
      <trkpt lat="43.91275" lon="7.33479">
        <ele>1000.805</ele>
        <time>2014-10-18T13:18:51Z</time>
      </trkpt>
      <trkpt lat="43.91274" lon="7.33462">
        <ele>1006.224</ele>
        <time>2014-10-18T13:18:58Z</time>
      </trkpt>
      <trkpt lat="43.9128" lon="7.33447">
        <ele>1010.427</ele>
        <time>2014-10-18T13:19:05Z</time>
      </trkpt>
      <trkpt lat="43.91281" lon="7.3343">
        <ele>1012.154</ele>
        <time>2014-10-18T13:19:13Z</time>
      </trkpt>
      <trkpt lat="43.91276" lon="7.33412">
        <ele>1010.434</ele>
        <time>2014-10-18T13:19:21Z</time>
      </trkpt>
      <trkpt lat="43.91271" lon="7.33406">
        <ele>1010.692</ele>
        <time>2014-10-18T13:19:24Z</time>
      </trkpt>
      <trkpt lat="43.9126" lon="7.33407">
        <ele>1010.72</ele>
        <time>2014-10-18T13:19:31Z</time>
      </trkpt>
      <trkpt lat="43.9125" lon="7.33419">
        <ele>1014.204</ele>
        <time>2014-10-18T13:19:39Z</time>
      </trkpt>
      <trkpt lat="43.91236" lon="7.33433">
        <ele>1017.712</ele>
        <time>2014-10-18T13:19:50Z</time>
      </trkpt>
      <trkpt lat="43.91226" lon="7.33442">
        <ele>1018.753</ele>
        <time>2014-10-18T13:19:57Z</time>
      </trkpt>
      <trkpt lat="43.91214" lon="7.3345">
        <ele>1019.251</ele>
        <time>2014-10-18T13:20:05Z</time>
      </trkpt>
      <trkpt lat="43.91199" lon="7.3345">
        <ele>1017.967</ele>
        <time>2014-10-18T13:20:13Z</time>
      </trkpt>
      <trkpt lat="43.91183" lon="7.33448">
        <ele>1016.017</ele>
        <time>2014-10-18T13:20:23Z</time>
      </trkpt>
      <trkpt lat="43.91169" lon="7.33446">
        <ele>1017.21</ele>
        <time>2014-10-18T13:20:31Z</time>
      </trkpt>
      <trkpt lat="43.91157" lon="7.33445">
        <ele>1019.08</ele>
        <time>2014-10-18T13:20:39Z</time>
      </trkpt>
      <trkpt lat="43.91143" lon="7.33446">
        <ele>1020.138</ele>
        <time>2014-10-18T13:20:48Z</time>
      </trkpt>
      <trkpt lat="43.9113" lon="7.33449">
        <ele>1018.916</ele>
        <time>2014-10-18T13:20:56Z</time>
      </trkpt>
      <trkpt lat="43.9112" lon="7.33448">
        <ele>1016.34</ele>
        <time>2014-10-18T13:21:02Z</time>
      </trkpt>
      <trkpt lat="43.91115" lon="7.33442">
        <ele>1016.813</ele>
        <time>2014-10-18T13:21:06Z</time>
      </trkpt>
      <trkpt lat="43.91108" lon="7.33423">
        <ele>1019.963</ele>
        <time>2014-10-18T13:21:13Z</time>
      </trkpt>
      <trkpt lat="43.91112" lon="7.33405">
        <ele>1024.988</ele>
        <time>2014-10-18T13:21:21Z</time>
      </trkpt>
      <trkpt lat="43.91121" lon="7.33389">
        <ele>1029.581</ele>
        <time>2014-10-18T13:21:29Z</time>
      </trkpt>
      <trkpt lat="43.91128" lon="7.33373">
        <ele>1032.466</ele>
        <time>2014-10-18T13:21:37Z</time>
      </trkpt>
      <trkpt lat="43.9113" lon="7.33361">
        <ele>1034.068</ele>
        <time>2014-10-18T13:21:42Z</time>
      </trkpt>
      <trkpt lat="43.91128" lon="7.33343">
        <ele>1039.275</ele>
        <time>2014-10-18T13:21:50Z</time>
      </trkpt>
      <trkpt lat="43.91128" lon="7.33332">
        <ele>1045.262</ele>
        <time>2014-10-18T13:21:55Z</time>
      </trkpt>
      <trkpt lat="43.91129" lon="7.33324">
        <ele>1048.563</ele>
        <time>2014-10-18T13:21:59Z</time>
      </trkpt>
      <trkpt lat="43.91123" lon="7.33307">
        <ele>1042.865</ele>
        <time>2014-10-18T13:22:06Z</time>
      </trkpt>
      <trkpt lat="43.91114" lon="7.33292">
        <ele>1042.234</ele>
        <time>2014-10-18T13:22:13Z</time>
      </trkpt>
      <trkpt lat="43.91104" lon="7.33287">
        <ele>1041.985</ele>
        <time>2014-10-18T13:22:19Z</time>
      </trkpt>
      <trkpt lat="43.91092" lon="7.33284">
        <ele>1041.182</ele>
        <time>2014-10-18T13:22:28Z</time>
      </trkpt>
      <trkpt lat="43.9108" lon="7.33281">
        <ele>1035.211</ele>
        <time>2014-10-18T13:22:35Z</time>
      </trkpt>
      <trkpt lat="43.91071" lon="7.33283">
        <ele>1038.249</ele>
        <time>2014-10-18T13:22:42Z</time>
      </trkpt>
      <trkpt lat="43.91061" lon="7.33292">
        <ele>1039.502</ele>
        <time>2014-10-18T13:22:49Z</time>
      </trkpt>
      <trkpt lat="43.91052" lon="7.33301">
        <ele>1043.644</ele>
        <time>2014-10-18T13:22:56Z</time>
      </trkpt>
      <trkpt lat="43.91043" lon="7.33306">
        <ele>1045.466</ele>
        <time>2014-10-18T13:23:02Z</time>
      </trkpt>
      <trkpt lat="43.91033" lon="7.3332">
        <ele>1045.941</ele>
        <time>2014-10-18T13:23:10Z</time>
      </trkpt>
      <trkpt lat="43.91029" lon="7.33338">
        <ele>1047.052</ele>
        <time>2014-10-18T13:23:18Z</time>
      </trkpt>
      <trkpt lat="43.91025" lon="7.33359">
        <ele>1046.821</ele>
        <time>2014-10-18T13:23:27Z</time>
      </trkpt>
      <trkpt lat="43.91016" lon="7.33376">
        <ele>1048.273</ele>
        <time>2014-10-18T13:23:36Z</time>
      </trkpt>
      <trkpt lat="43.91003" lon="7.33379">
        <ele>1046.818</ele>
        <time>2014-10-18T13:23:44Z</time>
      </trkpt>
      <trkpt lat="43.9099" lon="7.3338">
        <ele>1047.686</ele>
        <time>2014-10-18T13:23:52Z</time>
      </trkpt>
      <trkpt lat="43.90977" lon="7.33381">
        <ele>1047.767</ele>
        <time>2014-10-18T13:24:00Z</time>
      </trkpt>
      <trkpt lat="43.9096" lon="7.33381">
        <ele>1049.689</ele>
        <time>2014-10-18T13:24:09Z</time>
      </trkpt>
      <trkpt lat="43.90945" lon="7.33382">
        <ele>1048.565</ele>
        <time>2014-10-18T13:24:17Z</time>
      </trkpt>
      <trkpt lat="43.90927" lon="7.3338">
        <ele>1047.196</ele>
        <time>2014-10-18T13:24:27Z</time>
      </trkpt>
      <trkpt lat="43.90914" lon="7.33384">
        <ele>1045.243</ele>
        <time>2014-10-18T13:24:35Z</time>
      </trkpt>
      <trkpt lat="43.90903" lon="7.33398">
        <ele>1049.002</ele>
        <time>2014-10-18T13:24:43Z</time>
      </trkpt>
      <trkpt lat="43.90893" lon="7.33404">
        <ele>1049.6</ele>
        <time>2014-10-18T13:24:49Z</time>
      </trkpt>
      <trkpt lat="43.9088" lon="7.33404">
        <ele>1051.941</ele>
        <time>2014-10-18T13:24:56Z</time>
      </trkpt>
      <trkpt lat="43.90869" lon="7.33397">
        <ele>1053.32</ele>
        <time>2014-10-18T13:25:02Z</time>
      </trkpt>
      <trkpt lat="43.90852" lon="7.33402">
        <ele>1053.808</ele>
        <time>2014-10-18T13:25:10Z</time>
      </trkpt>
      <trkpt lat="43.90838" lon="7.33402">
        <ele>1054.99</ele>
        <time>2014-10-18T13:25:17Z</time>
      </trkpt>
      <trkpt lat="43.90832" lon="7.3339">
        <ele>1057.513</ele>
        <time>2014-10-18T13:25:23Z</time>
      </trkpt>
      <trkpt lat="43.90828" lon="7.33375">
        <ele>1060.865</ele>
        <time>2014-10-18T13:25:30Z</time>
      </trkpt>
      <trkpt lat="43.90819" lon="7.33363">
        <ele>1063.023</ele>
        <time>2014-10-18T13:25:36Z</time>
      </trkpt>
      <trkpt lat="43.90803" lon="7.33351">
        <ele>1067.495</ele>
        <time>2014-10-18T13:25:45Z</time>
      </trkpt>
      <trkpt lat="43.90788" lon="7.33342">
        <ele>1069.581</ele>
        <time>2014-10-18T13:25:53Z</time>
      </trkpt>
      <trkpt lat="43.90777" lon="7.33345">
        <ele>1067.735</ele>
        <time>2014-10-18T13:25:58Z</time>
      </trkpt>
      <trkpt lat="43.90769" lon="7.33354">
        <ele>1066.713</ele>
        <time>2014-10-18T13:26:03Z</time>
      </trkpt>
      <trkpt lat="43.90763" lon="7.33355">
        <ele>1065.782</ele>
        <time>2014-10-18T13:26:06Z</time>
      </trkpt>
      <trkpt lat="43.90757" lon="7.33347">
        <ele>1064.844</ele>
        <time>2014-10-18T13:26:11Z</time>
      </trkpt>
      <trkpt lat="43.90756" lon="7.33342">
        <ele>1064.896</ele>
        <time>2014-10-18T13:26:13Z</time>
      </trkpt>
      <trkpt lat="43.90757" lon="7.33324">
        <ele>1066.241</ele>
        <time>2014-10-18T13:26:21Z</time>
      </trkpt>
      <trkpt lat="43.90758" lon="7.3331">
        <ele>1067.671</ele>
        <time>2014-10-18T13:26:28Z</time>
      </trkpt>
      <trkpt lat="43.90759" lon="7.33304">
        <ele>1068.258</ele>
        <time>2014-10-18T13:26:33Z</time>
      </trkpt>
      <trkpt lat="43.90755" lon="7.33314">
        <ele>1078.615</ele>
        <time>2014-10-18T13:32:28Z</time>
      </trkpt>
      <trkpt lat="43.90759" lon="7.3331">
        <ele>1078.896</ele>
        <time>2014-10-18T13:32:34Z</time>
      </trkpt>
      <trkpt lat="43.9076" lon="7.33303">
        <ele>1073.261</ele>
        <time>2014-10-18T13:32:41Z</time>
      </trkpt>
      <trkpt lat="43.90761" lon="7.33302">
        <ele>1068.724</ele>
        <time>2014-10-18T13:33:15Z</time>
      </trkpt>
      <trkpt lat="43.90762" lon="7.33295">
        <ele>1068.644</ele>
        <time>2014-10-18T13:33:22Z</time>
      </trkpt>
      <trkpt lat="43.90762" lon="7.33297">
        <ele>1074.971</ele>
        <time>2014-10-18T13:34:00Z</time>
      </trkpt>
      <trkpt lat="43.90769" lon="7.33291">
        <ele>1071.831</ele>
        <time>2014-10-18T13:34:07Z</time>
      </trkpt>
      <trkpt lat="43.9078" lon="7.33287">
        <ele>1072.155</ele>
        <time>2014-10-18T13:34:13Z</time>
      </trkpt>
      <trkpt lat="43.90794" lon="7.33281">
        <ele>1073.448</ele>
        <time>2014-10-18T13:34:18Z</time>
      </trkpt>
      <trkpt lat="43.90809" lon="7.33268">
        <ele>1073.617</ele>
        <time>2014-10-18T13:34:24Z</time>
      </trkpt>
      <trkpt lat="43.90826" lon="7.33254">
        <ele>1072.724</ele>
        <time>2014-10-18T13:34:30Z</time>
      </trkpt>
      <trkpt lat="43.90847" lon="7.33242">
        <ele>1078.104</ele>
        <time>2014-10-18T13:34:37Z</time>
      </trkpt>
      <trkpt lat="43.90859" lon="7.33236">
        <ele>1081.397</ele>
        <time>2014-10-18T13:34:42Z</time>
      </trkpt>
      <trkpt lat="43.90877" lon="7.33225">
        <ele>1078.57</ele>
        <time>2014-10-18T13:34:49Z</time>
      </trkpt>
      <trkpt lat="43.90893" lon="7.33207">
        <ele>1075.24</ele>
        <time>2014-10-18T13:34:57Z</time>
      </trkpt>
      <trkpt lat="43.909" lon="7.33187">
        <ele>1077.312</ele>
        <time>2014-10-18T13:35:04Z</time>
      </trkpt>
      <trkpt lat="43.90908" lon="7.33164">
        <ele>1079.048</ele>
        <time>2014-10-18T13:35:13Z</time>
      </trkpt>
      <trkpt lat="43.90921" lon="7.33153">
        <ele>1079.952</ele>
        <time>2014-10-18T13:35:21Z</time>
      </trkpt>
      <trkpt lat="43.90929" lon="7.33139">
        <ele>1078.406</ele>
        <time>2014-10-18T13:35:27Z</time>
      </trkpt>
      <trkpt lat="43.90939" lon="7.33124">
        <ele>1085.32</ele>
        <time>2014-10-18T13:35:35Z</time>
      </trkpt>
      <trkpt lat="43.90946" lon="7.33111">
        <ele>1087.477</ele>
        <time>2014-10-18T13:35:42Z</time>
      </trkpt>
      <trkpt lat="43.90954" lon="7.33091">
        <ele>1088.637</ele>
        <time>2014-10-18T13:35:51Z</time>
      </trkpt>
      <trkpt lat="43.90964" lon="7.3308">
        <ele>1085.163</ele>
        <time>2014-10-18T13:35:58Z</time>
      </trkpt>
      <trkpt lat="43.90976" lon="7.33078">
        <ele>1086.257</ele>
        <time>2014-10-18T13:36:06Z</time>
      </trkpt>
      <trkpt lat="43.90988" lon="7.33079">
        <ele>1083.118</ele>
        <time>2014-10-18T13:36:14Z</time>
      </trkpt>
      <trkpt lat="43.91001" lon="7.33074">
        <ele>1084.35</ele>
        <time>2014-10-18T13:36:22Z</time>
      </trkpt>
      <trkpt lat="43.91006" lon="7.33072">
        <ele>1085.169</ele>
        <time>2014-10-18T13:36:25Z</time>
      </trkpt>
      <trkpt lat="43.91015" lon="7.33063">
        <ele>1085.941</ele>
        <time>2014-10-18T13:36:32Z</time>
      </trkpt>
      <trkpt lat="43.91027" lon="7.33053">
        <ele>1087.693</ele>
        <time>2014-10-18T13:36:41Z</time>
      </trkpt>
      <trkpt lat="43.91038" lon="7.33047">
        <ele>1093.169</ele>
        <time>2014-10-18T13:36:48Z</time>
      </trkpt>
      <trkpt lat="43.91053" lon="7.3304">
        <ele>1098.599</ele>
        <time>2014-10-18T13:36:57Z</time>
      </trkpt>
      <trkpt lat="43.91067" lon="7.33036">
        <ele>1101.927</ele>
        <time>2014-10-18T13:37:06Z</time>
      </trkpt>
      <trkpt lat="43.91081" lon="7.33032">
        <ele>1104.538</ele>
        <time>2014-10-18T13:37:15Z</time>
      </trkpt>
      <trkpt lat="43.91095" lon="7.33028">
        <ele>1108.459</ele>
        <time>2014-10-18T13:37:24Z</time>
      </trkpt>
      <trkpt lat="43.91098" lon="7.33029">
        <ele>1108.376</ele>
        <time>2014-10-18T13:37:26Z</time>
      </trkpt>
      <trkpt lat="43.91105" lon="7.33027">
        <ele>1107.734</ele>
        <time>2014-10-18T13:37:30Z</time>
      </trkpt>
      <trkpt lat="43.91118" lon="7.33017">
        <ele>1107.119</ele>
        <time>2014-10-18T13:37:39Z</time>
      </trkpt>
      <trkpt lat="43.91125" lon="7.33006">
        <ele>1107.398</ele>
        <time>2014-10-18T13:37:46Z</time>
      </trkpt>
      <trkpt lat="43.91133" lon="7.3299">
        <ele>1107.33</ele>
        <time>2014-10-18T13:37:55Z</time>
      </trkpt>
      <trkpt lat="43.91142" lon="7.32971">
        <ele>1110.353</ele>
        <time>2014-10-18T13:38:04Z</time>
      </trkpt>
      <trkpt lat="43.91149" lon="7.32957">
        <ele>1109.517</ele>
        <time>2014-10-18T13:38:10Z</time>
      </trkpt>
      <trkpt lat="43.91158" lon="7.32941">
        <ele>1107.356</ele>
        <time>2014-10-18T13:38:17Z</time>
      </trkpt>
      <trkpt lat="43.9117" lon="7.32921">
        <ele>1109.237</ele>
        <time>2014-10-18T13:38:25Z</time>
      </trkpt>
      <trkpt lat="43.91185" lon="7.32906">
        <ele>1110.417</ele>
        <time>2014-10-18T13:38:32Z</time>
      </trkpt>
      <trkpt lat="43.912" lon="7.32897">
        <ele>1113.844</ele>
        <time>2014-10-18T13:38:38Z</time>
      </trkpt>
      <trkpt lat="43.9122" lon="7.32886">
        <ele>1114.193</ele>
        <time>2014-10-18T13:38:44Z</time>
      </trkpt>
      <trkpt lat="43.91236" lon="7.32878">
        <ele>1113.449</ele>
        <time>2014-10-18T13:38:48Z</time>
      </trkpt>
      <trkpt lat="43.91252" lon="7.32863">
        <ele>1111.144</ele>
        <time>2014-10-18T13:38:52Z</time>
      </trkpt>
      <trkpt lat="43.91262" lon="7.32845">
        <ele>1108.038</ele>
        <time>2014-10-18T13:38:55Z</time>
      </trkpt>
      <trkpt lat="43.9128" lon="7.32827">
        <ele>1106.304</ele>
        <time>2014-10-18T13:38:59Z</time>
      </trkpt>
      <trkpt lat="43.91304" lon="7.32815">
        <ele>1106.269</ele>
        <time>2014-10-18T13:39:03Z</time>
      </trkpt>
      <trkpt lat="43.91326" lon="7.32794">
        <ele>1108.004</ele>
        <time>2014-10-18T13:39:08Z</time>
      </trkpt>
      <trkpt lat="43.9133" lon="7.3279">
        <ele>1107.533</ele>
        <time>2014-10-18T13:39:09Z</time>
      </trkpt>
      <trkpt lat="43.91361" lon="7.32765">
        <ele>1108.468</ele>
        <time>2014-10-18T13:39:16Z</time>
      </trkpt>
      <trkpt lat="43.91382" lon="7.32753">
        <ele>1111.885</ele>
        <time>2014-10-18T13:39:22Z</time>
      </trkpt>
      <trkpt lat="43.91399" lon="7.32743">
        <ele>1112.951</ele>
        <time>2014-10-18T13:39:29Z</time>
      </trkpt>
      <trkpt lat="43.9141" lon="7.32735">
        <ele>1112.95</ele>
        <time>2014-10-18T13:39:35Z</time>
      </trkpt>
      <trkpt lat="43.91426" lon="7.32727">
        <ele>1113.821</ele>
        <time>2014-10-18T13:39:42Z</time>
      </trkpt>
      <trkpt lat="43.91445" lon="7.32717">
        <ele>1114.17</ele>
        <time>2014-10-18T13:39:50Z</time>
      </trkpt>
      <trkpt lat="43.91463" lon="7.32705">
        <ele>1115.319</ele>
        <time>2014-10-18T13:39:57Z</time>
      </trkpt>
      <trkpt lat="43.91471" lon="7.32686">
        <ele>1115.839</ele>
        <time>2014-10-18T13:40:03Z</time>
      </trkpt>
      <trkpt lat="43.91472" lon="7.32658">
        <ele>1116.075</ele>
        <time>2014-10-18T13:40:10Z</time>
      </trkpt>
      <trkpt lat="43.91474" lon="7.32634">
        <ele>1115.776</ele>
        <time>2014-10-18T13:40:16Z</time>
      </trkpt>
      <trkpt lat="43.91472" lon="7.32615">
        <ele>1114.596</ele>
        <time>2014-10-18T13:40:21Z</time>
      </trkpt>
      <trkpt lat="43.91466" lon="7.32593">
        <ele>1113.676</ele>
        <time>2014-10-18T13:40:26Z</time>
      </trkpt>
      <trkpt lat="43.91463" lon="7.32562">
        <ele>1113.709</ele>
        <time>2014-10-18T13:40:34Z</time>
      </trkpt>
      <trkpt lat="43.91458" lon="7.32538">
        <ele>1112.522</ele>
        <time>2014-10-18T13:40:40Z</time>
      </trkpt>
      <trkpt lat="43.91446" lon="7.32517">
        <ele>1110.889</ele>
        <time>2014-10-18T13:40:46Z</time>
      </trkpt>
      <trkpt lat="43.91447" lon="7.32492">
        <ele>1110.126</ele>
        <time>2014-10-18T13:40:50Z</time>
      </trkpt>
      <trkpt lat="43.91442" lon="7.32468">
        <ele>1108.612</ele>
        <time>2014-10-18T13:40:54Z</time>
      </trkpt>
      <trkpt lat="43.91439" lon="7.32451">
        <ele>1107.741</ele>
        <time>2014-10-18T13:40:57Z</time>
      </trkpt>
      <trkpt lat="43.9144" lon="7.32445">
        <ele>1108.083</ele>
        <time>2014-10-18T13:40:58Z</time>
      </trkpt>
      <trkpt lat="43.91443" lon="7.32406">
        <ele>1107.266</ele>
        <time>2014-10-18T13:41:03Z</time>
      </trkpt>
      <trkpt lat="43.91444" lon="7.32383">
        <ele>1108.084</ele>
        <time>2014-10-18T13:41:07Z</time>
      </trkpt>
      <trkpt lat="43.91444" lon="7.32349">
        <ele>1111.646</ele>
        <time>2014-10-18T13:41:14Z</time>
      </trkpt>
      <trkpt lat="43.91444" lon="7.32329">
        <ele>1112.949</ele>
        <time>2014-10-18T13:41:20Z</time>
      </trkpt>
      <trkpt lat="43.91446" lon="7.32322">
        <ele>1112.184</ele>
        <time>2014-10-18T13:41:26Z</time>
      </trkpt>
      <trkpt lat="43.91447" lon="7.32321">
        <ele>1111.372</ele>
        <time>2014-10-18T13:41:32Z</time>
      </trkpt>
      <trkpt lat="43.91445" lon="7.32324">
        <ele>1106.84</ele>
        <time>2014-10-18T13:43:26Z</time>
      </trkpt>
      <trkpt lat="43.91445" lon="7.32321">
        <ele>1106.353</ele>
        <time>2014-10-18T13:43:40Z</time>
      </trkpt>
      <trkpt lat="43.91443" lon="7.32321">
        <ele>1103.976</ele>
        <time>2014-10-18T13:47:43Z</time>
      </trkpt>
      <trkpt lat="43.91449" lon="7.32314">
        <ele>1103.477</ele>
        <time>2014-10-18T13:47:48Z</time>
      </trkpt>
      <trkpt lat="43.91464" lon="7.32297">
        <ele>1101.613</ele>
        <time>2014-10-18T13:47:53Z</time>
      </trkpt>
      <trkpt lat="43.91473" lon="7.32287">
        <ele>1099.91</ele>
        <time>2014-10-18T13:47:57Z</time>
      </trkpt>
      <trkpt lat="43.91488" lon="7.32274">
        <ele>1095.632</ele>
        <time>2014-10-18T13:48:02Z</time>
      </trkpt>
      <trkpt lat="43.91498" lon="7.32261">
        <ele>1094.425</ele>
        <time>2014-10-18T13:48:07Z</time>
      </trkpt>
      <trkpt lat="43.91509" lon="7.32248">
        <ele>1093.477</ele>
        <time>2014-10-18T13:48:12Z</time>
      </trkpt>
      <trkpt lat="43.91518" lon="7.32234">
        <ele>1092.254</ele>
        <time>2014-10-18T13:48:17Z</time>
      </trkpt>
      <trkpt lat="43.91529" lon="7.32214">
        <ele>1089.651</ele>
        <time>2014-10-18T13:48:22Z</time>
      </trkpt>
      <trkpt lat="43.91541" lon="7.32186">
        <ele>1086.641</ele>
        <time>2014-10-18T13:48:28Z</time>
      </trkpt>
      <trkpt lat="43.91547" lon="7.32167">
        <ele>1086.43</ele>
        <time>2014-10-18T13:48:33Z</time>
      </trkpt>
      <trkpt lat="43.91556" lon="7.32157">
        <ele>1086.744</ele>
        <time>2014-10-18T13:48:37Z</time>
      </trkpt>
      <trkpt lat="43.91562" lon="7.32151">
        <ele>1087.152</ele>
        <time>2014-10-18T13:48:41Z</time>
      </trkpt>
      <trkpt lat="43.91576" lon="7.32148">
        <ele>1087.249</ele>
        <time>2014-10-18T13:48:45Z</time>
      </trkpt>
      <trkpt lat="43.91603" lon="7.3213">
        <ele>1084.997</ele>
        <time>2014-10-18T13:48:51Z</time>
      </trkpt>
      <trkpt lat="43.91613" lon="7.32122">
        <ele>1083.266</ele>
        <time>2014-10-18T13:48:53Z</time>
      </trkpt>
      <trkpt lat="43.9163" lon="7.32104">
        <ele>1081.282</ele>
        <time>2014-10-18T13:48:57Z</time>
      </trkpt>
      <trkpt lat="43.91643" lon="7.32095">
        <ele>1078.784</ele>
        <time>2014-10-18T13:49:00Z</time>
      </trkpt>
      <trkpt lat="43.91661" lon="7.32081">
        <ele>1075.712</ele>
        <time>2014-10-18T13:49:04Z</time>
      </trkpt>
      <trkpt lat="43.91674" lon="7.32072">
        <ele>1074.181</ele>
        <time>2014-10-18T13:49:08Z</time>
      </trkpt>
      <trkpt lat="43.9168" lon="7.32062">
        <ele>1073.556</ele>
        <time>2014-10-18T13:49:11Z</time>
      </trkpt>
      <trkpt lat="43.91695" lon="7.32051">
        <ele>1071.814</ele>
        <time>2014-10-18T13:49:16Z</time>
      </trkpt>
      <trkpt lat="43.91699" lon="7.32049">
        <ele>1071.071</ele>
        <time>2014-10-18T13:49:17Z</time>
      </trkpt>
      <trkpt lat="43.91709" lon="7.32042">
        <ele>1069.56</ele>
        <time>2014-10-18T13:49:20Z</time>
      </trkpt>
      <trkpt lat="43.91721" lon="7.32041">
        <ele>1067.65</ele>
        <time>2014-10-18T13:49:24Z</time>
      </trkpt>
      <trkpt lat="43.91728" lon="7.32033">
        <ele>1066.464</ele>
        <time>2014-10-18T13:49:28Z</time>
      </trkpt>
      <trkpt lat="43.91728" lon="7.32033">
        <ele>1066.295</ele>
        <time>2014-10-18T13:49:29Z</time>
      </trkpt>
      <trkpt lat="43.9173" lon="7.32036">
        <ele>1065.863</ele>
        <time>2014-10-18T13:49:36Z</time>
      </trkpt>
      <trkpt lat="43.91729" lon="7.32037">
        <ele>1066.704</ele>
        <time>2014-10-18T13:49:54Z</time>
      </trkpt>
      <trkpt lat="43.91735" lon="7.32041">
        <ele>1065.557</ele>
        <time>2014-10-18T13:49:58Z</time>
      </trkpt>
      <trkpt lat="43.91745" lon="7.32044">
        <ele>1065.047</ele>
        <time>2014-10-18T13:50:01Z</time>
      </trkpt>
      <trkpt lat="43.91753" lon="7.32044">
        <ele>1063.719</ele>
        <time>2014-10-18T13:50:03Z</time>
      </trkpt>
      <trkpt lat="43.91767" lon="7.3204">
        <ele>1061.608</ele>
        <time>2014-10-18T13:50:06Z</time>
      </trkpt>
      <trkpt lat="43.91779" lon="7.32033">
        <ele>1057.938</ele>
        <time>2014-10-18T13:50:10Z</time>
      </trkpt>
      <trkpt lat="43.91782" lon="7.32032">
        <ele>1057.166</ele>
        <time>2014-10-18T13:50:11Z</time>
      </trkpt>
      <trkpt lat="43.91804" lon="7.32025">
        <ele>1049.777</ele>
        <time>2014-10-18T13:50:16Z</time>
      </trkpt>
      <trkpt lat="43.91817" lon="7.32022">
        <ele>1046.375</ele>
        <time>2014-10-18T13:50:19Z</time>
      </trkpt>
      <trkpt lat="43.91829" lon="7.32022">
        <ele>1043.62</ele>
        <time>2014-10-18T13:50:22Z</time>
      </trkpt>
      <trkpt lat="43.91846" lon="7.32018">
        <ele>1039.656</ele>
        <time>2014-10-18T13:50:26Z</time>
      </trkpt>
      <trkpt lat="43.91855" lon="7.3202">
        <ele>1037.444</ele>
        <time>2014-10-18T13:50:28Z</time>
      </trkpt>
      <trkpt lat="43.91868" lon="7.32025">
        <ele>1033.568</ele>
        <time>2014-10-18T13:50:32Z</time>
      </trkpt>
      <trkpt lat="43.91879" lon="7.32022">
        <ele>1028.511</ele>
        <time>2014-10-18T13:50:36Z</time>
      </trkpt>
      <trkpt lat="43.91894" lon="7.32011">
        <ele>1023.35</ele>
        <time>2014-10-18T13:50:41Z</time>
      </trkpt>
      <trkpt lat="43.919" lon="7.32008">
        <ele>1022.257</ele>
        <time>2014-10-18T13:50:44Z</time>
      </trkpt>
      <trkpt lat="43.919" lon="7.32009">
        <ele>1022.881</ele>
        <time>2014-10-18T13:50:51Z</time>
      </trkpt>
      <trkpt lat="43.91907" lon="7.32015">
        <ele>1022.614</ele>
        <time>2014-10-18T13:50:56Z</time>
      </trkpt>
      <trkpt lat="43.91919" lon="7.32014">
        <ele>1019.703</ele>
        <time>2014-10-18T13:51:00Z</time>
      </trkpt>
      <trkpt lat="43.91929" lon="7.32004">
        <ele>1018.032</ele>
        <time>2014-10-18T13:51:05Z</time>
      </trkpt>
      <trkpt lat="43.91942" lon="7.31997">
        <ele>1017.294</ele>
        <time>2014-10-18T13:51:09Z</time>
      </trkpt>
      <trkpt lat="43.9196" lon="7.31991">
        <ele>1016.122</ele>
        <time>2014-10-18T13:51:14Z</time>
      </trkpt>
      <trkpt lat="43.91971" lon="7.31981">
        <ele>1013.403</ele>
        <time>2014-10-18T13:51:18Z</time>
      </trkpt>
      <trkpt lat="43.91975" lon="7.31978">
        <ele>1012.771</ele>
        <time>2014-10-18T13:51:19Z</time>
      </trkpt>
      <trkpt lat="43.91993" lon="7.31972">
        <ele>1010.646</ele>
        <time>2014-10-18T13:51:24Z</time>
      </trkpt>
      <trkpt lat="43.91997" lon="7.31969">
        <ele>1010.648</ele>
        <time>2014-10-18T13:51:25Z</time>
      </trkpt>
      <trkpt lat="43.92005" lon="7.31962">
        <ele>1009.419</ele>
        <time>2014-10-18T13:51:28Z</time>
      </trkpt>
      <trkpt lat="43.92014" lon="7.31953">
        <ele>1009.375</ele>
        <time>2014-10-18T13:51:32Z</time>
      </trkpt>
      <trkpt lat="43.92027" lon="7.31934">
        <ele>1008.785</ele>
        <time>2014-10-18T13:51:37Z</time>
      </trkpt>
      <trkpt lat="43.92039" lon="7.31923">
        <ele>1004.147</ele>
        <time>2014-10-18T13:51:42Z</time>
      </trkpt>
      <trkpt lat="43.92054" lon="7.31898">
        <ele>999.788</ele>
        <time>2014-10-18T13:51:50Z</time>
      </trkpt>
      <trkpt lat="43.92064" lon="7.31878">
        <ele>1000.916</ele>
        <time>2014-10-18T13:51:55Z</time>
      </trkpt>
      <trkpt lat="43.9207" lon="7.31859">
        <ele>1000.155</ele>
        <time>2014-10-18T13:51:59Z</time>
      </trkpt>
      <trkpt lat="43.92071" lon="7.31846">
        <ele>998.723</ele>
        <time>2014-10-18T13:52:03Z</time>
      </trkpt>
      <trkpt lat="43.92072" lon="7.31843">
        <ele>998.362</ele>
        <time>2014-10-18T13:52:09Z</time>
      </trkpt>
      <trkpt lat="43.92074" lon="7.31835">
        <ele>999.978</ele>
        <time>2014-10-18T13:52:14Z</time>
      </trkpt>
      <trkpt lat="43.92076" lon="7.31815">
        <ele>998.794</ele>
        <time>2014-10-18T13:52:18Z</time>
      </trkpt>
      <trkpt lat="43.92077" lon="7.31804">
        <ele>998.371</ele>
        <time>2014-10-18T13:52:20Z</time>
      </trkpt>
      <trkpt lat="43.92071" lon="7.31787">
        <ele>995.457</ele>
        <time>2014-10-18T13:52:24Z</time>
      </trkpt>
      <trkpt lat="43.9207" lon="7.3177">
        <ele>996.103</ele>
        <time>2014-10-18T13:52:30Z</time>
      </trkpt>
      <trkpt lat="43.92071" lon="7.31769">
        <ele>995.652</ele>
        <time>2014-10-18T13:52:31Z</time>
      </trkpt>
      <trkpt lat="43.92085" lon="7.31771">
        <ele>998.32</ele>
        <time>2014-10-18T13:52:36Z</time>
      </trkpt>
      <trkpt lat="43.92092" lon="7.31768">
        <ele>996.999</ele>
        <time>2014-10-18T13:52:40Z</time>
      </trkpt>
      <trkpt lat="43.92098" lon="7.31761">
        <ele>996.518</ele>
        <time>2014-10-18T13:52:44Z</time>
      </trkpt>
      <trkpt lat="43.9211" lon="7.31753">
        <ele>996.026</ele>
        <time>2014-10-18T13:52:49Z</time>
      </trkpt>
      <trkpt lat="43.92115" lon="7.31748">
        <ele>996.577</ele>
        <time>2014-10-18T13:52:51Z</time>
      </trkpt>
      <trkpt lat="43.92133" lon="7.31735">
        <ele>995.846</ele>
        <time>2014-10-18T13:52:58Z</time>
      </trkpt>
      <trkpt lat="43.92138" lon="7.31732">
        <ele>996.637</ele>
        <time>2014-10-18T13:53:00Z</time>
      </trkpt>
      <trkpt lat="43.92151" lon="7.31728">
        <ele>998.337</ele>
        <time>2014-10-18T13:53:05Z</time>
      </trkpt>
      <trkpt lat="43.92159" lon="7.31728">
        <ele>998.538</ele>
        <time>2014-10-18T13:53:08Z</time>
      </trkpt>
      <trkpt lat="43.9216" lon="7.31722">
        <ele>1002.537</ele>
        <time>2014-10-18T13:53:12Z</time>
      </trkpt>
      <trkpt lat="43.92164" lon="7.31716">
        <ele>1003.927</ele>
        <time>2014-10-18T13:53:16Z</time>
      </trkpt>
      <trkpt lat="43.92172" lon="7.31694">
        <ele>1004.115</ele>
        <time>2014-10-18T13:53:24Z</time>
      </trkpt>
      <trkpt lat="43.92174" lon="7.31679">
        <ele>1004.106</ele>
        <time>2014-10-18T13:53:28Z</time>
      </trkpt>
      <trkpt lat="43.9218" lon="7.31654">
        <ele>1003.23</ele>
        <time>2014-10-18T13:53:34Z</time>
      </trkpt>
      <trkpt lat="43.92183" lon="7.31636">
        <ele>1000.805</ele>
        <time>2014-10-18T13:53:39Z</time>
      </trkpt>
      <trkpt lat="43.92186" lon="7.31613">
        <ele>999.745</ele>
        <time>2014-10-18T13:53:45Z</time>
      </trkpt>
      <trkpt lat="43.9219" lon="7.31598">
        <ele>1000.641</ele>
        <time>2014-10-18T13:53:50Z</time>
      </trkpt>
      <trkpt lat="43.92191" lon="7.31594">
        <ele>1000.522</ele>
        <time>2014-10-18T13:53:51Z</time>
      </trkpt>
      <trkpt lat="43.92188" lon="7.3158">
        <ele>1002.264</ele>
        <time>2014-10-18T13:53:55Z</time>
      </trkpt>
      <trkpt lat="43.92191" lon="7.31569">
        <ele>1002.703</ele>
        <time>2014-10-18T13:53:59Z</time>
      </trkpt>
      <trkpt lat="43.92192" lon="7.31564">
        <ele>999.615</ele>
        <time>2014-10-18T13:54:02Z</time>
      </trkpt>
      <trkpt lat="43.92197" lon="7.31548">
        <ele>997.725</ele>
        <time>2014-10-18T13:54:08Z</time>
      </trkpt>
      <trkpt lat="43.92202" lon="7.31537">
        <ele>1000.452</ele>
        <time>2014-10-18T13:54:14Z</time>
      </trkpt>
      <trkpt lat="43.92206" lon="7.3153">
        <ele>1004.437</ele>
        <time>2014-10-18T13:54:18Z</time>
      </trkpt>
      <trkpt lat="43.92215" lon="7.31506">
        <ele>1004.638</ele>
        <time>2014-10-18T13:54:26Z</time>
      </trkpt>
      <trkpt lat="43.92221" lon="7.31486">
        <ele>1007.146</ele>
        <time>2014-10-18T13:54:33Z</time>
      </trkpt>
      <trkpt lat="43.92225" lon="7.31471">
        <ele>1004.939</ele>
        <time>2014-10-18T13:54:38Z</time>
      </trkpt>
      <trkpt lat="43.9223" lon="7.31453">
        <ele>1002.949</ele>
        <time>2014-10-18T13:54:44Z</time>
      </trkpt>
      <trkpt lat="43.92232" lon="7.31442">
        <ele>1003.044</ele>
        <time>2014-10-18T13:54:49Z</time>
      </trkpt>
      <trkpt lat="43.92237" lon="7.31425">
        <ele>1005.466</ele>
        <time>2014-10-18T13:54:55Z</time>
      </trkpt>
      <trkpt lat="43.92238" lon="7.3142">
        <ele>1006.951</ele>
        <time>2014-10-18T13:54:57Z</time>
      </trkpt>
      <trkpt lat="43.92239" lon="7.31404">
        <ele>1011.581</ele>
        <time>2014-10-18T13:55:04Z</time>
      </trkpt>
      <trkpt lat="43.92241" lon="7.31389">
        <ele>1015.242</ele>
        <time>2014-10-18T13:55:11Z</time>
      </trkpt>
      <trkpt lat="43.92241" lon="7.31372">
        <ele>1018.425</ele>
        <time>2014-10-18T13:55:18Z</time>
      </trkpt>
      <trkpt lat="43.92243" lon="7.31354">
        <ele>1019.521</ele>
        <time>2014-10-18T13:55:24Z</time>
      </trkpt>
      <trkpt lat="43.92244" lon="7.31335">
        <ele>1018.191</ele>
        <time>2014-10-18T13:55:28Z</time>
      </trkpt>
      <trkpt lat="43.92245" lon="7.31329">
        <ele>1016.406</ele>
        <time>2014-10-18T13:55:30Z</time>
      </trkpt>
      <trkpt lat="43.92249" lon="7.31314">
        <ele>1009.919</ele>
        <time>2014-10-18T13:55:35Z</time>
      </trkpt>
      <trkpt lat="43.92251" lon="7.31303">
        <ele>1009.502</ele>
        <time>2014-10-18T13:55:37Z</time>
      </trkpt>
      <trkpt lat="43.92255" lon="7.31277">
        <ele>1010.1</ele>
        <time>2014-10-18T13:55:43Z</time>
      </trkpt>
      <trkpt lat="43.92256" lon="7.31274">
        <ele>1011.853</ele>
        <time>2014-10-18T13:55:44Z</time>
      </trkpt>
      <trkpt lat="43.92256" lon="7.31249">
        <ele>1010.785</ele>
        <time>2014-10-18T13:55:51Z</time>
      </trkpt>
      <trkpt lat="43.92255" lon="7.31243">
        <ele>1011.085</ele>
        <time>2014-10-18T13:55:52Z</time>
      </trkpt>
      <trkpt lat="43.9225" lon="7.31216">
        <ele>1000.094</ele>
        <time>2014-10-18T13:55:57Z</time>
      </trkpt>
      <trkpt lat="43.92245" lon="7.31199">
        <ele>996.656</ele>
        <time>2014-10-18T13:56:01Z</time>
      </trkpt>
      <trkpt lat="43.92243" lon="7.31188">
        <ele>989.908</ele>
        <time>2014-10-18T13:56:08Z</time>
      </trkpt>
      <trkpt lat="43.92242" lon="7.31183">
        <ele>987.292</ele>
        <time>2014-10-18T13:56:11Z</time>
      </trkpt>
      <trkpt lat="43.92242" lon="7.31173">
        <ele>984.374</ele>
        <time>2014-10-18T13:56:16Z</time>
      </trkpt>
      <trkpt lat="43.92253" lon="7.31148">
        <ele>987.534</ele>
        <time>2014-10-18T13:56:22Z</time>
      </trkpt>
      <trkpt lat="43.92264" lon="7.31127">
        <ele>988.122</ele>
        <time>2014-10-18T13:56:27Z</time>
      </trkpt>
      <trkpt lat="43.92268" lon="7.3111">
        <ele>985.544</ele>
        <time>2014-10-18T13:56:31Z</time>
      </trkpt>
      <trkpt lat="43.92267" lon="7.31093">
        <ele>981.451</ele>
        <time>2014-10-18T13:56:35Z</time>
      </trkpt>
      <trkpt lat="43.92262" lon="7.31071">
        <ele>977.413</ele>
        <time>2014-10-18T13:56:39Z</time>
      </trkpt>
      <trkpt lat="43.92259" lon="7.31051">
        <ele>975.644</ele>
        <time>2014-10-18T13:56:43Z</time>
      </trkpt>
      <trkpt lat="43.9226" lon="7.31046">
        <ele>973.615</ele>
        <time>2014-10-18T13:56:46Z</time>
      </trkpt>
      <trkpt lat="43.92261" lon="7.3104">
        <ele>975.974</ele>
        <time>2014-10-18T13:56:51Z</time>
      </trkpt>
      <trkpt lat="43.92263" lon="7.31022">
        <ele>975.494</ele>
        <time>2014-10-18T13:56:56Z</time>
      </trkpt>
      <trkpt lat="43.92261" lon="7.31006">
        <ele>972.069</ele>
        <time>2014-10-18T13:57:00Z</time>
      </trkpt>
      <trkpt lat="43.92259" lon="7.30982">
        <ele>967.029</ele>
        <time>2014-10-18T13:57:06Z</time>
      </trkpt>
      <trkpt lat="43.92256" lon="7.30966">
        <ele>964.788</ele>
        <time>2014-10-18T13:57:11Z</time>
      </trkpt>
      <trkpt lat="43.9225" lon="7.30955">
        <ele>964.421</ele>
        <time>2014-10-18T13:57:16Z</time>
      </trkpt>
      <trkpt lat="43.92251" lon="7.30948">
        <ele>967.618</ele>
        <time>2014-10-18T13:57:22Z</time>
      </trkpt>
      <trkpt lat="43.92257" lon="7.30951">
        <ele>979.261</ele>
        <time>2014-10-18T13:57:29Z</time>
      </trkpt>
      <trkpt lat="43.92259" lon="7.30952">
        <ele>983.354</ele>
        <time>2014-10-18T13:57:31Z</time>
      </trkpt>
      <trkpt lat="43.92265" lon="7.30948">
        <ele>980.389</ele>
        <time>2014-10-18T13:57:35Z</time>
      </trkpt>
      <trkpt lat="43.9227" lon="7.30943">
        <ele>983.315</ele>
        <time>2014-10-18T13:57:41Z</time>
      </trkpt>
      <trkpt lat="43.92272" lon="7.30945">
        <ele>984.682</ele>
        <time>2014-10-18T13:57:45Z</time>
      </trkpt>
      <trkpt lat="43.92275" lon="7.30951">
        <ele>981.332</ele>
        <time>2014-10-18T13:57:52Z</time>
      </trkpt>
      <trkpt lat="43.92284" lon="7.30959">
        <ele>977.129</ele>
        <time>2014-10-18T13:57:57Z</time>
      </trkpt>
      <trkpt lat="43.92291" lon="7.30964">
        <ele>974.807</ele>
        <time>2014-10-18T13:58:02Z</time>
      </trkpt>
      <trkpt lat="43.92294" lon="7.30966">
        <ele>975.34</ele>
        <time>2014-10-18T13:58:04Z</time>
      </trkpt>
      <trkpt lat="43.92305" lon="7.30969">
        <ele>971.387</ele>
        <time>2014-10-18T13:58:10Z</time>
      </trkpt>
      <trkpt lat="43.92307" lon="7.30969">
        <ele>969.127</ele>
        <time>2014-10-18T13:58:15Z</time>
      </trkpt>
      <trkpt lat="43.92309" lon="7.30971">
        <ele>962.673</ele>
        <time>2014-10-18T13:58:44Z</time>
      </trkpt>
      <trkpt lat="43.9231" lon="7.30974">
        <ele>965.069</ele>
        <time>2014-10-18T14:00:55Z</time>
      </trkpt>
      <trkpt lat="43.92316" lon="7.30975">
        <ele>970.163</ele>
        <time>2014-10-18T14:01:00Z</time>
      </trkpt>
      <trkpt lat="43.9232" lon="7.30976">
        <ele>971.854</ele>
        <time>2014-10-18T14:01:04Z</time>
      </trkpt>
      <trkpt lat="43.9233" lon="7.30979">
        <ele>974.038</ele>
        <time>2014-10-18T14:01:10Z</time>
      </trkpt>
      <trkpt lat="43.92341" lon="7.30978">
        <ele>978.319</ele>
        <time>2014-10-18T14:01:15Z</time>
      </trkpt>
      <trkpt lat="43.9235" lon="7.3098">
        <ele>974.39</ele>
        <time>2014-10-18T14:01:21Z</time>
      </trkpt>
      <trkpt lat="43.92355" lon="7.30982">
        <ele>973.91</ele>
        <time>2014-10-18T14:01:23Z</time>
      </trkpt>
      <trkpt lat="43.92364" lon="7.30991">
        <ele>971.174</ele>
        <time>2014-10-18T14:01:28Z</time>
      </trkpt>
      <trkpt lat="43.92363" lon="7.30993">
        <ele>965.479</ele>
        <time>2014-10-18T14:01:34Z</time>
      </trkpt>
      <trkpt lat="43.92368" lon="7.30999">
        <ele>970.056</ele>
        <time>2014-10-18T14:01:45Z</time>
      </trkpt>
      <trkpt lat="43.92368" lon="7.30995">
        <ele>963.648</ele>
        <time>2014-10-18T14:01:57Z</time>
      </trkpt>
      <trkpt lat="43.92371" lon="7.30997">
        <ele>963.499</ele>
        <time>2014-10-18T14:02:00Z</time>
      </trkpt>
      <trkpt lat="43.92377" lon="7.31">
        <ele>963.539</ele>
        <time>2014-10-18T14:02:04Z</time>
      </trkpt>
      <trkpt lat="43.92384" lon="7.31004">
        <ele>960.693</ele>
        <time>2014-10-18T14:02:08Z</time>
      </trkpt>
      <trkpt lat="43.92388" lon="7.3101">
        <ele>958.021</ele>
        <time>2014-10-18T14:02:13Z</time>
      </trkpt>
      <trkpt lat="43.9239" lon="7.31015">
        <ele>956.611</ele>
        <time>2014-10-18T14:02:15Z</time>
      </trkpt>
      <trkpt lat="43.92402" lon="7.31022">
        <ele>951.144</ele>
        <time>2014-10-18T14:02:20Z</time>
      </trkpt>
      <trkpt lat="43.92411" lon="7.31027">
        <ele>946.758</ele>
        <time>2014-10-18T14:02:24Z</time>
      </trkpt>
      <trkpt lat="43.92423" lon="7.31025">
        <ele>934.79</ele>
        <time>2014-10-18T14:02:30Z</time>
      </trkpt>
      <trkpt lat="43.9244" lon="7.31028">
        <ele>922.794</ele>
        <time>2014-10-18T14:02:37Z</time>
      </trkpt>
      <trkpt lat="43.92452" lon="7.3103">
        <ele>913.449</ele>
        <time>2014-10-18T14:02:42Z</time>
      </trkpt>
      <trkpt lat="43.92462" lon="7.31029">
        <ele>907.564</ele>
        <time>2014-10-18T14:02:46Z</time>
      </trkpt>
      <trkpt lat="43.92483" lon="7.31029">
        <ele>895.559</ele>
        <time>2014-10-18T14:02:52Z</time>
      </trkpt>
      <trkpt lat="43.92493" lon="7.31023">
        <ele>890.561</ele>
        <time>2014-10-18T14:02:55Z</time>
      </trkpt>
      <trkpt lat="43.92506" lon="7.31023">
        <ele>887.396</ele>
        <time>2014-10-18T14:02:59Z</time>
      </trkpt>
      <trkpt lat="43.92529" lon="7.31018">
        <ele>878.148</ele>
        <time>2014-10-18T14:03:06Z</time>
      </trkpt>
      <trkpt lat="43.92541" lon="7.31019">
        <ele>872.909</ele>
        <time>2014-10-18T14:03:10Z</time>
      </trkpt>
      <trkpt lat="43.92544" lon="7.31019">
        <ele>871.057</ele>
        <time>2014-10-18T14:03:11Z</time>
      </trkpt>
      <trkpt lat="43.92563" lon="7.31021">
        <ele>865.065</ele>
        <time>2014-10-18T14:03:16Z</time>
      </trkpt>
      <trkpt lat="43.92578" lon="7.31008">
        <ele>859.472</ele>
        <time>2014-10-18T14:03:20Z</time>
      </trkpt>
      <trkpt lat="43.926" lon="7.30997">
        <ele>852.581</ele>
        <time>2014-10-18T14:03:25Z</time>
      </trkpt>
      <trkpt lat="43.92613" lon="7.30997">
        <ele>848.974</ele>
        <time>2014-10-18T14:03:28Z</time>
      </trkpt>
      <trkpt lat="43.92633" lon="7.31">
        <ele>851.704</ele>
        <time>2014-10-18T14:03:33Z</time>
      </trkpt>
      <trkpt lat="43.92647" lon="7.31002">
        <ele>851.607</ele>
        <time>2014-10-18T14:03:37Z</time>
      </trkpt>
      <trkpt lat="43.92649" lon="7.31002">
        <ele>850.457</ele>
        <time>2014-10-18T14:03:38Z</time>
      </trkpt>
      <trkpt lat="43.92667" lon="7.31005">
        <ele>857.404</ele>
        <time>2014-10-18T14:03:46Z</time>
      </trkpt>
      <trkpt lat="43.9268" lon="7.31005">
        <ele>867.148</ele>
        <time>2014-10-18T14:03:58Z</time>
      </trkpt>
      <trkpt lat="43.92694" lon="7.31005">
        <ele>865.497</ele>
        <time>2014-10-18T14:04:03Z</time>
      </trkpt>
      <trkpt lat="43.9272" lon="7.31005">
        <ele>864.863</ele>
        <time>2014-10-18T14:04:09Z</time>
      </trkpt>
      <trkpt lat="43.92725" lon="7.31006">
        <ele>864.361</ele>
        <time>2014-10-18T14:04:10Z</time>
      </trkpt>
      <trkpt lat="43.9274" lon="7.31013">
        <ele>868.079</ele>
        <time>2014-10-18T14:04:14Z</time>
      </trkpt>
      <trkpt lat="43.92767" lon="7.31017">
        <ele>865.732</ele>
        <time>2014-10-18T14:04:20Z</time>
      </trkpt>
      <trkpt lat="43.92777" lon="7.31021">
        <ele>865.531</ele>
        <time>2014-10-18T14:04:22Z</time>
      </trkpt>
      <trkpt lat="43.928" lon="7.31022">
        <ele>864.271</ele>
        <time>2014-10-18T14:04:27Z</time>
      </trkpt>
      <trkpt lat="43.92807" lon="7.31019">
        <ele>861.925</ele>
        <time>2014-10-18T14:04:29Z</time>
      </trkpt>
      <trkpt lat="43.92832" lon="7.31021">
        <ele>859.947</ele>
        <time>2014-10-18T14:04:34Z</time>
      </trkpt>
      <trkpt lat="43.92838" lon="7.31023">
        <ele>859.567</ele>
        <time>2014-10-18T14:04:35Z</time>
      </trkpt>
      <trkpt lat="43.92855" lon="7.31032">
        <ele>858.783</ele>
        <time>2014-10-18T14:04:39Z</time>
      </trkpt>
      <trkpt lat="43.92874" lon="7.31038">
        <ele>856.732</ele>
        <time>2014-10-18T14:04:44Z</time>
      </trkpt>
      <trkpt lat="43.92884" lon="7.31047">
        <ele>855.058</ele>
        <time>2014-10-18T14:04:47Z</time>
      </trkpt>
      <trkpt lat="43.92904" lon="7.31056">
        <ele>854</ele>
        <time>2014-10-18T14:04:51Z</time>
      </trkpt>
      <trkpt lat="43.92923" lon="7.31065">
        <ele>851.134</ele>
        <time>2014-10-18T14:04:55Z</time>
      </trkpt>
      <trkpt lat="43.92937" lon="7.31079">
        <ele>846.713</ele>
        <time>2014-10-18T14:05:00Z</time>
      </trkpt>
      <trkpt lat="43.92938" lon="7.31081">
        <ele>844.78</ele>
        <time>2014-10-18T14:05:04Z</time>
      </trkpt>
      <trkpt lat="43.92944" lon="7.31078">
        <ele>832.155</ele>
        <time>2014-10-18T14:06:07Z</time>
      </trkpt>
      <trkpt lat="43.92952" lon="7.31088">
        <ele>831.448</ele>
        <time>2014-10-18T14:06:13Z</time>
      </trkpt>
      <trkpt lat="43.92956" lon="7.31088">
        <ele>834.096</ele>
        <time>2014-10-18T14:06:20Z</time>
      </trkpt>
      <trkpt lat="43.92956" lon="7.31089">
        <ele>834.535</ele>
        <time>2014-10-18T14:06:21Z</time>
      </trkpt>
      <trkpt lat="43.92963" lon="7.31091">
        <ele>834.95</ele>
        <time>2014-10-18T14:06:25Z</time>
      </trkpt>
      <trkpt lat="43.92973" lon="7.31093">
        <ele>835.362</ele>
        <time>2014-10-18T14:06:28Z</time>
      </trkpt>
      <trkpt lat="43.9298" lon="7.31105">
        <ele>833.735</ele>
        <time>2014-10-18T14:06:33Z</time>
      </trkpt>
      <trkpt lat="43.92983" lon="7.31113">
        <ele>832.583</ele>
        <time>2014-10-18T14:06:36Z</time>
      </trkpt>
      <trkpt lat="43.92985" lon="7.31113">
        <ele>832.567</ele>
        <time>2014-10-18T14:06:37Z</time>
      </trkpt>
      <trkpt lat="43.92996" lon="7.31109">
        <ele>831.435</ele>
        <time>2014-10-18T14:06:40Z</time>
      </trkpt>
      <trkpt lat="43.93022" lon="7.31094">
        <ele>829.422</ele>
        <time>2014-10-18T14:06:47Z</time>
      </trkpt>
      <trkpt lat="43.93045" lon="7.31085">
        <ele>828.592</ele>
        <time>2014-10-18T14:06:53Z</time>
      </trkpt>
      <trkpt lat="43.93052" lon="7.31082">
        <ele>828.35</ele>
        <time>2014-10-18T14:06:55Z</time>
      </trkpt>
      <trkpt lat="43.93066" lon="7.31082">
        <ele>826.974</ele>
        <time>2014-10-18T14:06:58Z</time>
      </trkpt>
      <trkpt lat="43.9308" lon="7.31086">
        <ele>823.919</ele>
        <time>2014-10-18T14:07:02Z</time>
      </trkpt>
      <trkpt lat="43.93097" lon="7.31092">
        <ele>819.802</ele>
        <time>2014-10-18T14:07:07Z</time>
      </trkpt>
      <trkpt lat="43.93107" lon="7.3109">
        <ele>817.872</ele>
        <time>2014-10-18T14:07:10Z</time>
      </trkpt>
      <trkpt lat="43.9313" lon="7.31085">
        <ele>814.274</ele>
        <time>2014-10-18T14:07:15Z</time>
      </trkpt>
      <trkpt lat="43.93144" lon="7.31089">
        <ele>812.133</ele>
        <time>2014-10-18T14:07:18Z</time>
      </trkpt>
      <trkpt lat="43.93149" lon="7.31089">
        <ele>811.847</ele>
        <time>2014-10-18T14:07:19Z</time>
      </trkpt>
      <trkpt lat="43.93167" lon="7.31089">
        <ele>810.236</ele>
        <time>2014-10-18T14:07:24Z</time>
      </trkpt>
      <trkpt lat="43.93177" lon="7.31092">
        <ele>808.308</ele>
        <time>2014-10-18T14:07:29Z</time>
      </trkpt>
      <trkpt lat="43.93185" lon="7.31095">
        <ele>807.225</ele>
        <time>2014-10-18T14:07:34Z</time>
      </trkpt>
      <trkpt lat="43.93198" lon="7.31104">
        <ele>804.939</ele>
        <time>2014-10-18T14:07:40Z</time>
      </trkpt>
      <trkpt lat="43.93203" lon="7.31107">
        <ele>805.083</ele>
        <time>2014-10-18T14:07:42Z</time>
      </trkpt>
      <trkpt lat="43.93212" lon="7.31104">
        <ele>804.764</ele>
        <time>2014-10-18T14:07:48Z</time>
      </trkpt>
      <trkpt lat="43.93213" lon="7.31104">
        <ele>805.285</ele>
        <time>2014-10-18T14:07:50Z</time>
      </trkpt>
      <trkpt lat="43.93218" lon="7.31105">
        <ele>804.692</ele>
        <time>2014-10-18T14:07:54Z</time>
      </trkpt>
      <trkpt lat="43.93228" lon="7.31101">
        <ele>802.849</ele>
        <time>2014-10-18T14:08:00Z</time>
      </trkpt>
      <trkpt lat="43.93235" lon="7.31096">
        <ele>802.318</ele>
        <time>2014-10-18T14:08:03Z</time>
      </trkpt>
      <trkpt lat="43.93244" lon="7.31098">
        <ele>800.345</ele>
        <time>2014-10-18T14:08:08Z</time>
      </trkpt>
      <trkpt lat="43.9325" lon="7.311">
        <ele>796.027</ele>
        <time>2014-10-18T14:08:36Z</time>
      </trkpt>
      <trkpt lat="43.93255" lon="7.31101">
        <ele>795.661</ele>
        <time>2014-10-18T14:08:42Z</time>
      </trkpt>
      <trkpt lat="43.93256" lon="7.31101">
        <ele>795.569</ele>
        <time>2014-10-18T14:08:43Z</time>
      </trkpt>
      <trkpt lat="43.93253" lon="7.3111">
        <ele>794.558</ele>
        <time>2014-10-18T14:08:47Z</time>
      </trkpt>
      <trkpt lat="43.93251" lon="7.31112">
        <ele>794.238</ele>
        <time>2014-10-18T14:08:48Z</time>
      </trkpt>
      <trkpt lat="43.93256" lon="7.31114">
        <ele>793.34</ele>
        <time>2014-10-18T14:08:52Z</time>
      </trkpt>
      <trkpt lat="43.93269" lon="7.31108">
        <ele>791.756</ele>
        <time>2014-10-18T14:08:58Z</time>
      </trkpt>
      <trkpt lat="43.93276" lon="7.31109">
        <ele>789.891</ele>
        <time>2014-10-18T14:09:01Z</time>
      </trkpt>
      <trkpt lat="43.93292" lon="7.31099">
        <ele>787.773</ele>
        <time>2014-10-18T14:09:06Z</time>
      </trkpt>
      <trkpt lat="43.93318" lon="7.31078">
        <ele>783.204</ele>
        <time>2014-10-18T14:09:11Z</time>
      </trkpt>
      <trkpt lat="43.93331" lon="7.31057">
        <ele>780.975</ele>
        <time>2014-10-18T14:09:14Z</time>
      </trkpt>
      <trkpt lat="43.93342" lon="7.31051">
        <ele>779.809</ele>
        <time>2014-10-18T14:09:16Z</time>
      </trkpt>
      <trkpt lat="43.9336" lon="7.31043">
        <ele>779.46</ele>
        <time>2014-10-18T14:09:21Z</time>
      </trkpt>
      <trkpt lat="43.93361" lon="7.31046">
        <ele>779.443</ele>
        <time>2014-10-18T14:09:26Z</time>
      </trkpt>
      <trkpt lat="43.93366" lon="7.31047">
        <ele>779.018</ele>
        <time>2014-10-18T14:09:29Z</time>
      </trkpt>
      <trkpt lat="43.93375" lon="7.31036">
        <ele>776.527</ele>
        <time>2014-10-18T14:09:33Z</time>
      </trkpt>
      <trkpt lat="43.93382" lon="7.31027">
        <ele>774.51</ele>
        <time>2014-10-18T14:09:35Z</time>
      </trkpt>
      <trkpt lat="43.9341" lon="7.30998">
        <ele>770.13</ele>
        <time>2014-10-18T14:09:40Z</time>
      </trkpt>
      <trkpt lat="43.93434" lon="7.30995">
        <ele>767.832</ele>
        <time>2014-10-18T14:09:43Z</time>
      </trkpt>
      <trkpt lat="43.93457" lon="7.3099">
        <ele>766.03</ele>
        <time>2014-10-18T14:09:46Z</time>
      </trkpt>
      <trkpt lat="43.9348" lon="7.30976">
        <ele>764.785</ele>
        <time>2014-10-18T14:09:50Z</time>
      </trkpt>
      <trkpt lat="43.93497" lon="7.30955">
        <ele>763.421</ele>
        <time>2014-10-18T14:09:55Z</time>
      </trkpt>
      <trkpt lat="43.93511" lon="7.30933">
        <ele>763.178</ele>
        <time>2014-10-18T14:10:01Z</time>
      </trkpt>
      <trkpt lat="43.93525" lon="7.30917">
        <ele>762.619</ele>
        <time>2014-10-18T14:10:05Z</time>
      </trkpt>
      <trkpt lat="43.93531" lon="7.30916">
        <ele>762.178</ele>
        <time>2014-10-18T14:10:07Z</time>
      </trkpt>
      <trkpt lat="43.93553" lon="7.30913">
        <ele>761.794</ele>
        <time>2014-10-18T14:10:13Z</time>
      </trkpt>
      <trkpt lat="43.93564" lon="7.30913">
        <ele>761.255</ele>
        <time>2014-10-18T14:10:16Z</time>
      </trkpt>
      <trkpt lat="43.93589" lon="7.30904">
        <ele>761.988</ele>
        <time>2014-10-18T14:10:22Z</time>
      </trkpt>
      <trkpt lat="43.93596" lon="7.30901">
        <ele>762.59</ele>
        <time>2014-10-18T14:10:24Z</time>
      </trkpt>
      <trkpt lat="43.93608" lon="7.30888">
        <ele>763.689</ele>
        <time>2014-10-18T14:10:29Z</time>
      </trkpt>
      <trkpt lat="43.93616" lon="7.30887">
        <ele>764</ele>
        <time>2014-10-18T14:10:31Z</time>
      </trkpt>
      <trkpt lat="43.93636" lon="7.30878">
        <ele>764.719</ele>
        <time>2014-10-18T14:10:37Z</time>
      </trkpt>
      <trkpt lat="43.93643" lon="7.30866">
        <ele>766.171</ele>
        <time>2014-10-18T14:10:41Z</time>
      </trkpt>
      <trkpt lat="43.93654" lon="7.30851">
        <ele>768.312</ele>
        <time>2014-10-18T14:10:46Z</time>
      </trkpt>
      <trkpt lat="43.93666" lon="7.30843">
        <ele>770.685</ele>
        <time>2014-10-18T14:10:50Z</time>
      </trkpt>
      <trkpt lat="43.9367" lon="7.30842">
        <ele>770.91</ele>
        <time>2014-10-18T14:10:52Z</time>
      </trkpt>
      <trkpt lat="43.93679" lon="7.30832">
        <ele>772.711</ele>
        <time>2014-10-18T14:10:58Z</time>
      </trkpt>
      <trkpt lat="43.9368" lon="7.30829">
        <ele>772.74</ele>
        <time>2014-10-18T14:10:59Z</time>
      </trkpt>
      <trkpt lat="43.93685" lon="7.30808">
        <ele>774.082</ele>
        <time>2014-10-18T14:11:05Z</time>
      </trkpt>
      <trkpt lat="43.93689" lon="7.30804">
        <ele>773.977</ele>
        <time>2014-10-18T14:11:08Z</time>
      </trkpt>
      <trkpt lat="43.93695" lon="7.30792">
        <ele>770.949</ele>
        <time>2014-10-18T14:11:13Z</time>
      </trkpt>
      <trkpt lat="43.93696" lon="7.30777">
        <ele>770.393</ele>
        <time>2014-10-18T14:11:17Z</time>
      </trkpt>
      <trkpt lat="43.93697" lon="7.30767">
        <ele>769.213</ele>
        <time>2014-10-18T14:11:20Z</time>
      </trkpt>
      <trkpt lat="43.93697" lon="7.30759">
        <ele>763.708</ele>
        <time>2014-10-18T14:11:22Z</time>
      </trkpt>
      <trkpt lat="43.93694" lon="7.30743">
        <ele>754.571</ele>
        <time>2014-10-18T14:11:28Z</time>
      </trkpt>
      <trkpt lat="43.93693" lon="7.30717">
        <ele>755.393</ele>
        <time>2014-10-18T14:11:35Z</time>
      </trkpt>
      <trkpt lat="43.93694" lon="7.30708">
        <ele>750.497</ele>
        <time>2014-10-18T14:11:38Z</time>
      </trkpt>
      <trkpt lat="43.93695" lon="7.30701">
        <ele>751.963</ele>
        <time>2014-10-18T14:11:40Z</time>
      </trkpt>
      <trkpt lat="43.93691" lon="7.30681">
        <ele>744.164</ele>
        <time>2014-10-18T14:11:45Z</time>
      </trkpt>
      <trkpt lat="43.93692" lon="7.30665">
        <ele>744.319</ele>
        <time>2014-10-18T14:11:49Z</time>
      </trkpt>
      <trkpt lat="43.93702" lon="7.30643">
        <ele>745.405</ele>
        <time>2014-10-18T14:11:54Z</time>
      </trkpt>
      <trkpt lat="43.93711" lon="7.30624">
        <ele>744.802</ele>
        <time>2014-10-18T14:11:58Z</time>
      </trkpt>
      <trkpt lat="43.93717" lon="7.3061">
        <ele>743.155</ele>
        <time>2014-10-18T14:12:03Z</time>
      </trkpt>
      <trkpt lat="43.9372" lon="7.30607">
        <ele>742.199</ele>
        <time>2014-10-18T14:12:07Z</time>
      </trkpt>
      <trkpt lat="43.93724" lon="7.30604">
        <ele>743.414</ele>
        <time>2014-10-18T14:12:13Z</time>
      </trkpt>
      <trkpt lat="43.93724" lon="7.30602">
        <ele>740.212</ele>
        <time>2014-10-18T14:12:17Z</time>
      </trkpt>
      <trkpt lat="43.93727" lon="7.306">
        <ele>739.783</ele>
        <time>2014-10-18T14:12:22Z</time>
      </trkpt>
      <trkpt lat="43.93728" lon="7.30597">
        <ele>738.317</ele>
        <time>2014-10-18T14:12:29Z</time>
      </trkpt>
      <trkpt lat="43.9373" lon="7.30593">
        <ele>735.264</ele>
        <time>2014-10-18T14:12:35Z</time>
      </trkpt>
      <trkpt lat="43.93735" lon="7.30588">
        <ele>730.382</ele>
        <time>2014-10-18T14:12:40Z</time>
      </trkpt>
      <trkpt lat="43.93746" lon="7.3058">
        <ele>729.249</ele>
        <time>2014-10-18T14:12:45Z</time>
      </trkpt>
      <trkpt lat="43.93754" lon="7.30572">
        <ele>728.981</ele>
        <time>2014-10-18T14:12:50Z</time>
      </trkpt>
      <trkpt lat="43.93768" lon="7.30563">
        <ele>728.123</ele>
        <time>2014-10-18T14:12:55Z</time>
      </trkpt>
      <trkpt lat="43.93771" lon="7.30562">
        <ele>727.122</ele>
        <time>2014-10-18T14:12:57Z</time>
      </trkpt>
      <trkpt lat="43.93779" lon="7.30556">
        <ele>725.48</ele>
        <time>2014-10-18T14:13:02Z</time>
      </trkpt>
      <trkpt lat="43.93778" lon="7.30553">
        <ele>723.869</ele>
        <time>2014-10-18T14:13:07Z</time>
      </trkpt>
      <trkpt lat="43.93778" lon="7.3055">
        <ele>720.301</ele>
        <time>2014-10-18T14:13:12Z</time>
      </trkpt>
      <trkpt lat="43.93778" lon="7.30549">
        <ele>719.451</ele>
        <time>2014-10-18T14:13:13Z</time>
      </trkpt>
      <trkpt lat="43.93777" lon="7.30547">
        <ele>718.051</ele>
        <time>2014-10-18T14:13:15Z</time>
      </trkpt>
      <trkpt lat="43.93778" lon="7.30545">
        <ele>717.158</ele>
        <time>2014-10-18T14:13:18Z</time>
      </trkpt>
      <trkpt lat="43.93781" lon="7.30541">
        <ele>714.004</ele>
        <time>2014-10-18T14:13:23Z</time>
      </trkpt>
      <trkpt lat="43.93777" lon="7.30535">
        <ele>710.2</ele>
        <time>2014-10-18T14:13:27Z</time>
      </trkpt>
      <trkpt lat="43.93776" lon="7.30532">
        <ele>709.554</ele>
        <time>2014-10-18T14:13:30Z</time>
      </trkpt>
      <trkpt lat="43.93776" lon="7.3053">
        <ele>707.29</ele>
        <time>2014-10-18T14:13:32Z</time>
      </trkpt>
      <trkpt lat="43.93772" lon="7.30515">
        <ele>710.724</ele>
        <time>2014-10-18T14:13:37Z</time>
      </trkpt>
      <trkpt lat="43.93778" lon="7.30505">
        <ele>710.685</ele>
        <time>2014-10-18T14:13:41Z</time>
      </trkpt>
      <trkpt lat="43.93783" lon="7.30494">
        <ele>709.862</ele>
        <time>2014-10-18T14:13:44Z</time>
      </trkpt>
      <trkpt lat="43.93794" lon="7.30469">
        <ele>704.135</ele>
        <time>2014-10-18T14:13:51Z</time>
      </trkpt>
      <trkpt lat="43.93801" lon="7.30449">
        <ele>699.919</ele>
        <time>2014-10-18T14:13:56Z</time>
      </trkpt>
      <trkpt lat="43.93803" lon="7.30431">
        <ele>692.292</ele>
        <time>2014-10-18T14:14:00Z</time>
      </trkpt>
      <trkpt lat="43.93798" lon="7.30415">
        <ele>681.518</ele>
        <time>2014-10-18T14:14:05Z</time>
      </trkpt>
      <trkpt lat="43.93795" lon="7.3041">
        <ele>677.582</ele>
        <time>2014-10-18T14:14:12Z</time>
      </trkpt>
      <trkpt lat="43.93795" lon="7.30406">
        <ele>688.987</ele>
        <time>2014-10-18T14:16:49Z</time>
      </trkpt>
      <trkpt lat="43.93794" lon="7.30403">
        <ele>688.506</ele>
        <time>2014-10-18T14:16:50Z</time>
      </trkpt>
      <trkpt lat="43.93782" lon="7.30385">
        <ele>680.818</ele>
        <time>2014-10-18T14:16:57Z</time>
      </trkpt>
      <trkpt lat="43.93779" lon="7.30371">
        <ele>673.719</ele>
        <time>2014-10-18T14:17:02Z</time>
      </trkpt>
      <trkpt lat="43.93772" lon="7.30354">
        <ele>664.783</ele>
        <time>2014-10-18T14:17:07Z</time>
      </trkpt>
      <trkpt lat="43.93759" lon="7.30347">
        <ele>658.239</ele>
        <time>2014-10-18T14:17:11Z</time>
      </trkpt>
      <trkpt lat="43.93752" lon="7.30343">
        <ele>655.348</ele>
        <time>2014-10-18T14:17:13Z</time>
      </trkpt>
      <trkpt lat="43.93747" lon="7.30333">
        <ele>651.573</ele>
        <time>2014-10-18T14:17:18Z</time>
      </trkpt>
      <trkpt lat="43.9375" lon="7.30306">
        <ele>659.13</ele>
        <time>2014-10-18T14:17:23Z</time>
      </trkpt>
      <trkpt lat="43.93752" lon="7.30275">
        <ele>658.408</ele>
        <time>2014-10-18T14:17:29Z</time>
      </trkpt>
      <trkpt lat="43.93752" lon="7.30253">
        <ele>658.552</ele>
        <time>2014-10-18T14:17:34Z</time>
      </trkpt>
      <trkpt lat="43.93748" lon="7.30225">
        <ele>655.73</ele>
        <time>2014-10-18T14:17:39Z</time>
      </trkpt>
      <trkpt lat="43.93746" lon="7.30196">
        <ele>653.5</ele>
        <time>2014-10-18T14:17:44Z</time>
      </trkpt>
      <trkpt lat="43.93747" lon="7.3019">
        <ele>652.89</ele>
        <time>2014-10-18T14:17:45Z</time>
      </trkpt>
      <trkpt lat="43.93757" lon="7.30149">
        <ele>654.903</ele>
        <time>2014-10-18T14:17:51Z</time>
      </trkpt>
      <trkpt lat="43.9375" lon="7.30127">
        <ele>648.99</ele>
        <time>2014-10-18T14:17:55Z</time>
      </trkpt>
      <trkpt lat="43.93738" lon="7.30102">
        <ele>645.263</ele>
        <time>2014-10-18T14:17:59Z</time>
      </trkpt>
      <trkpt lat="43.93727" lon="7.30089">
        <ele>642.09</ele>
        <time>2014-10-18T14:18:03Z</time>
      </trkpt>
      <trkpt lat="43.93721" lon="7.30084">
        <ele>639.931</ele>
        <time>2014-10-18T14:18:05Z</time>
      </trkpt>
      <trkpt lat="43.9371" lon="7.30064">
        <ele>641.747</ele>
        <time>2014-10-18T14:18:09Z</time>
      </trkpt>
      <trkpt lat="43.93706" lon="7.30044">
        <ele>638.367</ele>
        <time>2014-10-18T14:18:13Z</time>
      </trkpt>
      <trkpt lat="43.93703" lon="7.30032">
        <ele>636.786</ele>
        <time>2014-10-18T14:18:15Z</time>
      </trkpt>
      <trkpt lat="43.93706" lon="7.30007">
        <ele>636.347</ele>
        <time>2014-10-18T14:18:19Z</time>
      </trkpt>
      <trkpt lat="43.93718" lon="7.29977">
        <ele>635.413</ele>
        <time>2014-10-18T14:18:25Z</time>
      </trkpt>
      <trkpt lat="43.93731" lon="7.29934">
        <ele>632.323</ele>
        <time>2014-10-18T14:18:31Z</time>
      </trkpt>
      <trkpt lat="43.93739" lon="7.29895">
        <ele>630.594</ele>
        <time>2014-10-18T14:18:36Z</time>
      </trkpt>
      <trkpt lat="43.93736" lon="7.29871">
        <ele>627.364</ele>
        <time>2014-10-18T14:18:40Z</time>
      </trkpt>
      <trkpt lat="43.9373" lon="7.29864">
        <ele>623.509</ele>
        <time>2014-10-18T14:18:42Z</time>
      </trkpt>
      <trkpt lat="43.93721" lon="7.29852">
        <ele>622.115</ele>
        <time>2014-10-18T14:18:45Z</time>
      </trkpt>
      <trkpt lat="43.93723" lon="7.29837">
        <ele>623.148</ele>
        <time>2014-10-18T14:18:49Z</time>
      </trkpt>
      <trkpt lat="43.93734" lon="7.29829">
        <ele>623.932</ele>
        <time>2014-10-18T14:18:52Z</time>
      </trkpt>
      <trkpt lat="43.93738" lon="7.29827">
        <ele>623.644</ele>
        <time>2014-10-18T14:18:53Z</time>
      </trkpt>
      <trkpt lat="43.93761" lon="7.29812">
        <ele>620.762</ele>
        <time>2014-10-18T14:18:59Z</time>
      </trkpt>
      <trkpt lat="43.93773" lon="7.29802">
        <ele>616.908</ele>
        <time>2014-10-18T14:19:04Z</time>
      </trkpt>
      <trkpt lat="43.93775" lon="7.298">
        <ele>615.706</ele>
        <time>2014-10-18T14:19:05Z</time>
      </trkpt>
      <trkpt lat="43.93784" lon="7.29795">
        <ele>610.871</ele>
        <time>2014-10-18T14:19:09Z</time>
      </trkpt>
      <trkpt lat="43.93798" lon="7.2977">
        <ele>604.471</ele>
        <time>2014-10-18T14:19:15Z</time>
      </trkpt>
      <trkpt lat="43.93803" lon="7.29764">
        <ele>602.026</ele>
        <time>2014-10-18T14:19:17Z</time>
      </trkpt>
      <trkpt lat="43.9381" lon="7.29756">
        <ele>600.265</ele>
        <time>2014-10-18T14:19:19Z</time>
      </trkpt>
      <trkpt lat="43.93819" lon="7.29739">
        <ele>596.127</ele>
        <time>2014-10-18T14:19:23Z</time>
      </trkpt>
      <trkpt lat="43.93822" lon="7.29728">
        <ele>592.472</ele>
        <time>2014-10-18T14:19:27Z</time>
      </trkpt>
      <trkpt lat="43.93822" lon="7.29725">
        <ele>591.652</ele>
        <time>2014-10-18T14:19:28Z</time>
      </trkpt>
      <trkpt lat="43.93822" lon="7.29722">
        <ele>589.579</ele>
        <time>2014-10-18T14:19:30Z</time>
      </trkpt>
      <trkpt lat="43.93828" lon="7.29706">
        <ele>585.135</ele>
        <time>2014-10-18T14:19:35Z</time>
      </trkpt>
      <trkpt lat="43.93832" lon="7.29703">
        <ele>584.303</ele>
        <time>2014-10-18T14:19:36Z</time>
      </trkpt>
      <trkpt lat="43.93847" lon="7.29675">
        <ele>582.179</ele>
        <time>2014-10-18T14:19:41Z</time>
      </trkpt>
      <trkpt lat="43.93858" lon="7.29665">
        <ele>581.54</ele>
        <time>2014-10-18T14:19:45Z</time>
      </trkpt>
      <trkpt lat="43.93861" lon="7.29665">
        <ele>581.474</ele>
        <time>2014-10-18T14:19:46Z</time>
      </trkpt>
      <trkpt lat="43.93866" lon="7.29661">
        <ele>579.092</ele>
        <time>2014-10-18T14:19:51Z</time>
      </trkpt>
      <trkpt lat="43.93873" lon="7.29655">
        <ele>576.792</ele>
        <time>2014-10-18T14:19:56Z</time>
      </trkpt>
      <trkpt lat="43.9388" lon="7.29648">
        <ele>576.037</ele>
        <time>2014-10-18T14:19:59Z</time>
      </trkpt>
      <trkpt lat="43.93891" lon="7.29643">
        <ele>575.087</ele>
        <time>2014-10-18T14:20:05Z</time>
      </trkpt>
      <trkpt lat="43.93895" lon="7.29641">
        <ele>574.62</ele>
        <time>2014-10-18T14:20:11Z</time>
      </trkpt>
      <trkpt lat="43.939" lon="7.29639">
        <ele>573.551</ele>
        <time>2014-10-18T14:20:15Z</time>
      </trkpt>
      <trkpt lat="43.93909" lon="7.29632">
        <ele>572.088</ele>
        <time>2014-10-18T14:20:19Z</time>
      </trkpt>
      <trkpt lat="43.93916" lon="7.29624">
        <ele>572.252</ele>
        <time>2014-10-18T14:20:23Z</time>
      </trkpt>
      <trkpt lat="43.93926" lon="7.29617">
        <ele>569.306</ele>
        <time>2014-10-18T14:20:28Z</time>
      </trkpt>
      <trkpt lat="43.93932" lon="7.29609">
        <ele>568.156</ele>
        <time>2014-10-18T14:20:33Z</time>
      </trkpt>
      <trkpt lat="43.93937" lon="7.29601">
        <ele>566.608</ele>
        <time>2014-10-18T14:20:38Z</time>
      </trkpt>
      <trkpt lat="43.93944" lon="7.29589">
        <ele>563.63</ele>
        <time>2014-10-18T14:20:42Z</time>
      </trkpt>
      <trkpt lat="43.93947" lon="7.29584">
        <ele>562.999</ele>
        <time>2014-10-18T14:20:43Z</time>
      </trkpt>
      <trkpt lat="43.93951" lon="7.29576">
        <ele>561.801</ele>
        <time>2014-10-18T14:20:45Z</time>
      </trkpt>
      <trkpt lat="43.93954" lon="7.2956">
        <ele>554.091</ele>
        <time>2014-10-18T14:20:50Z</time>
      </trkpt>
      <trkpt lat="43.93955" lon="7.29556">
        <ele>552.44</ele>
        <time>2014-10-18T14:20:51Z</time>
      </trkpt>
      <trkpt lat="43.93948" lon="7.29546">
        <ele>543.565</ele>
        <time>2014-10-18T14:20:56Z</time>
      </trkpt>
      <trkpt lat="43.93945" lon="7.29545">
        <ele>539.33</ele>
        <time>2014-10-18T14:21:00Z</time>
      </trkpt>
      <trkpt lat="43.93944" lon="7.29545">
        <ele>536.164</ele>
        <time>2014-10-18T14:21:03Z</time>
      </trkpt>
      <trkpt lat="43.93936" lon="7.2954">
        <ele>531.239</ele>
        <time>2014-10-18T14:21:08Z</time>
      </trkpt>
      <trkpt lat="43.93929" lon="7.29534">
        <ele>528.456</ele>
        <time>2014-10-18T14:21:11Z</time>
      </trkpt>
      <trkpt lat="43.93914" lon="7.29518">
        <ele>524.468</ele>
        <time>2014-10-18T14:21:16Z</time>
      </trkpt>
      <trkpt lat="43.93912" lon="7.29514">
        <ele>524.139</ele>
        <time>2014-10-18T14:21:17Z</time>
      </trkpt>
      <trkpt lat="43.93912" lon="7.29487">
        <ele>540.361</ele>
        <time>2014-10-18T14:21:21Z</time>
      </trkpt>
      <trkpt lat="43.93909" lon="7.29459">
        <ele>548.912</ele>
        <time>2014-10-18T14:21:27Z</time>
      </trkpt>
      <trkpt lat="43.93909" lon="7.29441">
        <ele>545.515</ele>
        <time>2014-10-18T14:21:33Z</time>
      </trkpt>
      <trkpt lat="43.93909" lon="7.29429">
        <ele>545.273</ele>
        <time>2014-10-18T14:21:37Z</time>
      </trkpt>
      <trkpt lat="43.9391" lon="7.29427">
        <ele>545.627</ele>
        <time>2014-10-18T14:21:38Z</time>
      </trkpt>
      <trkpt lat="43.9391" lon="7.29423">
        <ele>543.982</ele>
        <time>2014-10-18T14:21:40Z</time>
      </trkpt>
      <trkpt lat="43.93915" lon="7.29413">
        <ele>542.543</ele>
        <time>2014-10-18T14:21:46Z</time>
      </trkpt>
      <trkpt lat="43.93918" lon="7.29409">
        <ele>541.793</ele>
        <time>2014-10-18T14:21:50Z</time>
      </trkpt>
      <trkpt lat="43.9392" lon="7.29404">
        <ele>541.984</ele>
        <time>2014-10-18T14:21:52Z</time>
      </trkpt>
      <trkpt lat="43.93925" lon="7.29393">
        <ele>541.683</ele>
        <time>2014-10-18T14:21:56Z</time>
      </trkpt>
      <trkpt lat="43.9393" lon="7.2937">
        <ele>537.892</ele>
        <time>2014-10-18T14:22:02Z</time>
      </trkpt>
      <trkpt lat="43.93934" lon="7.29352">
        <ele>538.136</ele>
        <time>2014-10-18T14:22:07Z</time>
      </trkpt>
      <trkpt lat="43.9394" lon="7.29338">
        <ele>539.259</ele>
        <time>2014-10-18T14:22:12Z</time>
      </trkpt>
      <trkpt lat="43.9395" lon="7.29311">
        <ele>535.406</ele>
        <time>2014-10-18T14:22:18Z</time>
      </trkpt>
      <trkpt lat="43.93962" lon="7.29295">
        <ele>537.508</ele>
        <time>2014-10-18T14:22:22Z</time>
      </trkpt>
      <trkpt lat="43.93966" lon="7.29294">
        <ele>541.597</ele>
        <time>2014-10-18T14:22:25Z</time>
      </trkpt>
      <trkpt lat="43.93964" lon="7.29298">
        <ele>548.717</ele>
        <time>2014-10-18T14:25:53Z</time>
      </trkpt>
      <trkpt lat="43.93968" lon="7.29299">
        <ele>553.669</ele>
        <time>2014-10-18T14:27:35Z</time>
      </trkpt>
      <trkpt lat="43.93968" lon="7.29298">
        <ele>545.261</ele>
        <time>2014-10-18T14:28:02Z</time>
      </trkpt>
      <trkpt lat="43.93969" lon="7.29291">
        <ele>544.206</ele>
        <time>2014-10-18T14:28:06Z</time>
      </trkpt>
      <trkpt lat="43.93975" lon="7.2928">
        <ele>542.171</ele>
        <time>2014-10-18T14:28:12Z</time>
      </trkpt>
      <trkpt lat="43.93977" lon="7.29278">
        <ele>541.399</ele>
        <time>2014-10-18T14:28:13Z</time>
      </trkpt>
      <trkpt lat="43.9398" lon="7.29272">
        <ele>536.854</ele>
        <time>2014-10-18T14:28:15Z</time>
      </trkpt>
      <trkpt lat="43.93988" lon="7.29259">
        <ele>529.809</ele>
        <time>2014-10-18T14:28:20Z</time>
      </trkpt>
      <trkpt lat="43.9399" lon="7.29245">
        <ele>527.764</ele>
        <time>2014-10-18T14:28:24Z</time>
      </trkpt>
      <trkpt lat="43.9399" lon="7.29238">
        <ele>528.197</ele>
        <time>2014-10-18T14:28:27Z</time>
      </trkpt>
      <trkpt lat="43.93986" lon="7.29229">
        <ele>529.013</ele>
        <time>2014-10-18T14:28:33Z</time>
      </trkpt>
      <trkpt lat="43.93984" lon="7.29226">
        <ele>528.229</ele>
        <time>2014-10-18T14:28:39Z</time>
      </trkpt>
      <trkpt lat="43.93985" lon="7.29221">
        <ele>528.563</ele>
        <time>2014-10-18T14:28:44Z</time>
      </trkpt>
      <trkpt lat="43.93986" lon="7.29217">
        <ele>527.672</ele>
        <time>2014-10-18T14:28:51Z</time>
      </trkpt>
      <trkpt lat="43.93986" lon="7.29214">
        <ele>527.912</ele>
        <time>2014-10-18T14:28:55Z</time>
      </trkpt>
      <trkpt lat="43.93987" lon="7.29213">
        <ele>528.171</ele>
        <time>2014-10-18T14:29:02Z</time>
      </trkpt>
      <trkpt lat="43.93987" lon="7.29214">
        <ele>528.213</ele>
        <time>2014-10-18T14:29:04Z</time>
      </trkpt>
      <trkpt lat="43.93986" lon="7.29214">
        <ele>527.767</ele>
        <time>2014-10-18T14:29:10Z</time>
      </trkpt>
      <trkpt lat="43.93991" lon="7.29214">
        <ele>526.704</ele>
        <time>2014-10-18T14:29:16Z</time>
      </trkpt>
      <trkpt lat="43.94003" lon="7.29217">
        <ele>534.182</ele>
        <time>2014-10-18T14:29:22Z</time>
      </trkpt>
      <trkpt lat="43.94011" lon="7.29217">
        <ele>537.906</ele>
        <time>2014-10-18T14:29:26Z</time>
      </trkpt>
      <trkpt lat="43.9402" lon="7.29218">
        <ele>535.777</ele>
        <time>2014-10-18T14:29:33Z</time>
      </trkpt>
      <trkpt lat="43.94026" lon="7.29214">
        <ele>532.666</ele>
        <time>2014-10-18T14:29:40Z</time>
      </trkpt>
      <trkpt lat="43.94033" lon="7.29217">
        <ele>535.039</ele>
        <time>2014-10-18T14:29:46Z</time>
      </trkpt>
      <trkpt lat="43.9404" lon="7.29219">
        <ele>533.942</ele>
        <time>2014-10-18T14:29:48Z</time>
      </trkpt>
      <trkpt lat="43.94053" lon="7.29211">
        <ele>528.984</ele>
        <time>2014-10-18T14:29:52Z</time>
      </trkpt>
      <trkpt lat="43.94068" lon="7.2921">
        <ele>525.792</ele>
        <time>2014-10-18T14:29:56Z</time>
      </trkpt>
      <trkpt lat="43.94087" lon="7.2921">
        <ele>522.996</ele>
        <time>2014-10-18T14:30:01Z</time>
      </trkpt>
      <trkpt lat="43.94098" lon="7.29204">
        <ele>523.239</ele>
        <time>2014-10-18T14:30:06Z</time>
      </trkpt>
      <trkpt lat="43.94103" lon="7.29202">
        <ele>525.983</ele>
        <time>2014-10-18T14:30:10Z</time>
      </trkpt>
      <trkpt lat="43.94105" lon="7.29201">
        <ele>528.34</ele>
        <time>2014-10-18T14:30:13Z</time>
      </trkpt>
      <trkpt lat="43.94107" lon="7.29193">
        <ele>525.828</ele>
        <time>2014-10-18T14:30:19Z</time>
      </trkpt>
      <trkpt lat="43.94107" lon="7.29189">
        <ele>525.457</ele>
        <time>2014-10-18T14:30:24Z</time>
      </trkpt>
      <trkpt lat="43.94105" lon="7.29172">
        <ele>527.188</ele>
        <time>2014-10-18T14:30:30Z</time>
      </trkpt>
      <trkpt lat="43.94106" lon="7.29168">
        <ele>528.826</ele>
        <time>2014-10-18T14:30:33Z</time>
      </trkpt>
      <trkpt lat="43.94107" lon="7.29162">
        <ele>529.92</ele>
        <time>2014-10-18T14:30:38Z</time>
      </trkpt>
      <trkpt lat="43.94107" lon="7.29152">
        <ele>532.831</ele>
        <time>2014-10-18T14:30:44Z</time>
      </trkpt>
      <trkpt lat="43.94108" lon="7.29139">
        <ele>536.902</ele>
        <time>2014-10-18T14:30:52Z</time>
      </trkpt>
      <trkpt lat="43.94111" lon="7.29121">
        <ele>540.544</ele>
        <time>2014-10-18T14:30:57Z</time>
      </trkpt>
      <trkpt lat="43.94115" lon="7.29106">
        <ele>543.184</ele>
        <time>2014-10-18T14:31:03Z</time>
      </trkpt>
      <trkpt lat="43.94117" lon="7.29103">
        <ele>543.594</ele>
        <time>2014-10-18T14:31:04Z</time>
      </trkpt>
      <trkpt lat="43.94124" lon="7.29094">
        <ele>545.213</ele>
        <time>2014-10-18T14:31:09Z</time>
      </trkpt>
      <trkpt lat="43.94128" lon="7.2908">
        <ele>544.114</ele>
        <time>2014-10-18T14:31:16Z</time>
      </trkpt>
      <trkpt lat="43.9413" lon="7.29074">
        <ele>544.409</ele>
        <time>2014-10-18T14:31:18Z</time>
      </trkpt>
      <trkpt lat="43.94139" lon="7.29066">
        <ele>542.787</ele>
        <time>2014-10-18T14:31:23Z</time>
      </trkpt>
      <trkpt lat="43.94134" lon="7.29057">
        <ele>536.558</ele>
        <time>2014-10-18T14:31:26Z</time>
      </trkpt>
      <trkpt lat="43.94134" lon="7.29055">
        <ele>536.067</ele>
        <time>2014-10-18T14:31:27Z</time>
      </trkpt>
      <trkpt lat="43.94135" lon="7.29034">
        <ele>534.745</ele>
        <time>2014-10-18T14:31:32Z</time>
      </trkpt>
      <trkpt lat="43.94137" lon="7.29025">
        <ele>535.056</ele>
        <time>2014-10-18T14:31:35Z</time>
      </trkpt>
      <trkpt lat="43.94139" lon="7.29008">
        <ele>534.992</ele>
        <time>2014-10-18T14:31:40Z</time>
      </trkpt>
      <trkpt lat="43.9414" lon="7.29002">
        <ele>535.017</ele>
        <time>2014-10-18T14:31:44Z</time>
      </trkpt>
      <trkpt lat="43.94141" lon="7.29004">
        <ele>539.681</ele>
        <time>2014-10-18T14:31:51Z</time>
      </trkpt>
      <trkpt lat="43.94149" lon="7.29007">
        <ele>549.084</ele>
        <time>2014-10-18T14:31:58Z</time>
      </trkpt>
      <trkpt lat="43.9416" lon="7.29013">
        <ele>571.84</ele>
        <time>2014-10-18T14:32:07Z</time>
      </trkpt>
      <trkpt lat="43.94161" lon="7.29014">
        <ele>572.257</ele>
        <time>2014-10-18T14:32:08Z</time>
      </trkpt>
      <trkpt lat="43.94171" lon="7.2902">
        <ele>585.255</ele>
        <time>2014-10-18T14:32:15Z</time>
      </trkpt>
      <trkpt lat="43.94173" lon="7.29022">
        <ele>587.994</ele>
        <time>2014-10-18T14:32:22Z</time>
      </trkpt>
      <trkpt lat="43.94179" lon="7.29019">
        <ele>592.052</ele>
        <time>2014-10-18T14:32:27Z</time>
      </trkpt>
      <trkpt lat="43.94181" lon="7.29015">
        <ele>589.273</ele>
        <time>2014-10-18T14:32:32Z</time>
      </trkpt>
      <trkpt lat="43.94178" lon="7.2901">
        <ele>580.039</ele>
        <time>2014-10-18T14:32:35Z</time>
      </trkpt>
      <trkpt lat="43.94174" lon="7.29006">
        <ele>570.89</ele>
        <time>2014-10-18T14:32:37Z</time>
      </trkpt>
      <trkpt lat="43.94171" lon="7.28991">
        <ele>557.876</ele>
        <time>2014-10-18T14:32:44Z</time>
      </trkpt>
      <trkpt lat="43.94173" lon="7.28974">
        <ele>545.246</ele>
        <time>2014-10-18T14:32:51Z</time>
      </trkpt>
      <trkpt lat="43.94173" lon="7.28971">
        <ele>542.373</ele>
        <time>2014-10-18T14:32:53Z</time>
      </trkpt>
      <trkpt lat="43.94182" lon="7.28966">
        <ele>539.72</ele>
        <time>2014-10-18T14:32:58Z</time>
      </trkpt>
      <trkpt lat="43.94195" lon="7.28958">
        <ele>532.463</ele>
        <time>2014-10-18T14:33:03Z</time>
      </trkpt>
      <trkpt lat="43.942" lon="7.28946">
        <ele>528.162</ele>
        <time>2014-10-18T14:33:07Z</time>
      </trkpt>
      <trkpt lat="43.94208" lon="7.28938">
        <ele>522.699</ele>
        <time>2014-10-18T14:33:12Z</time>
      </trkpt>
      <trkpt lat="43.94208" lon="7.28931">
        <ele>519.711</ele>
        <time>2014-10-18T14:33:15Z</time>
      </trkpt>
      <trkpt lat="43.94202" lon="7.28922">
        <ele>516.045</ele>
        <time>2014-10-18T14:33:20Z</time>
      </trkpt>
      <trkpt lat="43.942" lon="7.28919">
        <ele>514.17</ele>
        <time>2014-10-18T14:33:26Z</time>
      </trkpt>
      <trkpt lat="43.94194" lon="7.28915">
        <ele>510.965</ele>
        <time>2014-10-18T14:33:47Z</time>
      </trkpt>
      <trkpt lat="43.94192" lon="7.28913">
        <ele>509.928</ele>
        <time>2014-10-18T14:33:51Z</time>
      </trkpt>
      <trkpt lat="43.94192" lon="7.28911">
        <ele>510.087</ele>
        <time>2014-10-18T14:33:54Z</time>
      </trkpt>
      <trkpt lat="43.94191" lon="7.28906">
        <ele>509.295</ele>
        <time>2014-10-18T14:33:58Z</time>
      </trkpt>
      <trkpt lat="43.9419" lon="7.28903">
        <ele>508.699</ele>
        <time>2014-10-18T14:34:00Z</time>
      </trkpt>
      <trkpt lat="43.94184" lon="7.28898">
        <ele>506.751</ele>
        <time>2014-10-18T14:34:06Z</time>
      </trkpt>
      <trkpt lat="43.94184" lon="7.28898">
        <ele>506.578</ele>
        <time>2014-10-18T14:34:10Z</time>
      </trkpt>
      <trkpt lat="43.94189" lon="7.28896">
        <ele>505.806</ele>
        <time>2014-10-18T14:34:15Z</time>
      </trkpt>
      <trkpt lat="43.94188" lon="7.28895">
        <ele>505.878</ele>
        <time>2014-10-18T14:34:18Z</time>
      </trkpt>
      <trkpt lat="43.94177" lon="7.28886">
        <ele>502.306</ele>
        <time>2014-10-18T14:34:25Z</time>
      </trkpt>
      <trkpt lat="43.94165" lon="7.28878">
        <ele>499.176</ele>
        <time>2014-10-18T14:34:30Z</time>
      </trkpt>
      <trkpt lat="43.94168" lon="7.28874">
        <ele>496.881</ele>
        <time>2014-10-18T14:34:34Z</time>
      </trkpt>
      <trkpt lat="43.94174" lon="7.28874">
        <ele>494.852</ele>
        <time>2014-10-18T14:34:38Z</time>
      </trkpt>
      <trkpt lat="43.94174" lon="7.28873">
        <ele>494.477</ele>
        <time>2014-10-18T14:34:41Z</time>
      </trkpt>
      <trkpt lat="43.94166" lon="7.28864">
        <ele>492.071</ele>
        <time>2014-10-18T14:34:46Z</time>
      </trkpt>
      <trkpt lat="43.94163" lon="7.28859">
        <ele>490.997</ele>
        <time>2014-10-18T14:34:48Z</time>
      </trkpt>
      <trkpt lat="43.94156" lon="7.28849">
        <ele>488.574</ele>
        <time>2014-10-18T14:34:53Z</time>
      </trkpt>
      <trkpt lat="43.94155" lon="7.28849">
        <ele>487.86</ele>
        <time>2014-10-18T14:34:55Z</time>
      </trkpt>
      <trkpt lat="43.94147" lon="7.28847">
        <ele>482.829</ele>
        <time>2014-10-18T14:35:04Z</time>
      </trkpt>
      <trkpt lat="43.94145" lon="7.28847">
        <ele>480.961</ele>
        <time>2014-10-18T14:35:08Z</time>
      </trkpt>
      <trkpt lat="43.94134" lon="7.2884">
        <ele>478.55</ele>
        <time>2014-10-18T14:35:14Z</time>
      </trkpt>
      <trkpt lat="43.94123" lon="7.28828">
        <ele>476.908</ele>
        <time>2014-10-18T14:35:19Z</time>
      </trkpt>
      <trkpt lat="43.94114" lon="7.28813">
        <ele>474.497</ele>
        <time>2014-10-18T14:35:23Z</time>
      </trkpt>
      <trkpt lat="43.94105" lon="7.28798">
        <ele>470.833</ele>
        <time>2014-10-18T14:35:28Z</time>
      </trkpt>
      <trkpt lat="43.94097" lon="7.28787">
        <ele>465.849</ele>
        <time>2014-10-18T14:35:33Z</time>
      </trkpt>
      <trkpt lat="43.9409" lon="7.28782">
        <ele>461.791</ele>
        <time>2014-10-18T14:35:37Z</time>
      </trkpt>
      <trkpt lat="43.94098" lon="7.28779">
        <ele>460.441</ele>
        <time>2014-10-18T14:35:42Z</time>
      </trkpt>
      <trkpt lat="43.94104" lon="7.28779">
        <ele>460.357</ele>
        <time>2014-10-18T14:35:46Z</time>
      </trkpt>
      <trkpt lat="43.94113" lon="7.28778">
        <ele>460.577</ele>
        <time>2014-10-18T14:35:51Z</time>
      </trkpt>
      <trkpt lat="43.94122" lon="7.28783">
        <ele>459.474</ele>
        <time>2014-10-18T14:35:55Z</time>
      </trkpt>
      <trkpt lat="43.94135" lon="7.28784">
        <ele>458.058</ele>
        <time>2014-10-18T14:36:01Z</time>
      </trkpt>
      <trkpt lat="43.94145" lon="7.28776">
        <ele>456.22</ele>
        <time>2014-10-18T14:36:06Z</time>
      </trkpt>
      <trkpt lat="43.9415" lon="7.28775">
        <ele>454.403</ele>
        <time>2014-10-18T14:36:09Z</time>
      </trkpt>
      <trkpt lat="43.94149" lon="7.28772">
        <ele>450.721</ele>
        <time>2014-10-18T14:36:13Z</time>
      </trkpt>
      <trkpt lat="43.94147" lon="7.2877">
        <ele>449.918</ele>
        <time>2014-10-18T14:36:14Z</time>
      </trkpt>
      <trkpt lat="43.94134" lon="7.28755">
        <ele>445.331</ele>
        <time>2014-10-18T14:36:20Z</time>
      </trkpt>
      <trkpt lat="43.94121" lon="7.28741">
        <ele>441.186</ele>
        <time>2014-10-18T14:36:25Z</time>
      </trkpt>
      <trkpt lat="43.94111" lon="7.2873">
        <ele>437.658</ele>
        <time>2014-10-18T14:36:30Z</time>
      </trkpt>
      <trkpt lat="43.94105" lon="7.28725">
        <ele>435.104</ele>
        <time>2014-10-18T14:36:33Z</time>
      </trkpt>
      <trkpt lat="43.94104" lon="7.28722">
        <ele>433.624</ele>
        <time>2014-10-18T14:36:35Z</time>
      </trkpt>
      <trkpt lat="43.94109" lon="7.28719">
        <ele>432.049</ele>
        <time>2014-10-18T14:36:40Z</time>
      </trkpt>
      <trkpt lat="43.94108" lon="7.28719">
        <ele>432.047</ele>
        <time>2014-10-18T14:36:41Z</time>
      </trkpt>
      <trkpt lat="43.94102" lon="7.2871">
        <ele>430.791</ele>
        <time>2014-10-18T14:36:46Z</time>
      </trkpt>
      <trkpt lat="43.94096" lon="7.28704">
        <ele>429.066</ele>
        <time>2014-10-18T14:36:49Z</time>
      </trkpt>
      <trkpt lat="43.94083" lon="7.28698">
        <ele>423.564</ele>
        <time>2014-10-18T14:36:55Z</time>
      </trkpt>
      <trkpt lat="43.94077" lon="7.28689">
        <ele>419.883</ele>
        <time>2014-10-18T14:36:59Z</time>
      </trkpt>
      <trkpt lat="43.94079" lon="7.28686">
        <ele>419.574</ele>
        <time>2014-10-18T14:37:02Z</time>
      </trkpt>
      <trkpt lat="43.94083" lon="7.28684">
        <ele>417.387</ele>
        <time>2014-10-18T14:37:06Z</time>
      </trkpt>
      <trkpt lat="43.94071" lon="7.28672">
        <ele>412.102</ele>
        <time>2014-10-18T14:37:12Z</time>
      </trkpt>
      <trkpt lat="43.94074" lon="7.28667">
        <ele>410.692</ele>
        <time>2014-10-18T14:37:15Z</time>
      </trkpt>
      <trkpt lat="43.94085" lon="7.28664">
        <ele>410.603</ele>
        <time>2014-10-18T14:37:19Z</time>
      </trkpt>
      <trkpt lat="43.94088" lon="7.28659">
        <ele>409.14</ele>
        <time>2014-10-18T14:37:23Z</time>
      </trkpt>
      <trkpt lat="43.94086" lon="7.28657">
        <ele>408.602</ele>
        <time>2014-10-18T14:37:24Z</time>
      </trkpt>
      <trkpt lat="43.94085" lon="7.28654">
        <ele>406.848</ele>
        <time>2014-10-18T14:37:27Z</time>
      </trkpt>
      <trkpt lat="43.94087" lon="7.28651">
        <ele>401.443</ele>
        <time>2014-10-18T14:37:32Z</time>
      </trkpt>
      <trkpt lat="43.94085" lon="7.28641">
        <ele>399.073</ele>
        <time>2014-10-18T14:37:37Z</time>
      </trkpt>
      <trkpt lat="43.94089" lon="7.28629">
        <ele>396.906</ele>
        <time>2014-10-18T14:37:42Z</time>
      </trkpt>
      <trkpt lat="43.94089" lon="7.28626">
        <ele>396.193</ele>
        <time>2014-10-18T14:37:45Z</time>
      </trkpt>
      <trkpt lat="43.94089" lon="7.28625">
        <ele>395.901</ele>
        <time>2014-10-18T14:37:48Z</time>
      </trkpt>
      <trkpt lat="43.94089" lon="7.28613">
        <ele>391.353</ele>
        <time>2014-10-18T14:37:53Z</time>
      </trkpt>
      <trkpt lat="43.94095" lon="7.28596">
        <ele>388.288</ele>
        <time>2014-10-18T14:37:59Z</time>
      </trkpt>
      <trkpt lat="43.94097" lon="7.28592">
        <ele>386.813</ele>
        <time>2014-10-18T14:38:04Z</time>
      </trkpt>
      <trkpt lat="43.941" lon="7.28588">
        <ele>388.914</ele>
        <time>2014-10-18T14:40:15Z</time>
      </trkpt>
      <trkpt lat="43.94099" lon="7.28581">
        <ele>387.794</ele>
        <time>2014-10-18T14:40:19Z</time>
      </trkpt>
      <trkpt lat="43.94096" lon="7.28564">
        <ele>384.326</ele>
        <time>2014-10-18T14:40:25Z</time>
      </trkpt>
      <trkpt lat="43.94094" lon="7.2854">
        <ele>380.603</ele>
        <time>2014-10-18T14:40:30Z</time>
      </trkpt>
      <trkpt lat="43.94095" lon="7.28516">
        <ele>375.667</ele>
        <time>2014-10-18T14:40:35Z</time>
      </trkpt>
      <trkpt lat="43.94094" lon="7.28493">
        <ele>371.725</ele>
        <time>2014-10-18T14:40:39Z</time>
      </trkpt>
      <trkpt lat="43.94092" lon="7.28468">
        <ele>366.76</ele>
        <time>2014-10-18T14:40:44Z</time>
      </trkpt>
      <trkpt lat="43.94091" lon="7.28462">
        <ele>365.806</ele>
        <time>2014-10-18T14:40:45Z</time>
      </trkpt>
      <trkpt lat="43.94091" lon="7.28451">
        <ele>363.704</ele>
        <time>2014-10-18T14:40:47Z</time>
      </trkpt>
      <trkpt lat="43.9409" lon="7.28428">
        <ele>358.666</ele>
        <time>2014-10-18T14:40:52Z</time>
      </trkpt>
      <trkpt lat="43.94088" lon="7.28418">
        <ele>355.256</ele>
        <time>2014-10-18T14:40:56Z</time>
      </trkpt>
      <trkpt lat="43.94087" lon="7.28411">
        <ele>352.457</ele>
        <time>2014-10-18T14:40:59Z</time>
      </trkpt>
      <trkpt lat="43.94077" lon="7.28408">
        <ele>348.937</ele>
        <time>2014-10-18T14:41:03Z</time>
      </trkpt>
      <trkpt lat="43.94082" lon="7.28399">
        <ele>347.259</ele>
        <time>2014-10-18T14:41:06Z</time>
      </trkpt>
      <trkpt lat="43.94087" lon="7.28392">
        <ele>345.606</ele>
        <time>2014-10-18T14:41:08Z</time>
      </trkpt>
      <trkpt lat="43.94108" lon="7.28374">
        <ele>343.971</ele>
        <time>2014-10-18T14:41:14Z</time>
      </trkpt>
      <trkpt lat="43.94116" lon="7.28368">
        <ele>343.745</ele>
        <time>2014-10-18T14:41:17Z</time>
      </trkpt>
      <trkpt lat="43.94125" lon="7.28358">
        <ele>343.995</ele>
        <time>2014-10-18T14:41:22Z</time>
      </trkpt>
      <trkpt lat="43.94137" lon="7.28357">
        <ele>343.486</ele>
        <time>2014-10-18T14:41:25Z</time>
      </trkpt>
      <trkpt lat="43.94149" lon="7.28351">
        <ele>344.95</ele>
        <time>2014-10-18T14:41:28Z</time>
      </trkpt>
      <trkpt lat="43.9418" lon="7.28328">
        <ele>343.981</ele>
        <time>2014-10-18T14:41:36Z</time>
      </trkpt>
      <trkpt lat="43.94201" lon="7.28311">
        <ele>343.782</ele>
        <time>2014-10-18T14:41:42Z</time>
      </trkpt>
      <trkpt lat="43.94207" lon="7.28306">
        <ele>343.992</ele>
        <time>2014-10-18T14:41:44Z</time>
      </trkpt>
      <trkpt lat="43.94214" lon="7.283">
        <ele>344.213</ele>
        <time>2014-10-18T14:41:46Z</time>
      </trkpt>
      <trkpt lat="43.94229" lon="7.28291">
        <ele>344.883</ele>
        <time>2014-10-18T14:41:50Z</time>
      </trkpt>
      <trkpt lat="43.94241" lon="7.28285">
        <ele>345.264</ele>
        <time>2014-10-18T14:41:53Z</time>
      </trkpt>
      <trkpt lat="43.94271" lon="7.28294">
        <ele>347.428</ele>
        <time>2014-10-18T14:42:00Z</time>
      </trkpt>
      <trkpt lat="43.94285" lon="7.28302">
        <ele>348.875</ele>
        <time>2014-10-18T14:42:05Z</time>
      </trkpt>
      <trkpt lat="43.94292" lon="7.28305">
        <ele>349.524</ele>
        <time>2014-10-18T14:42:08Z</time>
      </trkpt>
      <trkpt lat="43.94295" lon="7.28309">
        <ele>348.461</ele>
        <time>2014-10-18T14:42:13Z</time>
      </trkpt>
      <trkpt lat="43.94295" lon="7.2831">
        <ele>346.219</ele>
        <time>2014-10-18T14:42:22Z</time>
      </trkpt>
      <trkpt lat="43.94296" lon="7.28311">
        <ele>342.153</ele>
        <time>2014-10-18T14:42:39Z</time>
      </trkpt>
    </trkseg>
  </trk>
</gpx>